<?xml version='1.0' encoding='UTF-8'?><gpx version="1.1" creator="JPX - https://github.com/jenetics/jpx" xmlns="http://www.topografix.com/GPX/1/1"><trk><trkseg><trkpt lat="42.06166861401843" lon="12.999276228688698"><ele>675.8333333333334</ele><time>2026-04-12T13:40:36Z</time></trkpt><trkpt lat="42.06159512607093" lon="12.999291939857178"><ele>676.6666666666666</ele><time>2026-04-12T13:40:44Z</time></trkpt><trkpt lat="42.0615170411412" lon="12.999353881194361"><ele>677.5</ele><time>2026-04-12T13:41:21.999Z</time></trkpt><trkpt lat="42.061487820813525" lon="12.999512562555354"><ele>678.3333333333333</ele><time>2026-04-12T13:41:29.999Z</time></trkpt><trkpt lat="42.0615136862483" lon="12.999609279956633"><ele>679.1666666666666</ele><time>2026-04-12T13:41:30.999Z</time></trkpt><trkpt lat="42.061544833456495" lon="12.99971534708211"><ele>680.0</ele><time>2026-04-12T13:41:31.999Z</time></trkpt><trkpt lat="42.06156141685399" lon="12.999819659354387"><ele>680.0</ele><time>2026-04-12T13:41:32.999Z</time></trkpt><trkpt lat="42.061611542429276" lon="12.99997709078389"><ele>680.0</ele><time>2026-04-12T13:41:33.999Z</time></trkpt><trkpt lat="42.06165091157909" lon="13.000167250288364"><ele>680.0</ele><time>2026-04-12T13:41:34.999Z</time></trkpt><trkpt lat="42.061704578398775" lon="13.000362569775895"><ele>680.0</ele><time>2026-04-12T13:41:35.999Z</time></trkpt><trkpt lat="42.06172826003689" lon="13.00051957826387"><ele>678.75</ele><time>2026-04-12T13:41:36.999Z</time></trkpt><trkpt lat="42.06174605522254" lon="13.000681200872409"><ele>677.5</ele><time>2026-04-12T13:41:37.999Z</time></trkpt><trkpt lat="42.0617606632175" lon="13.000845434701057"><ele>676.25</ele><time>2026-04-12T13:41:38.999Z</time></trkpt><trkpt lat="42.06177118949135" lon="13.001008372104595"><ele>675.0</ele><time>2026-04-12T13:41:39.999Z</time></trkpt><trkpt lat="42.061771275967345" lon="13.001137001812458"><ele>674.8</ele><time>2026-04-12T13:41:40.999Z</time></trkpt><trkpt lat="42.06176487268684" lon="13.001278099179062"><ele>674.6</ele><time>2026-04-12T13:41:41.999Z</time></trkpt><trkpt lat="42.06175286588611" lon="13.00142187395911"><ele>674.4000000000001</ele><time>2026-04-12T13:41:42.999Z</time></trkpt><trkpt lat="42.061737611984995" lon="13.001565704610034"><ele>674.2</ele><time>2026-04-12T13:41:43.999Z</time></trkpt><trkpt lat="42.061717064442334" lon="13.001708473005772"><ele>674.0</ele><time>2026-04-12T13:41:44.999Z</time></trkpt><trkpt lat="42.06168433083058" lon="13.001847939164806"><ele>673.25</ele><time>2026-04-12T13:41:45.999Z</time></trkpt><trkpt lat="42.06163100581467" lon="13.001991185618431"><ele>672.5</ele><time>2026-04-12T13:41:46.999Z</time></trkpt><trkpt lat="42.06157305573663" lon="13.002158775203737"><ele>671.75</ele><time>2026-04-12T13:41:47.999Z</time></trkpt><trkpt lat="42.06149644418897" lon="13.00233498420979"><ele>671.0</ele><time>2026-04-12T13:41:48.999Z</time></trkpt><trkpt lat="42.061417413107826" lon="13.002494975589489"><ele>664.0</ele><time>2026-04-12T13:41:49.999Z</time></trkpt><trkpt lat="42.06136138081123" lon="13.002662007908942"><ele>657.0</ele><time>2026-04-12T13:41:50.999Z</time></trkpt><trkpt lat="42.06134639088673" lon="13.002832340224618"><ele>650.0</ele><time>2026-04-12T13:41:51.999Z</time></trkpt><trkpt lat="42.06134269018385" lon="13.002998135869962"><ele>643.0</ele><time>2026-04-12T13:41:52.999Z</time></trkpt><trkpt lat="42.06136697082796" lon="13.003182410993453"><ele>641.5</ele><time>2026-04-12T13:41:53.999Z</time></trkpt><trkpt lat="42.06129727830714" lon="13.003346380404421"><ele>640.0</ele><time>2026-04-12T13:41:54.999Z</time></trkpt><trkpt lat="42.061237458146906" lon="13.003521076524803"><ele>638.5</ele><time>2026-04-12T13:41:55.999Z</time></trkpt><trkpt lat="42.06119258211256" lon="13.003655567531"><ele>637.0</ele><time>2026-04-12T13:41:56.999Z</time></trkpt><trkpt lat="42.06116839688919" lon="13.003804013884448"><ele>637.0</ele><time>2026-04-12T13:41:57.999Z</time></trkpt><trkpt lat="42.06116355525774" lon="13.003983731674557"><ele>637.0</ele><time>2026-04-12T13:41:58.999Z</time></trkpt><trkpt lat="42.06117649871959" lon="13.004170150441503"><ele>637.0</ele><time>2026-04-12T13:41:59.999Z</time></trkpt><trkpt lat="42.061174187148495" lon="13.004371729385538"><ele>637.0</ele><time>2026-04-12T13:42:00.999Z</time></trkpt><trkpt lat="42.06117243388367" lon="13.004561014701487"><ele>637.0</ele><time>2026-04-12T13:42:01.999Z</time></trkpt><trkpt lat="42.06115303773582" lon="13.00474218114046"><ele>637.0</ele><time>2026-04-12T13:42:02.999Z</time></trkpt><trkpt lat="42.061127783983835" lon="13.0049347715803"><ele>637.0</ele><time>2026-04-12T13:42:03.999Z</time></trkpt><trkpt lat="42.06110145298737" lon="13.005135189393762"><ele>637.0</ele><time>2026-04-12T13:42:04.999Z</time></trkpt><trkpt lat="42.06107531437154" lon="13.005332661219036"><ele>636.6</ele><time>2026-04-12T13:42:05.999Z</time></trkpt><trkpt lat="42.0610539509092" lon="13.005498132830919"><ele>636.2</ele><time>2026-04-12T13:42:06.999Z</time></trkpt><trkpt lat="42.06103760241226" lon="13.005637354770903"><ele>635.8</ele><time>2026-04-12T13:42:07.999Z</time></trkpt><trkpt lat="42.06101887328121" lon="13.005768303395651"><ele>635.4</ele><time>2026-04-12T13:42:08.999Z</time></trkpt><trkpt lat="42.060987571228246" lon="13.005879797117537"><ele>635.0</ele><time>2026-04-12T13:42:09.999Z</time></trkpt><trkpt lat="42.06094516223923" lon="13.00597456301932"><ele>636.2</ele><time>2026-04-12T13:42:10.999Z</time></trkpt><trkpt lat="42.06089841896622" lon="13.006060825497089"><ele>637.4</ele><time>2026-04-12T13:42:11.999Z</time></trkpt><trkpt lat="42.06082543070239" lon="13.00612026398199"><ele>638.5999999999999</ele><time>2026-04-12T13:42:12.999Z</time></trkpt><trkpt lat="42.06072806842974" lon="13.006212307788044"><ele>639.8</ele><time>2026-04-12T13:42:13.999Z</time></trkpt><trkpt lat="42.06061085482067" lon="13.006318693116889"><ele>641.0</ele><time>2026-04-12T13:42:15Z</time></trkpt><trkpt lat="42.06048877375609" lon="13.006452213621786"><ele>637.0</ele><time>2026-04-12T13:42:16Z</time></trkpt><trkpt lat="42.06035150597665" lon="13.006549120193343"><ele>633.0</ele><time>2026-04-12T13:42:17Z</time></trkpt><trkpt lat="42.06023803504483" lon="13.006645568889388"><ele>629.0</ele><time>2026-04-12T13:42:18Z</time></trkpt><trkpt lat="42.06013483175486" lon="13.006746228525236"><ele>625.0</ele><time>2026-04-12T13:42:19Z</time></trkpt><trkpt lat="42.0600508130058" lon="13.0068608946962"><ele>625.0</ele><time>2026-04-12T13:42:20Z</time></trkpt><trkpt lat="42.059976411079255" lon="13.006993900814063"><ele>625.0</ele><time>2026-04-12T13:42:21Z</time></trkpt><trkpt lat="42.059918970582274" lon="13.007164437695508"><ele>625.0</ele><time>2026-04-12T13:42:22Z</time></trkpt><trkpt lat="42.05988333841847" lon="13.007361401562342"><ele>625.0</ele><time>2026-04-12T13:42:23Z</time></trkpt><trkpt lat="42.05987942704816" lon="13.007586157359562"><ele>618.6666666666667</ele><time>2026-04-12T13:42:24Z</time></trkpt><trkpt lat="42.059865314184954" lon="13.0078095435932"><ele>612.3333333333334</ele><time>2026-04-12T13:42:25Z</time></trkpt><trkpt lat="42.05988235523263" lon="13.008030254225316"><ele>606.0</ele><time>2026-04-12T13:42:26Z</time></trkpt><trkpt lat="42.0599056454566" lon="13.008260606875988"><ele>607.0</ele><time>2026-04-12T13:42:27Z</time></trkpt><trkpt lat="42.05994136328391" lon="13.008474698211396"><ele>608.0</ele><time>2026-04-12T13:42:28Z</time></trkpt><trkpt lat="42.05998857649041" lon="13.008692217242709"><ele>609.0</ele><time>2026-04-12T13:42:29Z</time></trkpt><trkpt lat="42.06003766379349" lon="13.008893464579662"><ele>612.25</ele><time>2026-04-12T13:42:30Z</time></trkpt><trkpt lat="42.06008757910254" lon="13.009078636734042"><ele>615.5</ele><time>2026-04-12T13:42:31Z</time></trkpt><trkpt lat="42.060116767764825" lon="13.009263781244249"><ele>618.75</ele><time>2026-04-12T13:42:32Z</time></trkpt><trkpt lat="42.060092378326395" lon="13.009460059837274"><ele>622.0</ele><time>2026-04-12T13:42:33Z</time></trkpt><trkpt lat="42.06008106550029" lon="13.009665073551362"><ele>622.0</ele><time>2026-04-12T13:42:34Z</time></trkpt><trkpt lat="42.060070045379675" lon="13.009869392513846"><ele>622.0</ele><time>2026-04-12T13:42:35Z</time></trkpt><trkpt lat="42.06005819150267" lon="13.010072435003723"><ele>622.0</ele><time>2026-04-12T13:42:36Z</time></trkpt><trkpt lat="42.0600448220102" lon="13.010251578685383"><ele>622.0</ele><time>2026-04-12T13:42:37Z</time></trkpt><trkpt lat="42.06001376438649" lon="13.010414869008915"><ele>621.75</ele><time>2026-04-12T13:42:38Z</time></trkpt><trkpt lat="42.059965922161425" lon="13.010566775715294"><ele>621.5</ele><time>2026-04-12T13:42:39Z</time></trkpt><trkpt lat="42.059874576485136" lon="13.010690297369893"><ele>621.25</ele><time>2026-04-12T13:42:40Z</time></trkpt><trkpt lat="42.05979239209843" lon="13.010846969710359"><ele>621.0</ele><time>2026-04-12T13:42:41Z</time></trkpt><trkpt lat="42.059728579502526" lon="13.011031229268706"><ele>614.0</ele><time>2026-04-12T13:42:42Z</time></trkpt><trkpt lat="42.05965444534368" lon="13.011225732152615"><ele>607.0</ele><time>2026-04-12T13:42:43Z</time></trkpt><trkpt lat="42.05958291463231" lon="13.01142872336019"><ele>600.0</ele><time>2026-04-12T13:42:44Z</time></trkpt><trkpt lat="42.05951106885143" lon="13.011636784393199"><ele>601.3333333333334</ele><time>2026-04-12T13:42:45Z</time></trkpt><trkpt lat="42.059444727286795" lon="13.01185502640388"><ele>602.6666666666667</ele><time>2026-04-12T13:42:46Z</time></trkpt><trkpt lat="42.05938888521262" lon="13.012069853256168"><ele>604.0</ele><time>2026-04-12T13:42:47Z</time></trkpt><trkpt lat="42.05932408033574" lon="13.012273088210417"><ele>604.0</ele><time>2026-04-12T13:42:48Z</time></trkpt><trkpt lat="42.05925558730059" lon="13.012458071114905"><ele>604.0</ele><time>2026-04-12T13:42:49Z</time></trkpt><trkpt lat="42.059195496293576" lon="13.012621657284155"><ele>604.0</ele><time>2026-04-12T13:42:50Z</time></trkpt><trkpt lat="42.05914662091158" lon="13.012761958469408"><ele>604.0</ele><time>2026-04-12T13:42:51Z</time></trkpt><trkpt lat="42.05911368529135" lon="13.012880491375038"><ele>604.2</ele><time>2026-04-12T13:42:52Z</time></trkpt><trkpt lat="42.05910796561245" lon="13.012996789093927"><ele>604.4</ele><time>2026-04-12T13:42:53Z</time></trkpt><trkpt lat="42.05913191351788" lon="13.01312659495406"><ele>604.6</ele><time>2026-04-12T13:42:54Z</time></trkpt><trkpt lat="42.05917586870716" lon="13.013254888531645"><ele>604.8</ele><time>2026-04-12T13:42:55Z</time></trkpt><trkpt lat="42.0592531072276" lon="13.013388472843275"><ele>605.0</ele><time>2026-04-12T13:42:56Z</time></trkpt><trkpt lat="42.05934730311951" lon="13.01352648213643"><ele>604.5</ele><time>2026-04-12T13:42:57Z</time></trkpt><trkpt lat="42.059442902428465" lon="13.013635599117658"><ele>604.0</ele><time>2026-04-12T13:42:58Z</time></trkpt><trkpt lat="42.05954630917402" lon="13.013707700204876"><ele>603.5</ele><time>2026-04-12T13:42:59Z</time></trkpt><trkpt lat="42.05967196212947" lon="13.013739665871409"><ele>603.0</ele><time>2026-04-12T13:43:00Z</time></trkpt><trkpt lat="42.05980907685626" lon="13.013732053122196"><ele>603.0</ele><time>2026-04-12T13:43:01Z</time></trkpt><trkpt lat="42.05994508584803" lon="13.013733142374805"><ele>603.0</ele><time>2026-04-12T13:43:02Z</time></trkpt><trkpt lat="42.06005229781612" lon="13.013768649865176"><ele>603.0</ele><time>2026-04-12T13:43:03Z</time></trkpt><trkpt lat="42.06015130066412" lon="13.01383020899416"><ele>603.0</ele><time>2026-04-12T13:43:04Z</time></trkpt><trkpt lat="42.060194255298136" lon="13.013968442508439"><ele>603.0</ele><time>2026-04-12T13:43:05Z</time></trkpt><trkpt lat="42.06023183211322" lon="13.014089656307876"><ele>603.0</ele><time>2026-04-12T13:43:06Z</time></trkpt><trkpt lat="42.06027361149855" lon="13.014210094686925"><ele>603.0</ele><time>2026-04-12T13:43:06.999Z</time></trkpt><trkpt lat="42.06033175301493" lon="13.014334725193113"><ele>603.0</ele><time>2026-04-12T13:43:07.999Z</time></trkpt><trkpt lat="42.060380128986274" lon="13.014474712416774"><ele>603.0</ele><time>2026-04-12T13:43:08.999Z</time></trkpt><trkpt lat="42.06045093384217" lon="13.014649764511532"><ele>601.5</ele><time>2026-04-12T13:43:09.999Z</time></trkpt><trkpt lat="42.06054782794122" lon="13.014831693254266"><ele>600.0</ele><time>2026-04-12T13:43:10.999Z</time></trkpt><trkpt lat="42.0606363740834" lon="13.014997466558734"><ele>598.5</ele><time>2026-04-12T13:43:11.999Z</time></trkpt><trkpt lat="42.06069389098721" lon="13.01510442022483"><ele>597.0</ele><time>2026-04-12T13:43:12.999Z</time></trkpt><trkpt lat="42.06071918298995" lon="13.015209316895685"><ele>597.0</ele><time>2026-04-12T13:43:13.999Z</time></trkpt><trkpt lat="42.06065166194148" lon="13.015315578528648"><ele>597.0</ele><time>2026-04-12T13:43:14.999Z</time></trkpt><trkpt lat="42.06061569995811" lon="13.015475722969924"><ele>597.0</ele><time>2026-04-12T13:43:15.999Z</time></trkpt><trkpt lat="42.060562562250134" lon="13.015613150320839"><ele>597.0</ele><time>2026-04-12T13:43:16.999Z</time></trkpt><trkpt lat="42.06052608090536" lon="13.015739859107855"><ele>597.0</ele><time>2026-04-12T13:43:17.999Z</time></trkpt><trkpt lat="42.06049640468609" lon="13.015864197294158"><ele>597.0</ele><time>2026-04-12T13:43:18.999Z</time></trkpt><trkpt lat="42.06046447755478" lon="13.015980299461802"><ele>597.0</ele><time>2026-04-12T13:43:19.999Z</time></trkpt><trkpt lat="42.06041571761919" lon="13.016095211045544"><ele>597.0</ele><time>2026-04-12T13:43:20.999Z</time></trkpt><trkpt lat="42.06034883455899" lon="13.016179690770825"><ele>597.0</ele><time>2026-04-12T13:43:21.999Z</time></trkpt><trkpt lat="42.06026295038077" lon="13.016187561038038"><ele>597.0</ele><time>2026-04-12T13:43:22.999Z</time></trkpt><trkpt lat="42.06018390595121" lon="13.01617766204646"><ele>597.0</ele><time>2026-04-12T13:43:23.999Z</time></trkpt><trkpt lat="42.060114544103634" lon="13.01609132130098"><ele>597.0</ele><time>2026-04-12T13:43:24.999Z</time></trkpt><trkpt lat="42.060076759266224" lon="13.015965867996853"><ele>597.0</ele><time>2026-04-12T13:43:25.999Z</time></trkpt><trkpt lat="42.06007814482224" lon="13.015821828099364"><ele>597.0</ele><time>2026-04-12T13:43:26.999Z</time></trkpt><trkpt lat="42.06009311200593" lon="13.015648766898257"><ele>597.0</ele><time>2026-04-12T13:43:27.999Z</time></trkpt><trkpt lat="42.06008752689649" lon="13.015470032706181"><ele>597.0</ele><time>2026-04-12T13:43:28.999Z</time></trkpt><trkpt lat="42.06008260731045" lon="13.015281841573344"><ele>597.0</ele><time>2026-04-12T13:43:29.999Z</time></trkpt><trkpt lat="42.06006716388404" lon="13.01511294916658"><ele>597.0</ele><time>2026-04-12T13:43:30.999Z</time></trkpt><trkpt lat="42.06003012909337" lon="13.014958047898624"><ele>597.0</ele><time>2026-04-12T13:43:31.999Z</time></trkpt><trkpt lat="42.05996768214726" lon="13.014837313367899"><ele>596.5</ele><time>2026-04-12T13:43:32.999Z</time></trkpt><trkpt lat="42.059881642031314" lon="13.014728944838057"><ele>596.0</ele><time>2026-04-12T13:43:33.999Z</time></trkpt><trkpt lat="42.05977076551221" lon="13.01465480845185"><ele>595.5</ele><time>2026-04-12T13:43:34.999Z</time></trkpt><trkpt lat="42.05963081264795" lon="13.014577441350832"><ele>595.0</ele><time>2026-04-12T13:43:35.999Z</time></trkpt><trkpt lat="42.059486075369485" lon="13.014541965909201"><ele>595.0</ele><time>2026-04-12T13:43:36.999Z</time></trkpt><trkpt lat="42.05933207641225" lon="13.014508468918736"><ele>595.0</ele><time>2026-04-12T13:43:37.999Z</time></trkpt><trkpt lat="42.059175966501535" lon="13.014509920542794"><ele>595.0</ele><time>2026-04-12T13:43:38.999Z</time></trkpt><trkpt lat="42.05901065083704" lon="13.014527865510955"><ele>594.3333333333334</ele><time>2026-04-12T13:43:39.999Z</time></trkpt><trkpt lat="42.05884094857517" lon="13.014552080121616"><ele>593.6666666666666</ele><time>2026-04-12T13:43:40.999Z</time></trkpt><trkpt lat="42.05866170221985" lon="13.014571343146494"><ele>593.0</ele><time>2026-04-12T13:43:41.999Z</time></trkpt><trkpt lat="42.05848820839028" lon="13.014569296242621"><ele>593.0</ele><time>2026-04-12T13:43:42.999Z</time></trkpt><trkpt lat="42.05832272118469" lon="13.01455148628134"><ele>593.0</ele><time>2026-04-12T13:43:43.999Z</time></trkpt><trkpt lat="42.058153419998014" lon="13.014517231061067"><ele>593.0</ele><time>2026-04-12T13:43:44.999Z</time></trkpt><trkpt lat="42.057991888776584" lon="13.014457676899475"><ele>590.5</ele><time>2026-04-12T13:43:45.999Z</time></trkpt><trkpt lat="42.05785547186544" lon="13.014387372416776"><ele>588.0</ele><time>2026-04-12T13:43:46.999Z</time></trkpt><trkpt lat="42.057730521854495" lon="13.014329747714651"><ele>585.5</ele><time>2026-04-12T13:43:47.999Z</time></trkpt><trkpt lat="42.05761711341479" lon="13.014307198506602"><ele>583.0</ele><time>2026-04-12T13:43:48.999Z</time></trkpt><trkpt lat="42.05750759570008" lon="13.014325204433025"><ele>580.25</ele><time>2026-04-12T13:43:49.999Z</time></trkpt><trkpt lat="42.057400553678754" lon="13.014386711450566"><ele>577.5</ele><time>2026-04-12T13:43:50.999Z</time></trkpt><trkpt lat="42.05729897026835" lon="13.01448146460074"><ele>574.75</ele><time>2026-04-12T13:43:51.999Z</time></trkpt><trkpt lat="42.05721219508782" lon="13.01460779669701"><ele>572.0</ele><time>2026-04-12T13:43:52.999Z</time></trkpt><trkpt lat="42.057138694311355" lon="13.014758858173323"><ele>572.0</ele><time>2026-04-12T13:43:53.999Z</time></trkpt><trkpt lat="42.05709565226711" lon="13.014928815083652"><ele>572.0</ele><time>2026-04-12T13:43:54.999Z</time></trkpt><trkpt lat="42.05706016389422" lon="13.01507770905152"><ele>572.0</ele><time>2026-04-12T13:43:55.999Z</time></trkpt><trkpt lat="42.057045959583725" lon="13.01519049719511"><ele>572.0</ele><time>2026-04-12T13:43:56.999Z</time></trkpt><trkpt lat="42.05704015489412" lon="13.015330460381842"><ele>572.0</ele><time>2026-04-12T13:43:58.999Z</time></trkpt><trkpt lat="42.057167196654376" lon="13.015418452564953"><ele>572.75</ele><time>2026-04-12T13:44:01.999Z</time></trkpt><trkpt lat="42.05726125970841" lon="13.015408157113317"><ele>573.5</ele><time>2026-04-12T13:44:02.999Z</time></trkpt><trkpt lat="42.05738132067402" lon="13.015395828649128"><ele>574.25</ele><time>2026-04-12T13:44:03.999Z</time></trkpt><trkpt lat="42.057527833082204" lon="13.01535816760778"><ele>575.0</ele><time>2026-04-12T13:44:04.999Z</time></trkpt><trkpt lat="42.05769255195629" lon="13.0153433420273"><ele>577.3333333333333</ele><time>2026-04-12T13:44:05.999Z</time></trkpt><trkpt lat="42.05787081085179" lon="13.015331848201935"><ele>579.6666666666666</ele><time>2026-04-12T13:44:06.999Z</time></trkpt><trkpt lat="42.058062826461075" lon="13.01533116698777"><ele>582.0</ele><time>2026-04-12T13:44:07.999Z</time></trkpt><trkpt lat="42.0582437850548" lon="13.01532564464055"><ele>585.6666666666666</ele><time>2026-04-12T13:44:08.999Z</time></trkpt><trkpt lat="42.05842472631055" lon="13.015330640231856"><ele>589.3333333333333</ele><time>2026-04-12T13:44:09.999Z</time></trkpt><trkpt lat="42.058588139126364" lon="13.015320415673372"><ele>593.0</ele><time>2026-04-12T13:44:10.999Z</time></trkpt><trkpt lat="42.05873620913619" lon="13.015306366968286"><ele>593.0</ele><time>2026-04-12T13:44:11.999Z</time></trkpt><trkpt lat="42.0588865466595" lon="13.015305009248344"><ele>593.0</ele><time>2026-04-12T13:44:12.999Z</time></trkpt><trkpt lat="42.05905037163906" lon="13.015342423813921"><ele>593.0</ele><time>2026-04-12T13:44:13.999Z</time></trkpt><trkpt lat="42.05922166464873" lon="13.015417680988199"><ele>594.0</ele><time>2026-04-12T13:44:14.999Z</time></trkpt><trkpt lat="42.05938474766295" lon="13.0155169663649"><ele>595.0</ele><time>2026-04-12T13:44:15.999Z</time></trkpt><trkpt lat="42.05951581764598" lon="13.01565501987762"><ele>596.0</ele><time>2026-04-12T13:44:16.999Z</time></trkpt><trkpt lat="42.0596331193166" lon="13.015830545273882"><ele>600.0</ele><time>2026-04-12T13:44:17.999Z</time></trkpt><trkpt lat="42.0597345030784" lon="13.016028183861398"><ele>604.0</ele><time>2026-04-12T13:44:18.999Z</time></trkpt><trkpt lat="42.05981184218158" lon="13.016232671156196"><ele>608.0</ele><time>2026-04-12T13:44:19.999Z</time></trkpt><trkpt lat="42.059860239364525" lon="13.016443978063023"><ele>614.0</ele><time>2026-04-12T13:44:21Z</time></trkpt><trkpt lat="42.05989673448125" lon="13.016664407020974"><ele>620.0</ele><time>2026-04-12T13:44:22Z</time></trkpt><trkpt lat="42.05990390183729" lon="13.01691040521432"><ele>626.0</ele><time>2026-04-12T13:44:23Z</time></trkpt><trkpt lat="42.05988778871834" lon="13.017150262323593"><ele>626.0</ele><time>2026-04-12T13:44:24Z</time></trkpt><trkpt lat="42.0598488186861" lon="13.017405975677288"><ele>626.0</ele><time>2026-04-12T13:44:25Z</time></trkpt><trkpt lat="42.0598144546145" lon="13.017661939815326"><ele>626.0</ele><time>2026-04-12T13:44:26Z</time></trkpt><trkpt lat="42.059788299128265" lon="13.017935575048849"><ele>625.0</ele><time>2026-04-12T13:44:27Z</time></trkpt><trkpt lat="42.059765728873465" lon="13.018209257168518"><ele>624.0</ele><time>2026-04-12T13:44:28Z</time></trkpt><trkpt lat="42.05974119009319" lon="13.018485248259225"><ele>623.0</ele><time>2026-04-12T13:44:29Z</time></trkpt><trkpt lat="42.05971225713973" lon="13.018759022390402"><ele>618.6666666666666</ele><time>2026-04-12T13:44:30Z</time></trkpt><trkpt lat="42.05968874321721" lon="13.019033934498642"><ele>614.3333333333334</ele><time>2026-04-12T13:44:31Z</time></trkpt><trkpt lat="42.05966003286181" lon="13.01931073732387"><ele>610.0</ele><time>2026-04-12T13:44:32Z</time></trkpt><trkpt lat="42.0596320296661" lon="13.019591973854597"><ele>609.3333333333334</ele><time>2026-04-12T13:44:33Z</time></trkpt><trkpt lat="42.05960572922058" lon="13.019874313107099"><ele>608.6666666666666</ele><time>2026-04-12T13:44:34Z</time></trkpt><trkpt lat="42.0595766362175" lon="13.020164354542885"><ele>608.0</ele><time>2026-04-12T13:44:35Z</time></trkpt><trkpt lat="42.059559102983506" lon="13.020455322424821"><ele>607.3333333333333</ele><time>2026-04-12T13:44:36Z</time></trkpt><trkpt lat="42.059552888769595" lon="13.020742605870481"><ele>606.6666666666666</ele><time>2026-04-12T13:44:37Z</time></trkpt><trkpt lat="42.05955524755584" lon="13.02103043597964"><ele>606.0</ele><time>2026-04-12T13:44:38Z</time></trkpt><trkpt lat="42.05956161996848" lon="13.021313365179637"><ele>606.0</ele><time>2026-04-12T13:44:39Z</time></trkpt><trkpt lat="42.059573609544564" lon="13.021597336324296"><ele>606.0</ele><time>2026-04-12T13:44:40Z</time></trkpt><trkpt lat="42.05958439405331" lon="13.021881316774952"><ele>606.0</ele><time>2026-04-12T13:44:41Z</time></trkpt><trkpt lat="42.05958787322158" lon="13.022153933569667"><ele>605.6666666666666</ele><time>2026-04-12T13:44:42Z</time></trkpt><trkpt lat="42.05959166061686" lon="13.022404661043637"><ele>605.3333333333333</ele><time>2026-04-12T13:44:43Z</time></trkpt><trkpt lat="42.05959777119057" lon="13.0226385303418"><ele>605.0</ele><time>2026-04-12T13:44:44Z</time></trkpt><trkpt lat="42.059610851673085" lon="13.022865875036896"><ele>606.0</ele><time>2026-04-12T13:44:45Z</time></trkpt><trkpt lat="42.05963535499326" lon="13.023100245705972"><ele>607.0</ele><time>2026-04-12T13:44:46Z</time></trkpt><trkpt lat="42.05967697963971" lon="13.023331597894295"><ele>608.0</ele><time>2026-04-12T13:44:47Z</time></trkpt><trkpt lat="42.059731449375164" lon="13.023561139136056"><ele>610.3333333333333</ele><time>2026-04-12T13:44:48Z</time></trkpt><trkpt lat="42.059789497642356" lon="13.023804189030223"><ele>612.6666666666666</ele><time>2026-04-12T13:44:49Z</time></trkpt><trkpt lat="42.05984831016006" lon="13.024060644928067"><ele>615.0</ele><time>2026-04-12T13:44:50Z</time></trkpt><trkpt lat="42.05990890614627" lon="13.02432078817168"><ele>615.3333333333334</ele><time>2026-04-12T13:44:51Z</time></trkpt><trkpt lat="42.05997082114752" lon="13.02459003633268"><ele>615.6666666666667</ele><time>2026-04-12T13:44:52Z</time></trkpt><trkpt lat="42.06003449199049" lon="13.024861803017098"><ele>616.0</ele><time>2026-04-12T13:44:53Z</time></trkpt><trkpt lat="42.06008623392135" lon="13.025114317454182"><ele>615.3333333333334</ele><time>2026-04-12T13:44:54Z</time></trkpt><trkpt lat="42.06014750443346" lon="13.025366763550018"><ele>614.6666666666666</ele><time>2026-04-12T13:44:55Z</time></trkpt><trkpt lat="42.060205987465665" lon="13.025635714586741"><ele>614.0</ele><time>2026-04-12T13:44:56Z</time></trkpt><trkpt lat="42.060264664190576" lon="13.025884956494535"><ele>614.0</ele><time>2026-04-12T13:44:57Z</time></trkpt><trkpt lat="42.06032089419224" lon="13.026120160408295"><ele>614.0</ele><time>2026-04-12T13:44:58Z</time></trkpt><trkpt lat="42.06037682612559" lon="13.026361090651646"><ele>614.0</ele><time>2026-04-12T13:44:59Z</time></trkpt><trkpt lat="42.06042958370263" lon="13.026609265209379"><ele>616.3333333333333</ele><time>2026-04-12T13:45:00Z</time></trkpt><trkpt lat="42.0604878513473" lon="13.026855803776307"><ele>618.6666666666666</ele><time>2026-04-12T13:45:01Z</time></trkpt><trkpt lat="42.060543808844166" lon="13.027103444519748"><ele>621.0</ele><time>2026-04-12T13:45:02Z</time></trkpt><trkpt lat="42.0606030790742" lon="13.027360295451347"><ele>624.3333333333334</ele><time>2026-04-12T13:45:03Z</time></trkpt><trkpt lat="42.060672396701555" lon="13.027606389410838"><ele>627.6666666666667</ele><time>2026-04-12T13:45:04Z</time></trkpt><trkpt lat="42.06073205719136" lon="13.02785222292891"><ele>631.0</ele><time>2026-04-12T13:45:05Z</time></trkpt><trkpt lat="42.06078806755057" lon="13.028100130947747"><ele>624.6666666666667</ele><time>2026-04-12T13:45:06Z</time></trkpt><trkpt lat="42.06084051442774" lon="13.028344397466018"><ele>618.3333333333334</ele><time>2026-04-12T13:45:07Z</time></trkpt><trkpt lat="42.06088858440266" lon="13.028585033766875"><ele>612.0</ele><time>2026-04-12T13:45:08Z</time></trkpt><trkpt lat="42.06092975408993" lon="13.028828049025988"><ele>612.0</ele><time>2026-04-12T13:45:09Z</time></trkpt><trkpt lat="42.06095185191362" lon="13.029074261924006"><ele>612.0</ele><time>2026-04-12T13:45:10Z</time></trkpt><trkpt lat="42.06095644476921" lon="13.029313390673764"><ele>612.0</ele><time>2026-04-12T13:45:11Z</time></trkpt><trkpt lat="42.06094240719618" lon="13.029557035646086"><ele>613.0</ele><time>2026-04-12T13:45:12Z</time></trkpt><trkpt lat="42.0609248632194" lon="13.029807847940813"><ele>614.0</ele><time>2026-04-12T13:45:13Z</time></trkpt><trkpt lat="42.06090404880076" lon="13.030051591688894"><ele>615.0</ele><time>2026-04-12T13:45:14Z</time></trkpt><trkpt lat="42.06088289794702" lon="13.030307091253407"><ele>615.0</ele><time>2026-04-12T13:45:15Z</time></trkpt><trkpt lat="42.06085845802228" lon="13.030578732517458"><ele>615.0</ele><time>2026-04-12T13:45:16Z</time></trkpt><trkpt lat="42.06084026531589" lon="13.03084177436752"><ele>615.0</ele><time>2026-04-12T13:45:17Z</time></trkpt><trkpt lat="42.060821486851026" lon="13.031088936529784"><ele>613.6666666666666</ele><time>2026-04-12T13:45:18Z</time></trkpt><trkpt lat="42.060797444312534" lon="13.031324364091226"><ele>612.3333333333333</ele><time>2026-04-12T13:45:19Z</time></trkpt><trkpt lat="42.060767133663404" lon="13.031572974154654"><ele>611.0</ele><time>2026-04-12T13:45:20Z</time></trkpt><trkpt lat="42.06074504025394" lon="13.031813666642059"><ele>616.0</ele><time>2026-04-12T13:45:21Z</time></trkpt><trkpt lat="42.06072934748098" lon="13.032051734298353"><ele>621.0</ele><time>2026-04-12T13:45:22Z</time></trkpt><trkpt lat="42.06071305587174" lon="13.032289944704724"><ele>626.0</ele><time>2026-04-12T13:45:23Z</time></trkpt><trkpt lat="42.06070647603567" lon="13.032516869800101"><ele>626.0</ele><time>2026-04-12T13:45:24Z</time></trkpt><trkpt lat="42.06071061182643" lon="13.032743692349184"><ele>626.0</ele><time>2026-04-12T13:45:25Z</time></trkpt><trkpt lat="42.060725479436975" lon="13.032970329883671"><ele>626.0</ele><time>2026-04-12T13:45:26Z</time></trkpt><trkpt lat="42.06075433050522" lon="13.033193358343922"><ele>621.6666666666666</ele><time>2026-04-12T13:45:26.999Z</time></trkpt><trkpt lat="42.06079171776091" lon="13.033415547839363"><ele>617.3333333333334</ele><time>2026-04-12T13:45:27.999Z</time></trkpt><trkpt lat="42.06083640308529" lon="13.033649231151974"><ele>613.0</ele><time>2026-04-12T13:45:28.999Z</time></trkpt><trkpt lat="42.06088187585738" lon="13.033873728721375"><ele>613.0</ele><time>2026-04-12T13:45:29.999Z</time></trkpt><trkpt lat="42.06092644548164" lon="13.034102953885762"><ele>613.0</ele><time>2026-04-12T13:45:30.999Z</time></trkpt><trkpt lat="42.06096923929944" lon="13.034324616407487"><ele>613.0</ele><time>2026-04-12T13:45:31.999Z</time></trkpt><trkpt lat="42.06101281665362" lon="13.034549479869675"><ele>612.6666666666667</ele><time>2026-04-12T13:45:32.999Z</time></trkpt><trkpt lat="42.06105036622436" lon="13.034773053111474"><ele>612.3333333333334</ele><time>2026-04-12T13:45:33.999Z</time></trkpt><trkpt lat="42.06108771570959" lon="13.034996986230832"><ele>612.0</ele><time>2026-04-12T13:45:34.999Z</time></trkpt><trkpt lat="42.06112140467915" lon="13.035220746705301"><ele>611.3333333333334</ele><time>2026-04-12T13:45:35.999Z</time></trkpt><trkpt lat="42.061155729584776" lon="13.035441148138668"><ele>610.6666666666667</ele><time>2026-04-12T13:45:36.999Z</time></trkpt><trkpt lat="42.06118793609402" lon="13.035658922980122"><ele>610.0</ele><time>2026-04-12T13:45:37.999Z</time></trkpt><trkpt lat="42.06121919536359" lon="13.035878852230123"><ele>610.0</ele><time>2026-04-12T13:45:38.999Z</time></trkpt><trkpt lat="42.06124007816709" lon="13.036095662341138"><ele>610.0</ele><time>2026-04-12T13:45:39.999Z</time></trkpt><trkpt lat="42.06124783021249" lon="13.036315447491003"><ele>610.0</ele><time>2026-04-12T13:45:40.999Z</time></trkpt><trkpt lat="42.061249360821776" lon="13.036537754505362"><ele>610.0</ele><time>2026-04-12T13:45:41.999Z</time></trkpt><trkpt lat="42.061255278134375" lon="13.036752337756642"><ele>610.0</ele><time>2026-04-12T13:45:42.999Z</time></trkpt><trkpt lat="42.06126540577738" lon="13.036968475047596"><ele>610.0</ele><time>2026-04-12T13:45:43.999Z</time></trkpt><trkpt lat="42.06127375769056" lon="13.03718377965911"><ele>610.0</ele><time>2026-04-12T13:45:44.999Z</time></trkpt><trkpt lat="42.06128087768021" lon="13.037392461037243"><ele>610.0</ele><time>2026-04-12T13:45:45.999Z</time></trkpt><trkpt lat="42.061286339616245" lon="13.037603575871115"><ele>610.0</ele><time>2026-04-12T13:45:46.999Z</time></trkpt><trkpt lat="42.06129334303663" lon="13.037805248654289"><ele>610.3333333333334</ele><time>2026-04-12T13:45:47.999Z</time></trkpt><trkpt lat="42.06130402717242" lon="13.0380149902356"><ele>610.6666666666666</ele><time>2026-04-12T13:45:48.999Z</time></trkpt><trkpt lat="42.0613200233293" lon="13.038233800421738"><ele>611.0</ele><time>2026-04-12T13:45:49.999Z</time></trkpt><trkpt lat="42.06134134129671" lon="13.038463835551767"><ele>611.3333333333333</ele><time>2026-04-12T13:45:50.999Z</time></trkpt><trkpt lat="42.0613680556995" lon="13.038701053880027"><ele>611.6666666666666</ele><time>2026-04-12T13:45:51.999Z</time></trkpt><trkpt lat="42.06140457841864" lon="13.038934001605654"><ele>612.0</ele><time>2026-04-12T13:45:52.999Z</time></trkpt><trkpt lat="42.061446801918" lon="13.039168873182744"><ele>612.6666666666666</ele><time>2026-04-12T13:45:53.999Z</time></trkpt><trkpt lat="42.06150412459035" lon="13.039399302810969"><ele>613.3333333333333</ele><time>2026-04-12T13:45:54.999Z</time></trkpt><trkpt lat="42.061575872814025" lon="13.039625105625412"><ele>614.0</ele><time>2026-04-12T13:45:55.999Z</time></trkpt><trkpt lat="42.06166117440037" lon="13.039852089292735"><ele>617.0</ele><time>2026-04-12T13:45:56.999Z</time></trkpt><trkpt lat="42.06176113994205" lon="13.040087713602466"><ele>620.0</ele><time>2026-04-12T13:45:57.999Z</time></trkpt><trkpt lat="42.061873609114" lon="13.040313610985859"><ele>623.0</ele><time>2026-04-12T13:45:58.999Z</time></trkpt><trkpt lat="42.06199022420763" lon="13.040527992949354"><ele>623.0</ele><time>2026-04-12T13:45:59.999Z</time></trkpt><trkpt lat="42.06210657071585" lon="13.04073180504991"><ele>623.0</ele><time>2026-04-12T13:46:00.999Z</time></trkpt><trkpt lat="42.06222696477606" lon="13.040910751316071"><ele>623.0</ele><time>2026-04-12T13:46:01.999Z</time></trkpt><trkpt lat="42.06235264048676" lon="13.041063474572312"><ele>624.0</ele><time>2026-04-12T13:46:02.999Z</time></trkpt><trkpt lat="42.06249477559676" lon="13.041209199315373"><ele>625.0</ele><time>2026-04-12T13:46:03.999Z</time></trkpt><trkpt lat="42.06264209531862" lon="13.04134605476488"><ele>626.0</ele><time>2026-04-12T13:46:04.999Z</time></trkpt><trkpt lat="42.06278891095259" lon="13.041454013510734"><ele>626.0</ele><time>2026-04-12T13:46:05.999Z</time></trkpt><trkpt lat="42.062916763422095" lon="13.04153981578754"><ele>626.0</ele><time>2026-04-12T13:46:06.999Z</time></trkpt><trkpt lat="42.06302122409249" lon="13.04162856879956"><ele>626.0</ele><time>2026-04-12T13:46:07.999Z</time></trkpt><trkpt lat="42.06309659003322" lon="13.041709792164033"><ele>626.0</ele><time>2026-04-12T13:46:08.999Z</time></trkpt><trkpt lat="42.06315740590067" lon="13.041794778671951"><ele>626.0</ele><time>2026-04-12T13:46:09.999Z</time></trkpt><trkpt lat="42.063198108030804" lon="13.04189233970427"><ele>626.0</ele><time>2026-04-12T13:46:10.999Z</time></trkpt><trkpt lat="42.06324252856485" lon="13.041961239871007"><ele>626.0</ele><time>2026-04-12T13:46:11.999Z</time></trkpt><trkpt lat="42.063249144488715" lon="13.042065051741554"><ele>626.0</ele><time>2026-04-12T13:46:12.999Z</time></trkpt><trkpt lat="42.06328109456992" lon="13.042158253957624"><ele>626.0</ele><time>2026-04-12T13:46:14.999Z</time></trkpt><trkpt lat="42.06332778091931" lon="13.042215487388258"><ele>626.0</ele><time>2026-04-12T13:46:18.999Z</time></trkpt><trkpt lat="42.06337138865499" lon="13.042289719187053"><ele>626.0</ele><time>2026-04-12T13:48:36Z</time></trkpt><trkpt lat="42.0635094160327" lon="13.042179735688805"><ele>626.0</ele><time>2026-04-12T13:56:11.999Z</time></trkpt><trkpt lat="42.06355973577197" lon="13.042090991887754"><ele>626.0</ele><time>2026-04-12T13:56:14.999Z</time></trkpt><trkpt lat="42.063496815585324" lon="13.041969593155612"><ele>626.0</ele><time>2026-04-12T13:56:16.999Z</time></trkpt><trkpt lat="42.063423423173994" lon="13.041926442445764"><ele>626.0</ele><time>2026-04-12T13:56:17.999Z</time></trkpt><trkpt lat="42.06334039138665" lon="13.041845420742906"><ele>626.0</ele><time>2026-04-12T13:56:18.999Z</time></trkpt><trkpt lat="42.06324517727662" lon="13.041760332222882"><ele>626.0</ele><time>2026-04-12T13:56:19.999Z</time></trkpt><trkpt lat="42.06312920284584" lon="13.041643378179959"><ele>626.0</ele><time>2026-04-12T13:56:20.999Z</time></trkpt><trkpt lat="42.062994629763494" lon="13.04152723039582"><ele>626.0</ele><time>2026-04-12T13:56:21.999Z</time></trkpt><trkpt lat="42.06284263135126" lon="13.041395676085129"><ele>626.0</ele><time>2026-04-12T13:56:22.999Z</time></trkpt><trkpt lat="42.06267923575806" lon="13.041262381718747"><ele>626.0</ele><time>2026-04-12T13:56:23.999Z</time></trkpt><trkpt lat="42.062509699229665" lon="13.041121482131587"><ele>626.0</ele><time>2026-04-12T13:56:24.999Z</time></trkpt><trkpt lat="42.0623350539387" lon="13.040947325953347"><ele>625.0</ele><time>2026-04-12T13:56:25.999Z</time></trkpt><trkpt lat="42.06218412146748" lon="13.040774844243431"><ele>624.0</ele><time>2026-04-12T13:56:26.999Z</time></trkpt><trkpt lat="42.06205451856557" lon="13.040561740885705"><ele>623.0</ele><time>2026-04-12T13:56:27.999Z</time></trkpt><trkpt lat="42.061950774161694" lon="13.040332801674225"><ele>623.0</ele><time>2026-04-12T13:56:28.999Z</time></trkpt><trkpt lat="42.061858356741624" lon="13.040129640662505"><ele>623.0</ele><time>2026-04-12T13:56:29.999Z</time></trkpt><trkpt lat="42.061777491970666" lon="13.039936140045008"><ele>623.0</ele><time>2026-04-12T13:56:30.999Z</time></trkpt><trkpt lat="42.06170384362621" lon="13.039749940267663"><ele>622.3333333333333</ele><time>2026-04-12T13:56:31.999Z</time></trkpt><trkpt lat="42.06163646524887" lon="13.039558495538259"><ele>621.6666666666666</ele><time>2026-04-12T13:56:32.999Z</time></trkpt><trkpt lat="42.06157392252278" lon="13.039361877849219"><ele>621.0</ele><time>2026-04-12T13:56:33.999Z</time></trkpt><trkpt lat="42.06151948758722" lon="13.039165981512053"><ele>618.0</ele><time>2026-04-12T13:56:34.999Z</time></trkpt><trkpt lat="42.061471494147455" lon="13.03896068605755"><ele>615.0</ele><time>2026-04-12T13:56:35.999Z</time></trkpt><trkpt lat="42.061436341542944" lon="13.038751465907367"><ele>612.0</ele><time>2026-04-12T13:56:36.999Z</time></trkpt><trkpt lat="42.061409981415" lon="13.038537821426132"><ele>612.0</ele><time>2026-04-12T13:56:37.999Z</time></trkpt><trkpt lat="42.06138728025243" lon="13.03831158640861"><ele>612.0</ele><time>2026-04-12T13:56:38.999Z</time></trkpt><trkpt lat="42.06137487088511" lon="13.038071085648797"><ele>612.0</ele><time>2026-04-12T13:56:39.999Z</time></trkpt><trkpt lat="42.06136310060833" lon="13.037820508413542"><ele>611.6666666666666</ele><time>2026-04-12T13:56:40.999Z</time></trkpt><trkpt lat="42.06135558247228" lon="13.03757038196838"><ele>611.3333333333333</ele><time>2026-04-12T13:56:41.999Z</time></trkpt><trkpt lat="42.06134863006564" lon="13.0373193248979"><ele>611.0</ele><time>2026-04-12T13:56:42.999Z</time></trkpt><trkpt lat="42.06133689406553" lon="13.037066445095672"><ele>610.6666666666666</ele><time>2026-04-12T13:56:43.999Z</time></trkpt><trkpt lat="42.06132847490089" lon="13.03681654606685"><ele>610.3333333333334</ele><time>2026-04-12T13:56:44.999Z</time></trkpt><trkpt lat="42.061318101980554" lon="13.036580930391322"><ele>610.0</ele><time>2026-04-12T13:56:45.999Z</time></trkpt><trkpt lat="42.06130230933493" lon="13.036356755906036"><ele>610.0</ele><time>2026-04-12T13:56:46.999Z</time></trkpt><trkpt lat="42.061295996587745" lon="13.036156698635379"><ele>610.0</ele><time>2026-04-12T13:56:47.999Z</time></trkpt><trkpt lat="42.06128595936288" lon="13.035964985649999"><ele>610.0</ele><time>2026-04-12T13:56:48.999Z</time></trkpt><trkpt lat="42.06127622438717" lon="13.035782093712228"><ele>610.0</ele><time>2026-04-12T13:56:49.999Z</time></trkpt><trkpt lat="42.06125029117979" lon="13.035579165879797"><ele>610.0</ele><time>2026-04-12T13:56:50.999Z</time></trkpt><trkpt lat="42.061210889587656" lon="13.035374380341812"><ele>610.0</ele><time>2026-04-12T13:56:51.999Z</time></trkpt><trkpt lat="42.061169951644224" lon="13.03516831006884"><ele>610.0</ele><time>2026-04-12T13:56:52.999Z</time></trkpt><trkpt lat="42.06112854587597" lon="13.034960002342643"><ele>610.6666666666667</ele><time>2026-04-12T13:56:53.999Z</time></trkpt><trkpt lat="42.06109426226914" lon="13.034763347183357"><ele>611.3333333333334</ele><time>2026-04-12T13:56:54.999Z</time></trkpt><trkpt lat="42.0610616519028" lon="13.034560742279021"><ele>612.0</ele><time>2026-04-12T13:56:55.999Z</time></trkpt><trkpt lat="42.06102560554921" lon="13.034342354690542"><ele>612.3333333333334</ele><time>2026-04-12T13:56:57Z</time></trkpt><trkpt lat="42.06098955596368" lon="13.03412973098857"><ele>612.6666666666667</ele><time>2026-04-12T13:56:58Z</time></trkpt><trkpt lat="42.060947550809566" lon="13.033916925713203"><ele>613.0</ele><time>2026-04-12T13:56:59Z</time></trkpt><trkpt lat="42.06090743519997" lon="13.03370322179117"><ele>613.0</ele><time>2026-04-12T13:57:00Z</time></trkpt><trkpt lat="42.060865943126025" lon="13.033486551819935"><ele>613.0</ele><time>2026-04-12T13:57:01Z</time></trkpt><trkpt lat="42.06082525539423" lon="13.033262105230609"><ele>613.0</ele><time>2026-04-12T13:57:02Z</time></trkpt><trkpt lat="42.0607875693948" lon="13.033038284782888"><ele>617.3333333333334</ele><time>2026-04-12T13:57:03Z</time></trkpt><trkpt lat="42.060764576755595" lon="13.032811371636852"><ele>621.6666666666666</ele><time>2026-04-12T13:57:04Z</time></trkpt><trkpt lat="42.06075238292359" lon="13.032581885874075"><ele>626.0</ele><time>2026-04-12T13:57:05Z</time></trkpt><trkpt lat="42.060752997946295" lon="13.032349380231878"><ele>627.3333333333333</ele><time>2026-04-12T13:57:06Z</time></trkpt><trkpt lat="42.06076414288187" lon="13.032112477881522"><ele>628.6666666666666</ele><time>2026-04-12T13:57:07Z</time></trkpt><trkpt lat="42.06078093701952" lon="13.031880249994325"><ele>630.0</ele><time>2026-04-12T13:57:08Z</time></trkpt><trkpt lat="42.06080092751862" lon="13.031649615717843"><ele>623.6666666666666</ele><time>2026-04-12T13:57:09Z</time></trkpt><trkpt lat="42.06082048024471" lon="13.031421080115324"><ele>617.3333333333333</ele><time>2026-04-12T13:57:10Z</time></trkpt><trkpt lat="42.060841448621005" lon="13.031190769497556"><ele>611.0</ele><time>2026-04-12T13:57:11Z</time></trkpt><trkpt lat="42.06086489280639" lon="13.030964425438821"><ele>612.3333333333333</ele><time>2026-04-12T13:57:12Z</time></trkpt><trkpt lat="42.06088657127879" lon="13.030738546067067"><ele>613.6666666666666</ele><time>2026-04-12T13:57:13Z</time></trkpt><trkpt lat="42.060905359411166" lon="13.030508396807758"><ele>615.0</ele><time>2026-04-12T13:57:14Z</time></trkpt><trkpt lat="42.06092346931929" lon="13.030277936677482"><ele>615.0</ele><time>2026-04-12T13:57:15Z</time></trkpt><trkpt lat="42.06094395941174" lon="13.030046892181415"><ele>615.0</ele><time>2026-04-12T13:57:16Z</time></trkpt><trkpt lat="42.0609750129661" lon="13.029823669111776"><ele>615.0</ele><time>2026-04-12T13:57:17Z</time></trkpt><trkpt lat="42.06098676162075" lon="13.029596031098672"><ele>615.3333333333334</ele><time>2026-04-12T13:57:18Z</time></trkpt><trkpt lat="42.060997944104614" lon="13.02936535572231"><ele>615.6666666666667</ele><time>2026-04-12T13:57:19Z</time></trkpt><trkpt lat="42.06099771393766" lon="13.029137651073437"><ele>616.0</ele><time>2026-04-12T13:57:19.999Z</time></trkpt><trkpt lat="42.06098290350503" lon="13.028910347370728"><ele>614.6666666666667</ele><time>2026-04-12T13:57:20.999Z</time></trkpt><trkpt lat="42.06095376420303" lon="13.028685181696877"><ele>613.3333333333334</ele><time>2026-04-12T13:57:21.999Z</time></trkpt><trkpt lat="42.06091431035624" lon="13.028461178915776"><ele>612.0</ele><time>2026-04-12T13:57:22.999Z</time></trkpt><trkpt lat="42.06086695881143" lon="13.028239238947105"><ele>611.6666666666666</ele><time>2026-04-12T13:57:23.999Z</time></trkpt><trkpt lat="42.06081931173025" lon="13.028018279559024"><ele>611.3333333333333</ele><time>2026-04-12T13:57:24.999Z</time></trkpt><trkpt lat="42.06076854693332" lon="13.027796407175623"><ele>611.0</ele><time>2026-04-12T13:57:25.999Z</time></trkpt><trkpt lat="42.060722516446695" lon="13.027593385605307"><ele>614.3333333333333</ele><time>2026-04-12T13:57:26.999Z</time></trkpt><trkpt lat="42.06067827203111" lon="13.027390092080584"><ele>617.6666666666666</ele><time>2026-04-12T13:57:27.999Z</time></trkpt><trkpt lat="42.060630725034066" lon="13.027183719987491"><ele>621.0</ele><time>2026-04-12T13:57:28.999Z</time></trkpt><trkpt lat="42.06058323863368" lon="13.02697980664879"><ele>621.0</ele><time>2026-04-12T13:57:29.999Z</time></trkpt><trkpt lat="42.060534817331295" lon="13.026776338458859"><ele>621.0</ele><time>2026-04-12T13:57:30.999Z</time></trkpt><trkpt lat="42.0604888422988" lon="13.026570949822567"><ele>621.0</ele><time>2026-04-12T13:57:31.999Z</time></trkpt><trkpt lat="42.06044262662157" lon="13.026364882457223"><ele>618.6666666666666</ele><time>2026-04-12T13:57:32.999Z</time></trkpt><trkpt lat="42.06039380919211" lon="13.026163837010293"><ele>616.3333333333333</ele><time>2026-04-12T13:57:33.999Z</time></trkpt><trkpt lat="42.06034497041885" lon="13.025959107384624"><ele>614.0</ele><time>2026-04-12T13:57:34.999Z</time></trkpt><trkpt lat="42.0602983769935" lon="13.02575468961285"><ele>613.6666666666666</ele><time>2026-04-12T13:57:35.999Z</time></trkpt><trkpt lat="42.06025622667103" lon="13.025542512647123"><ele>613.3333333333334</ele><time>2026-04-12T13:57:36.999Z</time></trkpt><trkpt lat="42.060210228858395" lon="13.025325737140802"><ele>613.0</ele><time>2026-04-12T13:57:37.999Z</time></trkpt><trkpt lat="42.06016101942054" lon="13.025109912690159"><ele>614.0</ele><time>2026-04-12T13:57:38.999Z</time></trkpt><trkpt lat="42.060114937192964" lon="13.024892320045668"><ele>615.0</ele><time>2026-04-12T13:57:39.999Z</time></trkpt><trkpt lat="42.06006619595441" lon="13.024671974550138"><ele>616.0</ele><time>2026-04-12T13:57:40.999Z</time></trkpt><trkpt lat="42.06001427914885" lon="13.024451027822979"><ele>616.0</ele><time>2026-04-12T13:57:41.999Z</time></trkpt><trkpt lat="42.0599644375051" lon="13.02422797771792"><ele>616.0</ele><time>2026-04-12T13:57:42.999Z</time></trkpt><trkpt lat="42.05991752153484" lon="13.024005787805217"><ele>616.0</ele><time>2026-04-12T13:57:43.999Z</time></trkpt><trkpt lat="42.05986890451369" lon="13.023786200400709"><ele>615.6666666666667</ele><time>2026-04-12T13:57:44.999Z</time></trkpt><trkpt lat="42.05981579894778" lon="13.023567698178601"><ele>615.3333333333334</ele><time>2026-04-12T13:57:45.999Z</time></trkpt><trkpt lat="42.0597680410485" lon="13.023345927582172"><ele>615.0</ele><time>2026-04-12T13:57:46.999Z</time></trkpt><trkpt lat="42.0597224384" lon="13.02313241975819"><ele>612.6666666666666</ele><time>2026-04-12T13:57:47.999Z</time></trkpt><trkpt lat="42.0596889637498" lon="13.022913325806373"><ele>610.3333333333333</ele><time>2026-04-12T13:57:48.999Z</time></trkpt><trkpt lat="42.05966769924047" lon="13.022690544344103"><ele>608.0</ele><time>2026-04-12T13:57:49.999Z</time></trkpt><trkpt lat="42.059655194318545" lon="13.02245755739476"><ele>607.0</ele><time>2026-04-12T13:57:50.999Z</time></trkpt><trkpt lat="42.05964394349713" lon="13.022214669408367"><ele>606.0</ele><time>2026-04-12T13:57:51.999Z</time></trkpt><trkpt lat="42.059639214006914" lon="13.021966199341497"><ele>605.0</ele><time>2026-04-12T13:57:52.999Z</time></trkpt><trkpt lat="42.059632328434354" lon="13.02171675769876"><ele>605.3333333333333</ele><time>2026-04-12T13:57:53.999Z</time></trkpt><trkpt lat="42.059624008140496" lon="13.021464527612443"><ele>605.6666666666666</ele><time>2026-04-12T13:57:54.999Z</time></trkpt><trkpt lat="42.059618478188696" lon="13.021214457615505"><ele>606.0</ele><time>2026-04-12T13:57:55.999Z</time></trkpt><trkpt lat="42.05960872439211" lon="13.020966138925344"><ele>606.0</ele><time>2026-04-12T13:57:56.999Z</time></trkpt><trkpt lat="42.05960506452619" lon="13.020720992064485"><ele>606.0</ele><time>2026-04-12T13:57:57.999Z</time></trkpt><trkpt lat="42.05960883043728" lon="13.020477583908507"><ele>606.0</ele><time>2026-04-12T13:57:58.999Z</time></trkpt><trkpt lat="42.059623149186734" lon="13.02023352613285"><ele>606.0</ele><time>2026-04-12T13:57:59.999Z</time></trkpt><trkpt lat="42.05964591900808" lon="13.019988709443792"><ele>606.0</ele><time>2026-04-12T13:58:00.999Z</time></trkpt><trkpt lat="42.05967062889048" lon="13.019746710356763"><ele>606.0</ele><time>2026-04-12T13:58:01.999Z</time></trkpt><trkpt lat="42.05969807980782" lon="13.019506402623511"><ele>606.6666666666666</ele><time>2026-04-12T13:58:02.999Z</time></trkpt><trkpt lat="42.05972491940116" lon="13.019267132424925"><ele>607.3333333333333</ele><time>2026-04-12T13:58:03.999Z</time></trkpt><trkpt lat="42.059747167072295" lon="13.019028116180326"><ele>608.0</ele><time>2026-04-12T13:58:04.999Z</time></trkpt><trkpt lat="42.05976978503565" lon="13.018791722923332"><ele>608.6666666666666</ele><time>2026-04-12T13:58:05.999Z</time></trkpt><trkpt lat="42.05979260733825" lon="13.01855624201231"><ele>609.3333333333334</ele><time>2026-04-12T13:58:06.999Z</time></trkpt><trkpt lat="42.05981465138863" lon="13.018321333616043"><ele>610.0</ele><time>2026-04-12T13:58:07.999Z</time></trkpt><trkpt lat="42.05983534709913" lon="13.018108295780717"><ele>608.0</ele><time>2026-04-12T13:58:08.999Z</time></trkpt><trkpt lat="42.05986110270666" lon="13.017908247236539"><ele>606.0</ele><time>2026-04-12T13:58:09.999Z</time></trkpt><trkpt lat="42.059902081024745" lon="13.017725675783893"><ele>604.0</ele><time>2026-04-12T13:58:10.999Z</time></trkpt><trkpt lat="42.05994523885834" lon="13.017547266807192"><ele>602.0</ele><time>2026-04-12T13:58:11.999Z</time></trkpt><trkpt lat="42.059983476291684" lon="13.017361594782187"><ele>602.0</ele><time>2026-04-12T13:58:12.999Z</time></trkpt><trkpt lat="42.06002017665371" lon="13.017190544915588"><ele>602.0</ele><time>2026-04-12T13:58:13.999Z</time></trkpt><trkpt lat="42.060051599895964" lon="13.017023670388445"><ele>602.0</ele><time>2026-04-12T13:58:14.999Z</time></trkpt><trkpt lat="42.060090417158875" lon="13.016863952659083"><ele>602.0</ele><time>2026-04-12T13:58:15.999Z</time></trkpt><trkpt lat="42.06013689023873" lon="13.016717233036987"><ele>601.0</ele><time>2026-04-12T13:58:16.999Z</time></trkpt><trkpt lat="42.06018979002894" lon="13.016579980022899"><ele>600.0</ele><time>2026-04-12T13:58:17.999Z</time></trkpt><trkpt lat="42.06024725918554" lon="13.016455798294443"><ele>599.0</ele><time>2026-04-12T13:58:18.999Z</time></trkpt><trkpt lat="42.06031253683285" lon="13.016347728077314"><ele>598.0</ele><time>2026-04-12T13:58:19.999Z</time></trkpt><trkpt lat="42.06036835786536" lon="13.016221554778035"><ele>597.0</ele><time>2026-04-12T13:58:20.999Z</time></trkpt><trkpt lat="42.06042399106217" lon="13.016088524060732"><ele>597.0</ele><time>2026-04-12T13:58:21.999Z</time></trkpt><trkpt lat="42.06052243950108" lon="13.015970387676903"><ele>597.0</ele><time>2026-04-12T13:58:22.999Z</time></trkpt><trkpt lat="42.06057156866592" lon="13.01581193379989"><ele>597.0</ele><time>2026-04-12T13:58:23.999Z</time></trkpt><trkpt lat="42.060615176237036" lon="13.015649783442909"><ele>597.0</ele><time>2026-04-12T13:58:24.999Z</time></trkpt><trkpt lat="42.060655249499554" lon="13.015488762700933"><ele>597.0</ele><time>2026-04-12T13:58:25.999Z</time></trkpt><trkpt lat="42.06068477313557" lon="13.015354815571762"><ele>597.0</ele><time>2026-04-12T13:58:26.999Z</time></trkpt><trkpt lat="42.06070944553239" lon="13.015240183619158"><ele>597.0</ele><time>2026-04-12T13:58:27.999Z</time></trkpt><trkpt lat="42.060721151269185" lon="13.01513956254388"><ele>597.0</ele><time>2026-04-12T13:58:28.999Z</time></trkpt><trkpt lat="42.06071490426148" lon="13.015039182092004"><ele>597.0</ele><time>2026-04-12T13:58:29.999Z</time></trkpt><trkpt lat="42.06067809168308" lon="13.014942622458623"><ele>597.0</ele><time>2026-04-12T13:58:30.999Z</time></trkpt><trkpt lat="42.06060880135676" lon="13.014848026785112"><ele>597.0</ele><time>2026-04-12T13:58:31.999Z</time></trkpt><trkpt lat="42.06053779714382" lon="13.01474167535238"><ele>597.0</ele><time>2026-04-12T13:58:32.999Z</time></trkpt><trkpt lat="42.06046788309377" lon="13.01461472883148"><ele>597.0</ele><time>2026-04-12T13:58:33.999Z</time></trkpt><trkpt lat="42.06040554851849" lon="13.014467406529116"><ele>597.0</ele><time>2026-04-12T13:58:34.999Z</time></trkpt><trkpt lat="42.06034831387026" lon="13.014308755657511"><ele>598.5</ele><time>2026-04-12T13:58:35.999Z</time></trkpt><trkpt lat="42.06029176261957" lon="13.01414564377966"><ele>600.0</ele><time>2026-04-12T13:58:36.999Z</time></trkpt><trkpt lat="42.06023782097015" lon="13.013978716902445"><ele>601.5</ele><time>2026-04-12T13:58:37.999Z</time></trkpt><trkpt lat="42.060170235203245" lon="13.01382411601028"><ele>603.0</ele><time>2026-04-12T13:58:38.999Z</time></trkpt><trkpt lat="42.060080274685596" lon="13.013701172461193"><ele>603.0</ele><time>2026-04-12T13:58:39.999Z</time></trkpt><trkpt lat="42.05996799895457" lon="13.013641017591684"><ele>603.0</ele><time>2026-04-12T13:58:40.999Z</time></trkpt><trkpt lat="42.05984709631613" lon="13.01361608137812"><ele>603.0</ele><time>2026-04-12T13:58:41.999Z</time></trkpt><trkpt lat="42.05972381198266" lon="13.013629622181455"><ele>603.0</ele><time>2026-04-12T13:58:42.999Z</time></trkpt><trkpt lat="42.059602960480355" lon="13.013628561370956"><ele>603.0</ele><time>2026-04-12T13:58:43.999Z</time></trkpt><trkpt lat="42.0594888559415" lon="13.01358848599569"><ele>603.0</ele><time>2026-04-12T13:58:44.999Z</time></trkpt><trkpt lat="42.05939017534039" lon="13.013504275656178"><ele>603.0</ele><time>2026-04-12T13:58:45.999Z</time></trkpt><trkpt lat="42.05930985270125" lon="13.013385799984535"><ele>603.0</ele><time>2026-04-12T13:58:46.999Z</time></trkpt><trkpt lat="42.05924670234166" lon="13.013250397549676"><ele>603.5</ele><time>2026-04-12T13:58:47.999Z</time></trkpt><trkpt lat="42.059189321348036" lon="13.01311060063547"><ele>604.0</ele><time>2026-04-12T13:58:48.999Z</time></trkpt><trkpt lat="42.05915453041333" lon="13.012975451542866"><ele>604.5</ele><time>2026-04-12T13:58:49.999Z</time></trkpt><trkpt lat="42.059156400834915" lon="13.012825548244935"><ele>605.0</ele><time>2026-04-12T13:58:50.999Z</time></trkpt><trkpt lat="42.05920219569761" lon="13.012685754057127"><ele>605.0</ele><time>2026-04-12T13:58:51.999Z</time></trkpt><trkpt lat="42.05924072377106" lon="13.012539791152422"><ele>605.0</ele><time>2026-04-12T13:58:52.999Z</time></trkpt><trkpt lat="42.05931062359917" lon="13.012393160554033"><ele>605.0</ele><time>2026-04-12T13:58:53.999Z</time></trkpt><trkpt lat="42.059378101309996" lon="13.012222758150795"><ele>605.0</ele><time>2026-04-12T13:58:54.999Z</time></trkpt><trkpt lat="42.0594425148474" lon="13.01202934824196"><ele>604.6666666666666</ele><time>2026-04-12T13:58:55.999Z</time></trkpt><trkpt lat="42.05950872148028" lon="13.011823786714952"><ele>604.3333333333334</ele><time>2026-04-12T13:58:56.999Z</time></trkpt><trkpt lat="42.05956644127532" lon="13.011603374467121"><ele>604.0</ele><time>2026-04-12T13:58:57.999Z</time></trkpt><trkpt lat="42.059635838140345" lon="13.011387405684394"><ele>602.6666666666667</ele><time>2026-04-12T13:58:58.999Z</time></trkpt><trkpt lat="42.05970789362808" lon="13.01117067093105"><ele>601.3333333333334</ele><time>2026-04-12T13:58:59.999Z</time></trkpt><trkpt lat="42.059779678228175" lon="13.010952539275626"><ele>600.0</ele><time>2026-04-12T13:59:00.999Z</time></trkpt><trkpt lat="42.05986354707914" lon="13.010781364158584"><ele>599.25</ele><time>2026-04-12T13:59:01.999Z</time></trkpt><trkpt lat="42.05993705234336" lon="13.010623651330302"><ele>598.5</ele><time>2026-04-12T13:59:03Z</time></trkpt><trkpt lat="42.06001421700059" lon="13.01047873618826"><ele>597.75</ele><time>2026-04-12T13:59:04Z</time></trkpt><trkpt lat="42.06006908610408" lon="13.01032278682071"><ele>597.0</ele><time>2026-04-12T13:59:05Z</time></trkpt><trkpt lat="42.06009642562916" lon="13.010136928577968"><ele>605.3333333333334</ele><time>2026-04-12T13:59:06Z</time></trkpt><trkpt lat="42.06010386538037" lon="13.009932993315974"><ele>613.6666666666667</ele><time>2026-04-12T13:59:07Z</time></trkpt><trkpt lat="42.06010972673252" lon="13.009719048252595"><ele>622.0</ele><time>2026-04-12T13:59:08Z</time></trkpt><trkpt lat="42.06012321528232" lon="13.009500486774042"><ele>622.0</ele><time>2026-04-12T13:59:09Z</time></trkpt><trkpt lat="42.060139337967634" lon="13.009287252378694"><ele>622.0</ele><time>2026-04-12T13:59:10Z</time></trkpt><trkpt lat="42.06012462575816" lon="13.00907021038113"><ele>622.0</ele><time>2026-04-12T13:59:11Z</time></trkpt><trkpt lat="42.060082329734115" lon="13.008846733293717"><ele>625.6666666666667</ele><time>2026-04-12T13:59:12Z</time></trkpt><trkpt lat="42.06001886742888" lon="13.00862366342072"><ele>629.3333333333334</ele><time>2026-04-12T13:59:13Z</time></trkpt><trkpt lat="42.05995355964707" lon="13.008401719826136"><ele>633.0</ele><time>2026-04-12T13:59:14Z</time></trkpt><trkpt lat="42.059913929911865" lon="13.008173012077757"><ele>624.0</ele><time>2026-04-12T13:59:15Z</time></trkpt><trkpt lat="42.05991924491922" lon="13.007944092770963"><ele>615.0</ele><time>2026-04-12T13:59:16Z</time></trkpt><trkpt lat="42.05991035970807" lon="13.00770977233416"><ele>606.0</ele><time>2026-04-12T13:59:17Z</time></trkpt><trkpt lat="42.059921380525296" lon="13.007474829063733"><ele>612.3333333333334</ele><time>2026-04-12T13:59:18Z</time></trkpt><trkpt lat="42.05995014241425" lon="13.00725611057529"><ele>618.6666666666667</ele><time>2026-04-12T13:59:19Z</time></trkpt><trkpt lat="42.060017809175086" lon="13.007060993196674"><ele>625.0</ele><time>2026-04-12T13:59:20Z</time></trkpt><trkpt lat="42.06010337158739" lon="13.00688016367219"><ele>625.0</ele><time>2026-04-12T13:59:21Z</time></trkpt><trkpt lat="42.06021011311734" lon="13.00673416697744"><ele>625.0</ele><time>2026-04-12T13:59:22Z</time></trkpt><trkpt lat="42.060341261400254" lon="13.006618969013152"><ele>625.0</ele><time>2026-04-12T13:59:23Z</time></trkpt><trkpt lat="42.06047056080082" lon="13.006481892885375"><ele>620.3333333333334</ele><time>2026-04-12T13:59:24Z</time></trkpt><trkpt lat="42.060614322413095" lon="13.006370159048615"><ele>615.6666666666666</ele><time>2026-04-12T13:59:25Z</time></trkpt><trkpt lat="42.060749264805736" lon="13.006242188832273"><ele>611.0</ele><time>2026-04-12T13:59:26Z</time></trkpt><trkpt lat="42.06088427447373" lon="13.006096044418236"><ele>617.0</ele><time>2026-04-12T13:59:27Z</time></trkpt><trkpt lat="42.06098963029525" lon="13.005948837136888"><ele>623.0</ele><time>2026-04-12T13:59:28Z</time></trkpt><trkpt lat="42.06105272695744" lon="13.005788038085136"><ele>629.0</ele><time>2026-04-12T13:59:29Z</time></trkpt><trkpt lat="42.061089661113236" lon="13.005601370440516"><ele>635.0</ele><time>2026-04-12T13:59:30Z</time></trkpt><trkpt lat="42.06111526730996" lon="13.00540435542426"><ele>635.0</ele><time>2026-04-12T13:59:30.999Z</time></trkpt><trkpt lat="42.061126317634596" lon="13.005201019491476"><ele>635.0</ele><time>2026-04-12T13:59:31.999Z</time></trkpt><trkpt lat="42.06115040094704" lon="13.005007465590438"><ele>635.0</ele><time>2026-04-12T13:59:32.999Z</time></trkpt><trkpt lat="42.061178393025266" lon="13.004809203066081"><ele>635.0</ele><time>2026-04-12T13:59:33.999Z</time></trkpt><trkpt lat="42.061195562853634" lon="13.004599287545798"><ele>635.5</ele><time>2026-04-12T13:59:34.999Z</time></trkpt><trkpt lat="42.0612054059347" lon="13.004397963585966"><ele>636.0</ele><time>2026-04-12T13:59:35.999Z</time></trkpt><trkpt lat="42.06120429343284" lon="13.004202148411263"><ele>636.5</ele><time>2026-04-12T13:59:36.999Z</time></trkpt><trkpt lat="42.06119575291731" lon="13.003995912138025"><ele>637.0</ele><time>2026-04-12T13:59:37.999Z</time></trkpt><trkpt lat="42.06119762912836" lon="13.00378563626924"><ele>637.0</ele><time>2026-04-12T13:59:38.999Z</time></trkpt><trkpt lat="42.06125119080633" lon="13.003580459541022"><ele>637.0</ele><time>2026-04-12T13:59:39.999Z</time></trkpt><trkpt lat="42.061323417529486" lon="13.003377909009345"><ele>637.0</ele><time>2026-04-12T13:59:40.999Z</time></trkpt><trkpt lat="42.061381817675006" lon="13.003179301901"><ele>638.5</ele><time>2026-04-12T13:59:41.999Z</time></trkpt><trkpt lat="42.06140054866804" lon="13.00298845173976"><ele>640.0</ele><time>2026-04-12T13:59:42.999Z</time></trkpt><trkpt lat="42.06140480881271" lon="13.002798218903035"><ele>641.5</ele><time>2026-04-12T13:59:43.999Z</time></trkpt><trkpt lat="42.0614078977667" lon="13.002595613962349"><ele>643.0</ele><time>2026-04-12T13:59:44.999Z</time></trkpt><trkpt lat="42.06148478558776" lon="13.002426594708366"><ele>652.3333333333334</ele><time>2026-04-12T13:59:45.999Z</time></trkpt><trkpt lat="42.061563550788456" lon="13.002243881443572"><ele>661.6666666666666</ele><time>2026-04-12T13:59:46.999Z</time></trkpt><trkpt lat="42.061631269207965" lon="13.002045385512835"><ele>671.0</ele><time>2026-04-12T13:59:47.999Z</time></trkpt><trkpt lat="42.06170218834964" lon="13.00184839254303"><ele>672.0</ele><time>2026-04-12T13:59:48.999Z</time></trkpt><trkpt lat="42.06175840732845" lon="13.001643457374579"><ele>673.0</ele><time>2026-04-12T13:59:49.999Z</time></trkpt><trkpt lat="42.0617858273613" lon="13.001430055786871"><ele>674.0</ele><time>2026-04-12T13:59:50.999Z</time></trkpt><trkpt lat="42.06179504465639" lon="13.00121231768934"><ele>674.0</ele><time>2026-04-12T13:59:51.999Z</time></trkpt><trkpt lat="42.06179022304572" lon="13.00099961947059"><ele>674.0</ele><time>2026-04-12T13:59:52.999Z</time></trkpt><trkpt lat="42.061782954518186" lon="13.000792110597606"><ele>674.0</ele><time>2026-04-12T13:59:53.999Z</time></trkpt><trkpt lat="42.061759778860406" lon="13.000582511686773"><ele>674.3333333333333</ele><time>2026-04-12T13:59:54.999Z</time></trkpt><trkpt lat="42.06172766400438" lon="13.00037702934298"><ele>674.6666666666666</ele><time>2026-04-12T13:59:55.999Z</time></trkpt><trkpt lat="42.06167738534983" lon="13.000176444829636"><ele>675.0</ele><time>2026-04-12T13:59:56.999Z</time></trkpt><trkpt lat="42.06161356442675" lon="12.999992176642808"><ele>676.25</ele><time>2026-04-12T13:59:57.999Z</time></trkpt><trkpt lat="42.06157685788424" lon="12.99980742574874"><ele>677.5</ele><time>2026-04-12T13:59:58.999Z</time></trkpt><trkpt lat="42.06155157253807" lon="12.999636999111623"><ele>678.75</ele><time>2026-04-12T13:59:59.999Z</time></trkpt><trkpt lat="42.06150400051583" lon="12.999484486581018"><ele>680.0</ele><time>2026-04-12T14:00:00.999Z</time></trkpt><trkpt lat="42.06147623882914" lon="12.999349333267507"><ele>680.0</ele><time>2026-04-12T14:00:01.999Z</time></trkpt><trkpt lat="42.0614272921099" lon="12.999224077572903"><ele>680.0</ele><time>2026-04-12T14:00:02.999Z</time></trkpt><trkpt lat="42.06136744686385" lon="12.999117364470615"><ele>680.0</ele><time>2026-04-12T14:00:03.999Z</time></trkpt><trkpt lat="42.061298467373014" lon="12.999020115875867"><ele>680.0</ele><time>2026-04-12T14:00:04.999Z</time></trkpt><trkpt lat="42.06122464111489" lon="12.998946024782581"><ele>680.0</ele><time>2026-04-12T14:00:05.999Z</time></trkpt><trkpt lat="42.06113090757066" lon="12.998884930955146"><ele>679.25</ele><time>2026-04-12T14:00:06.999Z</time></trkpt><trkpt lat="42.0610264207224" lon="12.998808957934562"><ele>678.5</ele><time>2026-04-12T14:00:07.999Z</time></trkpt><trkpt lat="42.0609235796065" lon="12.998727639924583"><ele>677.75</ele><time>2026-04-12T14:00:08.999Z</time></trkpt><trkpt lat="42.060810795209406" lon="12.998637277424335"><ele>677.0</ele><time>2026-04-12T14:00:09.999Z</time></trkpt><trkpt lat="42.06068611868458" lon="12.998539497142913"><ele>677.0</ele><time>2026-04-12T14:00:10.999Z</time></trkpt><trkpt lat="42.06056841031473" lon="12.998438418537683"><ele>677.0</ele><time>2026-04-12T14:00:11.999Z</time></trkpt><trkpt lat="42.06044976493132" lon="12.998343027741141"><ele>677.0</ele><time>2026-04-12T14:00:12.999Z</time></trkpt><trkpt lat="42.060323685673204" lon="12.998258218763263"><ele>677.0</ele><time>2026-04-12T14:00:13.999Z</time></trkpt><trkpt lat="42.060196368795495" lon="12.998176327285938"><ele>676.0</ele><time>2026-04-12T14:00:14.999Z</time></trkpt><trkpt lat="42.06008041981078" lon="12.99810204029053"><ele>675.0</ele><time>2026-04-12T14:00:15.999Z</time></trkpt><trkpt lat="42.059983456678474" lon="12.998040032995936"><ele>674.0</ele><time>2026-04-12T14:00:16.999Z</time></trkpt><trkpt lat="42.05990681703229" lon="12.99798375871508"><ele>673.0</ele><time>2026-04-12T14:00:17.999Z</time></trkpt><trkpt lat="42.05984567502398" lon="12.997939964980086"><ele>672.0</ele><time>2026-04-12T14:00:18.999Z</time></trkpt><trkpt lat="42.05975973585008" lon="12.9978762424432"><ele>673.8333333333334</ele><time>2026-04-12T14:00:20.999Z</time></trkpt><trkpt lat="42.059703623589684" lon="12.997803011671193"><ele>675.6666666666666</ele><time>2026-04-12T14:00:22.999Z</time></trkpt><trkpt lat="42.059651013243545" lon="12.997692372464654"><ele>677.5</ele><time>2026-04-12T14:00:25.999Z</time></trkpt><trkpt lat="42.059559841676254" lon="12.997660035743642"><ele>679.3333333333333</ele><time>2026-04-12T14:00:27.999Z</time></trkpt><trkpt lat="42.059502987112715" lon="12.997722032652465"><ele>681.1666666666666</ele><time>2026-04-12T14:00:29.999Z</time></trkpt><trkpt lat="42.05949018016344" lon="12.997821984561375"><ele>683.0</ele><time>2026-04-12T14:00:43.999Z</time></trkpt><trkpt lat="42.05943051459899" lon="12.997949690307802"><ele>683.0</ele><time>2026-04-12T14:00:45.999Z</time></trkpt><trkpt lat="42.059356633452595" lon="12.998060919113907"><ele>683.0</ele><time>2026-04-12T14:00:47.999Z</time></trkpt><trkpt lat="42.05928993452129" lon="12.998167919501117"><ele>683.0</ele><time>2026-04-12T14:00:49.999Z</time></trkpt><trkpt lat="42.05923585600712" lon="12.998277695525951"><ele>683.0</ele><time>2026-04-12T14:00:51.999Z</time></trkpt><trkpt lat="42.05923844987863" lon="12.99841048863281"><ele>683.0</ele><time>2026-04-12T14:00:53.999Z</time></trkpt><trkpt lat="42.0592849426962" lon="12.998540681807828"><ele>685.25</ele><time>2026-04-12T14:00:55.999Z</time></trkpt><trkpt lat="42.05933759372946" lon="12.998666353769924"><ele>687.5</ele><time>2026-04-12T14:00:57.999Z</time></trkpt><trkpt lat="42.059396950827775" lon="12.998806296800156"><ele>689.75</ele><time>2026-04-12T14:00:59.999Z</time></trkpt><trkpt lat="42.059402196323035" lon="12.998966347490821"><ele>692.0</ele><time>2026-04-12T14:01:01.999Z</time></trkpt><trkpt lat="42.0593769882791" lon="12.999118360751147"><ele>692.4000000000001</ele><time>2026-04-12T14:01:03.999Z</time></trkpt><trkpt lat="42.059344560481875" lon="12.999194897373737"><ele>692.8000000000001</ele><time>2026-04-12T14:01:04.999Z</time></trkpt><trkpt lat="42.05929687168046" lon="12.999347529259751"><ele>693.2</ele><time>2026-04-12T14:01:06.999Z</time></trkpt><trkpt lat="42.05925383902828" lon="12.999467603603437"><ele>693.6</ele><time>2026-04-12T14:01:09Z</time></trkpt><trkpt lat="42.05917374848464" lon="12.99944248218976"><ele>694.0</ele><time>2026-04-12T14:01:12Z</time></trkpt><trkpt lat="42.05908079637683" lon="12.999308297824586"><ele>694.0</ele><time>2026-04-12T14:01:14Z</time></trkpt><trkpt lat="42.059023836042336" lon="12.999240858946619"><ele>694.0</ele><time>2026-04-12T14:01:15Z</time></trkpt><trkpt lat="42.05895835268523" lon="12.999164245156946"><ele>694.0</ele><time>2026-04-12T14:01:16Z</time></trkpt><trkpt lat="42.05888513240079" lon="12.999080687905748"><ele>694.0</ele><time>2026-04-12T14:01:17Z</time></trkpt><trkpt lat="42.058805519077595" lon="12.998996013815306"><ele>694.0</ele><time>2026-04-12T14:01:18Z</time></trkpt><trkpt lat="42.05871319013588" lon="12.998912582169186"><ele>696.0</ele><time>2026-04-12T14:01:19Z</time></trkpt><trkpt lat="42.05861009427885" lon="12.998832191611644"><ele>698.0</ele><time>2026-04-12T14:01:20Z</time></trkpt><trkpt lat="42.05850857520843" lon="12.998743300268401"><ele>700.0</ele><time>2026-04-12T14:01:21Z</time></trkpt><trkpt lat="42.058394006481535" lon="12.998659423248888"><ele>702.0</ele><time>2026-04-12T14:01:22Z</time></trkpt><trkpt lat="42.05828448666926" lon="12.99855202154154"><ele>702.0</ele><time>2026-04-12T14:01:23Z</time></trkpt><trkpt lat="42.05816607357627" lon="12.998463352203164"><ele>702.0</ele><time>2026-04-12T14:01:24Z</time></trkpt><trkpt lat="42.0580644977214" lon="12.998339885117975"><ele>702.0</ele><time>2026-04-12T14:01:25Z</time></trkpt><trkpt lat="42.05795539674063" lon="12.998227728905825"><ele>702.0</ele><time>2026-04-12T14:01:26Z</time></trkpt><trkpt lat="42.057842609086" lon="12.998111373116899"><ele>703.25</ele><time>2026-04-12T14:01:27Z</time></trkpt><trkpt lat="42.05773379824778" lon="12.998000688509205"><ele>704.5</ele><time>2026-04-12T14:01:28Z</time></trkpt><trkpt lat="42.05763011494503" lon="12.997895219775835"><ele>705.75</ele><time>2026-04-12T14:01:29Z</time></trkpt><trkpt lat="42.05752628552251" lon="12.99779257913482"><ele>707.0</ele><time>2026-04-12T14:01:30Z</time></trkpt><trkpt lat="42.0574149049785" lon="12.997706140897956"><ele>708.25</ele><time>2026-04-12T14:01:31Z</time></trkpt><trkpt lat="42.05730951047612" lon="12.99761278478985"><ele>709.5</ele><time>2026-04-12T14:01:32Z</time></trkpt><trkpt lat="42.05719867211447" lon="12.997524721110294"><ele>710.75</ele><time>2026-04-12T14:01:33Z</time></trkpt><trkpt lat="42.05709363294685" lon="12.99743864884654"><ele>712.0</ele><time>2026-04-12T14:01:34Z</time></trkpt><trkpt lat="42.05698664677547" lon="12.9973472147183"><ele>711.25</ele><time>2026-04-12T14:01:35Z</time></trkpt><trkpt lat="42.056881491911255" lon="12.99725730024383"><ele>710.5</ele><time>2026-04-12T14:01:36Z</time></trkpt><trkpt lat="42.05676876145862" lon="12.997168990516268"><ele>709.75</ele><time>2026-04-12T14:01:37Z</time></trkpt><trkpt lat="42.056662209450515" lon="12.9970817246695"><ele>709.0</ele><time>2026-04-12T14:01:37.999Z</time></trkpt><trkpt lat="42.05655995999168" lon="12.997004871804346"><ele>709.0</ele><time>2026-04-12T14:01:38.999Z</time></trkpt><trkpt lat="42.0564513090224" lon="12.996956074790047"><ele>709.0</ele><time>2026-04-12T14:01:39.999Z</time></trkpt><trkpt lat="42.056349175191464" lon="12.99692503751575"><ele>709.0</ele><time>2026-04-12T14:01:40.999Z</time></trkpt><trkpt lat="42.056232658894544" lon="12.996898738532547"><ele>709.0</ele><time>2026-04-12T14:01:41.999Z</time></trkpt><trkpt lat="42.05610662794461" lon="12.996925097365883"><ele>709.0</ele><time>2026-04-12T14:01:42.999Z</time></trkpt><trkpt lat="42.0559804790929" lon="12.996951236318179"><ele>709.0</ele><time>2026-04-12T14:01:43.999Z</time></trkpt><trkpt lat="42.0558655245377" lon="12.996966547649594"><ele>709.0</ele><time>2026-04-12T14:01:44.999Z</time></trkpt><trkpt lat="42.05575488804952" lon="12.9970109551334"><ele>709.0</ele><time>2026-04-12T14:01:45.999Z</time></trkpt><trkpt lat="42.05566739377737" lon="12.997110045333352"><ele>708.2</ele><time>2026-04-12T14:01:46.999Z</time></trkpt><trkpt lat="42.05558499008895" lon="12.997193287828523"><ele>707.4000000000001</ele><time>2026-04-12T14:01:47.999Z</time></trkpt><trkpt lat="42.055495254997204" lon="12.997250233583346"><ele>706.6</ele><time>2026-04-12T14:01:48.999Z</time></trkpt><trkpt lat="42.05539039059876" lon="12.997276743226513"><ele>705.8</ele><time>2026-04-12T14:01:49.999Z</time></trkpt><trkpt lat="42.05528833214643" lon="12.997266752403888"><ele>705.0</ele><time>2026-04-12T14:01:50.999Z</time></trkpt><trkpt lat="42.05519265399016" lon="12.997214234593505"><ele>705.0</ele><time>2026-04-12T14:01:51.999Z</time></trkpt><trkpt lat="42.05509995014368" lon="12.9971285908857"><ele>705.0</ele><time>2026-04-12T14:01:52.999Z</time></trkpt><trkpt lat="42.05500254683819" lon="12.99702019208327"><ele>705.0</ele><time>2026-04-12T14:01:53.999Z</time></trkpt><trkpt lat="42.05489632332505" lon="12.996904779502877"><ele>705.0</ele><time>2026-04-12T14:01:54.999Z</time></trkpt><trkpt lat="42.054784349820714" lon="12.996790455704595"><ele>704.0</ele><time>2026-04-12T14:01:55.999Z</time></trkpt><trkpt lat="42.054668775127325" lon="12.996668815638902"><ele>703.0</ele><time>2026-04-12T14:01:56.999Z</time></trkpt><trkpt lat="42.05453676527583" lon="12.996574367390767"><ele>702.0</ele><time>2026-04-12T14:01:57.999Z</time></trkpt><trkpt lat="42.054392785057324" lon="12.996503661728582"><ele>701.0</ele><time>2026-04-12T14:01:58.999Z</time></trkpt><trkpt lat="42.05426922432808" lon="12.996397761904722"><ele>701.0</ele><time>2026-04-12T14:01:59.999Z</time></trkpt><trkpt lat="42.05415684271577" lon="12.99632473063575"><ele>701.0</ele><time>2026-04-12T14:02:00.999Z</time></trkpt><trkpt lat="42.05403641903781" lon="12.996242861156933"><ele>701.0</ele><time>2026-04-12T14:02:01.999Z</time></trkpt><trkpt lat="42.05391283414435" lon="12.996147627935446"><ele>701.0</ele><time>2026-04-12T14:02:02.999Z</time></trkpt><trkpt lat="42.053778011685644" lon="12.996067510669882"><ele>699.0</ele><time>2026-04-12T14:02:03.999Z</time></trkpt><trkpt lat="42.05365078395305" lon="12.995976292650015"><ele>697.0</ele><time>2026-04-12T14:02:04.999Z</time></trkpt><trkpt lat="42.053539894441805" lon="12.995893197614667"><ele>695.0</ele><time>2026-04-12T14:02:05.999Z</time></trkpt><trkpt lat="42.05343473362868" lon="12.99582330434372"><ele>693.0</ele><time>2026-04-12T14:02:06.999Z</time></trkpt><trkpt lat="42.05335280238997" lon="12.995733202089554"><ele>694.25</ele><time>2026-04-12T14:02:07.999Z</time></trkpt><trkpt lat="42.05325699183019" lon="12.995676811988412"><ele>695.5</ele><time>2026-04-12T14:02:08.999Z</time></trkpt><trkpt lat="42.053157323994924" lon="12.995605630110337"><ele>696.75</ele><time>2026-04-12T14:02:09.999Z</time></trkpt><trkpt lat="42.05305153065699" lon="12.99553731989145"><ele>698.0</ele><time>2026-04-12T14:02:10.999Z</time></trkpt><trkpt lat="42.05294411565547" lon="12.995466378487592"><ele>698.0</ele><time>2026-04-12T14:02:11.999Z</time></trkpt><trkpt lat="42.052836273896816" lon="12.995397071301456"><ele>698.0</ele><time>2026-04-12T14:02:12.999Z</time></trkpt><trkpt lat="42.052727045738706" lon="12.995333057555488"><ele>698.0</ele><time>2026-04-12T14:02:13.999Z</time></trkpt><trkpt lat="42.052628067346056" lon="12.99528314756034"><ele>698.0</ele><time>2026-04-12T14:02:14.999Z</time></trkpt><trkpt lat="42.052538805311194" lon="12.99526597696476"><ele>698.0</ele><time>2026-04-12T14:02:15.999Z</time></trkpt><trkpt lat="42.05243897843872" lon="12.99527614944008"><ele>702.0</ele><time>2026-04-12T14:02:16.999Z</time></trkpt><trkpt lat="42.05232951577475" lon="12.995296715136945"><ele>706.0</ele><time>2026-04-12T14:02:17.999Z</time></trkpt><trkpt lat="42.05221270398228" lon="12.995293820610277"><ele>710.0</ele><time>2026-04-12T14:02:18.999Z</time></trkpt><trkpt lat="42.05209794415591" lon="12.995277365459009"><ele>714.0</ele><time>2026-04-12T14:02:19.999Z</time></trkpt><trkpt lat="42.05198910193258" lon="12.995268599683941"><ele>714.0</ele><time>2026-04-12T14:02:20.999Z</time></trkpt><trkpt lat="42.051879589641445" lon="12.995245437297951"><ele>714.0</ele><time>2026-04-12T14:02:21.999Z</time></trkpt><trkpt lat="42.05178352569179" lon="12.995213029760595"><ele>714.0</ele><time>2026-04-12T14:02:22.999Z</time></trkpt><trkpt lat="42.051717336039" lon="12.995155805140463"><ele>714.0</ele><time>2026-04-12T14:02:23.999Z</time></trkpt><trkpt lat="42.05166127949369" lon="12.9951131266984"><ele>714.0</ele><time>2026-04-12T14:02:24.999Z</time></trkpt><trkpt lat="42.05158901595843" lon="12.995050597409739"><ele>714.0</ele><time>2026-04-12T14:02:25.999Z</time></trkpt><trkpt lat="42.051514197531226" lon="12.994972878501038"><ele>714.5</ele><time>2026-04-12T14:02:26.999Z</time></trkpt><trkpt lat="42.05144512712056" lon="12.994889289941858"><ele>715.0</ele><time>2026-04-12T14:02:27.999Z</time></trkpt><trkpt lat="42.05137639489812" lon="12.994814323413912"><ele>715.5</ele><time>2026-04-12T14:02:28.999Z</time></trkpt><trkpt lat="42.05132375663733" lon="12.994712920320518"><ele>716.0</ele><time>2026-04-12T14:02:29.999Z</time></trkpt><trkpt lat="42.051271974130195" lon="12.994622391108571"><ele>716.5</ele><time>2026-04-12T14:02:30.999Z</time></trkpt><trkpt lat="42.05120558684625" lon="12.994544591350072"><ele>717.0</ele><time>2026-04-12T14:02:31.999Z</time></trkpt><trkpt lat="42.05115154350951" lon="12.994461239197003"><ele>717.0</ele><time>2026-04-12T14:02:32.999Z</time></trkpt><trkpt lat="42.05108843657342" lon="12.994380569744164"><ele>717.0</ele><time>2026-04-12T14:02:33.999Z</time></trkpt><trkpt lat="42.05100824612567" lon="12.994298876968207"><ele>717.0</ele><time>2026-04-12T14:02:34.999Z</time></trkpt><trkpt lat="42.05093352134555" lon="12.994187703320806"><ele>717.0</ele><time>2026-04-12T14:02:35.999Z</time></trkpt><trkpt lat="42.05084439144228" lon="12.994070142817122"><ele>717.0</ele><time>2026-04-12T14:02:36.999Z</time></trkpt><trkpt lat="42.05075404680998" lon="12.99395914474565"><ele>719.25</ele><time>2026-04-12T14:02:37.999Z</time></trkpt><trkpt lat="42.05067014076206" lon="12.993847712239445"><ele>721.5</ele><time>2026-04-12T14:02:38.999Z</time></trkpt><trkpt lat="42.05058406567644" lon="12.993728087832764"><ele>723.75</ele><time>2026-04-12T14:02:39.999Z</time></trkpt><trkpt lat="42.050513604882" lon="12.993590486668845"><ele>726.0</ele><time>2026-04-12T14:02:40.999Z</time></trkpt><trkpt lat="42.05042992068265" lon="12.993460870608159"><ele>723.25</ele><time>2026-04-12T14:02:41.999Z</time></trkpt><trkpt lat="42.05034225101629" lon="12.993323521240347"><ele>720.5</ele><time>2026-04-12T14:02:42.999Z</time></trkpt><trkpt lat="42.050258912305054" lon="12.993191464110048"><ele>717.75</ele><time>2026-04-12T14:02:43.999Z</time></trkpt><trkpt lat="42.050160029978905" lon="12.993060916576233"><ele>715.0</ele><time>2026-04-12T14:02:44.999Z</time></trkpt><trkpt lat="42.05009222825489" lon="12.992902394925526"><ele>715.0</ele><time>2026-04-12T14:02:45.999Z</time></trkpt><trkpt lat="42.05001645506739" lon="12.992745156134658"><ele>715.0</ele><time>2026-04-12T14:02:46.999Z</time></trkpt><trkpt lat="42.04991915686845" lon="12.992609717903056"><ele>715.0</ele><time>2026-04-12T14:02:47.999Z</time></trkpt><trkpt lat="42.04983530859526" lon="12.99246485242976"><ele>715.0</ele><time>2026-04-12T14:02:48.999Z</time></trkpt><trkpt lat="42.049753953257294" lon="12.992316517647083"><ele>719.75</ele><time>2026-04-12T14:02:49.999Z</time></trkpt><trkpt lat="42.0496679271243" lon="12.992170002716636"><ele>724.5</ele><time>2026-04-12T14:02:50.999Z</time></trkpt><trkpt lat="42.049575715635534" lon="12.992020250413868"><ele>729.25</ele><time>2026-04-12T14:02:51.999Z</time></trkpt><trkpt lat="42.04951442296362" lon="12.9918652244068"><ele>734.0</ele><time>2026-04-12T14:02:52.999Z</time></trkpt><trkpt lat="42.04946018995194" lon="12.991722309222906"><ele>732.0</ele><time>2026-04-12T14:02:53.999Z</time></trkpt><trkpt lat="42.049407688600716" lon="12.991593331046113"><ele>730.0</ele><time>2026-04-12T14:02:54.999Z</time></trkpt><trkpt lat="42.049394442973984" lon="12.99144307717998"><ele>728.0</ele><time>2026-04-12T14:02:55.999Z</time></trkpt><trkpt lat="42.0494169190623" lon="12.99127125574308"><ele>726.0</ele><time>2026-04-12T14:02:56.999Z</time></trkpt><trkpt lat="42.0493974629664" lon="12.991096050556889"><ele>726.0</ele><time>2026-04-12T14:02:57.999Z</time></trkpt><trkpt lat="42.049396990112555" lon="12.990928514374783"><ele>726.0</ele><time>2026-04-12T14:02:58.999Z</time></trkpt><trkpt lat="42.04937693748923" lon="12.990759193006973"><ele>726.0</ele><time>2026-04-12T14:02:59.999Z</time></trkpt><trkpt lat="42.049365241619256" lon="12.990583706989412"><ele>726.0</ele><time>2026-04-12T14:03:00.999Z</time></trkpt><trkpt lat="42.049349302909825" lon="12.990412369408585"><ele>726.5999999999999</ele><time>2026-04-12T14:03:01.999Z</time></trkpt><trkpt lat="42.04933961347027" lon="12.990254155376354"><ele>727.2</ele><time>2026-04-12T14:03:02.999Z</time></trkpt><trkpt lat="42.04932879463259" lon="12.99009809888273"><ele>727.8</ele><time>2026-04-12T14:03:03.999Z</time></trkpt><trkpt lat="42.04930525536345" lon="12.989967075684422"><ele>728.4000000000001</ele><time>2026-04-12T14:03:04.999Z</time></trkpt><trkpt lat="42.04929875006825" lon="12.98983859345889"><ele>729.0</ele><time>2026-04-12T14:03:05.999Z</time></trkpt><trkpt lat="42.04927601956469" lon="12.989735964896779"><ele>729.75</ele><time>2026-04-12T14:03:06.999Z</time></trkpt><trkpt lat="42.04922766373545" lon="12.989597406110423"><ele>730.5</ele><time>2026-04-12T14:03:08.999Z</time></trkpt><trkpt lat="42.04923398782583" lon="12.989489879041232"><ele>731.25</ele><time>2026-04-12T14:03:10.999Z</time></trkpt><trkpt lat="42.049226914743926" lon="12.989391804407898"><ele>732.0</ele><time>2026-04-12T14:03:12.999Z</time></trkpt><trkpt lat="42.04897557245871" lon="12.989138454918614"><ele>733.1666666666666</ele><time>2026-04-12T14:03:17Z</time></trkpt><trkpt lat="42.048923476451094" lon="12.989057068288107"><ele>734.3333333333334</ele><time>2026-04-12T14:03:18Z</time></trkpt><trkpt lat="42.04885874051794" lon="12.988970944622109"><ele>735.5</ele><time>2026-04-12T14:03:19Z</time></trkpt><trkpt lat="42.04880694050166" lon="12.988876179115142"><ele>736.6666666666667</ele><time>2026-04-12T14:03:20Z</time></trkpt><trkpt lat="42.04875287477848" lon="12.988772800577902"><ele>737.8333333333334</ele><time>2026-04-12T14:03:21Z</time></trkpt><trkpt lat="42.0486937284509" lon="12.988694207999453"><ele>739.0</ele><time>2026-04-12T14:03:22Z</time></trkpt><trkpt lat="42.048629834088146" lon="12.988627592954852"><ele>739.0</ele><time>2026-04-12T14:03:23Z</time></trkpt><trkpt lat="42.048553229120735" lon="12.988593168158673"><ele>739.0</ele><time>2026-04-12T14:03:24Z</time></trkpt><trkpt lat="42.04846735250332" lon="12.988555635863106"><ele>739.0</ele><time>2026-04-12T14:03:25Z</time></trkpt><trkpt lat="42.04836439995418" lon="12.988530505703121"><ele>739.0</ele><time>2026-04-12T14:03:26Z</time></trkpt><trkpt lat="42.04827588542785" lon="12.988494337193858"><ele>739.0</ele><time>2026-04-12T14:03:27Z</time></trkpt><trkpt lat="42.04818751486472" lon="12.988451968722481"><ele>739.0</ele><time>2026-04-12T14:03:28Z</time></trkpt><trkpt lat="42.048108052367866" lon="12.988411096621386"><ele>739.0</ele><time>2026-04-12T14:03:29Z</time></trkpt><trkpt lat="42.04805083101707" lon="12.988340451051243"><ele>739.0</ele><time>2026-04-12T14:03:30Z</time></trkpt><trkpt lat="42.047939464639065" lon="12.988257608126474"><ele>739.0</ele><time>2026-04-12T14:03:32Z</time></trkpt><trkpt lat="42.04784245873018" lon="12.988185422497533"><ele>739.0</ele><time>2026-04-12T14:03:34Z</time></trkpt><trkpt lat="42.047775440834165" lon="12.98807382360405"><ele>739.0</ele><time>2026-04-12T14:03:36Z</time></trkpt><trkpt lat="42.047780559433285" lon="12.987927854223996"><ele>739.0</ele><time>2026-04-12T14:03:38Z</time></trkpt><trkpt lat="42.04783052780422" lon="12.987824872444028"><ele>739.0</ele><time>2026-04-12T14:03:39Z</time></trkpt><trkpt lat="42.04787381129682" lon="12.987722686288825"><ele>739.0</ele><time>2026-04-12T14:03:40Z</time></trkpt><trkpt lat="42.047919978373386" lon="12.987624608346989"><ele>739.0</ele><time>2026-04-12T14:03:40.999Z</time></trkpt><trkpt lat="42.04795584400007" lon="12.987504541559536"><ele>738.0</ele><time>2026-04-12T14:03:41.999Z</time></trkpt><trkpt lat="42.048008107367735" lon="12.987381956853513"><ele>737.0</ele><time>2026-04-12T14:03:42.999Z</time></trkpt><trkpt lat="42.04809330104234" lon="12.98724830896091"><ele>736.0</ele><time>2026-04-12T14:03:43.999Z</time></trkpt><trkpt lat="42.04816201318538" lon="12.987122142231819"><ele>735.0</ele><time>2026-04-12T14:03:44.999Z</time></trkpt><trkpt lat="42.048221422028405" lon="12.987003351656302"><ele>735.0</ele><time>2026-04-12T14:03:45.999Z</time></trkpt><trkpt lat="42.048289494844404" lon="12.986880327681758"><ele>735.0</ele><time>2026-04-12T14:03:46.999Z</time></trkpt><trkpt lat="42.04834531604856" lon="12.986761574440667"><ele>735.0</ele><time>2026-04-12T14:03:47.999Z</time></trkpt><trkpt lat="42.048406108575165" lon="12.986647398397011"><ele>735.0</ele><time>2026-04-12T14:03:48.999Z</time></trkpt><trkpt lat="42.048465879397334" lon="12.986528352630057"><ele>735.0</ele><time>2026-04-12T14:03:49.999Z</time></trkpt><trkpt lat="42.048523049783306" lon="12.98640269662776"><ele>737.8333333333334</ele><time>2026-04-12T14:03:50.999Z</time></trkpt><trkpt lat="42.04856707479809" lon="12.986275829463365"><ele>740.6666666666666</ele><time>2026-04-12T14:03:51.999Z</time></trkpt><trkpt lat="42.048602985226815" lon="12.986191953818068"><ele>743.5</ele><time>2026-04-12T14:03:52.999Z</time></trkpt><trkpt lat="42.04865816768197" lon="12.986097670029519"><ele>746.3333333333333</ele><time>2026-04-12T14:03:54.999Z</time></trkpt><trkpt lat="42.04864559599223" lon="12.986014248637053"><ele>749.1666666666666</ele><time>2026-04-12T14:04:02.999Z</time></trkpt><trkpt lat="42.04858324460969" lon="12.98599838849947"><ele>752.0</ele><time>2026-04-12T14:04:06.999Z</time></trkpt><trkpt lat="42.04855094367541" lon="12.985908811926945"><ele>754.6666666666666</ele><time>2026-04-12T14:04:10.999Z</time></trkpt><trkpt lat="42.0486134342242" lon="12.9858324940872"><ele>757.3333333333333</ele><time>2026-04-12T14:04:13.999Z</time></trkpt><trkpt lat="42.04862920099384" lon="12.985719733472104"><ele>760.0</ele><time>2026-04-12T14:04:16.999Z</time></trkpt><trkpt lat="42.04860537945472" lon="12.985640604311882"><ele>762.6666666666666</ele><time>2026-04-12T14:04:19.999Z</time></trkpt><trkpt lat="42.04856842172053" lon="12.985546491703117"><ele>765.3333333333334</ele><time>2026-04-12T14:04:22.999Z</time></trkpt><trkpt lat="42.04851736656306" lon="12.985459829344613"><ele>768.0</ele><time>2026-04-12T14:04:24.999Z</time></trkpt><trkpt lat="42.04846299136657" lon="12.985359889833333"><ele>767.9999999999999</ele><time>2026-04-12T14:04:27.999Z</time></trkpt><trkpt lat="42.048425381258845" lon="12.985288922871472"><ele>768.0</ele><time>2026-04-12T14:04:29.999Z</time></trkpt><trkpt lat="42.048405962484715" lon="12.985200049928103"><ele>768.0</ele><time>2026-04-12T14:04:31.999Z</time></trkpt><trkpt lat="42.04839930740724" lon="12.98510443118993"><ele>768.0</ele><time>2026-04-12T14:04:34.999Z</time></trkpt><trkpt lat="42.0483525025762" lon="12.985025219248875"><ele>768.0</ele><time>2026-04-12T14:04:36.999Z</time></trkpt><trkpt lat="42.04828500158951" lon="12.984966695459406"><ele>767.9999999999999</ele><time>2026-04-12T14:04:40.999Z</time></trkpt><trkpt lat="42.04821751100903" lon="12.98496066605723"><ele>768.0</ele><time>2026-04-12T14:04:44.999Z</time></trkpt><trkpt lat="42.04818001842306" lon="12.984890641191168"><ele>773.1428571428571</ele><time>2026-04-12T14:04:53.999Z</time></trkpt><trkpt lat="42.04815583176801" lon="12.984810958691666"><ele>778.2857142857142</ele><time>2026-04-12T14:04:59.999Z</time></trkpt><trkpt lat="42.048123391374666" lon="12.984726376020443"><ele>783.4285714285713</ele><time>2026-04-12T14:05:03.999Z</time></trkpt><trkpt lat="42.04810437841133" lon="12.984625334258691"><ele>788.5714285714286</ele><time>2026-04-12T14:05:06.999Z</time></trkpt><trkpt lat="42.04807819634852" lon="12.98454512193202"><ele>793.7142857142858</ele><time>2026-04-12T14:05:08.999Z</time></trkpt><trkpt lat="42.04803642362076" lon="12.984458535152733"><ele>798.8571428571428</ele><time>2026-04-12T14:05:10.999Z</time></trkpt><trkpt lat="42.0480213193197" lon="12.984364710513564"><ele>804.0</ele><time>2026-04-12T14:05:14.999Z</time></trkpt><trkpt lat="42.0479760811086" lon="12.984300810669177"><ele>804.0</ele><time>2026-04-12T14:05:17.999Z</time></trkpt><trkpt lat="42.04795023927511" lon="12.984205422299313"><ele>804.0</ele><time>2026-04-12T14:05:19.998Z</time></trkpt><trkpt lat="42.04790268271027" lon="12.984122859938854"><ele>804.0</ele><time>2026-04-12T14:05:22Z</time></trkpt><trkpt lat="42.047784080568576" lon="12.984085243747636"><ele>804.0</ele><time>2026-04-12T14:05:24Z</time></trkpt><trkpt lat="42.047707561166376" lon="12.984049020747285"><ele>804.0</ele><time>2026-04-12T14:05:25Z</time></trkpt><trkpt lat="42.04765097889317" lon="12.983999423876302"><ele>804.0</ele><time>2026-04-12T14:05:26Z</time></trkpt><trkpt lat="42.047594017186604" lon="12.983890835558428"><ele>804.8333333333334</ele><time>2026-04-12T14:05:28Z</time></trkpt><trkpt lat="42.04759980594425" lon="12.983780031738249"><ele>805.6666666666667</ele><time>2026-04-12T14:05:31Z</time></trkpt><trkpt lat="42.04754727714805" lon="12.98370077433416"><ele>806.5</ele><time>2026-04-12T14:05:34Z</time></trkpt><trkpt lat="42.047497071922365" lon="12.983616598703085"><ele>807.3333333333334</ele><time>2026-04-12T14:05:39Z</time></trkpt><trkpt lat="42.04744815983493" lon="12.983552411721131"><ele>808.1666666666667</ele><time>2026-04-12T14:05:41Z</time></trkpt><trkpt lat="42.047360374108294" lon="12.983478925633886"><ele>809.0</ele><time>2026-04-12T14:05:42.999Z</time></trkpt><trkpt lat="42.04729723929573" lon="12.98347788964784"><ele>812.6</ele><time>2026-04-12T14:05:43.999Z</time></trkpt><trkpt lat="42.047151980939965" lon="12.983584360712975"><ele>816.2</ele><time>2026-04-12T14:05:45.999Z</time></trkpt><trkpt lat="42.04708783402739" lon="12.983645801149855"><ele>819.8000000000001</ele><time>2026-04-12T14:05:46.999Z</time></trkpt><trkpt lat="42.047032245732964" lon="12.983723699876732"><ele>823.4000000000001</ele><time>2026-04-12T14:05:47.999Z</time></trkpt><trkpt lat="42.0469439862768" lon="12.98380921287934"><ele>827.0</ele><time>2026-04-12T14:05:49.999Z</time></trkpt><trkpt lat="42.04683832982714" lon="12.983856634803145"><ele>827.0000000000001</ele><time>2026-04-12T14:05:51.999Z</time></trkpt><trkpt lat="42.04673488852961" lon="12.983933496553954"><ele>827.0</ele><time>2026-04-12T14:05:53.999Z</time></trkpt><trkpt lat="42.04665188173598" lon="12.984006492016263"><ele>827.0</ele><time>2026-04-12T14:05:55.999Z</time></trkpt><trkpt lat="42.04658156768869" lon="12.984008710927542"><ele>827.0</ele><time>2026-04-12T14:05:57.999Z</time></trkpt><trkpt lat="42.04654185266539" lon="12.983924610263257"><ele>827.0000000000001</ele><time>2026-04-12T14:06:00.999Z</time></trkpt><trkpt lat="42.04648537338035" lon="12.983856039295796"><ele>827.0</ele><time>2026-04-12T14:06:05.999Z</time></trkpt><trkpt lat="42.04638099349765" lon="12.983732310071613"><ele>822.8</ele><time>2026-04-12T14:06:07.999Z</time></trkpt><trkpt lat="42.04631970963169" lon="12.983652111511853"><ele>818.6</ele><time>2026-04-12T14:06:09.999Z</time></trkpt><trkpt lat="42.046237886817146" lon="12.983569957615723"><ele>814.4</ele><time>2026-04-12T14:06:11.999Z</time></trkpt><trkpt lat="42.046152339833874" lon="12.983498334602984"><ele>810.1999999999999</ele><time>2026-04-12T14:06:13.999Z</time></trkpt><trkpt lat="42.04605072739238" lon="12.98344076187453"><ele>806.0</ele><time>2026-04-12T14:06:15.999Z</time></trkpt><trkpt lat="42.04595245204055" lon="12.983389514660983"><ele>806.5000000000001</ele><time>2026-04-12T14:06:17.999Z</time></trkpt><trkpt lat="42.045868489966956" lon="12.983332792444342"><ele>807.0</ele><time>2026-04-12T14:06:20.999Z</time></trkpt><trkpt lat="42.04580316825321" lon="12.983293262357673"><ele>807.5</ele><time>2026-04-12T14:06:24.999Z</time></trkpt><trkpt lat="42.04571798453152" lon="12.98327734125508"><ele>808.0</ele><time>2026-04-12T14:06:29.999Z</time></trkpt><trkpt lat="42.045640523716685" lon="12.98327376002257"><ele>808.5000000000001</ele><time>2026-04-12T14:06:31.999Z</time></trkpt><trkpt lat="42.04555322516313" lon="12.98321254377588"><ele>809.0</ele><time>2026-04-12T14:06:33.999Z</time></trkpt><trkpt lat="42.04546095694241" lon="12.983180327069748"><ele>804.2</ele><time>2026-04-12T14:06:35.999Z</time></trkpt><trkpt lat="42.04531410869549" lon="12.983132737527063"><ele>799.4000000000001</ele><time>2026-04-12T14:06:37.999Z</time></trkpt><trkpt lat="42.045236239426984" lon="12.98308223255037"><ele>794.6</ele><time>2026-04-12T14:06:40.999Z</time></trkpt><trkpt lat="42.04517287758273" lon="12.983030184125212"><ele>789.8</ele><time>2026-04-12T14:06:44.999Z</time></trkpt><trkpt lat="42.04509964590392" lon="12.982986366475156"><ele>785.0</ele><time>2026-04-12T14:06:48.999Z</time></trkpt><trkpt lat="42.04500252255163" lon="12.982955784772274"><ele>779.2</ele><time>2026-04-12T14:06:49.999Z</time></trkpt><trkpt lat="42.04491586878593" lon="12.982924306618274"><ele>773.4</ele><time>2026-04-12T14:06:50.999Z</time></trkpt><trkpt lat="42.0448217971453" lon="12.982920683634978"><ele>767.5999999999999</ele><time>2026-04-12T14:06:52.999Z</time></trkpt><trkpt lat="42.04473642000066" lon="12.98295571260112"><ele>761.8</ele><time>2026-04-12T14:06:55.999Z</time></trkpt><trkpt lat="42.0446455208902" lon="12.982893961733902"><ele>756.0</ele><time>2026-04-12T14:06:59.999Z</time></trkpt><trkpt lat="42.04455122456931" lon="12.982851408179434"><ele>756.0</ele><time>2026-04-12T14:07:00.999Z</time></trkpt><trkpt lat="42.04446208804093" lon="12.98278082577883"><ele>756.0</ele><time>2026-04-12T14:07:02.999Z</time></trkpt><trkpt lat="42.044375254161444" lon="12.982722214427266"><ele>756.0</ele><time>2026-04-12T14:07:04.999Z</time></trkpt><trkpt lat="42.04431222331101" lon="12.982658252532287"><ele>756.0</ele><time>2026-04-12T14:07:06.999Z</time></trkpt><trkpt lat="42.044246847785956" lon="12.98260048839008"><ele>756.0</ele><time>2026-04-12T14:07:08.999Z</time></trkpt><trkpt lat="42.04417595714493" lon="12.982570013481668"><ele>756.0</ele><time>2026-04-12T14:07:09.999Z</time></trkpt><trkpt lat="42.04406986854801" lon="12.982518525483092"><ele>755.1428571428571</ele><time>2026-04-12T14:07:11.999Z</time></trkpt><trkpt lat="42.0439813065272" lon="12.982519657074436"><ele>754.2857142857142</ele><time>2026-04-12T14:07:13.999Z</time></trkpt><trkpt lat="42.04389461728007" lon="12.982496882382396"><ele>753.4285714285714</ele><time>2026-04-12T14:07:15.999Z</time></trkpt><trkpt lat="42.043848120834554" lon="12.982436341609693"><ele>752.5714285714286</ele><time>2026-04-12T14:07:17.999Z</time></trkpt><trkpt lat="42.04380392561664" lon="12.982374947467804"><ele>751.7142857142857</ele><time>2026-04-12T14:07:27Z</time></trkpt><trkpt lat="42.043733096791" lon="12.982353231830833"><ele>750.8571428571429</ele><time>2026-04-12T14:07:30Z</time></trkpt><trkpt lat="42.043669799165365" lon="12.982326190147651"><ele>750.0</ele><time>2026-04-12T14:07:33Z</time></trkpt><trkpt lat="42.043604410971554" lon="12.982294475263725"><ele>750.0</ele><time>2026-04-12T14:07:35Z</time></trkpt><trkpt lat="42.043532213944076" lon="12.982307472325596"><ele>750.0</ele><time>2026-04-12T14:07:37Z</time></trkpt><trkpt lat="42.0434490836518" lon="12.982331434442365"><ele>750.0</ele><time>2026-04-12T14:07:40Z</time></trkpt><trkpt lat="42.043385804501355" lon="12.98235102356258"><ele>750.0</ele><time>2026-04-12T14:07:44.999Z</time></trkpt><trkpt lat="42.04330909010528" lon="12.982344557598045"><ele>750.0</ele><time>2026-04-12T14:07:48Z</time></trkpt><trkpt lat="42.04324215704843" lon="12.982341126776374"><ele>750.0</ele><time>2026-04-12T14:07:51Z</time></trkpt><trkpt lat="42.04318452043316" lon="12.982302821822541"><ele>750.0</ele><time>2026-04-12T14:07:53Z</time></trkpt><trkpt lat="42.04311121866637" lon="12.98228463181372"><ele>746.5</ele><time>2026-04-12T14:07:56Z</time></trkpt><trkpt lat="42.04302713591927" lon="12.982260034807055"><ele>743.0</ele><time>2026-04-12T14:07:59Z</time></trkpt><trkpt lat="42.04291828260916" lon="12.98225256375751"><ele>739.5</ele><time>2026-04-12T14:08:03Z</time></trkpt><trkpt lat="42.04282774053901" lon="12.982234908601644"><ele>736.0</ele><time>2026-04-12T14:08:05Z</time></trkpt><trkpt lat="42.04275492093075" lon="12.982187698103903"><ele>732.5</ele><time>2026-04-12T14:08:07Z</time></trkpt><trkpt lat="42.04269573357346" lon="12.98214929317701"><ele>729.0</ele><time>2026-04-12T14:08:09Z</time></trkpt><trkpt lat="42.042589696684274" lon="12.98208978901775"><ele>729.0</ele><time>2026-04-12T14:08:11Z</time></trkpt><trkpt lat="42.0425429071429" lon="12.982032244448707"><ele>729.0</ele><time>2026-04-12T14:08:13Z</time></trkpt><trkpt lat="42.04249417012164" lon="12.98196292328285"><ele>729.0</ele><time>2026-04-12T14:08:15Z</time></trkpt><trkpt lat="42.042444051275304" lon="12.981901837749954"><ele>729.0</ele><time>2026-04-12T14:08:19Z</time></trkpt><trkpt lat="42.042384748613" lon="12.981828004661176"><ele>729.0</ele><time>2026-04-12T14:08:25Z</time></trkpt><trkpt lat="42.04233486981438" lon="12.981752981536228"><ele>729.0</ele><time>2026-04-12T14:08:28Z</time></trkpt><trkpt lat="42.042285130115815" lon="12.981678056643593"><ele>729.0</ele><time>2026-04-12T14:08:31Z</time></trkpt><trkpt lat="42.042222504255996" lon="12.981605587145976"><ele>725.0</ele><time>2026-04-12T14:08:37Z</time></trkpt><trkpt lat="42.04218869081914" lon="12.981489288151067"><ele>721.0</ele><time>2026-04-12T14:08:42Z</time></trkpt><trkpt lat="42.042157126978786" lon="12.981397064479507"><ele>717.0</ele><time>2026-04-12T14:08:47Z</time></trkpt><trkpt lat="42.04212123589003" lon="12.981280034947556"><ele>713.0</ele><time>2026-04-12T14:08:53Z</time></trkpt><trkpt lat="42.04204320586045" lon="12.981102408336344"><ele>709.0</ele><time>2026-04-12T14:08:55Z</time></trkpt><trkpt lat="42.041986667178165" lon="12.981064310413753"><ele>709.0</ele><time>2026-04-12T14:08:58Z</time></trkpt><trkpt lat="42.04190801113272" lon="12.980935737649931"><ele>709.0</ele><time>2026-04-12T14:09:00Z</time></trkpt><trkpt lat="42.04185193958867" lon="12.980839584715746"><ele>709.0</ele><time>2026-04-12T14:09:02Z</time></trkpt><trkpt lat="42.04184722955709" lon="12.980736888380312"><ele>709.0</ele><time>2026-04-12T14:09:11Z</time></trkpt><trkpt lat="42.041858307738714" lon="12.98064695467559"><ele>709.0</ele><time>2026-04-12T14:09:13Z</time></trkpt><trkpt lat="42.04181196167735" lon="12.980570716039164"><ele>709.0</ele><time>2026-04-12T14:09:14Z</time></trkpt><trkpt lat="42.04177097997435" lon="12.98049856252626"><ele>711.1666666666667</ele><time>2026-04-12T14:09:15Z</time></trkpt><trkpt lat="42.04174414813031" lon="12.980417728438598"><ele>713.3333333333334</ele><time>2026-04-12T14:09:16Z</time></trkpt><trkpt lat="42.041696128875884" lon="12.980306545336703"><ele>715.5</ele><time>2026-04-12T14:09:18Z</time></trkpt><trkpt lat="42.041658601905176" lon="12.980202384145832"><ele>717.6666666666666</ele><time>2026-04-12T14:09:19.999Z</time></trkpt><trkpt lat="42.04164972086211" lon="12.980066829184164"><ele>719.8333333333333</ele><time>2026-04-12T14:09:21.999Z</time></trkpt><trkpt lat="42.04161676815838" lon="12.979941642171077"><ele>722.0</ele><time>2026-04-12T14:09:23.999Z</time></trkpt><trkpt lat="42.041582781673895" lon="12.97983152888466"><ele>716.6666666666666</ele><time>2026-04-12T14:09:25.999Z</time></trkpt><trkpt lat="42.0415625652364" lon="12.979718335760296"><ele>711.3333333333333</ele><time>2026-04-12T14:09:27.999Z</time></trkpt><trkpt lat="42.04150219755767" lon="12.979641639906326"><ele>706.0</ele><time>2026-04-12T14:09:29.999Z</time></trkpt><trkpt lat="42.04148624494771" lon="12.9795532332544"><ele>700.6666666666666</ele><time>2026-04-12T14:09:32.001Z</time></trkpt><trkpt lat="42.04150288745268" lon="12.979458545082418"><ele>695.3333333333334</ele><time>2026-04-12T14:09:37.001Z</time></trkpt><trkpt lat="42.04153973380672" lon="12.979361001797182"><ele>690.0</ele><time>2026-04-12T14:09:40.001Z</time></trkpt><trkpt lat="42.04157305745769" lon="12.979269355849048"><ele>691.1666666666666</ele><time>2026-04-12T14:09:43.001Z</time></trkpt><trkpt lat="42.04156630379791" lon="12.979177567117706"><ele>692.3333333333334</ele><time>2026-04-12T14:09:45.001Z</time></trkpt><trkpt lat="42.04154486317961" lon="12.979090915935231"><ele>693.5</ele><time>2026-04-12T14:09:52Z</time></trkpt><trkpt lat="42.0415116750679" lon="12.978996804357722"><ele>694.6666666666667</ele><time>2026-04-12T14:09:57Z</time></trkpt><trkpt lat="42.04144438281352" lon="12.978920149837649"><ele>695.8333333333334</ele><time>2026-04-12T14:10:00Z</time></trkpt><trkpt lat="42.041388392402595" lon="12.97881605135511"><ele>697.0</ele><time>2026-04-12T14:10:02Z</time></trkpt><trkpt lat="42.0413599017057" lon="12.97870377418194"><ele>697.0</ele><time>2026-04-12T14:10:05Z</time></trkpt><trkpt lat="42.04131967394631" lon="12.978605267189506"><ele>697.0</ele><time>2026-04-12T14:10:07Z</time></trkpt><trkpt lat="42.041270580222196" lon="12.978475363530285"><ele>697.0</ele><time>2026-04-12T14:10:09Z</time></trkpt><trkpt lat="42.041281178598275" lon="12.978351290976983"><ele>697.0</ele><time>2026-04-12T14:10:11Z</time></trkpt><trkpt lat="42.041326002311166" lon="12.978271725968973"><ele>697.0</ele><time>2026-04-12T14:10:13Z</time></trkpt><trkpt lat="42.04133504696648" lon="12.978155404794801"><ele>697.0</ele><time>2026-04-12T14:10:16Z</time></trkpt><trkpt lat="42.04128821951114" lon="12.978083141122939"><ele>694.7142857142858</ele><time>2026-04-12T14:10:19Z</time></trkpt><trkpt lat="42.04126385810365" lon="12.977988170662865"><ele>692.4285714285714</ele><time>2026-04-12T14:10:24Z</time></trkpt><trkpt lat="42.04128786618994" lon="12.977882248128376"><ele>690.1428571428571</ele><time>2026-04-12T14:10:27Z</time></trkpt><trkpt lat="42.041304099073876" lon="12.97777967640954"><ele>687.8571428571429</ele><time>2026-04-12T14:10:30Z</time></trkpt><trkpt lat="42.04133716390854" lon="12.977706426449089"><ele>685.5714285714286</ele><time>2026-04-12T14:10:32Z</time></trkpt><trkpt lat="42.041390755838584" lon="12.977620525338429"><ele>683.2857142857143</ele><time>2026-04-12T14:10:35Z</time></trkpt><trkpt lat="42.04142855940595" lon="12.977551488487796"><ele>681.0</ele><time>2026-04-12T14:10:36Z</time></trkpt><trkpt lat="42.04146826578002" lon="12.977444575136541"><ele>678.1666666666666</ele><time>2026-04-12T14:10:38Z</time></trkpt><trkpt lat="42.04149914808079" lon="12.977335826823758"><ele>675.3333333333334</ele><time>2026-04-12T14:10:40Z</time></trkpt><trkpt lat="42.041507938050394" lon="12.977239583746067"><ele>672.5</ele><time>2026-04-12T14:10:42Z</time></trkpt><trkpt lat="42.041525667656785" lon="12.977145979700069"><ele>669.6666666666667</ele><time>2026-04-12T14:10:44Z</time></trkpt><trkpt lat="42.04152473471366" lon="12.977051413214555"><ele>666.8333333333334</ele><time>2026-04-12T14:10:47Z</time></trkpt><trkpt lat="42.04155599247474" lon="12.976951961676969"><ele>664.0</ele><time>2026-04-12T14:10:50Z</time></trkpt><trkpt lat="42.041540642133135" lon="12.976861168748076"><ele>664.0</ele><time>2026-04-12T14:10:53Z</time></trkpt><trkpt lat="42.04151543460175" lon="12.976767906473127"><ele>664.0</ele><time>2026-04-12T14:10:56Z</time></trkpt><trkpt lat="42.04152550421383" lon="12.976643456250335"><ele>664.0</ele><time>2026-04-12T14:10:59Z</time></trkpt><trkpt lat="42.04150596707144" lon="12.976550849210174"><ele>664.0</ele><time>2026-04-12T14:11:01Z</time></trkpt><trkpt lat="42.041481463949204" lon="12.97646779213812"><ele>664.0</ele><time>2026-04-12T14:11:05Z</time></trkpt><trkpt lat="42.041459560156476" lon="12.976370479921446"><ele>664.0</ele><time>2026-04-12T14:11:08Z</time></trkpt><trkpt lat="42.041399392570575" lon="12.976329618698566"><ele>664.0</ele><time>2026-04-12T14:11:50Z</time></trkpt><trkpt lat="42.04137038566919" lon="12.97623928147291"><ele>660.8333333333334</ele><time>2026-04-12T14:12:07Z</time></trkpt><trkpt lat="42.04130168688312" lon="12.976193726982892"><ele>657.6666666666667</ele><time>2026-04-12T14:12:17Z</time></trkpt><trkpt lat="42.04122519752699" lon="12.976158862992664"><ele>654.5</ele><time>2026-04-12T14:12:20Z</time></trkpt><trkpt lat="42.04115610357799" lon="12.97615846332325"><ele>651.3333333333334</ele><time>2026-04-12T14:12:23Z</time></trkpt><trkpt lat="42.041093436579956" lon="12.976089082205071"><ele>648.1666666666666</ele><time>2026-04-12T14:12:27Z</time></trkpt><trkpt lat="42.041023920060795" lon="12.976056154081027"><ele>645.0</ele><time>2026-04-12T14:12:31Z</time></trkpt><trkpt lat="42.04096374351921" lon="12.975978620806716"><ele>645.0</ele><time>2026-04-12T14:12:35Z</time></trkpt><trkpt lat="42.04087981338234" lon="12.976010276611722"><ele>645.0</ele><time>2026-04-12T14:12:39Z</time></trkpt><trkpt lat="42.0408291549302" lon="12.976067825196575"><ele>645.0</ele><time>2026-04-12T14:12:44Z</time></trkpt><trkpt lat="42.04076762195386" lon="12.976046352194475"><ele>645.0</ele><time>2026-04-12T14:12:48Z</time></trkpt><trkpt lat="42.04069835171842" lon="12.9760602993139"><ele>645.0</ele><time>2026-04-12T14:12:55Z</time></trkpt><trkpt lat="42.04062603420445" lon="12.976042952732945"><ele>645.0</ele><time>2026-04-12T14:13:02Z</time></trkpt><trkpt lat="42.04055428660797" lon="12.975998448933172"><ele>645.0</ele><time>2026-04-12T14:13:08Z</time></trkpt><trkpt lat="42.0404857470043" lon="12.976032658338701"><ele>640.8571428571429</ele><time>2026-04-12T14:13:15Z</time></trkpt><trkpt lat="42.04044339221596" lon="12.976097241121108"><ele>636.7142857142857</ele><time>2026-04-12T14:13:21.999Z</time></trkpt><trkpt lat="42.040376990216586" lon="12.976099420679617"><ele>632.5714285714286</ele><time>2026-04-12T14:13:29.999Z</time></trkpt><trkpt lat="42.04030632771316" lon="12.976007175676894"><ele>628.4285714285714</ele><time>2026-04-12T14:13:33.999Z</time></trkpt><trkpt lat="42.040257180123355" lon="12.975953745607328"><ele>624.2857142857142</ele><time>2026-04-12T14:13:35.999Z</time></trkpt><trkpt lat="42.04020422022297" lon="12.975870900297156"><ele>620.1428571428571</ele><time>2026-04-12T14:14:02Z</time></trkpt><trkpt lat="42.04016803903314" lon="12.975797388245342"><ele>616.0</ele><time>2026-04-12T14:14:07Z</time></trkpt><trkpt lat="42.04010342356705" lon="12.97579426473754"><ele>613.7142857142857</ele><time>2026-04-12T14:14:12Z</time></trkpt><trkpt lat="42.04003681986088" lon="12.975768251053156"><ele>611.4285714285714</ele><time>2026-04-12T14:14:18Z</time></trkpt><trkpt lat="42.03998173672909" lon="12.97570260516447"><ele>609.1428571428571</ele><time>2026-04-12T14:14:21Z</time></trkpt><trkpt lat="42.039912118028376" lon="12.975731944308947"><ele>606.8571428571429</ele><time>2026-04-12T14:14:24Z</time></trkpt><trkpt lat="42.03984270707674" lon="12.975706584846014"><ele>604.5714285714286</ele><time>2026-04-12T14:14:27Z</time></trkpt><trkpt lat="42.039772706104465" lon="12.975691785619379"><ele>602.2857142857142</ele><time>2026-04-12T14:14:30Z</time></trkpt><trkpt lat="42.0397002815257" lon="12.975663911199982"><ele>600.0</ele><time>2026-04-12T14:14:33Z</time></trkpt><trkpt lat="42.03964463027314" lon="12.975596351352227"><ele>594.5</ele><time>2026-04-12T14:14:37Z</time></trkpt><trkpt lat="42.03957028404899" lon="12.975566441031129"><ele>589.0</ele><time>2026-04-12T14:14:41Z</time></trkpt><trkpt lat="42.03949834379916" lon="12.975546346809988"><ele>583.5</ele><time>2026-04-12T14:14:43Z</time></trkpt><trkpt lat="42.03944529326499" lon="12.975486899626638"><ele>578.0</ele><time>2026-04-12T14:14:45Z</time></trkpt><trkpt lat="42.03938932905324" lon="12.97541240034009"><ele>572.5</ele><time>2026-04-12T14:14:47Z</time></trkpt><trkpt lat="42.03932281314015" lon="12.975315913159182"><ele>567.0</ele><time>2026-04-12T14:14:49Z</time></trkpt><trkpt lat="42.039261930193" lon="12.97526300988307"><ele>567.0</ele><time>2026-04-12T14:14:51Z</time></trkpt><trkpt lat="42.03919586111606" lon="12.975209327323313"><ele>567.0</ele><time>2026-04-12T14:14:54Z</time></trkpt><trkpt lat="42.039215216488465" lon="12.975124220574102"><ele>567.0</ele><time>2026-04-12T14:15:34.999Z</time></trkpt><trkpt lat="42.03926498966635" lon="12.975040569515729"><ele>567.0</ele><time>2026-04-12T14:15:38.999Z</time></trkpt><trkpt lat="42.039315113185744" lon="12.97498157588263"><ele>567.0</ele><time>2026-04-12T14:15:41.999Z</time></trkpt><trkpt lat="42.03937451328792" lon="12.974915723351547"><ele>567.0</ele><time>2026-04-12T14:15:44.999Z</time></trkpt><trkpt lat="42.03940222765891" lon="12.974832837425524"><ele>567.0</ele><time>2026-04-12T14:15:48Z</time></trkpt><trkpt lat="42.0394499483613" lon="12.974753023795563"><ele>565.6666666666666</ele><time>2026-04-12T14:15:50Z</time></trkpt><trkpt lat="42.039462104822505" lon="12.974651105981893"><ele>564.3333333333334</ele><time>2026-04-12T14:20:51Z</time></trkpt><trkpt lat="42.03949992059282" lon="12.974527646486434"><ele>563.0</ele><time>2026-04-12T14:20:53Z</time></trkpt><trkpt lat="42.039499969758054" lon="12.974377461214008"><ele>561.6666666666667</ele><time>2026-04-12T14:20:55Z</time></trkpt><trkpt lat="42.0394814191345" lon="12.974293180806766"><ele>560.3333333333334</ele><time>2026-04-12T14:20:56Z</time></trkpt><trkpt lat="42.03944038867641" lon="12.974191771221198"><ele>559.0</ele><time>2026-04-12T14:20:57Z</time></trkpt><trkpt lat="42.039369510978005" lon="12.974093189847649"><ele>556.6</ele><time>2026-04-12T14:20:58Z</time></trkpt><trkpt lat="42.03929033500194" lon="12.973981262151057"><ele>554.2</ele><time>2026-04-12T14:20:59Z</time></trkpt><trkpt lat="42.039228756321556" lon="12.973883104777437"><ele>551.8000000000001</ele><time>2026-04-12T14:21:00Z</time></trkpt><trkpt lat="42.039179103877814" lon="12.973777393673236"><ele>549.4</ele><time>2026-04-12T14:21:01Z</time></trkpt><trkpt lat="42.03912483775474" lon="12.973665516410028"><ele>547.0</ele><time>2026-04-12T14:21:02Z</time></trkpt><trkpt lat="42.0390609252201" lon="12.973541731972496"><ele>542.6</ele><time>2026-04-12T14:21:03Z</time></trkpt><trkpt lat="42.03900300364095" lon="12.973410705120575"><ele>538.2</ele><time>2026-04-12T14:21:04Z</time></trkpt><trkpt lat="42.03894675152696" lon="12.973282594398116"><ele>533.8</ele><time>2026-04-12T14:21:05Z</time></trkpt><trkpt lat="42.03890118308612" lon="12.973145183019207"><ele>529.4</ele><time>2026-04-12T14:21:06Z</time></trkpt><trkpt lat="42.03888236787437" lon="12.97300182216041"><ele>525.0</ele><time>2026-04-12T14:21:07Z</time></trkpt><trkpt lat="42.0388488333017" lon="12.972884749170204"><ele>523.8333333333334</ele><time>2026-04-12T14:21:08Z</time></trkpt><trkpt lat="42.03883696530548" lon="12.972756500211155"><ele>522.6666666666666</ele><time>2026-04-12T14:21:09Z</time></trkpt><trkpt lat="42.0388385220728" lon="12.972631172312509"><ele>521.5</ele><time>2026-04-12T14:21:10Z</time></trkpt><trkpt lat="42.038853610676185" lon="12.972524072617453"><ele>520.3333333333333</ele><time>2026-04-12T14:21:11Z</time></trkpt><trkpt lat="42.03887897690506" lon="12.972427288358451"><ele>519.1666666666666</ele><time>2026-04-12T14:21:12Z</time></trkpt><trkpt lat="42.038938723748046" lon="12.972386611409666"><ele>518.0</ele><time>2026-04-12T14:21:13Z</time></trkpt><trkpt lat="42.038992155468975" lon="12.972325002024098"><ele>517.1999999999999</ele><time>2026-04-12T14:21:14Z</time></trkpt><trkpt lat="42.0390628165423" lon="12.972243901987333"><ele>516.4</ele><time>2026-04-12T14:21:15Z</time></trkpt><trkpt lat="42.03914209514024" lon="12.972152911326988"><ele>515.5999999999999</ele><time>2026-04-12T14:21:16Z</time></trkpt><trkpt lat="42.039226855095485" lon="12.972053047743056"><ele>514.8</ele><time>2026-04-12T14:21:17Z</time></trkpt><trkpt lat="42.03931461208286" lon="12.97194695037101"><ele>514.0</ele><time>2026-04-12T14:21:18Z</time></trkpt><trkpt lat="42.03938635143811" lon="12.97185188939725"><ele>516.0</ele><time>2026-04-12T14:21:19Z</time></trkpt><trkpt lat="42.03943845114675" lon="12.971773863119743"><ele>518.0</ele><time>2026-04-12T14:21:20Z</time></trkpt><trkpt lat="42.03945991797251" lon="12.971678786829237"><ele>520.0</ele><time>2026-04-12T14:21:21Z</time></trkpt><trkpt lat="42.039465486743794" lon="12.971571780773981"><ele>522.0</ele><time>2026-04-12T14:21:22Z</time></trkpt><trkpt lat="42.03943150772079" lon="12.971458842800255"><ele>524.0</ele><time>2026-04-12T14:21:23Z</time></trkpt><trkpt lat="42.03943090074592" lon="12.971335222093982"><ele>526.0</ele><time>2026-04-12T14:21:24Z</time></trkpt><trkpt lat="42.039448697103616" lon="12.971204303134844"><ele>526.0</ele><time>2026-04-12T14:21:25Z</time></trkpt><trkpt lat="42.03944736490577" lon="12.971046633984942"><ele>526.0</ele><time>2026-04-12T14:21:26Z</time></trkpt><trkpt lat="42.039471842412766" lon="12.97091777617664"><ele>526.0</ele><time>2026-04-12T14:21:27Z</time></trkpt><trkpt lat="42.03950122129145" lon="12.970801338051235"><ele>526.0</ele><time>2026-04-12T14:21:28Z</time></trkpt><trkpt lat="42.03956481485538" lon="12.970705305749606"><ele>526.0</ele><time>2026-04-12T14:21:29Z</time></trkpt><trkpt lat="42.03962513244611" lon="12.970565964236224"><ele>523.75</ele><time>2026-04-12T14:21:30Z</time></trkpt><trkpt lat="42.03966793928981" lon="12.970439421457742"><ele>521.5</ele><time>2026-04-12T14:21:31Z</time></trkpt><trkpt lat="42.03972768132807" lon="12.970326811916042"><ele>519.25</ele><time>2026-04-12T14:21:32Z</time></trkpt><trkpt lat="42.03981680111887" lon="12.970198107435321"><ele>517.0</ele><time>2026-04-12T14:21:33Z</time></trkpt><trkpt lat="42.0398883829426" lon="12.97006428565661"><ele>513.0</ele><time>2026-04-12T14:21:34Z</time></trkpt><trkpt lat="42.03994357648325" lon="12.969889624089921"><ele>509.0</ele><time>2026-04-12T14:21:35Z</time></trkpt><trkpt lat="42.04001270375884" lon="12.969687730028367"><ele>505.0</ele><time>2026-04-12T14:21:36Z</time></trkpt><trkpt lat="42.040077650452425" lon="12.969480428553682"><ele>507.25</ele><time>2026-04-12T14:21:37Z</time></trkpt><trkpt lat="42.04013523753463" lon="12.969320900445213"><ele>509.5</ele><time>2026-04-12T14:21:38Z</time></trkpt><trkpt lat="42.04019537976302" lon="12.969162591684249"><ele>511.75</ele><time>2026-04-12T14:21:39Z</time></trkpt><trkpt lat="42.04025182261701" lon="12.969001495720931"><ele>514.0</ele><time>2026-04-12T14:21:39.999Z</time></trkpt><trkpt lat="42.04030133447537" lon="12.968852673341788"><ele>514.0</ele><time>2026-04-12T14:21:40.999Z</time></trkpt><trkpt lat="42.04035748533385" lon="12.968714583841424"><ele>514.0</ele><time>2026-04-12T14:21:41.999Z</time></trkpt><trkpt lat="42.04042666105201" lon="12.9685799344812"><ele>514.0</ele><time>2026-04-12T14:21:42.999Z</time></trkpt><trkpt lat="42.040501161454806" lon="12.968445583966611"><ele>514.0</ele><time>2026-04-12T14:21:43.999Z</time></trkpt><trkpt lat="42.0405847299006" lon="12.96830571052539"><ele>516.75</ele><time>2026-04-12T14:21:44.999Z</time></trkpt><trkpt lat="42.04066816709006" lon="12.968174314153652"><ele>519.5</ele><time>2026-04-12T14:21:45.999Z</time></trkpt><trkpt lat="42.04075607739477" lon="12.968047351506698"><ele>522.25</ele><time>2026-04-12T14:21:46.999Z</time></trkpt><trkpt lat="42.04084074059646" lon="12.967919137653004"><ele>525.0</ele><time>2026-04-12T14:21:47.999Z</time></trkpt><trkpt lat="42.04090868640252" lon="12.967808185568778"><ele>525.0</ele><time>2026-04-12T14:21:48.999Z</time></trkpt><trkpt lat="42.0409687576699" lon="12.967711494778207"><ele>525.0</ele><time>2026-04-12T14:21:49.999Z</time></trkpt><trkpt lat="42.04102858235126" lon="12.96762115063039"><ele>525.0</ele><time>2026-04-12T14:21:50.999Z</time></trkpt><trkpt lat="42.041083004656635" lon="12.967531120539649"><ele>525.0</ele><time>2026-04-12T14:21:51.999Z</time></trkpt><trkpt lat="42.04114730789173" lon="12.96744998020793"><ele>525.0</ele><time>2026-04-12T14:21:52.999Z</time></trkpt><trkpt lat="42.041194836033405" lon="12.967385565696974"><ele>525.0</ele><time>2026-04-12T14:21:53.999Z</time></trkpt><trkpt lat="42.041243409318554" lon="12.967305696102049"><ele>522.5</ele><time>2026-04-12T14:21:54.999Z</time></trkpt><trkpt lat="42.04124479210693" lon="12.967183831700334"><ele>520.0</ele><time>2026-04-12T14:21:55.999Z</time></trkpt><trkpt lat="42.04124949411601" lon="12.967009169361575"><ele>517.5</ele><time>2026-04-12T14:21:56.999Z</time></trkpt><trkpt lat="42.041251226711566" lon="12.966832308278327"><ele>515.0</ele><time>2026-04-12T14:21:57.999Z</time></trkpt><trkpt lat="42.04127463870618" lon="12.966685353436679"><ele>513.2</ele><time>2026-04-12T14:21:58.999Z</time></trkpt><trkpt lat="42.04129347137338" lon="12.966551921935757"><ele>511.4</ele><time>2026-04-12T14:21:59.999Z</time></trkpt><trkpt lat="42.04129963107159" lon="12.966454917885866"><ele>509.6</ele><time>2026-04-12T14:22:00.999Z</time></trkpt><trkpt lat="42.04127311457864" lon="12.966350677733066"><ele>507.8</ele><time>2026-04-12T14:22:02.999Z</time></trkpt><trkpt lat="42.04112749271656" lon="12.966298263830325"><ele>506.0</ele><time>2026-04-12T14:22:05Z</time></trkpt><trkpt lat="42.04106284633559" lon="12.966241615100454"><ele>506.0</ele><time>2026-04-12T14:22:06Z</time></trkpt><trkpt lat="42.041010625995305" lon="12.96606264175896"><ele>506.0</ele><time>2026-04-12T14:22:08Z</time></trkpt><trkpt lat="42.04099725379018" lon="12.965912676958135"><ele>506.0</ele><time>2026-04-12T14:22:09Z</time></trkpt><trkpt lat="42.0409927230793" lon="12.965773543918155"><ele>506.0</ele><time>2026-04-12T14:22:10Z</time></trkpt><trkpt lat="42.041002443628635" lon="12.965618947555917"><ele>503.75</ele><time>2026-04-12T14:22:11Z</time></trkpt><trkpt lat="42.0410327810645" lon="12.96545795870633"><ele>501.5</ele><time>2026-04-12T14:22:12Z</time></trkpt><trkpt lat="42.04107078218457" lon="12.965291187075776"><ele>499.25</ele><time>2026-04-12T14:22:13Z</time></trkpt><trkpt lat="42.041109232741555" lon="12.965138915948105"><ele>497.0</ele><time>2026-04-12T14:22:14Z</time></trkpt><trkpt lat="42.041142474814514" lon="12.965018110913014"><ele>495.20000000000005</ele><time>2026-04-12T14:22:15Z</time></trkpt><trkpt lat="42.04116463335698" lon="12.96489915113377"><ele>493.40000000000003</ele><time>2026-04-12T14:22:16Z</time></trkpt><trkpt lat="42.04117673220177" lon="12.964755686216263"><ele>491.59999999999997</ele><time>2026-04-12T14:22:17Z</time></trkpt><trkpt lat="42.0411808996491" lon="12.964585842838488"><ele>489.79999999999995</ele><time>2026-04-12T14:22:18Z</time></trkpt><trkpt lat="42.0411754284696" lon="12.96442862857537"><ele>488.0</ele><time>2026-04-12T14:22:19Z</time></trkpt><trkpt lat="42.04117704394746" lon="12.964286226963324"><ele>486.79999999999995</ele><time>2026-04-12T14:22:20Z</time></trkpt><trkpt lat="42.04117754901362" lon="12.964144985745762"><ele>485.59999999999997</ele><time>2026-04-12T14:22:21Z</time></trkpt><trkpt lat="42.0411866546038" lon="12.96403090038032"><ele>484.40000000000003</ele><time>2026-04-12T14:22:22Z</time></trkpt><trkpt lat="42.04115401607014" lon="12.963892737992923"><ele>483.20000000000005</ele><time>2026-04-12T14:22:24Z</time></trkpt><trkpt lat="42.041015502979135" lon="12.963882388010397"><ele>482.0</ele><time>2026-04-12T14:22:26Z</time></trkpt><trkpt lat="42.04091333524038" lon="12.963900444021823"><ele>482.0</ele><time>2026-04-12T14:22:27Z</time></trkpt><trkpt lat="42.04081876874159" lon="12.963945566169611"><ele>482.0</ele><time>2026-04-12T14:22:28Z</time></trkpt><trkpt lat="42.04071627912535" lon="12.964015635821402"><ele>482.0</ele><time>2026-04-12T14:22:29Z</time></trkpt><trkpt lat="42.04058979932907" lon="12.964069474727472"><ele>482.0</ele><time>2026-04-12T14:22:30Z</time></trkpt><trkpt lat="42.04050101527142" lon="12.964143798879155"><ele>480.40000000000003</ele><time>2026-04-12T14:22:31Z</time></trkpt><trkpt lat="42.040390051036056" lon="12.964181569236992"><ele>478.80000000000007</ele><time>2026-04-12T14:22:32Z</time></trkpt><trkpt lat="42.04029546158532" lon="12.96422847201605"><ele>477.2</ele><time>2026-04-12T14:22:33Z</time></trkpt><trkpt lat="42.040217493608736" lon="12.964256031312344"><ele>475.6</ele><time>2026-04-12T14:22:34Z</time></trkpt><trkpt lat="42.04014559168247" lon="12.964270951631603"><ele>474.0</ele><time>2026-04-12T14:22:35Z</time></trkpt><trkpt lat="42.0400538859577" lon="12.964282172739413"><ele>471.2</ele><time>2026-04-12T14:22:36Z</time></trkpt><trkpt lat="42.03995100864159" lon="12.964271888004545"><ele>468.4</ele><time>2026-04-12T14:22:37Z</time></trkpt><trkpt lat="42.03984352752991" lon="12.964258905658818"><ele>465.6</ele><time>2026-04-12T14:22:38Z</time></trkpt><trkpt lat="42.039745415658196" lon="12.964245535834964"><ele>462.8</ele><time>2026-04-12T14:22:39Z</time></trkpt><trkpt lat="42.039662408652006" lon="12.964237185968338"><ele>460.0</ele><time>2026-04-12T14:22:40Z</time></trkpt><trkpt lat="42.03957067107231" lon="12.964250799589223"><ele>460.0</ele><time>2026-04-12T14:22:41Z</time></trkpt><trkpt lat="42.03949057688396" lon="12.964313755792514"><ele>460.0</ele><time>2026-04-12T14:22:42Z</time></trkpt><trkpt lat="42.039419322063864" lon="12.964381165531476"><ele>460.0</ele><time>2026-04-12T14:22:43Z</time></trkpt><trkpt lat="42.039343477279445" lon="12.964337145732165"><ele>460.0</ele><time>2026-04-12T14:22:45Z</time></trkpt><trkpt lat="42.03937228857834" lon="12.964187011688363"><ele>460.0</ele><time>2026-04-12T14:22:47Z</time></trkpt><trkpt lat="42.03942551208992" lon="12.964081831429288"><ele>456.75</ele><time>2026-04-12T14:22:48Z</time></trkpt><trkpt lat="42.03948974196909" lon="12.96393929896256"><ele>453.5</ele><time>2026-04-12T14:22:49Z</time></trkpt><trkpt lat="42.03954464709683" lon="12.963785980634116"><ele>450.25</ele><time>2026-04-12T14:22:50Z</time></trkpt><trkpt lat="42.0395955143408" lon="12.963626515221566"><ele>447.0</ele><time>2026-04-12T14:22:51Z</time></trkpt><trkpt lat="42.03964247917932" lon="12.963460005235756"><ele>441.5</ele><time>2026-04-12T14:22:52Z</time></trkpt><trkpt lat="42.0396804009172" lon="12.96329582351842"><ele>436.0</ele><time>2026-04-12T14:22:53Z</time></trkpt><trkpt lat="42.039706138848224" lon="12.963131718119909"><ele>430.5</ele><time>2026-04-12T14:22:54Z</time></trkpt><trkpt lat="42.03973340234275" lon="12.962977267834459"><ele>425.0</ele><time>2026-04-12T14:22:55Z</time></trkpt><trkpt lat="42.03978250956367" lon="12.962830707392827"><ele>425.0</ele><time>2026-04-12T14:22:56Z</time></trkpt><trkpt lat="42.03981981310087" lon="12.962686956603328"><ele>425.0</ele><time>2026-04-12T14:22:57Z</time></trkpt><trkpt lat="42.039875524480465" lon="12.962568763091461"><ele>425.0</ele><time>2026-04-12T14:22:58Z</time></trkpt><trkpt lat="42.03994380328562" lon="12.962450460469736"><ele>425.0</ele><time>2026-04-12T14:22:59Z</time></trkpt><trkpt lat="42.040019549919016" lon="12.96232211157501"><ele>429.0</ele><time>2026-04-12T14:23:00Z</time></trkpt><trkpt lat="42.04010167661867" lon="12.962193803664595"><ele>433.0</ele><time>2026-04-12T14:23:01Z</time></trkpt><trkpt lat="42.04018045435685" lon="12.962052621245505"><ele>437.0</ele><time>2026-04-12T14:23:02Z</time></trkpt><trkpt lat="42.04026291286708" lon="12.961896929092159"><ele>441.0</ele><time>2026-04-12T14:23:03Z</time></trkpt><trkpt lat="42.040332284934465" lon="12.961748045136947"><ele>437.5</ele><time>2026-04-12T14:23:04Z</time></trkpt><trkpt lat="42.04038540253361" lon="12.961612005169023"><ele>434.0</ele><time>2026-04-12T14:23:05Z</time></trkpt><trkpt lat="42.04043341809278" lon="12.96147375327221"><ele>430.5</ele><time>2026-04-12T14:23:06Z</time></trkpt><trkpt lat="42.04047966336471" lon="12.961297121477186"><ele>427.0</ele><time>2026-04-12T14:23:07Z</time></trkpt><trkpt lat="42.040514560842574" lon="12.961134377770405"><ele>427.0</ele><time>2026-04-12T14:23:08Z</time></trkpt><trkpt lat="42.04055038118232" lon="12.960984992159851"><ele>427.00000000000006</ele><time>2026-04-12T14:23:09Z</time></trkpt><trkpt lat="42.04057803227165" lon="12.960854608451362"><ele>427.00000000000006</ele><time>2026-04-12T14:23:10Z</time></trkpt><trkpt lat="42.04059483488783" lon="12.960744767388885"><ele>427.0</ele><time>2026-04-12T14:23:11Z</time></trkpt><trkpt lat="42.04061350938911" lon="12.960657912270502"><ele>427.0</ele><time>2026-04-12T14:23:12Z</time></trkpt><trkpt lat="42.04070222721465" lon="12.960555878353146"><ele>427.75</ele><time>2026-04-12T14:23:14Z</time></trkpt><trkpt lat="42.040822698118326" lon="12.9605640624266"><ele>428.5</ele><time>2026-04-12T14:23:16Z</time></trkpt><trkpt lat="42.04090582355332" lon="12.960674398096302"><ele>429.25</ele><time>2026-04-12T14:23:17Z</time></trkpt><trkpt lat="42.040979207024066" lon="12.96069764454287"><ele>430.0</ele><time>2026-04-12T14:23:18Z</time></trkpt><trkpt lat="42.041116124672115" lon="12.960654942376635"><ele>430.0</ele><time>2026-04-12T14:23:20Z</time></trkpt><trkpt lat="42.04122077773313" lon="12.960565541995798"><ele>430.0</ele><time>2026-04-12T14:23:21Z</time></trkpt><trkpt lat="42.04128566250417" lon="12.960454663516796"><ele>430.0</ele><time>2026-04-12T14:23:22Z</time></trkpt><trkpt lat="42.041361428956314" lon="12.960392834646353"><ele>430.0</ele><time>2026-04-12T14:23:23Z</time></trkpt><trkpt lat="42.04146255693539" lon="12.960400605303876"><ele>430.0</ele><time>2026-04-12T14:23:25Z</time></trkpt><trkpt lat="42.04158325422121" lon="12.960485869397553"><ele>430.8</ele><time>2026-04-12T14:23:27Z</time></trkpt><trkpt lat="42.04169249245955" lon="12.960627304530755"><ele>431.6</ele><time>2026-04-12T14:23:28Z</time></trkpt><trkpt lat="42.04180927718067" lon="12.96067309676377"><ele>432.4</ele><time>2026-04-12T14:23:29Z</time></trkpt><trkpt lat="42.041902933931084" lon="12.960693107597821"><ele>433.2</ele><time>2026-04-12T14:23:30Z</time></trkpt><trkpt lat="42.041966691690995" lon="12.960701808075617"><ele>434.0</ele><time>2026-04-12T14:23:31Z</time></trkpt><trkpt lat="42.04205190813174" lon="12.960748001518434"><ele>434.0</ele><time>2026-04-12T14:23:32Z</time></trkpt><trkpt lat="42.04210637447704" lon="12.96085036854901"><ele>434.0</ele><time>2026-04-12T14:23:33Z</time></trkpt><trkpt lat="42.042156872486714" lon="12.960972173466553"><ele>434.0</ele><time>2026-04-12T14:23:34Z</time></trkpt><trkpt lat="42.042232699147654" lon="12.961122224184177"><ele>434.0</ele><time>2026-04-12T14:23:35Z</time></trkpt><trkpt lat="42.042318652295904" lon="12.961284915235636"><ele>432.25</ele><time>2026-04-12T14:23:36Z</time></trkpt><trkpt lat="42.04238483558175" lon="12.96143821942453"><ele>430.5</ele><time>2026-04-12T14:23:37Z</time></trkpt><trkpt lat="42.042434932366746" lon="12.961611229929535"><ele>428.75</ele><time>2026-04-12T14:23:38Z</time></trkpt><trkpt lat="42.042498783448714" lon="12.96176396602755"><ele>427.0</ele><time>2026-04-12T14:23:39Z</time></trkpt><trkpt lat="42.04254604426921" lon="12.961907294830674"><ele>427.00000000000006</ele><time>2026-04-12T14:23:40Z</time></trkpt><trkpt lat="42.04260949807427" lon="12.962044652248473"><ele>427.0</ele><time>2026-04-12T14:23:41Z</time></trkpt><trkpt lat="42.042637757143424" lon="12.962154123365503"><ele>427.0</ele><time>2026-04-12T14:23:41.999Z</time></trkpt><trkpt lat="42.042679866390756" lon="12.962245668234475"><ele>427.0</ele><time>2026-04-12T14:23:42.999Z</time></trkpt><trkpt lat="42.042685471517686" lon="12.962348832799304"><ele>427.00000000000006</ele><time>2026-04-12T14:23:43.999Z</time></trkpt><trkpt lat="42.042699076842354" lon="12.962463545830966"><ele>427.0</ele><time>2026-04-12T14:23:44.999Z</time></trkpt><trkpt lat="42.04273222000149" lon="12.962570015309005"><ele>429.20000000000005</ele><time>2026-04-12T14:23:45.999Z</time></trkpt><trkpt lat="42.042765903888636" lon="12.962698588395925"><ele>431.40000000000003</ele><time>2026-04-12T14:23:46.999Z</time></trkpt><trkpt lat="42.04283887417808" lon="12.9628292443641"><ele>433.59999999999997</ele><time>2026-04-12T14:23:47.999Z</time></trkpt><trkpt lat="42.04291953363859" lon="12.96293655143044"><ele>435.79999999999995</ele><time>2026-04-12T14:23:48.999Z</time></trkpt><trkpt lat="42.04299085852625" lon="12.963013082281385"><ele>438.0</ele><time>2026-04-12T14:23:49.999Z</time></trkpt><trkpt lat="42.04309057774805" lon="12.963083066372583"><ele>438.0</ele><time>2026-04-12T14:23:50.999Z</time></trkpt><trkpt lat="42.0432060682186" lon="12.963123044267304"><ele>437.99999999999994</ele><time>2026-04-12T14:23:51.999Z</time></trkpt><trkpt lat="42.04331023666883" lon="12.963138729748149"><ele>437.99999999999994</ele><time>2026-04-12T14:23:52.999Z</time></trkpt><trkpt lat="42.04339352585591" lon="12.963125539559359"><ele>438.0</ele><time>2026-04-12T14:23:53.999Z</time></trkpt><trkpt lat="42.04348331810036" lon="12.963120399923566"><ele>438.0</ele><time>2026-04-12T14:23:54.999Z</time></trkpt><trkpt lat="42.04359147691603" lon="12.963126967361903"><ele>433.79999999999995</ele><time>2026-04-12T14:23:55.999Z</time></trkpt><trkpt lat="42.043657146083156" lon="12.963125051506262"><ele>429.59999999999997</ele><time>2026-04-12T14:23:56.999Z</time></trkpt><trkpt lat="42.04373726325551" lon="12.96313579346767"><ele>425.4</ele><time>2026-04-12T14:23:57.999Z</time></trkpt><trkpt lat="42.0438110583139" lon="12.963319860642615"><ele>421.20000000000005</ele><time>2026-04-12T14:23:59.999Z</time></trkpt><trkpt lat="42.04381329283983" lon="12.963462184170874"><ele>417.0</ele><time>2026-04-12T14:24:00.999Z</time></trkpt><trkpt lat="42.04382112035343" lon="12.963616025648028"><ele>417.0</ele><time>2026-04-12T14:24:01.999Z</time></trkpt><trkpt lat="42.043820889951746" lon="12.963811207240155"><ele>417.0</ele><time>2026-04-12T14:24:02.999Z</time></trkpt><trkpt lat="42.04383986557788" lon="12.963974964692094"><ele>417.0</ele><time>2026-04-12T14:24:03.999Z</time></trkpt><trkpt lat="42.04384921546472" lon="12.964120493210805"><ele>417.0</ele><time>2026-04-12T14:24:04.999Z</time></trkpt><trkpt lat="42.04385603525941" lon="12.964256530220016"><ele>418.0</ele><time>2026-04-12T14:24:05.999Z</time></trkpt><trkpt lat="42.04386803029069" lon="12.964374345077143"><ele>419.0</ele><time>2026-04-12T14:24:06.999Z</time></trkpt><trkpt lat="42.04388477351438" lon="12.96446928110884"><ele>420.0</ele><time>2026-04-12T14:24:07.999Z</time></trkpt><trkpt lat="42.043930578557976" lon="12.964548685194133"><ele>421.0</ele><time>2026-04-12T14:24:08.999Z</time></trkpt><trkpt lat="42.04398288327791" lon="12.964605754654702"><ele>422.0</ele><time>2026-04-12T14:24:10Z</time></trkpt><trkpt lat="42.04407756456035" lon="12.964679431618965"><ele>423.0</ele><time>2026-04-12T14:24:12Z</time></trkpt><trkpt lat="42.04414834631294" lon="12.964625468903353"><ele>416.5</ele><time>2026-04-12T14:24:13Z</time></trkpt><trkpt lat="42.044201878682586" lon="12.964494571907956"><ele>410.0</ele><time>2026-04-12T14:24:14Z</time></trkpt><trkpt lat="42.04427169601512" lon="12.964321248052414"><ele>403.5</ele><time>2026-04-12T14:24:15Z</time></trkpt><trkpt lat="42.044372592821155" lon="12.964149276357494"><ele>397.0</ele><time>2026-04-12T14:24:16Z</time></trkpt><trkpt lat="42.04446584748307" lon="12.96398638737126"><ele>393.25</ele><time>2026-04-12T14:24:17Z</time></trkpt><trkpt lat="42.04455232652734" lon="12.963871393377358"><ele>389.5</ele><time>2026-04-12T14:24:18Z</time></trkpt><trkpt lat="42.04464051884546" lon="12.96373529280689"><ele>385.75</ele><time>2026-04-12T14:24:19Z</time></trkpt><trkpt lat="42.0447292309439" lon="12.963616932068792"><ele>382.0</ele><time>2026-04-12T14:24:20Z</time></trkpt><trkpt lat="42.04481745610963" lon="12.963514439398947"><ele>382.0</ele><time>2026-04-12T14:24:21Z</time></trkpt><trkpt lat="42.04490773169388" lon="12.963414845932167"><ele>382.0</ele><time>2026-04-12T14:24:22Z</time></trkpt><trkpt lat="42.044998243381535" lon="12.963316173328655"><ele>382.0</ele><time>2026-04-12T14:24:23Z</time></trkpt><trkpt lat="42.045073129811655" lon="12.96322839557909"><ele>382.0</ele><time>2026-04-12T14:24:24Z</time></trkpt><trkpt lat="42.045132757514835" lon="12.963124785840515"><ele>382.0</ele><time>2026-04-12T14:24:25Z</time></trkpt><trkpt lat="42.04519445530228" lon="12.96307067637251"><ele>382.0</ele><time>2026-04-12T14:24:26Z</time></trkpt><trkpt lat="42.04523967165279" lon="12.962997809789025"><ele>382.0</ele><time>2026-04-12T14:24:28Z</time></trkpt><trkpt lat="42.04517883649048" lon="12.96294047180009"><ele>382.0</ele><time>2026-04-12T14:24:30Z</time></trkpt><trkpt lat="42.04509573177811" lon="12.962923143895525"><ele>382.0</ele><time>2026-04-12T14:24:33Z</time></trkpt><trkpt lat="42.045030589306975" lon="12.962870811147097"><ele>382.0</ele><time>2026-04-12T14:24:34Z</time></trkpt><trkpt lat="42.044977584271734" lon="12.962808197401127"><ele>382.0</ele><time>2026-04-12T14:24:35Z</time></trkpt><trkpt lat="42.04488045660499" lon="12.962708161727255"><ele>382.0</ele><time>2026-04-12T14:24:37Z</time></trkpt><trkpt lat="42.044820998656725" lon="12.962656903109762"><ele>382.0</ele><time>2026-04-12T14:24:38Z</time></trkpt><trkpt lat="42.044755478193814" lon="12.962595880489063"><ele>382.0</ele><time>2026-04-12T14:24:39Z</time></trkpt><trkpt lat="42.04469840277431" lon="12.962535590281279"><ele>382.0</ele><time>2026-04-12T14:24:40Z</time></trkpt><trkpt lat="42.04465112555939" lon="12.96246457194535"><ele>382.0</ele><time>2026-04-12T14:24:41Z</time></trkpt><trkpt lat="42.044607085255294" lon="12.962377719686051"><ele>382.0</ele><time>2026-04-12T14:24:42Z</time></trkpt><trkpt lat="42.04455650155736" lon="12.962272309981058"><ele>380.40000000000003</ele><time>2026-04-12T14:24:43Z</time></trkpt><trkpt lat="42.044494892815244" lon="12.962174994096307"><ele>378.8</ele><time>2026-04-12T14:24:44Z</time></trkpt><trkpt lat="42.04441871991266" lon="12.96207115524914"><ele>377.2</ele><time>2026-04-12T14:24:45Z</time></trkpt><trkpt lat="42.04434128379065" lon="12.961967629426802"><ele>375.6</ele><time>2026-04-12T14:24:46Z</time></trkpt><trkpt lat="42.04427185168422" lon="12.961876895449032"><ele>374.0</ele><time>2026-04-12T14:24:47Z</time></trkpt><trkpt lat="42.04420779259494" lon="12.961786660494782"><ele>372.2</ele><time>2026-04-12T14:24:48Z</time></trkpt><trkpt lat="42.04415295465156" lon="12.961693957670887"><ele>370.4</ele><time>2026-04-12T14:24:49Z</time></trkpt><trkpt lat="42.04410776250975" lon="12.961577564191904"><ele>368.6</ele><time>2026-04-12T14:24:50Z</time></trkpt><trkpt lat="42.04407241921804" lon="12.961464783322961"><ele>366.8</ele><time>2026-04-12T14:24:51Z</time></trkpt><trkpt lat="42.044007683735195" lon="12.961343718261977"><ele>365.0</ele><time>2026-04-12T14:24:52Z</time></trkpt><trkpt lat="42.04394682871239" lon="12.961234063205026"><ele>366.0</ele><time>2026-04-12T14:24:53Z</time></trkpt><trkpt lat="42.043891647456846" lon="12.961135099095722"><ele>367.0</ele><time>2026-04-12T14:24:54Z</time></trkpt><trkpt lat="42.043850174692" lon="12.96103870271674"><ele>368.0</ele><time>2026-04-12T14:24:55Z</time></trkpt><trkpt lat="42.04382114545473" lon="12.960937273643717"><ele>369.0</ele><time>2026-04-12T14:24:56Z</time></trkpt><trkpt lat="42.04379488718044" lon="12.960841974585716"><ele>370.0</ele><time>2026-04-12T14:24:57Z</time></trkpt><trkpt lat="42.04377915759981" lon="12.960743596789468"><ele>371.0</ele><time>2026-04-12T14:24:58Z</time></trkpt><trkpt lat="42.043764320196395" lon="12.960635239001276"><ele>371.0</ele><time>2026-04-12T14:24:59Z</time></trkpt><trkpt lat="42.043739102900524" lon="12.96049557089381"><ele>371.0</ele><time>2026-04-12T14:25:00Z</time></trkpt><trkpt lat="42.04370602501243" lon="12.960338671134254"><ele>371.0</ele><time>2026-04-12T14:25:01Z</time></trkpt><trkpt lat="42.043662097377194" lon="12.960182175905123"><ele>371.0</ele><time>2026-04-12T14:25:02Z</time></trkpt><trkpt lat="42.04362442785405" lon="12.960046127879286"><ele>369.20000000000005</ele><time>2026-04-12T14:25:03Z</time></trkpt><trkpt lat="42.04360450216533" lon="12.959911157861747"><ele>367.40000000000003</ele><time>2026-04-12T14:25:04Z</time></trkpt><trkpt lat="42.04358905119019" lon="12.959784182545592"><ele>365.6</ele><time>2026-04-12T14:25:05Z</time></trkpt><trkpt lat="42.04357960845524" lon="12.959657048673424"><ele>363.8</ele><time>2026-04-12T14:25:06Z</time></trkpt><trkpt lat="42.04357571639038" lon="12.959542986775336"><ele>362.0</ele><time>2026-04-12T14:25:07Z</time></trkpt><trkpt lat="42.04356843773507" lon="12.959435124876848"><ele>362.0</ele><time>2026-04-12T14:25:08Z</time></trkpt><trkpt lat="42.04354697360537" lon="12.95932750930465"><ele>362.0</ele><time>2026-04-12T14:25:09Z</time></trkpt><trkpt lat="42.043523598487134" lon="12.95922418150521"><ele>362.0</ele><time>2026-04-12T14:25:10Z</time></trkpt><trkpt lat="42.04351670244551" lon="12.959098171771862"><ele>362.0</ele><time>2026-04-12T14:25:11Z</time></trkpt><trkpt lat="42.04351786166413" lon="12.958950231435484"><ele>362.0</ele><time>2026-04-12T14:25:12Z</time></trkpt><trkpt lat="42.0435059551947" lon="12.958818533447163"><ele>361.25</ele><time>2026-04-12T14:25:13Z</time></trkpt><trkpt lat="42.043482034033225" lon="12.958670190602938"><ele>360.5</ele><time>2026-04-12T14:25:14Z</time></trkpt><trkpt lat="42.043441382360285" lon="12.958486613983206"><ele>359.75</ele><time>2026-04-12T14:25:15Z</time></trkpt><trkpt lat="42.04340196484495" lon="12.958286513700756"><ele>359.0</ele><time>2026-04-12T14:25:16Z</time></trkpt><trkpt lat="42.04336971213171" lon="12.958102937425824"><ele>358.75</ele><time>2026-04-12T14:25:17Z</time></trkpt><trkpt lat="42.043330458174104" lon="12.957930688913635"><ele>358.5</ele><time>2026-04-12T14:25:18Z</time></trkpt><trkpt lat="42.0432816815781" lon="12.957762507955568"><ele>358.25</ele><time>2026-04-12T14:25:19Z</time></trkpt><trkpt lat="42.043228255573084" lon="12.957601016599337"><ele>358.0</ele><time>2026-04-12T14:25:20Z</time></trkpt><trkpt lat="42.043169992659756" lon="12.957436842395612"><ele>359.5</ele><time>2026-04-12T14:25:21Z</time></trkpt><trkpt lat="42.04311306466467" lon="12.957297432542838"><ele>361.0</ele><time>2026-04-12T14:25:22Z</time></trkpt><trkpt lat="42.04304385817512" lon="12.95715375311814"><ele>362.5</ele><time>2026-04-12T14:25:23Z</time></trkpt><trkpt lat="42.04298166553375" lon="12.957013471108024"><ele>364.0</ele><time>2026-04-12T14:25:24Z</time></trkpt><trkpt lat="42.0429261998374" lon="12.95688343648005"><ele>364.0</ele><time>2026-04-12T14:25:25Z</time></trkpt><trkpt lat="42.0428742435447" lon="12.956763381221922"><ele>364.0</ele><time>2026-04-12T14:25:26Z</time></trkpt><trkpt lat="42.042825591538524" lon="12.95665340842292"><ele>364.0</ele><time>2026-04-12T14:25:27Z</time></trkpt><trkpt lat="42.0427831584923" lon="12.956561986282562"><ele>364.0</ele><time>2026-04-12T14:25:28Z</time></trkpt><trkpt lat="42.04271947409439" lon="12.956422419999548"><ele>364.0</ele><time>2026-04-12T14:25:30Z</time></trkpt><trkpt lat="42.04271793376189" lon="12.956236627536619"><ele>361.8333333333333</ele><time>2026-04-12T14:25:32Z</time></trkpt><trkpt lat="42.0427237970683" lon="12.956126325190096"><ele>359.66666666666663</ele><time>2026-04-12T14:25:33Z</time></trkpt><trkpt lat="42.04272740348502" lon="12.956020815296373"><ele>357.5</ele><time>2026-04-12T14:25:34Z</time></trkpt><trkpt lat="42.04271049984983" lon="12.955929586888528"><ele>355.3333333333333</ele><time>2026-04-12T14:25:35Z</time></trkpt><trkpt lat="42.042665014070465" lon="12.955857931085363"><ele>353.1666666666667</ele><time>2026-04-12T14:25:36Z</time></trkpt><trkpt lat="42.04259343071003" lon="12.95576748979505"><ele>351.0</ele><time>2026-04-12T14:25:37Z</time></trkpt><trkpt lat="42.04253780498844" lon="12.955666270054682"><ele>350.0</ele><time>2026-04-12T14:25:38Z</time></trkpt><trkpt lat="42.042501823564" lon="12.955545125790207"><ele>349.0</ele><time>2026-04-12T14:25:39Z</time></trkpt><trkpt lat="42.042459458027004" lon="12.955392323503863"><ele>348.0</ele><time>2026-04-12T14:25:40Z</time></trkpt><trkpt lat="42.04241706011527" lon="12.955265220811357"><ele>347.0</ele><time>2026-04-12T14:25:41Z</time></trkpt><trkpt lat="42.042376503882494" lon="12.955168423448725"><ele>346.0</ele><time>2026-04-12T14:25:42Z</time></trkpt><trkpt lat="42.04232379225818" lon="12.95505541066212"><ele>348.8333333333333</ele><time>2026-04-12T14:25:44Z</time></trkpt><trkpt lat="42.04227314749577" lon="12.95499628402828"><ele>351.66666666666663</ele><time>2026-04-12T14:25:54.999Z</time></trkpt><trkpt lat="42.04220665830166" lon="12.954983728021803"><ele>354.5</ele><time>2026-04-12T14:25:59.999Z</time></trkpt><trkpt lat="42.0421412139046" lon="12.954967310856963"><ele>357.3333333333333</ele><time>2026-04-12T14:26:05.999Z</time></trkpt><trkpt lat="42.04208416031012" lon="12.954899772531265"><ele>360.1666666666667</ele><time>2026-04-12T14:26:09.999Z</time></trkpt><trkpt lat="42.04207858884374" lon="12.954781988782909"><ele>363.0</ele><time>2026-04-12T14:26:12.999Z</time></trkpt><trkpt lat="42.042045991168635" lon="12.954675396117008"><ele>363.0</ele><time>2026-04-12T14:26:16Z</time></trkpt><trkpt lat="42.04201553435323" lon="12.954567837872794"><ele>363.0</ele><time>2026-04-12T14:26:19Z</time></trkpt><trkpt lat="42.041985531612404" lon="12.95445022064456"><ele>363.0</ele><time>2026-04-12T14:26:22Z</time></trkpt><trkpt lat="42.04196540297314" lon="12.954360730449373"><ele>363.0</ele><time>2026-04-12T14:26:25Z</time></trkpt><trkpt lat="42.041943607977345" lon="12.954273875232364"><ele>363.0</ele><time>2026-04-12T14:26:28Z</time></trkpt><trkpt lat="42.04192198999022" lon="12.954178081859732"><ele>363.0</ele><time>2026-04-12T14:26:31Z</time></trkpt><trkpt lat="42.04192471073603" lon="12.954063412907477"><ele>360.99999999999994</ele><time>2026-04-12T14:26:34Z</time></trkpt><trkpt lat="42.04190973623757" lon="12.95397947346439"><ele>359.0</ele><time>2026-04-12T14:26:39Z</time></trkpt><trkpt lat="42.04187739077819" lon="12.953889931801514"><ele>357.0</ele><time>2026-04-12T14:26:46Z</time></trkpt><trkpt lat="42.041857772011184" lon="12.95379702127171"><ele>355.0</ele><time>2026-04-12T14:26:50Z</time></trkpt><trkpt lat="42.04180610292392" lon="12.953700431444878"><ele>353.0</ele><time>2026-04-12T14:26:54Z</time></trkpt><trkpt lat="42.04177693566248" lon="12.953623271986825"><ele>350.99999999999994</ele><time>2026-04-12T14:26:57Z</time></trkpt><trkpt lat="42.04176748381225" lon="12.953536780487552"><ele>349.0</ele><time>2026-04-12T14:27:01Z</time></trkpt><trkpt lat="42.041722101873" lon="12.953466640266164"><ele>348.99999999999994</ele><time>2026-04-12T14:27:11Z</time></trkpt><trkpt lat="42.041669077792044" lon="12.953393422312766"><ele>349.0</ele><time>2026-04-12T14:27:15Z</time></trkpt><trkpt lat="42.0416295951164" lon="12.95331684815855"><ele>349.0</ele><time>2026-04-12T14:27:52.999Z</time></trkpt><trkpt lat="42.041610200700745" lon="12.953229535797794"><ele>349.0</ele><time>2026-04-12T14:27:56.999Z</time></trkpt><trkpt lat="42.04155354829719" lon="12.953177361675996"><ele>349.0</ele><time>2026-04-12T14:28:12.999Z</time></trkpt><trkpt lat="42.04148331135609" lon="12.953148998569525"><ele>348.99999999999994</ele><time>2026-04-12T14:28:15.999Z</time></trkpt><trkpt lat="42.041431370652155" lon="12.953049732988017"><ele>349.0</ele><time>2026-04-12T14:28:18.999Z</time></trkpt><trkpt lat="42.041365806891186" lon="12.952955497773253"><ele>350.8333333333333</ele><time>2026-04-12T14:28:21Z</time></trkpt><trkpt lat="42.04129743713534" lon="12.952899428478114"><ele>352.66666666666663</ele><time>2026-04-12T14:28:23Z</time></trkpt><trkpt lat="42.04129593807718" lon="12.952808862392947"><ele>354.5</ele><time>2026-04-12T14:28:25Z</time></trkpt><trkpt lat="42.041297694134194" lon="12.952720287888578"><ele>356.3333333333333</ele><time>2026-04-12T14:28:26Z</time></trkpt><trkpt lat="42.041254354538324" lon="12.952593998813972"><ele>358.1666666666667</ele><time>2026-04-12T14:28:28Z</time></trkpt><trkpt lat="42.04123345262016" lon="12.952473855025415"><ele>360.0</ele><time>2026-04-12T14:28:30Z</time></trkpt><trkpt lat="42.04122953594205" lon="12.952383509763607"><ele>356.3333333333333</ele><time>2026-04-12T14:28:32Z</time></trkpt><trkpt lat="42.04115946204557" lon="12.952299835259172"><ele>352.6666666666667</ele><time>2026-04-12T14:28:34Z</time></trkpt><trkpt lat="42.04111985647027" lon="12.952186887959598"><ele>349.0</ele><time>2026-04-12T14:28:36Z</time></trkpt><trkpt lat="42.041108145488195" lon="12.952089298583934"><ele>345.33333333333337</ele><time>2026-04-12T14:28:44Z</time></trkpt><trkpt lat="42.04107996879623" lon="12.95201056646029"><ele>341.6666666666667</ele><time>2026-04-12T14:28:47Z</time></trkpt><trkpt lat="42.041106018921695" lon="12.951900391721296"><ele>338.0</ele><time>2026-04-12T14:29:10Z</time></trkpt><trkpt lat="42.0411777365714" lon="12.95184290077427"><ele>338.0</ele><time>2026-04-12T14:29:13Z</time></trkpt><trkpt lat="42.0412817520542" lon="12.951794181463741"><ele>338.0</ele><time>2026-04-12T14:29:15Z</time></trkpt><trkpt lat="42.041354746000316" lon="12.951771616949129"><ele>338.0</ele><time>2026-04-12T14:29:16Z</time></trkpt><trkpt lat="42.041417635654" lon="12.95175280285441"><ele>338.0</ele><time>2026-04-12T14:29:17Z</time></trkpt><trkpt lat="42.041480104449946" lon="12.951742070097762"><ele>338.0</ele><time>2026-04-12T14:29:18Z</time></trkpt><trkpt lat="42.04155428799561" lon="12.951715916779337"><ele>338.0</ele><time>2026-04-12T14:29:19Z</time></trkpt><trkpt lat="42.041654106491045" lon="12.951680438889632"><ele>338.2</ele><time>2026-04-12T14:29:20Z</time></trkpt><trkpt lat="42.04172289868865" lon="12.951648988815784"><ele>338.4</ele><time>2026-04-12T14:29:21Z</time></trkpt><trkpt lat="42.04182769208932" lon="12.951623479908045"><ele>338.59999999999997</ele><time>2026-04-12T14:29:23Z</time></trkpt><trkpt lat="42.04192328709242" lon="12.951572181232264"><ele>338.79999999999995</ele><time>2026-04-12T14:29:25Z</time></trkpt><trkpt lat="42.04198579676761" lon="12.951544775489836"><ele>339.0</ele><time>2026-04-12T14:29:26Z</time></trkpt><trkpt lat="42.04209344253694" lon="12.951520426504592"><ele>339.0</ele><time>2026-04-12T14:29:27Z</time></trkpt><trkpt lat="42.04222242164408" lon="12.951504022681947"><ele>339.0</ele><time>2026-04-12T14:29:28Z</time></trkpt><trkpt lat="42.04234496075318" lon="12.951484933647137"><ele>339.0</ele><time>2026-04-12T14:29:29Z</time></trkpt><trkpt lat="42.042430907911545" lon="12.95147913800875"><ele>339.0</ele><time>2026-04-12T14:29:30Z</time></trkpt><trkpt lat="42.04250943783722" lon="12.951478606613177"><ele>339.0</ele><time>2026-04-12T14:29:31Z</time></trkpt><trkpt lat="42.04258033526097" lon="12.951475382541263"><ele>338.0</ele><time>2026-04-12T14:29:32Z</time></trkpt><trkpt lat="42.04264520069549" lon="12.951460075201275"><ele>337.0</ele><time>2026-04-12T14:29:33Z</time></trkpt><trkpt lat="42.04272119901859" lon="12.951429831369035"><ele>336.0</ele><time>2026-04-12T14:29:34Z</time></trkpt><trkpt lat="42.04279349562273" lon="12.951384592008797"><ele>335.0</ele><time>2026-04-12T14:29:35Z</time></trkpt><trkpt lat="42.042859892412245" lon="12.951314844024434"><ele>334.0</ele><time>2026-04-12T14:29:36Z</time></trkpt><trkpt lat="42.04291288771922" lon="12.951217676798482"><ele>333.0</ele><time>2026-04-12T14:29:37Z</time></trkpt><trkpt lat="42.04296218464579" lon="12.95111408020053"><ele>333.0</ele><time>2026-04-12T14:29:38Z</time></trkpt><trkpt lat="42.043025867755155" lon="12.951024212294904"><ele>333.0</ele><time>2026-04-12T14:29:38.999Z</time></trkpt><trkpt lat="42.04309846820413" lon="12.950949741185603"><ele>333.0</ele><time>2026-04-12T14:29:39.999Z</time></trkpt><trkpt lat="42.04316700114401" lon="12.950864368381113"><ele>333.0</ele><time>2026-04-12T14:29:40.999Z</time></trkpt><trkpt lat="42.0432264792665" lon="12.950775720618232"><ele>333.0</ele><time>2026-04-12T14:29:41.999Z</time></trkpt><trkpt lat="42.043274931607364" lon="12.950708595554023"><ele>333.0</ele><time>2026-04-12T14:29:42.999Z</time></trkpt><trkpt lat="42.04337144696573" lon="12.950620073860481"><ele>333.5</ele><time>2026-04-12T14:29:44.999Z</time></trkpt><trkpt lat="42.043445034993105" lon="12.950593769432833"><ele>334.0</ele><time>2026-04-12T14:29:45.999Z</time></trkpt><trkpt lat="42.04352658424376" lon="12.950562438899732"><ele>334.5</ele><time>2026-04-12T14:29:46.999Z</time></trkpt><trkpt lat="42.043596625679875" lon="12.950520164046164"><ele>335.0</ele><time>2026-04-12T14:29:47.999Z</time></trkpt><trkpt lat="42.04364592949811" lon="12.950451455747523"><ele>335.5</ele><time>2026-04-12T14:29:48.999Z</time></trkpt><trkpt lat="42.04369049416276" lon="12.950362303226733"><ele>336.0</ele><time>2026-04-12T14:29:49.999Z</time></trkpt><trkpt lat="42.04373010417023" lon="12.95025151851944"><ele>336.0</ele><time>2026-04-12T14:29:50.999Z</time></trkpt><trkpt lat="42.04376349100528" lon="12.950139756720501"><ele>336.0</ele><time>2026-04-12T14:29:51.999Z</time></trkpt><trkpt lat="42.043822138356106" lon="12.95003734859003"><ele>336.0</ele><time>2026-04-12T14:29:52.999Z</time></trkpt><trkpt lat="42.04390252618188" lon="12.949946120811584"><ele>336.0</ele><time>2026-04-12T14:29:53.999Z</time></trkpt><trkpt lat="42.04398962069239" lon="12.949869536501254"><ele>336.0</ele><time>2026-04-12T14:29:54.999Z</time></trkpt><trkpt lat="42.044062394047565" lon="12.949812471043561"><ele>336.7142857142857</ele><time>2026-04-12T14:29:55.999Z</time></trkpt><trkpt lat="42.04412435307117" lon="12.949755156627628"><ele>337.42857142857144</ele><time>2026-04-12T14:29:56.999Z</time></trkpt><trkpt lat="42.04419586243529" lon="12.949741258480085"><ele>338.1428571428571</ele><time>2026-04-12T14:29:57.999Z</time></trkpt><trkpt lat="42.04425484420923" lon="12.949700183328732"><ele>338.8571428571429</ele><time>2026-04-12T14:29:58.999Z</time></trkpt><trkpt lat="42.044315490976025" lon="12.94965932923007"><ele>339.57142857142856</ele><time>2026-04-12T14:29:59.999Z</time></trkpt><trkpt lat="42.04438355512365" lon="12.949613478487676"><ele>340.2857142857143</ele><time>2026-04-12T14:30:00.999Z</time></trkpt><trkpt lat="42.04444758733684" lon="12.949567705690436"><ele>341.0</ele><time>2026-04-12T14:30:01.999Z</time></trkpt><trkpt lat="42.0445160061847" lon="12.949517982971727"><ele>341.8</ele><time>2026-04-12T14:30:02.999Z</time></trkpt><trkpt lat="42.044600012595744" lon="12.949454340661866"><ele>342.6</ele><time>2026-04-12T14:30:03.999Z</time></trkpt><trkpt lat="42.04469148651461" lon="12.949384227876138"><ele>343.4</ele><time>2026-04-12T14:30:04.999Z</time></trkpt><trkpt lat="42.044760942394646" lon="12.949305909012253"><ele>344.2</ele><time>2026-04-12T14:30:05.999Z</time></trkpt><trkpt lat="42.04482901313322" lon="12.949265054779774"><ele>345.0</ele><time>2026-04-12T14:30:06.999Z</time></trkpt><trkpt lat="42.044912392166054" lon="12.949201883752293"><ele>345.1666666666667</ele><time>2026-04-12T14:30:08.999Z</time></trkpt><trkpt lat="42.0449765160258" lon="12.949143647018156"><ele>345.3333333333333</ele><time>2026-04-12T14:30:11.999Z</time></trkpt><trkpt lat="42.04503257471981" lon="12.949080670912693"><ele>345.5</ele><time>2026-04-12T14:30:16.999Z</time></trkpt><trkpt lat="42.04509081796502" lon="12.949016762188656"><ele>345.66666666666663</ele><time>2026-04-12T14:30:18.999Z</time></trkpt><trkpt lat="42.04518824745198" lon="12.94893012849132"><ele>345.8333333333333</ele><time>2026-04-12T14:30:20.999Z</time></trkpt><trkpt lat="42.04526940409878" lon="12.948860456839764"><ele>346.0</ele><time>2026-04-12T14:30:21.999Z</time></trkpt><trkpt lat="42.045356869743266" lon="12.948802217158672"><ele>346.0</ele><time>2026-04-12T14:30:22.999Z</time></trkpt><trkpt lat="42.04543576794774" lon="12.948744658894288"><ele>346.0</ele><time>2026-04-12T14:30:23.999Z</time></trkpt><trkpt lat="42.0455086310332" lon="12.948684316001057"><ele>346.0</ele><time>2026-04-12T14:30:24.999Z</time></trkpt><trkpt lat="42.045565044681474" lon="12.948617900481088"><ele>346.0</ele><time>2026-04-12T14:30:25.999Z</time></trkpt><trkpt lat="42.045626234504866" lon="12.948542415533515"><ele>346.0</ele><time>2026-04-12T14:30:27Z</time></trkpt><trkpt lat="42.04568037045357" lon="12.948460622309268"><ele>346.0</ele><time>2026-04-12T14:30:28Z</time></trkpt><trkpt lat="42.045740307494306" lon="12.94840757497966"><ele>346.3333333333333</ele><time>2026-04-12T14:30:29Z</time></trkpt><trkpt lat="42.04578059187324" lon="12.94834128779041"><ele>346.66666666666663</ele><time>2026-04-12T14:30:30Z</time></trkpt><trkpt lat="42.04582656858236" lon="12.9482602386783"><ele>347.0</ele><time>2026-04-12T14:30:31Z</time></trkpt><trkpt lat="42.045883182011096" lon="12.948190438921772"><ele>347.3333333333333</ele><time>2026-04-12T14:30:32Z</time></trkpt><trkpt lat="42.04598645455377" lon="12.948133734418576"><ele>347.6666666666667</ele><time>2026-04-12T14:30:34Z</time></trkpt><trkpt lat="42.04607497007415" lon="12.94809847511545"><ele>348.0</ele><time>2026-04-12T14:30:36Z</time></trkpt><trkpt lat="42.04613328389991" lon="12.948046185049087"><ele>348.0</ele><time>2026-04-12T14:30:38Z</time></trkpt><trkpt lat="42.04619402901866" lon="12.948023819444018"><ele>348.0</ele><time>2026-04-12T14:30:41Z</time></trkpt><trkpt lat="42.046258319518486" lon="12.948028486694456"><ele>348.0</ele><time>2026-04-12T14:30:47Z</time></trkpt><trkpt lat="42.04626145116683" lon="12.947943505918085"><ele>348.0</ele><time>2026-04-12T14:31:02Z</time></trkpt><trkpt lat="42.04627623233083" lon="12.94783711823019"><ele>348.0</ele><time>2026-04-12T14:31:06Z</time></trkpt><trkpt lat="42.04633778226868" lon="12.947774774371586"><ele>348.0</ele><time>2026-04-12T14:38:10.999Z</time></trkpt><trkpt lat="42.0463728638082" lon="12.947691845929995"><ele>348.0</ele><time>2026-04-12T14:38:12.999Z</time></trkpt><trkpt lat="42.0463868532068" lon="12.947602199364711"><ele>352.42857142857144</ele><time>2026-04-12T14:38:15.999Z</time></trkpt><trkpt lat="42.046399683267055" lon="12.947509644880236"><ele>356.8571428571429</ele><time>2026-04-12T14:38:20.999Z</time></trkpt><trkpt lat="42.0463998724225" lon="12.947422923441623"><ele>361.28571428571433</ele><time>2026-04-12T14:38:23.999Z</time></trkpt><trkpt lat="42.04639170216685" lon="12.947338606533998"><ele>365.7142857142857</ele><time>2026-04-12T14:38:26.999Z</time></trkpt><trkpt lat="42.04641863914915" lon="12.947225099385582"><ele>370.14285714285717</ele><time>2026-04-12T14:38:29.999Z</time></trkpt><trkpt lat="42.04645891348914" lon="12.947153277362855"><ele>374.5714285714286</ele><time>2026-04-12T14:38:32.999Z</time></trkpt><trkpt lat="42.04646975852174" lon="12.94706904187674"><ele>379.0</ele><time>2026-04-12T14:38:34.999Z</time></trkpt><trkpt lat="42.04651819266965" lon="12.94699441988235"><ele>379.0</ele><time>2026-04-12T14:38:37.999Z</time></trkpt><trkpt lat="42.04658297644683" lon="12.946937435927678"><ele>379.0</ele><time>2026-04-12T14:38:40.999Z</time></trkpt><trkpt lat="42.046647651084456" lon="12.946876517516202"><ele>379.0</ele><time>2026-04-12T14:38:42.999Z</time></trkpt><trkpt lat="42.046723934576335" lon="12.946819778344379"><ele>379.0</ele><time>2026-04-12T14:38:44.999Z</time></trkpt><trkpt lat="42.04678398500215" lon="12.946725957671909"><ele>379.0</ele><time>2026-04-12T14:38:46.999Z</time></trkpt><trkpt lat="42.046826024551535" lon="12.946631523457592"><ele>379.0</ele><time>2026-04-12T14:38:48.999Z</time></trkpt><trkpt lat="42.046861546107145" lon="12.94654243656153"><ele>376.66666666666663</ele><time>2026-04-12T14:38:51Z</time></trkpt><trkpt lat="42.04685287952937" lon="12.946450653814189"><ele>374.3333333333333</ele><time>2026-04-12T14:38:57Z</time></trkpt><trkpt lat="42.04686398241116" lon="12.946348633159584"><ele>372.0</ele><time>2026-04-12T14:39:04Z</time></trkpt><trkpt lat="42.04689513791499" lon="12.94624715264973"><ele>369.6666666666667</ele><time>2026-04-12T14:39:08Z</time></trkpt><trkpt lat="42.046875733882565" lon="12.946134315173337"><ele>367.33333333333337</ele><time>2026-04-12T14:39:11Z</time></trkpt><trkpt lat="42.04689000931459" lon="12.946041644667265"><ele>365.0</ele><time>2026-04-12T14:39:15Z</time></trkpt><trkpt lat="42.046885198331324" lon="12.945949234990444"><ele>367.83333333333337</ele><time>2026-04-12T14:39:19Z</time></trkpt><trkpt lat="42.04687213291926" lon="12.945839416908631"><ele>370.6666666666667</ele><time>2026-04-12T14:39:22Z</time></trkpt><trkpt lat="42.04689435548952" lon="12.94573720823539"><ele>373.5</ele><time>2026-04-12T14:39:26Z</time></trkpt><trkpt lat="42.04689936965798" lon="12.945637832137905"><ele>376.3333333333333</ele><time>2026-04-12T14:39:29Z</time></trkpt><trkpt lat="42.04687883683085" lon="12.945536998642265"><ele>379.16666666666663</ele><time>2026-04-12T14:39:31Z</time></trkpt><trkpt lat="42.04681528748092" lon="12.945479555357457"><ele>382.0</ele><time>2026-04-12T14:39:35Z</time></trkpt><trkpt lat="42.04677621161005" lon="12.94539203743093"><ele>382.0</ele><time>2026-04-12T14:39:50Z</time></trkpt><trkpt lat="42.04672620527003" lon="12.945314073985232"><ele>382.0</ele><time>2026-04-12T14:39:53Z</time></trkpt><trkpt lat="42.04674006167571" lon="12.945222400197151"><ele>382.0</ele><time>2026-04-12T14:39:56Z</time></trkpt><trkpt lat="42.046722935374596" lon="12.945119209127563"><ele>382.0</ele><time>2026-04-12T14:39:59Z</time></trkpt><trkpt lat="42.04672247382059" lon="12.945018799715912"><ele>382.0</ele><time>2026-04-12T14:40:01Z</time></trkpt><trkpt lat="42.04669721112431" lon="12.944941044320226"><ele>382.0</ele><time>2026-04-12T14:40:06.999Z</time></trkpt><trkpt lat="42.046676742882376" lon="12.944844357107842"><ele>382.0</ele><time>2026-04-12T14:40:12.999Z</time></trkpt><trkpt lat="42.04661724486585" lon="12.944885597472108"><ele>387.8333333333333</ele><time>2026-04-12T14:40:18.999Z</time></trkpt><trkpt lat="42.046542466352804" lon="12.94492411753416"><ele>393.66666666666663</ele><time>2026-04-12T14:40:21.999Z</time></trkpt><trkpt lat="42.04645200482496" lon="12.944937731095415"><ele>399.5</ele><time>2026-04-12T14:40:24.999Z</time></trkpt><trkpt lat="42.046388344727326" lon="12.944922167584325"><ele>405.3333333333333</ele><time>2026-04-12T14:40:27.999Z</time></trkpt><trkpt lat="42.04633454350139" lon="12.944876019958858"><ele>411.1666666666667</ele><time>2026-04-12T14:40:29.999Z</time></trkpt><trkpt lat="42.046265667262034" lon="12.944769842425004"><ele>417.0</ele><time>2026-04-12T14:40:32.999Z</time></trkpt><trkpt lat="42.046161023913875" lon="12.944634693420866"><ele>417.0</ele><time>2026-04-12T14:40:34.999Z</time></trkpt><trkpt lat="42.046101132275204" lon="12.944564526338544"><ele>417.0</ele><time>2026-04-12T14:40:37.999Z</time></trkpt><trkpt lat="42.04606531218104" lon="12.94446869183496"><ele>417.0</ele><time>2026-04-12T14:40:40.999Z</time></trkpt><trkpt lat="42.04603914663238" lon="12.944385146852419"><ele>417.0</ele><time>2026-04-12T14:40:42.999Z</time></trkpt><trkpt lat="42.04600610958431" lon="12.944290496726772"><ele>417.0</ele><time>2026-04-12T14:40:44.999Z</time></trkpt><trkpt lat="42.045953408586975" lon="12.944184122616587"><ele>417.0</ele><time>2026-04-12T14:40:52.999Z</time></trkpt><trkpt lat="42.04590956312549" lon="12.944093623315384"><ele>418.3333333333333</ele><time>2026-04-12T14:40:54.999Z</time></trkpt><trkpt lat="42.04582677409139" lon="12.944010612636353"><ele>419.66666666666663</ele><time>2026-04-12T14:40:58Z</time></trkpt><trkpt lat="42.04577743454169" lon="12.943939463483417"><ele>421.0</ele><time>2026-04-12T14:41:00Z</time></trkpt><trkpt lat="42.04577678234331" lon="12.943843805039172"><ele>422.3333333333333</ele><time>2026-04-12T14:41:02Z</time></trkpt><trkpt lat="42.045803801082684" lon="12.943757737975194"><ele>423.66666666666663</ele><time>2026-04-12T14:41:04Z</time></trkpt><trkpt lat="42.045817239765874" lon="12.943658783004445"><ele>425.0</ele><time>2026-04-12T14:41:06Z</time></trkpt><trkpt lat="42.045827142692715" lon="12.943556470532268"><ele>424.99999999999994</ele><time>2026-04-12T14:41:10Z</time></trkpt><trkpt lat="42.045885554574845" lon="12.943479945345148"><ele>425.0</ele><time>2026-04-12T14:41:12Z</time></trkpt><trkpt lat="42.04591889943439" lon="12.943389609152007"><ele>425.0</ele><time>2026-04-12T14:41:14Z</time></trkpt><trkpt lat="42.04591386864031" lon="12.943269969490071"><ele>425.0</ele><time>2026-04-12T14:41:16Z</time></trkpt><trkpt lat="42.04592506353748" lon="12.94314918264286"><ele>424.99999999999994</ele><time>2026-04-12T14:41:18Z</time></trkpt><trkpt lat="42.04592820318052" lon="12.943004776033263"><ele>425.0</ele><time>2026-04-12T14:41:20Z</time></trkpt><trkpt lat="42.0459308973213" lon="12.942915488153238"><ele>426.8333333333333</ele><time>2026-04-12T14:41:21Z</time></trkpt><trkpt lat="42.04595251654229" lon="12.942778140943906"><ele>428.66666666666663</ele><time>2026-04-12T14:41:23Z</time></trkpt><trkpt lat="42.04599110762489" lon="12.942705957019962"><ele>430.5</ele><time>2026-04-12T14:41:25Z</time></trkpt><trkpt lat="42.04599407901083" lon="12.942591170113442"><ele>432.33333333333337</ele><time>2026-04-12T14:41:28Z</time></trkpt><trkpt lat="42.04599529465202" lon="12.94246114516592"><ele>434.1666666666667</ele><time>2026-04-12T14:41:31Z</time></trkpt><trkpt lat="42.04598895947447" lon="12.942370226852784"><ele>436.0</ele><time>2026-04-12T14:41:36Z</time></trkpt><trkpt lat="42.04595313514709" lon="12.942298682669456"><ele>437.6666666666667</ele><time>2026-04-12T14:42:01Z</time></trkpt><trkpt lat="42.045956566980465" lon="12.942171000618936"><ele>439.33333333333337</ele><time>2026-04-12T14:42:16.999Z</time></trkpt><trkpt lat="42.045975633443966" lon="12.942064993249929"><ele>441.0</ele><time>2026-04-12T14:42:41.999Z</time></trkpt><trkpt lat="42.04592240289859" lon="12.942000803942062"><ele>442.66666666666663</ele><time>2026-04-12T14:42:55.999Z</time></trkpt><trkpt lat="42.045908616048585" lon="12.941917292448242"><ele>444.3333333333333</ele><time>2026-04-12T14:44:12.999Z</time></trkpt><trkpt lat="42.04595827464096" lon="12.94183269079249"><ele>446.0</ele><time>2026-04-12T14:44:15.999Z</time></trkpt><trkpt lat="42.04601465398128" lon="12.941755113732146"><ele>447.66666666666663</ele><time>2026-04-12T14:44:21.999Z</time></trkpt><trkpt lat="42.04608509321363" lon="12.94169867446229"><ele>449.3333333333333</ele><time>2026-04-12T14:44:26.999Z</time></trkpt><trkpt lat="42.04610812092318" lon="12.941616071291676"><ele>451.0</ele><time>2026-04-12T14:44:35.999Z</time></trkpt><trkpt lat="42.046138366256535" lon="12.941531974846285"><ele>452.66666666666663</ele><time>2026-04-12T14:45:06.999Z</time></trkpt><trkpt lat="42.04621059606078" lon="12.941422614131096"><ele>454.3333333333333</ele><time>2026-04-12T14:45:09Z</time></trkpt><trkpt lat="42.046277161775265" lon="12.941347913114294"><ele>456.0</ele><time>2026-04-12T14:45:10Z</time></trkpt><trkpt lat="42.04633422985012" lon="12.941274572406536"><ele>456.0</ele><time>2026-04-12T14:45:12Z</time></trkpt><trkpt lat="42.04638888435202" lon="12.941155523318683"><ele>456.0</ele><time>2026-04-12T14:45:14Z</time></trkpt><trkpt lat="42.0464346666657" lon="12.941087272150288"><ele>456.0</ele><time>2026-04-12T14:45:15Z</time></trkpt><trkpt lat="42.046467199510865" lon="12.940964260709427"><ele>456.0</ele><time>2026-04-12T14:45:17Z</time></trkpt><trkpt lat="42.04647516691233" lon="12.940841829757474"><ele>456.0</ele><time>2026-04-12T14:45:23Z</time></trkpt><trkpt lat="42.046493462687735" lon="12.94074319948605"><ele>456.0</ele><time>2026-04-12T14:45:30Z</time></trkpt><trkpt lat="42.04652228866425" lon="12.940638767167497"><ele>453.8</ele><time>2026-04-12T14:45:35Z</time></trkpt><trkpt lat="42.04656888153326" lon="12.940537674099556"><ele>451.6</ele><time>2026-04-12T14:45:37Z</time></trkpt><trkpt lat="42.046628087398375" lon="12.940442089662469"><ele>449.4</ele><time>2026-04-12T14:45:39Z</time></trkpt><trkpt lat="42.04671075390133" lon="12.940314086167533"><ele>447.2</ele><time>2026-04-12T14:45:41Z</time></trkpt><trkpt lat="42.046787513686986" lon="12.940220163866217"><ele>445.0</ele><time>2026-04-12T14:45:43Z</time></trkpt><trkpt lat="42.04682455350365" lon="12.940133773400223"><ele>445.00000000000006</ele><time>2026-04-12T14:45:45Z</time></trkpt><trkpt lat="42.046895455172425" lon="12.940110618536899"><ele>445.0</ele><time>2026-04-12T14:45:47Z</time></trkpt><trkpt lat="42.04700225746412" lon="12.940094046496343"><ele>445.0</ele><time>2026-04-12T14:45:49Z</time></trkpt><trkpt lat="42.047073725054425" lon="12.940059959654482"><ele>445.0</ele><time>2026-04-12T14:45:50Z</time></trkpt><trkpt lat="42.04716306738134" lon="12.939975458006222"><ele>445.00000000000006</ele><time>2026-04-12T14:45:52Z</time></trkpt><trkpt lat="42.047185264005016" lon="12.939879994791497"><ele>445.0</ele><time>2026-04-12T14:45:54Z</time></trkpt><trkpt lat="42.04725137497812" lon="12.939750398998784"><ele>446.8</ele><time>2026-04-12T14:45:56Z</time></trkpt><trkpt lat="42.047289764491644" lon="12.9396173879231"><ele>448.6</ele><time>2026-04-12T14:45:58Z</time></trkpt><trkpt lat="42.04732856347064" lon="12.93949171175955"><ele>450.4</ele><time>2026-04-12T14:46:00Z</time></trkpt><trkpt lat="42.04737004233968" lon="12.939352222572762"><ele>452.2</ele><time>2026-04-12T14:46:02Z</time></trkpt><trkpt lat="42.04744242845088" lon="12.939228246613467"><ele>454.0</ele><time>2026-04-12T14:46:04Z</time></trkpt><trkpt lat="42.047508267128734" lon="12.93909418105718"><ele>454.00000000000006</ele><time>2026-04-12T14:46:05.999Z</time></trkpt><trkpt lat="42.04753148265253" lon="12.938970119026026"><ele>454.0</ele><time>2026-04-12T14:46:07.999Z</time></trkpt><trkpt lat="42.047528993066194" lon="12.938837450290947"><ele>454.0</ele><time>2026-04-12T14:46:09.999Z</time></trkpt><trkpt lat="42.04749921992832" lon="12.938716163185266"><ele>454.0</ele><time>2026-04-12T14:46:11.999Z</time></trkpt><trkpt lat="42.04747206925289" lon="12.938635270194826"><ele>454.00000000000006</ele><time>2026-04-12T14:46:14.999Z</time></trkpt><trkpt lat="42.04748822212736" lon="12.938522780765783"><ele>454.0</ele><time>2026-04-12T14:46:16.999Z</time></trkpt><trkpt lat="42.04755191948152" lon="12.938448285360064"><ele>454.0</ele><time>2026-04-12T14:46:18.999Z</time></trkpt><trkpt lat="42.04762678359626" lon="12.938387049278363"><ele>454.0</ele><time>2026-04-12T14:46:20.999Z</time></trkpt><trkpt lat="42.04772430668628" lon="12.938351144138627"><ele>454.0</ele><time>2026-04-12T14:46:22.999Z</time></trkpt><trkpt lat="42.047834570692686" lon="12.938304753843454"><ele>454.0</ele><time>2026-04-12T14:46:24.999Z</time></trkpt><trkpt lat="42.04791124153142" lon="12.938273839984998"><ele>454.0</ele><time>2026-04-12T14:46:26.999Z</time></trkpt><trkpt lat="42.04801049449358" lon="12.938239626127952"><ele>452.79999999999995</ele><time>2026-04-12T14:46:28.999Z</time></trkpt><trkpt lat="42.048117872309334" lon="12.938192002586876"><ele>451.59999999999997</ele><time>2026-04-12T14:46:30.999Z</time></trkpt><trkpt lat="42.048213602916036" lon="12.93810923593606"><ele>450.4</ele><time>2026-04-12T14:46:32.999Z</time></trkpt><trkpt lat="42.048244294650935" lon="12.938029818290294"><ele>449.2</ele><time>2026-04-12T14:46:33.999Z</time></trkpt><trkpt lat="42.048292539839686" lon="12.937894105658751"><ele>448.0</ele><time>2026-04-12T14:46:35.999Z</time></trkpt><trkpt lat="42.0483197135256" lon="12.937779900332952"><ele>448.0</ele><time>2026-04-12T14:46:37.999Z</time></trkpt><trkpt lat="42.04835144670231" lon="12.937676087248175"><ele>447.99999999999994</ele><time>2026-04-12T14:46:40.999Z</time></trkpt><trkpt lat="42.048420462637644" lon="12.937577062877692"><ele>447.99999999999994</ele><time>2026-04-12T14:46:43.999Z</time></trkpt><trkpt lat="42.04847605289402" lon="12.937516542002887"><ele>448.0</ele><time>2026-04-12T14:46:44.999Z</time></trkpt><trkpt lat="42.04857962960498" lon="12.937439368159229"><ele>448.0</ele><time>2026-04-12T14:46:46.999Z</time></trkpt><trkpt lat="42.04867305122922" lon="12.937411579210721"><ele>449.2</ele><time>2026-04-12T14:46:47.999Z</time></trkpt><trkpt lat="42.048764337322744" lon="12.93739515470014"><ele>450.4</ele><time>2026-04-12T14:46:48.999Z</time></trkpt><trkpt lat="42.04885789674611" lon="12.93738395689884"><ele>451.59999999999997</ele><time>2026-04-12T14:46:49.999Z</time></trkpt><trkpt lat="42.048946804668894" lon="12.937401676369104"><ele>452.79999999999995</ele><time>2026-04-12T14:46:50.999Z</time></trkpt><trkpt lat="42.0490274619481" lon="12.937416410522815"><ele>454.0</ele><time>2026-04-12T14:46:51.999Z</time></trkpt><trkpt lat="42.04912954141642" lon="12.9374134132969"><ele>454.0</ele><time>2026-04-12T14:46:53.999Z</time></trkpt><trkpt lat="42.04919376825901" lon="12.937386433985766"><ele>454.00000000000006</ele><time>2026-04-12T14:46:54.999Z</time></trkpt><trkpt lat="42.04925958686821" lon="12.937354694566583"><ele>454.0</ele><time>2026-04-12T14:46:55.999Z</time></trkpt><trkpt lat="42.04931938282231" lon="12.9373205101688"><ele>454.0</ele><time>2026-04-12T14:46:56.999Z</time></trkpt><trkpt lat="42.04938807684349" lon="12.937277768833473"><ele>454.00000000000006</ele><time>2026-04-12T14:46:57.999Z</time></trkpt><trkpt lat="42.04946158474954" lon="12.937220815212848"><ele>454.0</ele><time>2026-04-12T14:46:58.999Z</time></trkpt><trkpt lat="42.049529560769145" lon="12.937169511425848"><ele>454.0</ele><time>2026-04-12T14:46:59.999Z</time></trkpt><trkpt lat="42.049588808256956" lon="12.93712206884582"><ele>454.00000000000006</ele><time>2026-04-12T14:47:00.999Z</time></trkpt><trkpt lat="42.0496549765248" lon="12.937086129491442"><ele>454.0</ele><time>2026-04-12T14:47:01.999Z</time></trkpt><trkpt lat="42.04972526509038" lon="12.937071860652065"><ele>454.0</ele><time>2026-04-12T14:47:02.999Z</time></trkpt><trkpt lat="42.049810443606674" lon="12.937065201823746"><ele>454.0</ele><time>2026-04-12T14:47:04.999Z</time></trkpt><trkpt lat="42.04991037717074" lon="12.937014577628378"><ele>454.00000000000006</ele><time>2026-04-12T14:47:06.999Z</time></trkpt><trkpt lat="42.04997458965944" lon="12.936989433014876"><ele>454.0</ele><time>2026-04-12T14:47:07.999Z</time></trkpt><trkpt lat="42.05003702239698" lon="12.93696047520543"><ele>453.25</ele><time>2026-04-12T14:47:08.999Z</time></trkpt><trkpt lat="42.050152415203726" lon="12.936901412720427"><ele>452.5</ele><time>2026-04-12T14:47:10.999Z</time></trkpt><trkpt lat="42.05024631063816" lon="12.936819529054238"><ele>451.75</ele><time>2026-04-12T14:47:12.999Z</time></trkpt><trkpt lat="42.0503333973929" lon="12.936731298833765"><ele>451.0</ele><time>2026-04-12T14:47:15Z</time></trkpt><trkpt lat="42.050400806241186" lon="12.936619528243503"><ele>456.25</ele><time>2026-04-12T14:47:17Z</time></trkpt><trkpt lat="42.05044436833756" lon="12.9364412838565"><ele>461.5</ele><time>2026-04-12T14:47:19Z</time></trkpt><trkpt lat="42.05045709231608" lon="12.936295713641082"><ele>466.75</ele><time>2026-04-12T14:47:20Z</time></trkpt><trkpt lat="42.050479673372344" lon="12.936131215497806"><ele>472.0</ele><time>2026-04-12T14:47:21Z</time></trkpt><trkpt lat="42.05049946725845" lon="12.935966683835726"><ele>474.1666666666667</ele><time>2026-04-12T14:47:22Z</time></trkpt><trkpt lat="42.050510649254406" lon="12.935834645869885"><ele>476.33333333333337</ele><time>2026-04-12T14:47:23Z</time></trkpt><trkpt lat="42.05051616162179" lon="12.935726714960763"><ele>478.5</ele><time>2026-04-12T14:47:24Z</time></trkpt><trkpt lat="42.05050573506781" lon="12.935631934882293"><ele>480.66666666666663</ele><time>2026-04-12T14:47:25Z</time></trkpt><trkpt lat="42.05049539894675" lon="12.935532490188288"><ele>482.8333333333333</ele><time>2026-04-12T14:47:26Z</time></trkpt><trkpt lat="42.050494096143915" lon="12.935428736849182"><ele>485.0</ele><time>2026-04-12T14:47:27Z</time></trkpt><trkpt lat="42.05050551348878" lon="12.935324098117674"><ele>484.99999999999994</ele><time>2026-04-12T14:47:28Z</time></trkpt><trkpt lat="42.05052403300025" lon="12.935216028124202"><ele>485.0</ele><time>2026-04-12T14:47:29Z</time></trkpt><trkpt lat="42.05054354911862" lon="12.935093873569311"><ele>485.0</ele><time>2026-04-12T14:47:30Z</time></trkpt><trkpt lat="42.05055803251511" lon="12.934996466435353"><ele>485.0</ele><time>2026-04-12T14:47:31Z</time></trkpt><trkpt lat="42.0505473708944" lon="12.93488028727503"><ele>484.99999999999994</ele><time>2026-04-12T14:47:33Z</time></trkpt><trkpt lat="42.050579407212076" lon="12.934785331094572"><ele>485.0</ele><time>2026-04-12T14:47:36Z</time></trkpt><trkpt lat="42.05063533550215" lon="12.934745368308441"><ele>484.49999999999994</ele><time>2026-04-12T14:47:37Z</time></trkpt><trkpt lat="42.05071558312072" lon="12.934690501857785"><ele>484.0</ele><time>2026-04-12T14:47:39Z</time></trkpt><trkpt lat="42.0507801894426" lon="12.934720112751346"><ele>483.5</ele><time>2026-04-12T14:47:41Z</time></trkpt><trkpt lat="42.050804872353076" lon="12.934632807412486"><ele>483.0</ele><time>2026-04-12T14:47:43Z</time></trkpt><trkpt lat="42.050877519682494" lon="12.93456163408845"><ele>482.49999999999994</ele><time>2026-04-12T14:47:45Z</time></trkpt><trkpt lat="42.05092607097836" lon="12.934501238817068"><ele>482.0</ele><time>2026-04-12T14:47:47Z</time></trkpt><trkpt lat="42.05089444135754" lon="12.934403510586376"><ele>481.99999999999994</ele><time>2026-04-12T14:47:54Z</time></trkpt><trkpt lat="42.05086847350125" lon="12.934317541545337"><ele>482.0</ele><time>2026-04-12T14:47:58Z</time></trkpt><trkpt lat="42.050871280760674" lon="12.934219743410393"><ele>482.0</ele><time>2026-04-12T14:48:00Z</time></trkpt><trkpt lat="42.05087510237912" lon="12.934087058994699"><ele>482.0</ele><time>2026-04-12T14:48:03Z</time></trkpt><trkpt lat="42.050896837317005" lon="12.933984141475145"><ele>481.99999999999994</ele><time>2026-04-12T14:48:05Z</time></trkpt><trkpt lat="42.050891157008515" lon="12.933834242714212"><ele>482.0</ele><time>2026-04-12T14:48:07Z</time></trkpt><trkpt lat="42.050865799551055" lon="12.933727764285566"><ele>483.8</ele><time>2026-04-12T14:48:10Z</time></trkpt><trkpt lat="42.05090576307908" lon="12.933621518198539"><ele>485.6</ele><time>2026-04-12T14:48:15Z</time></trkpt><trkpt lat="42.05092078390867" lon="12.933495582218889"><ele>487.40000000000003</ele><time>2026-04-12T14:48:17Z</time></trkpt><trkpt lat="42.050891296645595" lon="12.93339485585484"><ele>489.20000000000005</ele><time>2026-04-12T14:48:18.999Z</time></trkpt><trkpt lat="42.05091405182558" lon="12.933272449094735"><ele>491.0</ele><time>2026-04-12T14:48:20.999Z</time></trkpt><trkpt lat="42.050977007452964" lon="12.933102462350744"><ele>492.6</ele><time>2026-04-12T14:48:23.999Z</time></trkpt><trkpt lat="42.0510434739569" lon="12.933004799922973"><ele>494.20000000000005</ele><time>2026-04-12T14:48:26.999Z</time></trkpt><trkpt lat="42.051042495879535" lon="12.932819261265688"><ele>495.79999999999995</ele><time>2026-04-12T14:48:28.999Z</time></trkpt><trkpt lat="42.05104343895242" lon="12.932712001674567"><ele>497.4</ele><time>2026-04-12T14:48:29.999Z</time></trkpt><trkpt lat="42.05104913015801" lon="12.93262627793516"><ele>499.0</ele><time>2026-04-12T14:48:30.999Z</time></trkpt><trkpt lat="42.051065238731454" lon="12.932508977727872"><ele>500.6</ele><time>2026-04-12T14:48:32.999Z</time></trkpt><trkpt lat="42.051040746388864" lon="12.932415582214261"><ele>502.2</ele><time>2026-04-12T14:48:34.999Z</time></trkpt><trkpt lat="42.05097638752616" lon="12.93231516217442"><ele>503.80000000000007</ele><time>2026-04-12T14:48:36.999Z</time></trkpt><trkpt lat="42.05093168873667" lon="12.932209473322056"><ele>505.40000000000003</ele><time>2026-04-12T14:48:38.999Z</time></trkpt><trkpt lat="42.050895561329625" lon="12.932098357284627"><ele>507.0</ele><time>2026-04-12T14:48:40.999Z</time></trkpt><trkpt lat="42.05084249792644" lon="12.931979683757305"><ele>507.0</ele><time>2026-04-12T14:48:42.999Z</time></trkpt><trkpt lat="42.05083145370587" lon="12.931879224059214"><ele>507.0</ele><time>2026-04-12T14:48:44.999Z</time></trkpt><trkpt lat="42.05087731605509" lon="12.931752378674336"><ele>507.0</ele><time>2026-04-12T14:48:46.999Z</time></trkpt><trkpt lat="42.050823151673846" lon="12.931648853006886"><ele>507.0</ele><time>2026-04-12T14:48:49.999Z</time></trkpt><trkpt lat="42.05075831336345" lon="12.931560310246923"><ele>507.0</ele><time>2026-04-12T14:48:51.999Z</time></trkpt><trkpt lat="42.05081188748651" lon="12.931495798362588"><ele>507.0</ele><time>2026-04-12T14:48:54.999Z</time></trkpt><trkpt lat="42.05087940753874" lon="12.931434946433274"><ele>507.40000000000003</ele><time>2026-04-12T14:48:57.999Z</time></trkpt><trkpt lat="42.05093626665714" lon="12.931354027931963"><ele>507.80000000000007</ele><time>2026-04-12T14:48:59.999Z</time></trkpt><trkpt lat="42.05097023640272" lon="12.931267715542129"><ele>508.2</ele><time>2026-04-12T14:49:00.999Z</time></trkpt><trkpt lat="42.05100412368706" lon="12.931139973295593"><ele>508.6</ele><time>2026-04-12T14:49:02.999Z</time></trkpt><trkpt lat="42.05103540596147" lon="12.931060875065512"><ele>509.0</ele><time>2026-04-12T14:49:04.999Z</time></trkpt><trkpt lat="42.051120127170385" lon="12.930801981371475"><ele>510.49999999999994</ele><time>2026-04-12T14:49:07.999Z</time></trkpt><trkpt lat="42.05115343201276" lon="12.9306947659864"><ele>512.0</ele><time>2026-04-12T14:49:08.999Z</time></trkpt><trkpt lat="42.05117589529837" lon="12.930602681018065"><ele>513.5</ele><time>2026-04-12T14:49:09.999Z</time></trkpt><trkpt lat="42.05119632912259" lon="12.930483479471988"><ele>515.0</ele><time>2026-04-12T14:49:11.999Z</time></trkpt><trkpt lat="42.05122220711253" lon="12.93037498234298"><ele>516.5</ele><time>2026-04-12T14:49:13.999Z</time></trkpt><trkpt lat="42.05124842632845" lon="12.9302824204892"><ele>518.0</ele><time>2026-04-12T14:49:15.999Z</time></trkpt><trkpt lat="42.05125422808147" lon="12.930182251462215"><ele>518.0</ele><time>2026-04-12T14:49:16.999Z</time></trkpt><trkpt lat="42.05132448019327" lon="12.930060112933765"><ele>518.0</ele><time>2026-04-12T14:49:18.999Z</time></trkpt><trkpt lat="42.05138287721185" lon="12.929997830782682"><ele>518.0</ele><time>2026-04-12T14:49:21Z</time></trkpt><trkpt lat="42.05136028029766" lon="12.92989755140459"><ele>518.0</ele><time>2026-04-12T14:49:26Z</time></trkpt><trkpt lat="42.051300795686494" lon="12.929823878517627"><ele>518.0</ele><time>2026-04-12T14:49:28Z</time></trkpt><trkpt lat="42.0513177951416" lon="12.92974059854931"><ele>518.0</ele><time>2026-04-12T14:49:32Z</time></trkpt><trkpt lat="42.05138205908561" lon="12.929426269740066"><ele>519.0</ele><time>2026-04-12T14:49:35Z</time></trkpt><trkpt lat="42.05139617117464" lon="12.92933795275242"><ele>520.0</ele><time>2026-04-12T14:49:36Z</time></trkpt><trkpt lat="42.051416216864546" lon="12.929202362820044"><ele>521.0</ele><time>2026-04-12T14:49:38Z</time></trkpt><trkpt lat="42.051408318467715" lon="12.92908235354864"><ele>522.0</ele><time>2026-04-12T14:49:40Z</time></trkpt><trkpt lat="42.051423893440564" lon="12.92893937146058"><ele>523.0</ele><time>2026-04-12T14:49:42Z</time></trkpt><trkpt lat="42.05140442997837" lon="12.928783405518084"><ele>523.5</ele><time>2026-04-12T14:49:44Z</time></trkpt><trkpt lat="42.051383933995524" lon="12.928686143383906"><ele>524.0</ele><time>2026-04-12T14:49:46Z</time></trkpt><trkpt lat="42.05140973483425" lon="12.92860300000267"><ele>524.5</ele><time>2026-04-12T14:49:48Z</time></trkpt><trkpt lat="42.05137922767329" lon="12.928519560876557"><ele>525.0</ele><time>2026-04-12T14:49:50Z</time></trkpt><trkpt lat="42.051352229188126" lon="12.928393965584096"><ele>525.5</ele><time>2026-04-12T14:49:52Z</time></trkpt><trkpt lat="42.051343312245805" lon="12.928261147726092"><ele>526.0</ele><time>2026-04-12T14:49:54Z</time></trkpt><trkpt lat="42.051360799551446" lon="12.928123736233372"><ele>526.0</ele><time>2026-04-12T14:49:56Z</time></trkpt><trkpt lat="42.05138599278907" lon="12.92804245453308"><ele>526.0</ele><time>2026-04-12T14:49:57Z</time></trkpt><trkpt lat="42.05139217496073" lon="12.927954697509133"><ele>526.0</ele><time>2026-04-12T14:49:58Z</time></trkpt><trkpt lat="42.05140027556261" lon="12.927857100328646"><ele>526.0</ele><time>2026-04-12T14:50:00Z</time></trkpt><trkpt lat="42.05147113049053" lon="12.927805033281553"><ele>526.0</ele><time>2026-04-12T14:50:04Z</time></trkpt><trkpt lat="42.05153599283555" lon="12.927734358158101"><ele>526.0</ele><time>2026-04-12T14:50:06Z</time></trkpt><trkpt lat="42.05159300188977" lon="12.927671662441218"><ele>526.0</ele><time>2026-04-12T14:50:08Z</time></trkpt><trkpt lat="42.051568514786" lon="12.927586920560625"><ele>526.2</ele><time>2026-04-12T14:50:10Z</time></trkpt><trkpt lat="42.05155152720859" lon="12.927482947096125"><ele>526.4000000000001</ele><time>2026-04-12T14:50:23Z</time></trkpt><trkpt lat="42.05158542864556" lon="12.927282594522598"><ele>526.6</ele><time>2026-04-12T14:50:25Z</time></trkpt><trkpt lat="42.051602908284124" lon="12.927142849521505"><ele>526.8000000000001</ele><time>2026-04-12T14:50:26Z</time></trkpt><trkpt lat="42.05161874750776" lon="12.927024269566822"><ele>527.0</ele><time>2026-04-12T14:50:26.999Z</time></trkpt><trkpt lat="42.05163981126569" lon="12.926938353255196"><ele>525.2</ele><time>2026-04-12T14:50:27.999Z</time></trkpt><trkpt lat="42.051673259719976" lon="12.926847239391702"><ele>523.4000000000001</ele><time>2026-04-12T14:50:28.999Z</time></trkpt><trkpt lat="42.051694380015604" lon="12.926734923863465"><ele>521.5999999999999</ele><time>2026-04-12T14:50:29.999Z</time></trkpt><trkpt lat="42.05171499507846" lon="12.926640006298168"><ele>519.8</ele><time>2026-04-12T14:50:30.999Z</time></trkpt><trkpt lat="42.051787522179836" lon="12.9265187562251"><ele>518.0</ele><time>2026-04-12T14:50:32.999Z</time></trkpt><trkpt lat="42.05188565254369" lon="12.926417017234346"><ele>518.0</ele><time>2026-04-12T14:50:34.999Z</time></trkpt><trkpt lat="42.05194833106401" lon="12.926345342197749"><ele>518.0</ele><time>2026-04-12T14:50:35.999Z</time></trkpt><trkpt lat="42.05201579695575" lon="12.926262270441798"><ele>518.0</ele><time>2026-04-12T14:50:36.999Z</time></trkpt><trkpt lat="42.052072628961106" lon="12.926208927539506"><ele>518.0</ele><time>2026-04-12T14:50:37.999Z</time></trkpt><trkpt lat="42.05216503135853" lon="12.926216806235917"><ele>518.0</ele><time>2026-04-12T14:50:39.999Z</time></trkpt><trkpt lat="42.052230166148064" lon="12.926201527820051"><ele>518.0</ele><time>2026-04-12T14:54:21Z</time></trkpt><trkpt lat="42.05229181332076" lon="12.926124302731694"><ele>518.0</ele><time>2026-04-12T14:54:23Z</time></trkpt><trkpt lat="42.052338160294845" lon="12.926066074278964"><ele>518.0</ele><time>2026-04-12T14:54:24Z</time></trkpt><trkpt lat="42.052385359356705" lon="12.925996524297666"><ele>518.0</ele><time>2026-04-12T14:54:25Z</time></trkpt><trkpt lat="42.05243337535178" lon="12.92592651213883"><ele>518.0</ele><time>2026-04-12T14:54:26Z</time></trkpt><trkpt lat="42.05247673222329" lon="12.925861123744452"><ele>518.0</ele><time>2026-04-12T14:54:27Z</time></trkpt><trkpt lat="42.05253038460707" lon="12.925787234656646"><ele>518.0</ele><time>2026-04-12T14:54:28Z</time></trkpt><trkpt lat="42.05259381192729" lon="12.925698551277579"><ele>518.0</ele><time>2026-04-12T14:54:29Z</time></trkpt><trkpt lat="42.052660277361674" lon="12.92560793064821"><ele>518.0</ele><time>2026-04-12T14:54:30Z</time></trkpt><trkpt lat="42.052736375819016" lon="12.925509040714456"><ele>518.0</ele><time>2026-04-12T14:54:31Z</time></trkpt><trkpt lat="42.052809188645746" lon="12.92541618480491"><ele>518.0</ele><time>2026-04-12T14:54:32Z</time></trkpt><trkpt lat="42.05287068230459" lon="12.925321949484845"><ele>518.0</ele><time>2026-04-12T14:54:33Z</time></trkpt><trkpt lat="42.052925293983904" lon="12.925235218800406"><ele>518.0</ele><time>2026-04-12T14:54:33.999Z</time></trkpt><trkpt lat="42.05297353478435" lon="12.925155691416215"><ele>518.6</ele><time>2026-04-12T14:54:34.999Z</time></trkpt><trkpt lat="42.05302648395067" lon="12.92505962283923"><ele>519.1999999999999</ele><time>2026-04-12T14:54:35.999Z</time></trkpt><trkpt lat="42.053090035419906" lon="12.924928212339184"><ele>519.8</ele><time>2026-04-12T14:54:36.999Z</time></trkpt><trkpt lat="42.05314457077192" lon="12.924813444560217"><ele>520.4</ele><time>2026-04-12T14:54:37.999Z</time></trkpt><trkpt lat="42.053194078386106" lon="12.924720746586432"><ele>521.0</ele><time>2026-04-12T14:54:38.999Z</time></trkpt><trkpt lat="42.0532655064" lon="12.924645462574654"><ele>517.75</ele><time>2026-04-12T14:54:39.999Z</time></trkpt><trkpt lat="42.053376185556075" lon="12.924568606031405"><ele>514.5</ele><time>2026-04-12T14:54:40.999Z</time></trkpt><trkpt lat="42.05349584933179" lon="12.924471385734943"><ele>511.25</ele><time>2026-04-12T14:54:41.999Z</time></trkpt><trkpt lat="42.05358529870158" lon="12.92439273839871"><ele>508.0</ele><time>2026-04-12T14:54:42.999Z</time></trkpt><trkpt lat="42.05365518027703" lon="12.92431016030155"><ele>510.79999999999995</ele><time>2026-04-12T14:54:43.999Z</time></trkpt><trkpt lat="42.05370209074143" lon="12.924221828031142"><ele>513.5999999999999</ele><time>2026-04-12T14:54:44.999Z</time></trkpt><trkpt lat="42.05374180836361" lon="12.924139601336028"><ele>516.4000000000001</ele><time>2026-04-12T14:54:45.999Z</time></trkpt><trkpt lat="42.053817021971646" lon="12.924084981488248"><ele>519.2</ele><time>2026-04-12T14:54:46.999Z</time></trkpt><trkpt lat="42.053936163493745" lon="12.923999770842519"><ele>522.0</ele><time>2026-04-12T14:54:47.999Z</time></trkpt><trkpt lat="42.05403550751419" lon="12.923915124625877"><ele>519.75</ele><time>2026-04-12T14:54:48.999Z</time></trkpt><trkpt lat="42.05414757741632" lon="12.92382050961998"><ele>517.5</ele><time>2026-04-12T14:54:49.999Z</time></trkpt><trkpt lat="42.0542718241141" lon="12.92368340865906"><ele>515.25</ele><time>2026-04-12T14:54:50.999Z</time></trkpt><trkpt lat="42.05436752935083" lon="12.92358538913111"><ele>513.0</ele><time>2026-04-12T14:54:51.999Z</time></trkpt><trkpt lat="42.05443913670336" lon="12.923517324844939"><ele>513.0</ele><time>2026-04-12T14:54:52.999Z</time></trkpt><trkpt lat="42.05453837553235" lon="12.923424577323527"><ele>513.0</ele><time>2026-04-12T14:54:54.999Z</time></trkpt><trkpt lat="42.05459884479554" lon="12.923363737095587"><ele>513.0</ele><time>2026-04-12T14:54:55.999Z</time></trkpt><trkpt lat="42.05466747616695" lon="12.92328665554875"><ele>513.0</ele><time>2026-04-12T14:54:56.999Z</time></trkpt><trkpt lat="42.054761459295726" lon="12.923199816664418"><ele>513.0</ele><time>2026-04-12T14:54:57.999Z</time></trkpt><trkpt lat="42.054861866672546" lon="12.92310174718007"><ele>514.1666666666666</ele><time>2026-04-12T14:54:58.999Z</time></trkpt><trkpt lat="42.05492761780384" lon="12.923022834993075"><ele>515.3333333333334</ele><time>2026-04-12T14:54:59.999Z</time></trkpt><trkpt lat="42.05501498589413" lon="12.922971853507832"><ele>516.5</ele><time>2026-04-12T14:55:01.999Z</time></trkpt><trkpt lat="42.0550867937543" lon="12.922996258668473"><ele>517.6666666666667</ele><time>2026-04-12T14:55:02.999Z</time></trkpt><trkpt lat="42.05517095263673" lon="12.923024714457558"><ele>518.8333333333334</ele><time>2026-04-12T14:55:03.999Z</time></trkpt><trkpt lat="42.05525005970387" lon="12.92301209901036"><ele>520.0</ele><time>2026-04-12T14:55:04.999Z</time></trkpt><trkpt lat="42.05533076321773" lon="12.92296690108944"><ele>520.0</ele><time>2026-04-12T14:55:05.999Z</time></trkpt><trkpt lat="42.055416277060765" lon="12.922902258523498"><ele>520.0</ele><time>2026-04-12T14:55:06.999Z</time></trkpt><trkpt lat="42.055505191083476" lon="12.922828037007848"><ele>520.0</ele><time>2026-04-12T14:55:07.999Z</time></trkpt><trkpt lat="42.055589519747805" lon="12.92274180230991"><ele>520.0</ele><time>2026-04-12T14:55:08.999Z</time></trkpt><trkpt lat="42.055672634223995" lon="12.922630903594772"><ele>520.0</ele><time>2026-04-12T14:55:09.999Z</time></trkpt><trkpt lat="42.055750516762885" lon="12.922522422546031"><ele>522.5</ele><time>2026-04-12T14:55:10.999Z</time></trkpt><trkpt lat="42.05582108773462" lon="12.922397495766829"><ele>525.0</ele><time>2026-04-12T14:55:11.999Z</time></trkpt><trkpt lat="42.0559005808141" lon="12.922260853615555"><ele>527.5</ele><time>2026-04-12T14:55:12.999Z</time></trkpt><trkpt lat="42.05599380751555" lon="12.92210877126809"><ele>530.0</ele><time>2026-04-12T14:55:13.999Z</time></trkpt><trkpt lat="42.05608108089765" lon="12.921981474846337"><ele>530.0</ele><time>2026-04-12T14:55:14.999Z</time></trkpt><trkpt lat="42.05615728029474" lon="12.921889607678322"><ele>530.0</ele><time>2026-04-12T14:55:15.999Z</time></trkpt><trkpt lat="42.056245407538" lon="12.921800296851895"><ele>530.0</ele><time>2026-04-12T14:55:16.999Z</time></trkpt><trkpt lat="42.05631847831" lon="12.921725432826852"><ele>530.0</ele><time>2026-04-12T14:55:17.999Z</time></trkpt><trkpt lat="42.05638654475688" lon="12.921651874881112"><ele>530.0</ele><time>2026-04-12T14:55:18.999Z</time></trkpt><trkpt lat="42.05646752290899" lon="12.921572021676937"><ele>531.8</ele><time>2026-04-12T14:55:19.999Z</time></trkpt><trkpt lat="42.05655848404629" lon="12.92149636669994"><ele>533.6</ele><time>2026-04-12T14:55:20.999Z</time></trkpt><trkpt lat="42.05664770314576" lon="12.921426141213502"><ele>535.4</ele><time>2026-04-12T14:55:21.999Z</time></trkpt><trkpt lat="42.05672878319139" lon="12.921352125248937"><ele>537.2</ele><time>2026-04-12T14:55:22.999Z</time></trkpt><trkpt lat="42.05681223065123" lon="12.921266756806984"><ele>539.0</ele><time>2026-04-12T14:55:23.999Z</time></trkpt><trkpt lat="42.056895803390816" lon="12.921183672088183"><ele>539.0</ele><time>2026-04-12T14:55:24.999Z</time></trkpt><trkpt lat="42.056971045250776" lon="12.921101603870115"><ele>539.0</ele><time>2026-04-12T14:55:25.999Z</time></trkpt><trkpt lat="42.05703280930807" lon="12.921045727138155"><ele>539.0</ele><time>2026-04-12T14:55:26.999Z</time></trkpt><trkpt lat="42.057108830496134" lon="12.920995682716459"><ele>539.0</ele><time>2026-04-12T14:55:27.999Z</time></trkpt><trkpt lat="42.0572022907782" lon="12.920952909180437"><ele>539.0</ele><time>2026-04-12T14:55:28.999Z</time></trkpt><trkpt lat="42.057305677649815" lon="12.920960221482794"><ele>539.0</ele><time>2026-04-12T14:55:29.999Z</time></trkpt><trkpt lat="42.057396400296255" lon="12.920913487285077"><ele>539.0</ele><time>2026-04-12T14:55:30.999Z</time></trkpt><trkpt lat="42.05747638693802" lon="12.920897400016974"><ele>539.0</ele><time>2026-04-12T14:55:31.999Z</time></trkpt><trkpt lat="42.057564230745875" lon="12.920901917727397"><ele>539.0</ele><time>2026-04-12T14:55:32.999Z</time></trkpt><trkpt lat="42.05765934986789" lon="12.920911899391989"><ele>539.0</ele><time>2026-04-12T14:55:33.999Z</time></trkpt><trkpt lat="42.057751916768" lon="12.920941441489797"><ele>540.2</ele><time>2026-04-12T14:55:34.999Z</time></trkpt><trkpt lat="42.05783694076181" lon="12.920977210504525"><ele>541.4</ele><time>2026-04-12T14:55:35.999Z</time></trkpt><trkpt lat="42.05793272965048" lon="12.921020900283086"><ele>542.6</ele><time>2026-04-12T14:55:36.999Z</time></trkpt><trkpt lat="42.05803458551908" lon="12.921071669896534"><ele>543.8</ele><time>2026-04-12T14:55:38Z</time></trkpt><trkpt lat="42.05814500263032" lon="12.921127813447548"><ele>545.0</ele><time>2026-04-12T14:55:39Z</time></trkpt><trkpt lat="42.05825822263845" lon="12.921184626025386"><ele>546.1666666666666</ele><time>2026-04-12T14:55:40Z</time></trkpt><trkpt lat="42.058350265830214" lon="12.92121348855779"><ele>547.3333333333333</ele><time>2026-04-12T14:55:41Z</time></trkpt><trkpt lat="42.058425479291515" lon="12.921205395546329"><ele>548.5</ele><time>2026-04-12T14:55:42Z</time></trkpt><trkpt lat="42.05849069502644" lon="12.92120406814795"><ele>549.6666666666666</ele><time>2026-04-12T14:55:43Z</time></trkpt><trkpt lat="42.05855651237122" lon="12.921160717601467"><ele>550.8333333333334</ele><time>2026-04-12T14:55:44Z</time></trkpt><trkpt lat="42.05861654887749" lon="12.921088095170418"><ele>552.0</ele><time>2026-04-12T14:55:45Z</time></trkpt><trkpt lat="42.0586582221655" lon="12.920982951390366"><ele>555.2</ele><time>2026-04-12T14:55:46Z</time></trkpt><trkpt lat="42.05870743192142" lon="12.920839715867256"><ele>558.4000000000001</ele><time>2026-04-12T14:55:47Z</time></trkpt><trkpt lat="42.05877807230338" lon="12.920729662489684"><ele>561.5999999999999</ele><time>2026-04-12T14:55:48Z</time></trkpt><trkpt lat="42.058874712709326" lon="12.920676800883477"><ele>564.8</ele><time>2026-04-12T14:55:49Z</time></trkpt><trkpt lat="42.05896298153854" lon="12.920642685525344"><ele>568.0</ele><time>2026-04-12T14:55:50Z</time></trkpt><trkpt lat="42.059048870161654" lon="12.92062404812457"><ele>568.0</ele><time>2026-04-12T14:55:51Z</time></trkpt><trkpt lat="42.059143568569354" lon="12.920611740097458"><ele>568.0</ele><time>2026-04-12T14:55:52Z</time></trkpt><trkpt lat="42.05924716255729" lon="12.920621752928929"><ele>568.0</ele><time>2026-04-12T14:55:53Z</time></trkpt><trkpt lat="42.05936351707225" lon="12.92064712609288"><ele>568.0</ele><time>2026-04-12T14:55:54Z</time></trkpt><trkpt lat="42.05948642518649" lon="12.920656025586812"><ele>568.0</ele><time>2026-04-12T14:55:55Z</time></trkpt><trkpt lat="42.05957663738089" lon="12.92063052144306"><ele>568.0</ele><time>2026-04-12T14:55:56Z</time></trkpt><trkpt lat="42.059647433855986" lon="12.92060418335427"><ele>568.0</ele><time>2026-04-12T14:55:57Z</time></trkpt><trkpt lat="42.05973428799817" lon="12.920570389718792"><ele>568.0</ele><time>2026-04-12T14:55:58Z</time></trkpt><trkpt lat="42.05985520198858" lon="12.92052042055786"><ele>568.0</ele><time>2026-04-12T14:55:59Z</time></trkpt><trkpt lat="42.059992746810714" lon="12.920472721390572"><ele>568.0</ele><time>2026-04-12T14:56:00Z</time></trkpt><trkpt lat="42.06013690630048" lon="12.92045013929664"><ele>569.5</ele><time>2026-04-12T14:56:01Z</time></trkpt><trkpt lat="42.060251730313034" lon="12.920454372891832"><ele>571.0</ele><time>2026-04-12T14:56:02Z</time></trkpt><trkpt lat="42.06036210110618" lon="12.920467004849705"><ele>572.5</ele><time>2026-04-12T14:56:03Z</time></trkpt><trkpt lat="42.06048396972063" lon="12.920479866842461"><ele>574.0</ele><time>2026-04-12T14:56:04Z</time></trkpt><trkpt lat="42.06060366591277" lon="12.920492499513964"><ele>574.0</ele><time>2026-04-12T14:56:05Z</time></trkpt><trkpt lat="42.06068810704775" lon="12.920364031943052"><ele>574.0</ele><time>2026-04-12T14:56:06Z</time></trkpt><trkpt lat="42.060828971116635" lon="12.920520386049105"><ele>574.0</ele><time>2026-04-12T14:56:07Z</time></trkpt><trkpt lat="42.06094357751034" lon="12.92057006061693"><ele>574.0</ele><time>2026-04-12T14:56:08Z</time></trkpt><trkpt lat="42.06106155591117" lon="12.920624771467836"><ele>575.5</ele><time>2026-04-12T14:56:09Z</time></trkpt><trkpt lat="42.06118288748421" lon="12.92070285299386"><ele>577.0</ele><time>2026-04-12T14:56:10Z</time></trkpt><trkpt lat="42.06130162411263" lon="12.920793487307739"><ele>578.5</ele><time>2026-04-12T14:56:11Z</time></trkpt><trkpt lat="42.06142328732339" lon="12.920884349848457"><ele>580.0</ele><time>2026-04-12T14:56:12Z</time></trkpt><trkpt lat="42.06153924103472" lon="12.920987570548656"><ele>580.2</ele><time>2026-04-12T14:56:13Z</time></trkpt><trkpt lat="42.06162888947123" lon="12.921087213048944"><ele>580.4</ele><time>2026-04-12T14:56:14Z</time></trkpt><trkpt lat="42.06169567486605" lon="12.921179501656193"><ele>580.6</ele><time>2026-04-12T14:56:15Z</time></trkpt><trkpt lat="42.0617468670967" lon="12.921261347362602"><ele>580.8</ele><time>2026-04-12T14:56:16Z</time></trkpt><trkpt lat="42.061768712991785" lon="12.92136369890499"><ele>581.0</ele><time>2026-04-12T14:56:17Z</time></trkpt><trkpt lat="42.0617886533169" lon="12.92148222399936"><ele>581.0</ele><time>2026-04-12T14:56:18Z</time></trkpt><trkpt lat="42.06181796975284" lon="12.921582799555829"><ele>581.0</ele><time>2026-04-12T14:56:19Z</time></trkpt><trkpt lat="42.06188759181762" lon="12.921640635919816"><ele>581.0</ele><time>2026-04-12T14:56:21Z</time></trkpt><trkpt lat="42.06203633717793" lon="12.92170987883922"><ele>581.0</ele><time>2026-04-12T14:56:23Z</time></trkpt><trkpt lat="42.06213567460472" lon="12.921782231857126"><ele>581.0</ele><time>2026-04-12T14:56:24Z</time></trkpt><trkpt lat="42.0622313186442" lon="12.921843685261273"><ele>577.75</ele><time>2026-04-12T14:56:25Z</time></trkpt><trkpt lat="42.062337317621825" lon="12.921890699415153"><ele>574.5</ele><time>2026-04-12T14:56:26Z</time></trkpt><trkpt lat="42.062460341471784" lon="12.921925682356415"><ele>571.25</ele><time>2026-04-12T14:56:27Z</time></trkpt><trkpt lat="42.062595605763306" lon="12.921955392228211"><ele>568.0</ele><time>2026-04-12T14:56:28Z</time></trkpt><trkpt lat="42.06274304838346" lon="12.921986857746518"><ele>568.0</ele><time>2026-04-12T14:56:29Z</time></trkpt><trkpt lat="42.06290033503601" lon="12.922030338000773"><ele>568.0</ele><time>2026-04-12T14:56:30Z</time></trkpt><trkpt lat="42.06305695233779" lon="12.922065133507653"><ele>568.0</ele><time>2026-04-12T14:56:31Z</time></trkpt><trkpt lat="42.063210968500954" lon="12.922104113980232"><ele>568.75</ele><time>2026-04-12T14:56:31.999Z</time></trkpt><trkpt lat="42.06335448623007" lon="12.922143585124479"><ele>569.5</ele><time>2026-04-12T14:56:32.999Z</time></trkpt><trkpt lat="42.06348817333202" lon="12.922192838137674"><ele>570.25</ele><time>2026-04-12T14:56:33.999Z</time></trkpt><trkpt lat="42.06361352224845" lon="12.922246417422091"><ele>571.0</ele><time>2026-04-12T14:56:34.999Z</time></trkpt><trkpt lat="42.063727756886955" lon="12.922294136014772"><ele>571.0</ele><time>2026-04-12T14:56:35.999Z</time></trkpt><trkpt lat="42.06382096782429" lon="12.922323755918436"><ele>571.0</ele><time>2026-04-12T14:56:36.999Z</time></trkpt><trkpt lat="42.063902055525986" lon="12.922334747580322"><ele>571.0</ele><time>2026-04-12T14:56:37.999Z</time></trkpt><trkpt lat="42.063970017027586" lon="12.92236135101323"><ele>571.0</ele><time>2026-04-12T14:56:39.999Z</time></trkpt><trkpt lat="42.06403553389152" lon="12.922309136173633"><ele>571.0</ele><time>2026-04-12T14:57:13.999Z</time></trkpt><trkpt lat="42.06403437130659" lon="12.922221373909561"><ele>571.0</ele><time>2026-04-12T14:57:56Z</time></trkpt><trkpt lat="42.06403768800419" lon="12.922126840754512"><ele>571.0</ele><time>2026-04-12T14:58:00Z</time></trkpt><trkpt lat="42.064047102595" lon="12.922036262843733"><ele>571.0</ele><time>2026-04-12T14:58:02Z</time></trkpt><trkpt lat="42.06409215995585" lon="12.921936768702182"><ele>571.0</ele><time>2026-04-12T14:58:06Z</time></trkpt><trkpt lat="42.06416046303609" lon="12.92185994976888"><ele>571.0</ele><time>2026-04-12T14:58:08Z</time></trkpt><trkpt lat="42.06421234435575" lon="12.921766129354946"><ele>571.0</ele><time>2026-04-12T14:58:10Z</time></trkpt><trkpt lat="42.064268968624496" lon="12.921690183655743"><ele>571.0</ele><time>2026-04-12T14:58:12Z</time></trkpt><trkpt lat="42.06434517744207" lon="12.921580263186021"><ele>570.8333333333334</ele><time>2026-04-12T14:58:14Z</time></trkpt><trkpt lat="42.064411365452216" lon="12.921481348436945"><ele>570.6666666666667</ele><time>2026-04-12T14:58:16Z</time></trkpt><trkpt lat="42.06446396486832" lon="12.921391587335254"><ele>570.5</ele><time>2026-04-12T14:58:18Z</time></trkpt><trkpt lat="42.06451837381465" lon="12.921303602617751"><ele>570.3333333333334</ele><time>2026-04-12T14:58:20Z</time></trkpt><trkpt lat="42.06456980668436" lon="12.921240401769804"><ele>570.1666666666666</ele><time>2026-04-12T14:58:24Z</time></trkpt><trkpt lat="42.06463466232301" lon="12.921210372878484"><ele>570.0</ele><time>2026-04-12T14:58:28Z</time></trkpt><trkpt lat="42.06468096954918" lon="12.921143570886178"><ele>570.0</ele><time>2026-04-12T14:58:33Z</time></trkpt><trkpt lat="42.064721096449674" lon="12.921068601089784"><ele>570.0</ele><time>2026-04-12T14:58:35Z</time></trkpt><trkpt lat="42.06479998922255" lon="12.92100604242729"><ele>570.0</ele><time>2026-04-12T14:58:37.999Z</time></trkpt><trkpt lat="42.06480066850276" lon="12.920850067911202"><ele>570.0</ele><time>2026-04-12T14:59:27.999Z</time></trkpt><trkpt lat="42.064882498586734" lon="12.920771102387432"><ele>570.0</ele><time>2026-04-12T15:00:51.999Z</time></trkpt><trkpt lat="42.064930614732795" lon="12.920715322544535"><ele>570.0</ele><time>2026-04-12T15:00:53.999Z</time></trkpt><trkpt lat="42.064981186926794" lon="12.92063969894455"><ele>564.4</ele><time>2026-04-12T15:00:56.999Z</time></trkpt><trkpt lat="42.06503229033198" lon="12.9205716150824"><ele>558.8</ele><time>2026-04-12T15:00:58.999Z</time></trkpt><trkpt lat="42.06506221430844" lon="12.920470711097167"><ele>553.2</ele><time>2026-04-12T15:01:01.999Z</time></trkpt><trkpt lat="42.06510469101336" lon="12.920383027254628"><ele>547.6</ele><time>2026-04-12T15:01:09.999Z</time></trkpt><trkpt lat="42.06516539888177" lon="12.920322763098584"><ele>542.0</ele><time>2026-04-12T15:01:12.999Z</time></trkpt><trkpt lat="42.06529073891368" lon="12.920069979842488"><ele>540.3333333333333</ele><time>2026-04-12T15:01:15.999Z</time></trkpt><trkpt lat="42.06536547283416" lon="12.919957603545388"><ele>538.6666666666666</ele><time>2026-04-12T15:01:17.999Z</time></trkpt><trkpt lat="42.06546666476366" lon="12.919906413981893"><ele>537.0</ele><time>2026-04-12T15:01:18.999Z</time></trkpt><trkpt lat="42.06553870350236" lon="12.919873461943796"><ele>535.3333333333334</ele><time>2026-04-12T15:01:20.999Z</time></trkpt><trkpt lat="42.06554878135516" lon="12.919775809191249"><ele>533.6666666666667</ele><time>2026-04-12T15:01:28.999Z</time></trkpt><trkpt lat="42.06560640432229" lon="12.919712474189863"><ele>532.0</ele><time>2026-04-12T15:01:32.999Z</time></trkpt><trkpt lat="42.065678434504974" lon="12.919724648857125"><ele>532.0</ele><time>2026-04-12T15:01:38.999Z</time></trkpt><trkpt lat="42.06572353164455" lon="12.919663338345611"><ele>532.0</ele><time>2026-04-12T15:01:49.999Z</time></trkpt><trkpt lat="42.065778685700586" lon="12.919599957064479"><ele>532.0</ele><time>2026-04-12T15:02:03Z</time></trkpt><trkpt lat="42.065833994111564" lon="12.91954011835348"><ele>532.0</ele><time>2026-04-12T15:02:08Z</time></trkpt><trkpt lat="42.065913826909174" lon="12.919554187159727"><ele>532.0</ele><time>2026-04-12T15:02:11Z</time></trkpt><trkpt lat="42.06597748412412" lon="12.91957456896318"><ele>532.0</ele><time>2026-04-12T15:02:14Z</time></trkpt><trkpt lat="42.066023064691976" lon="12.919504319817596"><ele>532.0</ele><time>2026-04-12T15:02:31.999Z</time></trkpt><trkpt lat="42.06601208887333" lon="12.919413777497098"><ele>531.5714285714286</ele><time>2026-04-12T15:02:38.999Z</time></trkpt><trkpt lat="42.06603801760782" lon="12.91932614527339"><ele>531.1428571428571</ele><time>2026-04-12T15:03:06.999Z</time></trkpt><trkpt lat="42.06600330785198" lon="12.919254868125334"><ele>530.7142857142858</ele><time>2026-04-12T15:03:16.999Z</time></trkpt><trkpt lat="42.066022695573054" lon="12.919159379204984"><ele>530.2857142857142</ele><time>2026-04-12T15:03:33.999Z</time></trkpt><trkpt lat="42.066038425902896" lon="12.919060284178322"><ele>529.8571428571429</ele><time>2026-04-12T15:03:43.999Z</time></trkpt><trkpt lat="42.06601768145148" lon="12.91895586711124"><ele>529.4285714285714</ele><time>2026-04-12T15:03:45.999Z</time></trkpt><trkpt lat="42.06602184040674" lon="12.918863773013255"><ele>529.0</ele><time>2026-04-12T15:06:01.999Z</time></trkpt><trkpt lat="42.066037248301036" lon="12.918718667236082"><ele>525.0</ele><time>2026-04-12T15:06:03.999Z</time></trkpt><trkpt lat="42.06604477419919" lon="12.918620780709928"><ele>521.0</ele><time>2026-04-12T15:06:04.999Z</time></trkpt><trkpt lat="42.0660513100492" lon="12.918507333463845"><ele>517.0</ele><time>2026-04-12T15:06:05.999Z</time></trkpt><trkpt lat="42.06606302363783" lon="12.91841108245908"><ele>513.0</ele><time>2026-04-12T15:06:07Z</time></trkpt><trkpt lat="42.06608782590935" lon="12.918310270316129"><ele>509.00000000000006</ele><time>2026-04-12T15:06:08Z</time></trkpt><trkpt lat="42.06611197164275" lon="12.918188686028312"><ele>505.0</ele><time>2026-04-12T15:06:09Z</time></trkpt><trkpt lat="42.06612364527446" lon="12.918054309281857"><ele>502.50000000000006</ele><time>2026-04-12T15:06:10Z</time></trkpt><trkpt lat="42.066137703721715" lon="12.917949141238878"><ele>500.0</ele><time>2026-04-12T15:06:11Z</time></trkpt><trkpt lat="42.06615849275684" lon="12.917848961717079"><ele>497.5</ele><time>2026-04-12T15:06:12Z</time></trkpt><trkpt lat="42.066168620438106" lon="12.917755525461738"><ele>495.0</ele><time>2026-04-12T15:06:13Z</time></trkpt><trkpt lat="42.0662021567996" lon="12.917587585825224"><ele>492.50000000000006</ele><time>2026-04-12T15:06:15Z</time></trkpt><trkpt lat="42.066250099553876" lon="12.917497146112217"><ele>490.0</ele><time>2026-04-12T15:06:16Z</time></trkpt><trkpt lat="42.06629187950002" lon="12.917425185967199"><ele>487.4</ele><time>2026-04-12T15:06:17Z</time></trkpt><trkpt lat="42.06637943148438" lon="12.917350271203473"><ele>484.8</ele><time>2026-04-12T15:06:19Z</time></trkpt><trkpt lat="42.06647973372468" lon="12.917288641766351"><ele>482.20000000000005</ele><time>2026-04-12T15:06:21Z</time></trkpt><trkpt lat="42.06659395501658" lon="12.917287371848564"><ele>479.6</ele><time>2026-04-12T15:06:23Z</time></trkpt><trkpt lat="42.06669436545512" lon="12.917278107129261"><ele>477.0</ele><time>2026-04-12T15:06:25Z</time></trkpt><trkpt lat="42.06677008578596" lon="12.91728021774381"><ele>479.20000000000005</ele><time>2026-04-12T15:06:27Z</time></trkpt><trkpt lat="42.0668410408479" lon="12.917280869906419"><ele>481.40000000000003</ele><time>2026-04-12T15:06:30Z</time></trkpt><trkpt lat="42.06687047045893" lon="12.917155176453662"><ele>483.59999999999997</ele><time>2026-04-12T15:06:34Z</time></trkpt><trkpt lat="42.066853734411225" lon="12.916973177588735"><ele>485.79999999999995</ele><time>2026-04-12T15:06:36Z</time></trkpt><trkpt lat="42.06685189098999" lon="12.9168447637662"><ele>488.0</ele><time>2026-04-12T15:06:37Z</time></trkpt><trkpt lat="42.06683615280591" lon="12.916713437257549"><ele>488.0</ele><time>2026-04-12T15:06:38Z</time></trkpt><trkpt lat="42.066791082592836" lon="12.91659774691975"><ele>487.99999999999994</ele><time>2026-04-12T15:06:39Z</time></trkpt><trkpt lat="42.066732675511034" lon="12.916474257370638"><ele>487.99999999999994</ele><time>2026-04-12T15:06:40Z</time></trkpt><trkpt lat="42.0666965539395" lon="12.916346923976004"><ele>488.0</ele><time>2026-04-12T15:06:41Z</time></trkpt><trkpt lat="42.06668719597517" lon="12.916220997474731"><ele>488.0</ele><time>2026-04-12T15:06:42Z</time></trkpt><trkpt lat="42.06667842478233" lon="12.916109215549982"><ele>488.0</ele><time>2026-04-12T15:06:43Z</time></trkpt><trkpt lat="42.06663174886277" lon="12.915970578877214"><ele>487.99999999999994</ele><time>2026-04-12T15:06:45Z</time></trkpt><trkpt lat="42.06660716358953" lon="12.91589177756176"><ele>487.99999999999994</ele><time>2026-04-12T15:06:46Z</time></trkpt><trkpt lat="42.0665966562082" lon="12.915803135588472"><ele>488.0</ele><time>2026-04-12T15:06:47Z</time></trkpt><trkpt lat="42.06658842093898" lon="12.915625879889673"><ele>488.0</ele><time>2026-04-12T15:06:49Z</time></trkpt><trkpt lat="42.06658870561551" lon="12.915521087965947"><ele>480.2</ele><time>2026-04-12T15:06:49.999Z</time></trkpt><trkpt lat="42.06658652277738" lon="12.915397434841845"><ele>472.4</ele><time>2026-04-12T15:06:50.999Z</time></trkpt><trkpt lat="42.066581223279016" lon="12.915281163401678"><ele>464.59999999999997</ele><time>2026-04-12T15:06:51.999Z</time></trkpt><trkpt lat="42.06657903332779" lon="12.91515634555359"><ele>456.79999999999995</ele><time>2026-04-12T15:06:52.999Z</time></trkpt><trkpt lat="42.066583204476686" lon="12.915014754823646"><ele>449.0</ele><time>2026-04-12T15:06:53.999Z</time></trkpt><trkpt lat="42.06659034523904" lon="12.914887467699485"><ele>448.3333333333333</ele><time>2026-04-12T15:06:54.999Z</time></trkpt><trkpt lat="42.0665898053221" lon="12.914782854762034"><ele>447.66666666666663</ele><time>2026-04-12T15:06:55.999Z</time></trkpt><trkpt lat="42.0665877902525" lon="12.91465125467146"><ele>447.0</ele><time>2026-04-12T15:06:57.999Z</time></trkpt><trkpt lat="42.06653432778246" lon="12.914589373003759"><ele>446.33333333333337</ele><time>2026-04-12T15:07:00.999Z</time></trkpt><trkpt lat="42.06642512440896" lon="12.914578515933323"><ele>445.6666666666667</ele><time>2026-04-12T15:07:02.999Z</time></trkpt><trkpt lat="42.06635167605379" lon="12.914557192708994"><ele>445.0</ele><time>2026-04-12T15:07:03.999Z</time></trkpt><trkpt lat="42.066282484243146" lon="12.91456014666703"><ele>445.00000000000006</ele><time>2026-04-12T15:07:04.999Z</time></trkpt><trkpt lat="42.06621735482814" lon="12.91455592922853"><ele>445.0</ele><time>2026-04-12T15:07:05.999Z</time></trkpt><trkpt lat="42.06613424463268" lon="12.914553463386277"><ele>445.0</ele><time>2026-04-12T15:07:07.999Z</time></trkpt><trkpt lat="42.06609764007374" lon="12.91445762098902"><ele>445.0</ele><time>2026-04-12T15:07:10.999Z</time></trkpt><trkpt lat="42.06616106554441" lon="12.914303625739365"><ele>445.00000000000006</ele><time>2026-04-12T15:07:12.999Z</time></trkpt><trkpt lat="42.06620246707625" lon="12.914234833114483"><ele>445.0</ele><time>2026-04-12T15:07:13.999Z</time></trkpt><trkpt lat="42.066282230838546" lon="12.914169983992672"><ele>446.00000000000006</ele><time>2026-04-12T15:07:15.999Z</time></trkpt><trkpt lat="42.06635076781699" lon="12.914160703148548"><ele>447.0</ele><time>2026-04-12T15:07:16.999Z</time></trkpt><trkpt lat="42.06645222635951" lon="12.91407320970905"><ele>448.0</ele><time>2026-04-12T15:07:18.999Z</time></trkpt><trkpt lat="42.06649477664109" lon="12.913987375824084"><ele>449.0</ele><time>2026-04-12T15:07:19.999Z</time></trkpt><trkpt lat="42.06654489910906" lon="12.913894591586816"><ele>450.00000000000006</ele><time>2026-04-12T15:07:20.999Z</time></trkpt><trkpt lat="42.06659099541645" lon="12.913809130022162"><ele>451.0</ele><time>2026-04-12T15:07:21.999Z</time></trkpt><trkpt lat="42.06667427789856" lon="12.913734175104647"><ele>451.0</ele><time>2026-04-12T15:07:23.999Z</time></trkpt><trkpt lat="42.06674496675714" lon="12.913704452672835"><ele>451.0</ele><time>2026-04-12T15:07:25.999Z</time></trkpt><trkpt lat="42.066729354723215" lon="12.913602385050796"><ele>451.0</ele><time>2026-04-12T15:07:27.999Z</time></trkpt><trkpt lat="42.066645205153954" lon="12.913451735890199"><ele>451.0</ele><time>2026-04-12T15:07:29.999Z</time></trkpt><trkpt lat="42.06658544574819" lon="12.913368601874241"><ele>451.0</ele><time>2026-04-12T15:07:30.999Z</time></trkpt><trkpt lat="42.06656070358905" lon="12.913273041066311"><ele>447.4</ele><time>2026-04-12T15:07:31.999Z</time></trkpt><trkpt lat="42.066524488871586" lon="12.913170433116845"><ele>443.8</ele><time>2026-04-12T15:07:32.999Z</time></trkpt><trkpt lat="42.066500397527044" lon="12.913059449011469"><ele>440.19999999999993</ele><time>2026-04-12T15:07:33.999Z</time></trkpt><trkpt lat="42.06646183588876" lon="12.912970318539461"><ele>436.59999999999997</ele><time>2026-04-12T15:07:34.999Z</time></trkpt><trkpt lat="42.06634314228416" lon="12.912886030222838"><ele>433.0</ele><time>2026-04-12T15:07:36.999Z</time></trkpt><trkpt lat="42.066274031059976" lon="12.912859274808035"><ele>433.0</ele><time>2026-04-12T15:07:37.999Z</time></trkpt><trkpt lat="42.066246050617444" lon="12.912707392146519"><ele>432.99999999999994</ele><time>2026-04-12T15:07:39.999Z</time></trkpt><trkpt lat="42.066258219753976" lon="12.912594308465614"><ele>432.99999999999994</ele><time>2026-04-12T15:07:40.999Z</time></trkpt><trkpt lat="42.06626169531686" lon="12.912443726579374"><ele>433.0</ele><time>2026-04-12T15:07:41.999Z</time></trkpt><trkpt lat="42.066234672188884" lon="12.912263837153287"><ele>433.0</ele><time>2026-04-12T15:07:42.999Z</time></trkpt><trkpt lat="42.06618834099634" lon="12.912092367331812"><ele>435.75</ele><time>2026-04-12T15:07:43.999Z</time></trkpt><trkpt lat="42.066125266672216" lon="12.91194212881828"><ele>438.5</ele><time>2026-04-12T15:07:44.999Z</time></trkpt><trkpt lat="42.066087528526914" lon="12.91177241654139"><ele>441.25</ele><time>2026-04-12T15:07:45.999Z</time></trkpt><trkpt lat="42.06605855306397" lon="12.91160185127578"><ele>444.0</ele><time>2026-04-12T15:07:46.999Z</time></trkpt><trkpt lat="42.06601377642107" lon="12.911444327354163"><ele>447.0</ele><time>2026-04-12T15:07:47.999Z</time></trkpt><trkpt lat="42.065955010611965" lon="12.911315174714474"><ele>450.0</ele><time>2026-04-12T15:07:48.999Z</time></trkpt><trkpt lat="42.06590868539278" lon="12.911199510034407"><ele>453.0</ele><time>2026-04-12T15:07:49.999Z</time></trkpt><trkpt lat="42.0658377991531" lon="12.91113131458088"><ele>456.0</ele><time>2026-04-12T15:07:51.999Z</time></trkpt><trkpt lat="42.0658134890112" lon="12.91100471355477"><ele>459.0</ele><time>2026-04-12T15:07:53.999Z</time></trkpt><trkpt lat="42.06585961779429" lon="12.91093073446659"><ele>458.5</ele><time>2026-04-12T15:07:54.999Z</time></trkpt><trkpt lat="42.065934066165575" lon="12.910830300162711"><ele>458.0</ele><time>2026-04-12T15:07:56.999Z</time></trkpt><trkpt lat="42.0660185042896" lon="12.910676226320263"><ele>457.5</ele><time>2026-04-12T15:07:58.999Z</time></trkpt><trkpt lat="42.066104437511044" lon="12.910518854635939"><ele>457.0</ele><time>2026-04-12T15:07:59.999Z</time></trkpt><trkpt lat="42.066181929746435" lon="12.9103736731267"><ele>457.0</ele><time>2026-04-12T15:08:00.999Z</time></trkpt><trkpt lat="42.066248819293996" lon="12.91024703799898"><ele>457.00000000000006</ele><time>2026-04-12T15:08:01.999Z</time></trkpt><trkpt lat="42.06631503619767" lon="12.910128610291233"><ele>457.00000000000006</ele><time>2026-04-12T15:08:02.999Z</time></trkpt><trkpt lat="42.06638230483687" lon="12.910026666197922"><ele>457.0</ele><time>2026-04-12T15:08:03.999Z</time></trkpt><trkpt lat="42.06643706903407" lon="12.909949753550203"><ele>457.0</ele><time>2026-04-12T15:08:04.999Z</time></trkpt><trkpt lat="42.06649775180021" lon="12.909870738122448"><ele>456.0</ele><time>2026-04-12T15:08:05.999Z</time></trkpt><trkpt lat="42.06655953668135" lon="12.909800370177592"><ele>455.00000000000006</ele><time>2026-04-12T15:08:06.999Z</time></trkpt><trkpt lat="42.066642641023364" lon="12.909723056074242"><ele>454.00000000000006</ele><time>2026-04-12T15:08:07.999Z</time></trkpt><trkpt lat="42.06671305416825" lon="12.909649748942662"><ele>453.0</ele><time>2026-04-12T15:08:08.999Z</time></trkpt><trkpt lat="42.06682883276019" lon="12.909700416529745"><ele>452.0</ele><time>2026-04-12T15:08:10.999Z</time></trkpt><trkpt lat="42.06691722721054" lon="12.909741876098627"><ele>452.0</ele><time>2026-04-12T15:08:11.999Z</time></trkpt><trkpt lat="42.0670168401853" lon="12.90976150223698"><ele>452.00000000000006</ele><time>2026-04-12T15:08:13Z</time></trkpt><trkpt lat="42.06710088126505" lon="12.909752246171829"><ele>452.00000000000006</ele><time>2026-04-12T15:08:14Z</time></trkpt><trkpt lat="42.06718517627644" lon="12.909719220945897"><ele>452.0</ele><time>2026-04-12T15:08:15Z</time></trkpt><trkpt lat="42.06723531195827" lon="12.909590347166041"><ele>452.0</ele><time>2026-04-12T15:08:16Z</time></trkpt><trkpt lat="42.067255385056455" lon="12.9094911386188"><ele>452.0</ele><time>2026-04-12T15:08:17Z</time></trkpt><trkpt lat="42.06726949449495" lon="12.90938084467027"><ele>452.0</ele><time>2026-04-12T15:08:18Z</time></trkpt><trkpt lat="42.067285947827855" lon="12.909233246035855"><ele>452.0</ele><time>2026-04-12T15:08:19Z</time></trkpt><trkpt lat="42.06730607887745" lon="12.909020664659584"><ele>452.0</ele><time>2026-04-12T15:08:20Z</time></trkpt><trkpt lat="42.067313944246315" lon="12.908836530046715"><ele>446.8</ele><time>2026-04-12T15:08:21Z</time></trkpt><trkpt lat="42.067318183226874" lon="12.908678783102543"><ele>441.6</ele><time>2026-04-12T15:08:22Z</time></trkpt><trkpt lat="42.067322837311245" lon="12.908540464744235"><ele>436.40000000000003</ele><time>2026-04-12T15:08:23Z</time></trkpt><trkpt lat="42.0673339063334" lon="12.90840472768424"><ele>431.20000000000005</ele><time>2026-04-12T15:08:24Z</time></trkpt><trkpt lat="42.06735866240244" lon="12.908257005356614"><ele>426.0</ele><time>2026-04-12T15:08:25Z</time></trkpt><trkpt lat="42.067394280704654" lon="12.90809594698757"><ele>427.20000000000005</ele><time>2026-04-12T15:08:26Z</time></trkpt><trkpt lat="42.067429783281426" lon="12.907952024339368"><ele>428.40000000000003</ele><time>2026-04-12T15:08:27Z</time></trkpt><trkpt lat="42.067470381519186" lon="12.907819435697833"><ele>429.6</ele><time>2026-04-12T15:08:28Z</time></trkpt><trkpt lat="42.06751076041776" lon="12.907681760980594"><ele>430.8</ele><time>2026-04-12T15:08:29Z</time></trkpt><trkpt lat="42.06754080715084" lon="12.90755477496702"><ele>432.0</ele><time>2026-04-12T15:08:30Z</time></trkpt><trkpt lat="42.06760356695697" lon="12.907464624358727"><ele>428.40000000000003</ele><time>2026-04-12T15:08:31Z</time></trkpt><trkpt lat="42.06765979865372" lon="12.907366229150975"><ele>424.80000000000007</ele><time>2026-04-12T15:08:32Z</time></trkpt><trkpt lat="42.06772686441283" lon="12.907284878339805"><ele>421.2</ele><time>2026-04-12T15:08:33Z</time></trkpt><trkpt lat="42.06781026199943" lon="12.907216572511834"><ele>417.6</ele><time>2026-04-12T15:08:34Z</time></trkpt><trkpt lat="42.06792397643038" lon="12.907161168636113"><ele>414.0</ele><time>2026-04-12T15:08:35Z</time></trkpt><trkpt lat="42.068028003839515" lon="12.907075135165636"><ele>414.0</ele><time>2026-04-12T15:08:36Z</time></trkpt><trkpt lat="42.068080924244725" lon="12.906931025027976"><ele>414.0</ele><time>2026-04-12T15:08:37Z</time></trkpt><trkpt lat="42.0681621447158" lon="12.906851160306946"><ele>414.0</ele><time>2026-04-12T15:08:38Z</time></trkpt><trkpt lat="42.06822761858124" lon="12.90679212034424"><ele>414.0</ele><time>2026-04-12T15:08:39Z</time></trkpt><trkpt lat="42.068292619821925" lon="12.906775595549535"><ele>414.0</ele><time>2026-04-12T15:08:40Z</time></trkpt><trkpt lat="42.06836371518158" lon="12.906733628364352"><ele>414.0</ele><time>2026-04-12T15:08:41Z</time></trkpt><trkpt lat="42.06842398131156" lon="12.906678707279873"><ele>414.4</ele><time>2026-04-12T15:08:42Z</time></trkpt><trkpt lat="42.06845589574865" lon="12.906576106647613"><ele>414.79999999999995</ele><time>2026-04-12T15:08:43Z</time></trkpt><trkpt lat="42.06848690563659" lon="12.906467572281743"><ele>415.20000000000005</ele><time>2026-04-12T15:08:44Z</time></trkpt><trkpt lat="42.06854310538451" lon="12.906365655106343"><ele>415.6</ele><time>2026-04-12T15:08:45Z</time></trkpt><trkpt lat="42.06859838176823" lon="12.906250351836713"><ele>416.0</ele><time>2026-04-12T15:08:46Z</time></trkpt><trkpt lat="42.06866020951904" lon="12.906119323570765"><ele>416.0</ele><time>2026-04-12T15:08:47Z</time></trkpt><trkpt lat="42.06870813685999" lon="12.905972705073705"><ele>416.0</ele><time>2026-04-12T15:08:48Z</time></trkpt><trkpt lat="42.06875146206386" lon="12.905858197341663"><ele>416.0</ele><time>2026-04-12T15:08:49Z</time></trkpt><trkpt lat="42.06877641221266" lon="12.905779548571392"><ele>416.0</ele><time>2026-04-12T15:08:50Z</time></trkpt><trkpt lat="42.06879774486" lon="12.90558275789901"><ele>416.0</ele><time>2026-04-12T15:08:52Z</time></trkpt><trkpt lat="42.06882660261661" lon="12.905445745101316"><ele>412.25</ele><time>2026-04-12T15:08:53Z</time></trkpt><trkpt lat="42.06886356807718" lon="12.905288283240392"><ele>408.5</ele><time>2026-04-12T15:08:54Z</time></trkpt><trkpt lat="42.06889763288863" lon="12.905128035356649"><ele>404.75</ele><time>2026-04-12T15:08:55Z</time></trkpt><trkpt lat="42.068913628622965" lon="12.904973770302886"><ele>401.0</ele><time>2026-04-12T15:08:56Z</time></trkpt><trkpt lat="42.068920433400905" lon="12.904813159680947"><ele>400.0</ele><time>2026-04-12T15:08:57Z</time></trkpt><trkpt lat="42.0689479867219" lon="12.904649884006616"><ele>399.0</ele><time>2026-04-12T15:08:58Z</time></trkpt><trkpt lat="42.068959631168134" lon="12.904486105551618"><ele>398.0</ele><time>2026-04-12T15:08:59Z</time></trkpt><trkpt lat="42.06897095622258" lon="12.904346768000675"><ele>397.0</ele><time>2026-04-12T15:09:00Z</time></trkpt><trkpt lat="42.06898432715956" lon="12.904198774629226"><ele>397.0</ele><time>2026-04-12T15:09:01Z</time></trkpt><trkpt lat="42.069002278427845" lon="12.904060716338707"><ele>397.0</ele><time>2026-04-12T15:09:02Z</time></trkpt><trkpt lat="42.06903594635041" lon="12.903955975942532"><ele>397.0</ele><time>2026-04-12T15:09:03Z</time></trkpt><trkpt lat="42.06908149859815" lon="12.903852113693763"><ele>397.0</ele><time>2026-04-12T15:09:04Z</time></trkpt><trkpt lat="42.06914029924745" lon="12.903743954676287"><ele>397.0</ele><time>2026-04-12T15:09:04.999Z</time></trkpt><trkpt lat="42.06920440419414" lon="12.903620982998236"><ele>397.6</ele><time>2026-04-12T15:09:05.999Z</time></trkpt><trkpt lat="42.0692517321383" lon="12.903483552855718"><ele>398.20000000000005</ele><time>2026-04-12T15:09:06.999Z</time></trkpt><trkpt lat="42.06932344997093" lon="12.903388478628479"><ele>398.8</ele><time>2026-04-12T15:09:07.999Z</time></trkpt><trkpt lat="42.06938159719306" lon="12.903309515155732"><ele>399.4</ele><time>2026-04-12T15:09:08.999Z</time></trkpt><trkpt lat="42.06945137827927" lon="12.903233624516114"><ele>400.0</ele><time>2026-04-12T15:09:09.999Z</time></trkpt><trkpt lat="42.069536536213114" lon="12.903138233669377"><ele>400.0</ele><time>2026-04-12T15:09:10.999Z</time></trkpt><trkpt lat="42.06960942755689" lon="12.903037447577356"><ele>400.0</ele><time>2026-04-12T15:09:11.999Z</time></trkpt><trkpt lat="42.069670292823524" lon="12.902951873433208"><ele>400.0</ele><time>2026-04-12T15:09:12.999Z</time></trkpt><trkpt lat="42.06972067817611" lon="12.902862392100833"><ele>400.0</ele><time>2026-04-12T15:09:13.999Z</time></trkpt><trkpt lat="42.06975341804287" lon="12.902758226254395"><ele>400.0</ele><time>2026-04-12T15:09:14.999Z</time></trkpt><trkpt lat="42.06979042963348" lon="12.902630975788046"><ele>400.0</ele><time>2026-04-12T15:09:15.999Z</time></trkpt><trkpt lat="42.069821779559106" lon="12.902480093709064"><ele>400.0</ele><time>2026-04-12T15:09:16.999Z</time></trkpt><trkpt lat="42.06985994179736" lon="12.902339146384723"><ele>400.0</ele><time>2026-04-12T15:09:17.999Z</time></trkpt><trkpt lat="42.06990742463363" lon="12.902206690858236"><ele>400.0</ele><time>2026-04-12T15:09:18.999Z</time></trkpt><trkpt lat="42.06996319780486" lon="12.902087441610046"><ele>400.0</ele><time>2026-04-12T15:09:19.999Z</time></trkpt><trkpt lat="42.06999781354395" lon="12.901984583047676"><ele>400.0</ele><time>2026-04-12T15:09:20.999Z</time></trkpt><trkpt lat="42.06998432973237" lon="12.901895950403576"><ele>400.0</ele><time>2026-04-12T15:09:21.999Z</time></trkpt><trkpt lat="42.06989630263057" lon="12.901816395381768"><ele>400.0</ele><time>2026-04-12T15:09:24.999Z</time></trkpt><trkpt lat="42.069786606896145" lon="12.901777992826112"><ele>400.0</ele><time>2026-04-12T15:09:26.999Z</time></trkpt><trkpt lat="42.0696782722738" lon="12.901737055530148"><ele>400.0</ele><time>2026-04-12T15:09:28.999Z</time></trkpt><trkpt lat="42.069618972807135" lon="12.90170774482621"><ele>400.50000000000006</ele><time>2026-04-12T15:09:29.999Z</time></trkpt><trkpt lat="42.06955375559242" lon="12.901680075702101"><ele>401.0</ele><time>2026-04-12T15:09:30.999Z</time></trkpt><trkpt lat="42.069491943200674" lon="12.901647996820673"><ele>401.5</ele><time>2026-04-12T15:09:31.999Z</time></trkpt><trkpt lat="42.06943097806474" lon="12.901623742928459"><ele>402.0</ele><time>2026-04-12T15:09:32.999Z</time></trkpt><trkpt lat="42.06932075782458" lon="12.901593475032701"><ele>402.50000000000006</ele><time>2026-04-12T15:09:34.999Z</time></trkpt><trkpt lat="42.06922023343933" lon="12.90157092710748"><ele>403.0</ele><time>2026-04-12T15:09:36.999Z</time></trkpt><trkpt lat="42.0691423764552" lon="12.901540405292796"><ele>402.6666666666667</ele><time>2026-04-12T15:09:38.999Z</time></trkpt><trkpt lat="42.06905274290927" lon="12.901497247292333"><ele>402.33333333333337</ele><time>2026-04-12T15:09:40.999Z</time></trkpt><trkpt lat="42.06898458198637" lon="12.901476521118362"><ele>402.0</ele><time>2026-04-12T15:09:41.999Z</time></trkpt><trkpt lat="42.06890513233909" lon="12.901453849145964"><ele>401.66666666666663</ele><time>2026-04-12T15:09:42.999Z</time></trkpt><trkpt lat="42.068825391552345" lon="12.90142902783864"><ele>401.3333333333333</ele><time>2026-04-12T15:09:43.999Z</time></trkpt><trkpt lat="42.068717206089374" lon="12.901379898429605"><ele>401.0</ele><time>2026-04-12T15:09:45.999Z</time></trkpt><trkpt lat="42.068640582650914" lon="12.901364278727437"><ele>401.0</ele><time>2026-04-12T15:09:46.999Z</time></trkpt><trkpt lat="42.068555460998205" lon="12.901352266870003"><ele>401.0</ele><time>2026-04-12T15:09:47.999Z</time></trkpt><trkpt lat="42.068478711682964" lon="12.901341065069294"><ele>401.0</ele><time>2026-04-12T15:09:48.999Z</time></trkpt><trkpt lat="42.06841161230538" lon="12.901231206562917"><ele>401.0</ele><time>2026-04-12T15:09:49.999Z</time></trkpt><trkpt lat="42.06838045579544" lon="12.901104729446704"><ele>401.0</ele><time>2026-04-12T15:09:50.999Z</time></trkpt><trkpt lat="42.06832984349155" lon="12.90097728463155"><ele>401.6</ele><time>2026-04-12T15:09:51.999Z</time></trkpt><trkpt lat="42.06831713028641" lon="12.900832598124975"><ele>402.20000000000005</ele><time>2026-04-12T15:09:52.999Z</time></trkpt><trkpt lat="42.06832081453329" lon="12.900713419187479"><ele>402.79999999999995</ele><time>2026-04-12T15:09:53.999Z</time></trkpt><trkpt lat="42.068324583681836" lon="12.900600469862534"><ele>403.4</ele><time>2026-04-12T15:09:54.999Z</time></trkpt><trkpt lat="42.06833632030313" lon="12.900474989218328"><ele>404.0</ele><time>2026-04-12T15:09:55.999Z</time></trkpt><trkpt lat="42.068363948982636" lon="12.900351053010166"><ele>404.0</ele><time>2026-04-12T15:09:56.999Z</time></trkpt><trkpt lat="42.068397421647944" lon="12.900227918974362"><ele>404.0</ele><time>2026-04-12T15:09:57.999Z</time></trkpt><trkpt lat="42.06843325356385" lon="12.900087499856568"><ele>404.0</ele><time>2026-04-12T15:09:58.999Z</time></trkpt><trkpt lat="42.06848614025488" lon="12.899912559953929"><ele>404.0</ele><time>2026-04-12T15:09:59.999Z</time></trkpt><trkpt lat="42.068543493599414" lon="12.89970926044328"><ele>407.0</ele><time>2026-04-12T15:10:00.999Z</time></trkpt><trkpt lat="42.06860639886723" lon="12.899493705737182"><ele>410.0</ele><time>2026-04-12T15:10:01.999Z</time></trkpt><trkpt lat="42.068666837630914" lon="12.899285291166807"><ele>413.0</ele><time>2026-04-12T15:10:02.999Z</time></trkpt><trkpt lat="42.068728307387204" lon="12.899065555833564"><ele>415.66666666666663</ele><time>2026-04-12T15:10:03.999Z</time></trkpt><trkpt lat="42.06878858637814" lon="12.898832971321381"><ele>418.33333333333337</ele><time>2026-04-12T15:10:04.999Z</time></trkpt><trkpt lat="42.068847114312014" lon="12.89859064219235"><ele>421.0</ele><time>2026-04-12T15:10:05.999Z</time></trkpt><trkpt lat="42.068896875672195" lon="12.898337705773727"><ele>421.6666666666667</ele><time>2026-04-12T15:10:06.999Z</time></trkpt><trkpt lat="42.06894041163704" lon="12.898097617787412"><ele>422.33333333333337</ele><time>2026-04-12T15:10:07.999Z</time></trkpt><trkpt lat="42.06897890606163" lon="12.897882312703713"><ele>423.0</ele><time>2026-04-12T15:10:08.999Z</time></trkpt><trkpt lat="42.06901673358424" lon="12.897668753754768"><ele>424.25</ele><time>2026-04-12T15:10:09.999Z</time></trkpt><trkpt lat="42.06905536587295" lon="12.897463784388842"><ele>425.5</ele><time>2026-04-12T15:10:10.999Z</time></trkpt><trkpt lat="42.06909975135385" lon="12.897288151030171"><ele>426.75</ele><time>2026-04-12T15:10:11.999Z</time></trkpt><trkpt lat="42.06915405058583" lon="12.897136697468943"><ele>428.0</ele><time>2026-04-12T15:10:12.999Z</time></trkpt><trkpt lat="42.06923741055002" lon="12.897030042481235"><ele>425.0</ele><time>2026-04-12T15:10:13.999Z</time></trkpt><trkpt lat="42.069323114347085" lon="12.89693642433371"><ele>422.0</ele><time>2026-04-12T15:10:14.999Z</time></trkpt><trkpt lat="42.069422450183104" lon="12.896856793151779"><ele>419.0</ele><time>2026-04-12T15:10:15.999Z</time></trkpt><trkpt lat="42.06953851759633" lon="12.896829386986484"><ele>416.0</ele><time>2026-04-12T15:10:16.999Z</time></trkpt><trkpt lat="42.06965908724091" lon="12.896780668728171"><ele>417.0</ele><time>2026-04-12T15:10:17.999Z</time></trkpt><trkpt lat="42.06977732079118" lon="12.896733792950448"><ele>418.0</ele><time>2026-04-12T15:10:19Z</time></trkpt><trkpt lat="42.06990220205209" lon="12.896686453228716"><ele>419.0</ele><time>2026-04-12T15:10:20Z</time></trkpt><trkpt lat="42.07003198305632" lon="12.89663756389206"><ele>420.0</ele><time>2026-04-12T15:10:21Z</time></trkpt><trkpt lat="42.070163935963805" lon="12.896581909581535"><ele>420.0</ele><time>2026-04-12T15:10:22Z</time></trkpt><trkpt lat="42.070294965812536" lon="12.89651394622126"><ele>420.0</ele><time>2026-04-12T15:10:23Z</time></trkpt><trkpt lat="42.070422526384895" lon="12.896429986366522"><ele>420.0</ele><time>2026-04-12T15:10:24Z</time></trkpt><trkpt lat="42.07054132377799" lon="12.89631687411259"><ele>420.0</ele><time>2026-04-12T15:10:25Z</time></trkpt><trkpt lat="42.07067314342905" lon="12.896215742078857"><ele>419.66666666666663</ele><time>2026-04-12T15:10:26Z</time></trkpt><trkpt lat="42.07080673427218" lon="12.896079856734477"><ele>419.3333333333333</ele><time>2026-04-12T15:10:27Z</time></trkpt><trkpt lat="42.07093219281144" lon="12.895945500979746"><ele>419.0</ele><time>2026-04-12T15:10:28Z</time></trkpt><trkpt lat="42.07104571518873" lon="12.89579491479131"><ele>421.25</ele><time>2026-04-12T15:10:29Z</time></trkpt><trkpt lat="42.07115954219377" lon="12.895689355227395"><ele>423.5</ele><time>2026-04-12T15:10:30Z</time></trkpt><trkpt lat="42.07126973115975" lon="12.895563759307223"><ele>425.75</ele><time>2026-04-12T15:10:31Z</time></trkpt><trkpt lat="42.07138129983211" lon="12.895433447834538"><ele>428.0</ele><time>2026-04-12T15:10:32Z</time></trkpt><trkpt lat="42.071492293018494" lon="12.89530415225082"><ele>428.0</ele><time>2026-04-12T15:10:33Z</time></trkpt><trkpt lat="42.07160367033313" lon="12.89518186987896"><ele>428.0</ele><time>2026-04-12T15:10:34Z</time></trkpt><trkpt lat="42.071714210381714" lon="12.895071974079668"><ele>428.0</ele><time>2026-04-12T15:10:35Z</time></trkpt><trkpt lat="42.07182427827821" lon="12.894977906849137"><ele>428.0</ele><time>2026-04-12T15:10:36Z</time></trkpt><trkpt lat="42.071943993535186" lon="12.89489298110696"><ele>428.0</ele><time>2026-04-12T15:10:37Z</time></trkpt><trkpt lat="42.07207397240262" lon="12.89481672909798"><ele>428.0</ele><time>2026-04-12T15:10:38Z</time></trkpt><trkpt lat="42.07221204662861" lon="12.894745939693463"><ele>428.0</ele><time>2026-04-12T15:10:39Z</time></trkpt><trkpt lat="42.07235028053215" lon="12.894674793304805"><ele>428.0</ele><time>2026-04-12T15:10:40Z</time></trkpt><trkpt lat="42.07247702040647" lon="12.894607400212468"><ele>428.0</ele><time>2026-04-12T15:10:41Z</time></trkpt><trkpt lat="42.07260854524641" lon="12.894537462734132"><ele>428.0</ele><time>2026-04-12T15:10:42Z</time></trkpt><trkpt lat="42.0727429277014" lon="12.89446686266184"><ele>428.0</ele><time>2026-04-12T15:10:43Z</time></trkpt><trkpt lat="42.07287693525359" lon="12.894399457954334"><ele>428.0</ele><time>2026-04-12T15:10:44Z</time></trkpt><trkpt lat="42.07301096229676" lon="12.89434248024639"><ele>428.0</ele><time>2026-04-12T15:10:45Z</time></trkpt><trkpt lat="42.07315260950461" lon="12.894299672269652"><ele>428.0</ele><time>2026-04-12T15:10:46Z</time></trkpt><trkpt lat="42.07328798609182" lon="12.894263422817266"><ele>428.0</ele><time>2026-04-12T15:10:47Z</time></trkpt><trkpt lat="42.073426520342636" lon="12.894227989398095"><ele>428.0</ele><time>2026-04-12T15:10:48Z</time></trkpt><trkpt lat="42.07356415111299" lon="12.894195181735135"><ele>429.75</ele><time>2026-04-12T15:10:49Z</time></trkpt><trkpt lat="42.073704271372996" lon="12.894161801974743"><ele>431.5</ele><time>2026-04-12T15:10:50Z</time></trkpt><trkpt lat="42.07384706534261" lon="12.894126451834186"><ele>433.25</ele><time>2026-04-12T15:10:51Z</time></trkpt><trkpt lat="42.07398891543002" lon="12.894090349300292"><ele>435.0</ele><time>2026-04-12T15:10:52Z</time></trkpt><trkpt lat="42.07412997150282" lon="12.894053305243085"><ele>435.5</ele><time>2026-04-12T15:10:53Z</time></trkpt><trkpt lat="42.074274936265546" lon="12.89401472986019"><ele>436.0</ele><time>2026-04-12T15:10:54Z</time></trkpt><trkpt lat="42.07442033828697" lon="12.893974109021304"><ele>436.5</ele><time>2026-04-12T15:10:55Z</time></trkpt><trkpt lat="42.07456747870316" lon="12.893927797855653"><ele>437.0</ele><time>2026-04-12T15:10:56Z</time></trkpt><trkpt lat="42.074717347407585" lon="12.893878743869749"><ele>437.0</ele><time>2026-04-12T15:10:57Z</time></trkpt><trkpt lat="42.07486668272854" lon="12.893829864471012"><ele>437.0</ele><time>2026-04-12T15:10:58Z</time></trkpt><trkpt lat="42.07501439539465" lon="12.893780700982282"><ele>437.0</ele><time>2026-04-12T15:10:59Z</time></trkpt><trkpt lat="42.07514386481927" lon="12.89373757602983"><ele>437.0</ele><time>2026-04-12T15:11:00Z</time></trkpt><trkpt lat="42.07525226367079" lon="12.893699544489893"><ele>437.3333333333333</ele><time>2026-04-12T15:11:01Z</time></trkpt><trkpt lat="42.07534225382027" lon="12.89366792064738"><ele>437.66666666666663</ele><time>2026-04-12T15:11:02Z</time></trkpt><trkpt lat="42.07542665809162" lon="12.893638259760854"><ele>438.0</ele><time>2026-04-12T15:11:03Z</time></trkpt><trkpt lat="42.0754968171726" lon="12.89361360484202"><ele>438.33333333333337</ele><time>2026-04-12T15:11:04Z</time></trkpt><trkpt lat="42.075605178545935" lon="12.89360572156546"><ele>438.6666666666667</ele><time>2026-04-12T15:11:06Z</time></trkpt><trkpt lat="42.07565642256778" lon="12.893656247865707"><ele>439.0</ele><time>2026-04-12T15:11:07Z</time></trkpt><trkpt lat="42.07567438614589" lon="12.893761902608142"><ele>439.0</ele><time>2026-04-12T15:11:08Z</time></trkpt><trkpt lat="42.07568095094754" lon="12.893873697856636"><ele>439.0</ele><time>2026-04-12T15:11:08.999Z</time></trkpt><trkpt lat="42.07571205869145" lon="12.894008241273479"><ele>439.0</ele><time>2026-04-12T15:11:09.999Z</time></trkpt><trkpt lat="42.07573087859957" lon="12.894153282955285"><ele>439.0</ele><time>2026-04-12T15:11:10.999Z</time></trkpt><trkpt lat="42.07572277061792" lon="12.894306139087767"><ele>439.0</ele><time>2026-04-12T15:11:11.999Z</time></trkpt><trkpt lat="42.07568119550666" lon="12.894457747448666"><ele>439.0</ele><time>2026-04-12T15:11:12.999Z</time></trkpt><trkpt lat="42.0756180756306" lon="12.894602818077846"><ele>439.0</ele><time>2026-04-12T15:11:13.999Z</time></trkpt><trkpt lat="42.0755427461435" lon="12.89470581436707"><ele>439.0</ele><time>2026-04-12T15:11:14.999Z</time></trkpt><trkpt lat="42.07545290233274" lon="12.894795970586715"><ele>439.0</ele><time>2026-04-12T15:11:15.999Z</time></trkpt><trkpt lat="42.07533878784483" lon="12.894885821433515"><ele>439.0</ele><time>2026-04-12T15:11:16.999Z</time></trkpt><trkpt lat="42.07520181502812" lon="12.895007509149904"><ele>439.0</ele><time>2026-04-12T15:11:17.999Z</time></trkpt><trkpt lat="42.07503968891437" lon="12.895151770696286"><ele>439.0</ele><time>2026-04-12T15:11:18.999Z</time></trkpt><trkpt lat="42.074883621340334" lon="12.895293314291013"><ele>440.6666666666667</ele><time>2026-04-12T15:11:19.999Z</time></trkpt><trkpt lat="42.07474032798925" lon="12.895427163622033"><ele>442.33333333333337</ele><time>2026-04-12T15:11:20.999Z</time></trkpt><trkpt lat="42.07460714183871" lon="12.895550403466888"><ele>444.0</ele><time>2026-04-12T15:11:21.999Z</time></trkpt><trkpt lat="42.0744936613649" lon="12.89566109162742"><ele>444.0</ele><time>2026-04-12T15:11:22.999Z</time></trkpt><trkpt lat="42.074399060016184" lon="12.895747836015717"><ele>444.0</ele><time>2026-04-12T15:11:23.999Z</time></trkpt><trkpt lat="42.07431283761902" lon="12.895829378546498"><ele>444.0</ele><time>2026-04-12T15:11:24.999Z</time></trkpt><trkpt lat="42.074221113672316" lon="12.895924155859037"><ele>444.0</ele><time>2026-04-12T15:11:25.999Z</time></trkpt><trkpt lat="42.07412239824951" lon="12.896015629305268"><ele>443.25</ele><time>2026-04-12T15:11:26.999Z</time></trkpt><trkpt lat="42.07401200261326" lon="12.896102824144515"><ele>442.5</ele><time>2026-04-12T15:11:27.999Z</time></trkpt><trkpt lat="42.07390599497116" lon="12.896208280138024"><ele>441.75</ele><time>2026-04-12T15:11:28.999Z</time></trkpt><trkpt lat="42.0738095465895" lon="12.896319957718841"><ele>441.0</ele><time>2026-04-12T15:11:29.999Z</time></trkpt><trkpt lat="42.07372381292596" lon="12.896442870439273"><ele>441.0</ele><time>2026-04-12T15:11:30.999Z</time></trkpt><trkpt lat="42.07365456144424" lon="12.896585687445347"><ele>441.0</ele><time>2026-04-12T15:11:31.999Z</time></trkpt><trkpt lat="42.073605754387415" lon="12.896743428011558"><ele>441.0</ele><time>2026-04-12T15:11:32.999Z</time></trkpt><trkpt lat="42.073569209406735" lon="12.896919911210178"><ele>441.0</ele><time>2026-04-12T15:11:33.999Z</time></trkpt><trkpt lat="42.07354744811993" lon="12.897102340980863"><ele>443.25</ele><time>2026-04-12T15:11:34.999Z</time></trkpt><trkpt lat="42.07354379998815" lon="12.897297540622077"><ele>445.5</ele><time>2026-04-12T15:11:35.999Z</time></trkpt><trkpt lat="42.07352780089145" lon="12.897498494122942"><ele>447.75</ele><time>2026-04-12T15:11:36.999Z</time></trkpt><trkpt lat="42.0735210428833" lon="12.897693194452154"><ele>450.0</ele><time>2026-04-12T15:11:37.999Z</time></trkpt><trkpt lat="42.07351495490733" lon="12.897878442968265"><ele>452.0</ele><time>2026-04-12T15:11:38.999Z</time></trkpt><trkpt lat="42.073509947360726" lon="12.898046535329188"><ele>454.0</ele><time>2026-04-12T15:11:39.999Z</time></trkpt><trkpt lat="42.073516725137694" lon="12.898203682604668"><ele>456.0</ele><time>2026-04-12T15:11:40.999Z</time></trkpt><trkpt lat="42.073503597456735" lon="12.898346771730182"><ele>458.0</ele><time>2026-04-12T15:11:41.999Z</time></trkpt><trkpt lat="42.07348631456668" lon="12.898474455280162"><ele>460.0</ele><time>2026-04-12T15:11:42.999Z</time></trkpt><trkpt lat="42.073465178579504" lon="12.898605751472598"><ele>460.8</ele><time>2026-04-12T15:11:43.999Z</time></trkpt><trkpt lat="42.07344203716968" lon="12.898748293880415"><ele>461.6</ele><time>2026-04-12T15:11:44.999Z</time></trkpt><trkpt lat="42.073419017366106" lon="12.898894151514765"><ele>462.4</ele><time>2026-04-12T15:11:45.999Z</time></trkpt><trkpt lat="42.07340545256555" lon="12.899033487411867"><ele>463.2</ele><time>2026-04-12T15:11:46.999Z</time></trkpt><trkpt lat="42.07338614576505" lon="12.899160966689568"><ele>464.0</ele><time>2026-04-12T15:11:47.999Z</time></trkpt><trkpt lat="42.073399827897035" lon="12.899299200977122"><ele>464.4</ele><time>2026-04-12T15:11:48.999Z</time></trkpt><trkpt lat="42.07344327040705" lon="12.899433327393183"><ele>464.79999999999995</ele><time>2026-04-12T15:11:49.999Z</time></trkpt><trkpt lat="42.07350501188234" lon="12.899552384503139"><ele>465.20000000000005</ele><time>2026-04-12T15:11:50.999Z</time></trkpt><trkpt lat="42.07358327926958" lon="12.899661781490217"><ele>465.6</ele><time>2026-04-12T15:11:51.999Z</time></trkpt><trkpt lat="42.07366882333334" lon="12.899761358217475"><ele>466.0</ele><time>2026-04-12T15:11:52.999Z</time></trkpt><trkpt lat="42.07375528657545" lon="12.899861938871563"><ele>466.00000000000006</ele><time>2026-04-12T15:11:53.999Z</time></trkpt><trkpt lat="42.07383249756293" lon="12.899947090873514"><ele>466.0</ele><time>2026-04-12T15:11:54.999Z</time></trkpt><trkpt lat="42.07389817724507" lon="12.90000979347399"><ele>466.0</ele><time>2026-04-12T15:11:55.999Z</time></trkpt><trkpt lat="42.07396481962741" lon="12.900045774078103"><ele>466.0</ele><time>2026-04-12T15:11:56.999Z</time></trkpt><trkpt lat="42.07403679990076" lon="12.90004883813667"><ele>466.00000000000006</ele><time>2026-04-12T15:11:57.999Z</time></trkpt><trkpt lat="42.07410487574303" lon="12.900095150907266"><ele>466.0</ele><time>2026-04-12T15:11:59.999Z</time></trkpt><trkpt lat="42.074052976700976" lon="12.900166505979442"><ele>468.33333333333337</ele><time>2026-04-12T15:12:00.999Z</time></trkpt><trkpt lat="42.07402730444513" lon="12.900343068992477"><ele>470.6666666666667</ele><time>2026-04-12T15:12:02.999Z</time></trkpt><trkpt lat="42.07401771067133" lon="12.900443218724769"><ele>473.0</ele><time>2026-04-12T15:12:03.999Z</time></trkpt><trkpt lat="42.07399950550957" lon="12.900545942020665"><ele>475.33333333333337</ele><time>2026-04-12T15:12:04.999Z</time></trkpt><trkpt lat="42.0739693971578" lon="12.900625690547303"><ele>477.6666666666667</ele><time>2026-04-12T15:12:05.999Z</time></trkpt><trkpt lat="42.073946611130815" lon="12.900717543737096"><ele>480.0</ele><time>2026-04-12T15:12:06.999Z</time></trkpt><trkpt lat="42.0739226727323" lon="12.90080431363819"><ele>480.0</ele><time>2026-04-12T15:12:07.999Z</time></trkpt><trkpt lat="42.073872925787164" lon="12.900908547527829"><ele>480.0</ele><time>2026-04-12T15:12:09.999Z</time></trkpt><trkpt lat="42.073858689813164" lon="12.90100033409541"><ele>480.0</ele><time>2026-04-12T15:12:11.999Z</time></trkpt><trkpt lat="42.073850341386" lon="12.901111673878638"><ele>480.0</ele><time>2026-04-12T15:12:23.999Z</time></trkpt><trkpt lat="42.07394821220774" lon="12.901178565105576"><ele>480.0</ele><time>2026-04-12T15:12:42Z</time></trkpt><trkpt lat="42.07400950346211" lon="12.901238182446987"><ele>480.0</ele><time>2026-04-12T15:12:57Z</time></trkpt><trkpt lat="42.073937645113816" lon="12.901245268386706"><ele>481.7142857142857</ele><time>2026-04-12T15:13:20.999Z</time></trkpt><trkpt lat="42.073918287286524" lon="12.901162044603206"><ele>483.42857142857144</ele><time>2026-04-12T15:13:26.999Z</time></trkpt><trkpt lat="42.07399225074414" lon="12.901112992344196"><ele>485.14285714285717</ele><time>2026-04-12T15:13:38.999Z</time></trkpt><trkpt lat="42.07397425532456" lon="12.901203088046993"><ele>486.8571428571429</ele><time>2026-04-12T15:14:06.999Z</time></trkpt><trkpt lat="42.07392401877536" lon="12.901109356387776"><ele>488.57142857142856</ele><time>2026-04-12T15:21:35.999Z</time></trkpt><trkpt lat="42.0738420298631" lon="12.901109235982043"><ele>490.28571428571433</ele><time>2026-04-12T15:21:56.999Z</time></trkpt><trkpt lat="42.073884169690736" lon="12.901176320104675"><ele>492.00000000000006</ele><time>2026-04-12T15:22:35.999Z</time></trkpt><trkpt lat="42.07396359925597" lon="12.90119597613562"><ele>492.0</ele><time>2026-04-12T15:24:00.999Z</time></trkpt><trkpt lat="42.07392524204422" lon="12.901097012185001"><ele>492.0</ele><time>2026-04-12T15:24:39.999Z</time></trkpt><trkpt lat="42.073852944125335" lon="12.9010394713211"><ele>492.0</ele><time>2026-04-12T15:27:39.999Z</time></trkpt><trkpt lat="42.07391888775773" lon="12.900970620454133"><ele>492.0</ele><time>2026-04-12T15:30:39Z</time></trkpt><trkpt lat="42.07390468588006" lon="12.901068435465278"><ele>492.0</ele><time>2026-04-12T15:40:39Z</time></trkpt><trkpt lat="42.07387300164661" lon="12.901142711667804"><ele>492.0</ele><time>2026-04-12T15:41:12Z</time></trkpt><trkpt lat="42.073850501613975" lon="12.901222661382825"><ele>492.0</ele><time>2026-04-12T15:41:25Z</time></trkpt><trkpt lat="42.07385844201192" lon="12.901310882021999"><ele>492.00000000000006</ele><time>2026-04-12T15:41:29Z</time></trkpt><trkpt lat="42.07391659650744" lon="12.901247344677774"><ele>492.00000000000006</ele><time>2026-04-12T15:41:34Z</time></trkpt><trkpt lat="42.073918273262514" lon="12.90110750724252"><ele>492.0</ele><time>2026-04-12T15:41:37Z</time></trkpt><trkpt lat="42.073961952843206" lon="12.900959025330321"><ele>492.0</ele><time>2026-04-12T15:41:39Z</time></trkpt><trkpt lat="42.073998040631764" lon="12.900804664981143"><ele>489.6</ele><time>2026-04-12T15:41:41Z</time></trkpt><trkpt lat="42.074034517459644" lon="12.900652900480823"><ele>487.20000000000005</ele><time>2026-04-12T15:41:43Z</time></trkpt><trkpt lat="42.07406246657827" lon="12.900494165829487"><ele>484.8</ele><time>2026-04-12T15:41:45Z</time></trkpt><trkpt lat="42.07407374168166" lon="12.900368112551252"><ele>482.4</ele><time>2026-04-12T15:41:47Z</time></trkpt><trkpt lat="42.074082684953964" lon="12.9002677447501"><ele>480.0</ele><time>2026-04-12T15:41:49Z</time></trkpt><trkpt lat="42.07409024829588" lon="12.900169692427808"><ele>479.8</ele><time>2026-04-12T15:41:51Z</time></trkpt><trkpt lat="42.0741099882277" lon="12.90007826973311"><ele>479.6</ele><time>2026-04-12T15:41:54Z</time></trkpt><trkpt lat="42.07417679081637" lon="12.90007432614661"><ele>479.4</ele><time>2026-04-12T15:41:57Z</time></trkpt><trkpt lat="42.074296996672004" lon="12.900113383833279"><ele>479.2</ele><time>2026-04-12T15:41:59Z</time></trkpt><trkpt lat="42.074396134271616" lon="12.900190707857803"><ele>479.0</ele><time>2026-04-12T15:42:00Z</time></trkpt><trkpt lat="42.07446010601201" lon="12.90026943083298"><ele>478.99999999999994</ele><time>2026-04-12T15:42:01Z</time></trkpt><trkpt lat="42.07449787213185" lon="12.900418891267107"><ele>479.0</ele><time>2026-04-12T15:42:03Z</time></trkpt><trkpt lat="42.07450497636197" lon="12.900509522698512"><ele>479.0</ele><time>2026-04-12T15:42:04Z</time></trkpt><trkpt lat="42.07451171288119" lon="12.900612800194203"><ele>479.0</ele><time>2026-04-12T15:42:05Z</time></trkpt><trkpt lat="42.074492085173645" lon="12.900714922658013"><ele>478.99999999999994</ele><time>2026-04-12T15:42:06Z</time></trkpt><trkpt lat="42.074464287955806" lon="12.900796057433713"><ele>479.0</ele><time>2026-04-12T15:42:07Z</time></trkpt><trkpt lat="42.07441669111558" lon="12.90087123006051"><ele>479.6</ele><time>2026-04-12T15:42:08Z</time></trkpt><trkpt lat="42.074361137101754" lon="12.900929326779892"><ele>480.2</ele><time>2026-04-12T15:42:09Z</time></trkpt><trkpt lat="42.0742588216597" lon="12.900973752744061"><ele>480.80000000000007</ele><time>2026-04-12T15:42:10.999Z</time></trkpt><trkpt lat="42.07417602985348" lon="12.901018087808747"><ele>481.40000000000003</ele><time>2026-04-12T15:42:12.999Z</time></trkpt><trkpt lat="42.07410506900641" lon="12.90106833339204"><ele>482.0</ele><time>2026-04-12T15:42:14.999Z</time></trkpt><trkpt lat="42.074036722468776" lon="12.901187338559854"><ele>481.99999999999994</ele><time>2026-04-12T15:42:16.999Z</time></trkpt><trkpt lat="42.074023111334434" lon="12.901291927811581"><ele>482.0</ele><time>2026-04-12T15:42:17.999Z</time></trkpt><trkpt lat="42.074049609186666" lon="12.901386728655543"><ele>482.0</ele><time>2026-04-12T15:42:18.999Z</time></trkpt><trkpt lat="42.07407014184818" lon="12.90146783188214"><ele>482.0</ele><time>2026-04-12T15:42:19.999Z</time></trkpt><trkpt lat="42.07413893937091" lon="12.90152715774359"><ele>481.99999999999994</ele><time>2026-04-12T15:42:20.999Z</time></trkpt><trkpt lat="42.07421774111686" lon="12.901632044137541"><ele>482.0</ele><time>2026-04-12T15:42:22.999Z</time></trkpt><trkpt lat="42.07426332258303" lon="12.901691026811644"><ele>478.42857142857144</ele><time>2026-04-12T15:42:23.999Z</time></trkpt><trkpt lat="42.074305808774255" lon="12.901760730559621"><ele>474.8571428571429</ele><time>2026-04-12T15:42:24.999Z</time></trkpt><trkpt lat="42.074352438415694" lon="12.901828440991205"><ele>471.28571428571433</ele><time>2026-04-12T15:42:26Z</time></trkpt><trkpt lat="42.0743984465758" lon="12.90189661923292"><ele>467.7142857142858</ele><time>2026-04-12T15:42:27Z</time></trkpt><trkpt lat="42.07445099197671" lon="12.901962341562712"><ele>464.14285714285717</ele><time>2026-04-12T15:42:28Z</time></trkpt><trkpt lat="42.07451010508296" lon="12.902030754870065"><ele>460.57142857142867</ele><time>2026-04-12T15:42:29Z</time></trkpt><trkpt lat="42.074574613166604" lon="12.902094532070647"><ele>457.00000000000006</ele><time>2026-04-12T15:42:30Z</time></trkpt><trkpt lat="42.07465265587323" lon="12.902150352423645"><ele>457.0</ele><time>2026-04-12T15:42:31Z</time></trkpt><trkpt lat="42.074739271522425" lon="12.902183237657988"><ele>457.00000000000006</ele><time>2026-04-12T15:42:32Z</time></trkpt><trkpt lat="42.074826180038514" lon="12.902208592571203"><ele>457.00000000000006</ele><time>2026-04-12T15:42:33Z</time></trkpt><trkpt lat="42.07492288279001" lon="12.902202561850372"><ele>457.0</ele><time>2026-04-12T15:42:34Z</time></trkpt><trkpt lat="42.07502573902584" lon="12.902155206728072"><ele>457.0</ele><time>2026-04-12T15:42:35Z</time></trkpt><trkpt lat="42.07514033651455" lon="12.902068197275181"><ele>460.75</ele><time>2026-04-12T15:42:36Z</time></trkpt><trkpt lat="42.07525430295459" lon="12.901990160736348"><ele>464.5</ele><time>2026-04-12T15:42:37Z</time></trkpt><trkpt lat="42.07538264944811" lon="12.901928648920585"><ele>468.25</ele><time>2026-04-12T15:42:38Z</time></trkpt><trkpt lat="42.075514682917266" lon="12.901899998575546"><ele>472.0</ele><time>2026-04-12T15:42:39Z</time></trkpt><trkpt lat="42.07566101883879" lon="12.901909073241354"><ele>471.6666666666667</ele><time>2026-04-12T15:42:40Z</time></trkpt><trkpt lat="42.07581454571012" lon="12.901948211036114"><ele>471.33333333333337</ele><time>2026-04-12T15:42:41Z</time></trkpt><trkpt lat="42.075973241194355" lon="12.902007901461722"><ele>471.0</ele><time>2026-04-12T15:42:42Z</time></trkpt><trkpt lat="42.07612517715687" lon="12.902043418712864"><ele>471.0</ele><time>2026-04-12T15:42:43Z</time></trkpt><trkpt lat="42.07625742996422" lon="12.902045617308977"><ele>471.0</ele><time>2026-04-12T15:42:44Z</time></trkpt><trkpt lat="42.07639020840383" lon="12.902032236599249"><ele>471.0</ele><time>2026-04-12T15:42:45Z</time></trkpt><trkpt lat="42.07651450270637" lon="12.901995424405431"><ele>471.0</ele><time>2026-04-12T15:42:46Z</time></trkpt><trkpt lat="42.07662031079859" lon="12.90193121132501"><ele>469.75</ele><time>2026-04-12T15:42:47Z</time></trkpt><trkpt lat="42.076697871093096" lon="12.901829716298737"><ele>468.5</ele><time>2026-04-12T15:42:48Z</time></trkpt><trkpt lat="42.07674305019821" lon="12.901695136211856"><ele>467.25</ele><time>2026-04-12T15:42:49Z</time></trkpt><trkpt lat="42.07674869350007" lon="12.901544061555562"><ele>466.0</ele><time>2026-04-12T15:42:50Z</time></trkpt><trkpt lat="42.07673627922781" lon="12.901383255970647"><ele>472.25</ele><time>2026-04-12T15:42:51Z</time></trkpt><trkpt lat="42.076716662517086" lon="12.901223460722072"><ele>478.5</ele><time>2026-04-12T15:42:52Z</time></trkpt><trkpt lat="42.076704104734745" lon="12.901044814991875"><ele>484.75</ele><time>2026-04-12T15:42:53Z</time></trkpt><trkpt lat="42.07671535148745" lon="12.900873298186493"><ele>491.0</ele><time>2026-04-12T15:42:54Z</time></trkpt><trkpt lat="42.07674154568971" lon="12.90072785922605"><ele>493.16666666666663</ele><time>2026-04-12T15:42:55Z</time></trkpt><trkpt lat="42.07677748418526" lon="12.90060310736138"><ele>495.3333333333333</ele><time>2026-04-12T15:42:56Z</time></trkpt><trkpt lat="42.07681573505559" lon="12.900489412928438"><ele>497.5</ele><time>2026-04-12T15:42:57Z</time></trkpt><trkpt lat="42.07685747314466" lon="12.90040317288866"><ele>499.66666666666663</ele><time>2026-04-12T15:42:58Z</time></trkpt><trkpt lat="42.076911548883594" lon="12.900323925002892"><ele>501.8333333333333</ele><time>2026-04-12T15:42:59Z</time></trkpt><trkpt lat="42.076968952991315" lon="12.90025449937653"><ele>504.0</ele><time>2026-04-12T15:43:00Z</time></trkpt><trkpt lat="42.07703468872563" lon="12.90018628715622"><ele>504.0</ele><time>2026-04-12T15:43:01Z</time></trkpt><trkpt lat="42.077098144053984" lon="12.900143421300593"><ele>504.0</ele><time>2026-04-12T15:43:02Z</time></trkpt><trkpt lat="42.07719754602684" lon="12.900142191118722"><ele>504.0</ele><time>2026-04-12T15:43:04Z</time></trkpt><trkpt lat="42.0772033748812" lon="12.899973237542975"><ele>504.0</ele><time>2026-04-12T15:43:06Z</time></trkpt><trkpt lat="42.077179110179486" lon="12.899862049006327"><ele>504.0</ele><time>2026-04-12T15:43:08Z</time></trkpt><trkpt lat="42.07705437284355" lon="12.899900743589578"><ele>504.0</ele><time>2026-04-12T15:43:09Z</time></trkpt><trkpt lat="42.07698425795487" lon="12.899952450237421"><ele>504.0</ele><time>2026-04-12T15:43:10Z</time></trkpt><trkpt lat="42.07691398697075" lon="12.900015272638239"><ele>504.0</ele><time>2026-04-12T15:43:11Z</time></trkpt><trkpt lat="42.0768376715735" lon="12.900101799288251"><ele>504.0</ele><time>2026-04-12T15:43:12Z</time></trkpt><trkpt lat="42.076753939118774" lon="12.90020161980987"><ele>504.0</ele><time>2026-04-12T15:43:13Z</time></trkpt><trkpt lat="42.07667287187128" lon="12.900325301827378"><ele>504.0</ele><time>2026-04-12T15:43:14Z</time></trkpt><trkpt lat="42.07660367797008" lon="12.900467874266308"><ele>504.0</ele><time>2026-04-12T15:43:15Z</time></trkpt><trkpt lat="42.0765632278858" lon="12.900609549089692"><ele>504.0</ele><time>2026-04-12T15:43:16Z</time></trkpt><trkpt lat="42.076526433326265" lon="12.900726114881857"><ele>504.0</ele><time>2026-04-12T15:43:17Z</time></trkpt><trkpt lat="42.076498916580164" lon="12.900818796572638"><ele>504.0</ele><time>2026-04-12T15:43:18Z</time></trkpt><trkpt lat="42.07643859973027" lon="12.900929093352067"><ele>503.4</ele><time>2026-04-12T15:43:20Z</time></trkpt><trkpt lat="42.076341123942264" lon="12.900906906732423"><ele>502.79999999999995</ele><time>2026-04-12T15:43:22Z</time></trkpt><trkpt lat="42.07631446678897" lon="12.900748670252382"><ele>502.20000000000005</ele><time>2026-04-12T15:43:24Z</time></trkpt><trkpt lat="42.07636155706828" lon="12.900649258168189"><ele>501.6</ele><time>2026-04-12T15:43:25Z</time></trkpt><trkpt lat="42.07640305985693" lon="12.900522577992884"><ele>501.0</ele><time>2026-04-12T15:43:26Z</time></trkpt><trkpt lat="42.07644100774554" lon="12.90038707814993"><ele>501.0</ele><time>2026-04-12T15:43:27Z</time></trkpt><trkpt lat="42.076488402650135" lon="12.900224567925882"><ele>501.0</ele><time>2026-04-12T15:43:28Z</time></trkpt><trkpt lat="42.07650910310293" lon="12.900070287270266"><ele>501.0</ele><time>2026-04-12T15:43:29Z</time></trkpt><trkpt lat="42.076548098193506" lon="12.899957943679157"><ele>501.0</ele><time>2026-04-12T15:43:30Z</time></trkpt><trkpt lat="42.07655353806881" lon="12.899870134297831"><ele>501.0</ele><time>2026-04-12T15:43:31Z</time></trkpt><trkpt lat="42.07653640827231" lon="12.899744584894018"><ele>501.25</ele><time>2026-04-12T15:43:33Z</time></trkpt><trkpt lat="42.07651149707865" lon="12.899624503694263"><ele>501.5</ele><time>2026-04-12T15:43:35Z</time></trkpt><trkpt lat="42.07647250410891" lon="12.899538732171226"><ele>501.75</ele><time>2026-04-12T15:43:37Z</time></trkpt><trkpt lat="42.07643959307961" lon="12.899463956222867"><ele>502.0</ele><time>2026-04-12T15:43:39Z</time></trkpt><trkpt lat="42.07670341298131" lon="12.899160674506842"><ele>505.1666666666667</ele><time>2026-04-12T15:43:42Z</time></trkpt><trkpt lat="42.07674186761643" lon="12.899060598291126"><ele>508.33333333333337</ele><time>2026-04-12T15:43:44Z</time></trkpt><trkpt lat="42.0767535294155" lon="12.898976595588941"><ele>511.5</ele><time>2026-04-12T15:43:45Z</time></trkpt><trkpt lat="42.07676795281516" lon="12.89888232446569"><ele>514.6666666666666</ele><time>2026-04-12T15:43:46Z</time></trkpt><trkpt lat="42.07679963679589" lon="12.898747554640204"><ele>517.8333333333333</ele><time>2026-04-12T15:43:48Z</time></trkpt><trkpt lat="42.07683584175602" lon="12.898628980649242"><ele>521.0</ele><time>2026-04-12T15:43:50Z</time></trkpt><trkpt lat="42.07685256358163" lon="12.89853703070749"><ele>521.0</ele><time>2026-04-12T15:43:53Z</time></trkpt><trkpt lat="42.07692632273082" lon="12.898533016207184"><ele>521.0</ele><time>2026-04-12T15:43:55Z</time></trkpt><trkpt lat="42.076997022398665" lon="12.898537265402371"><ele>521.0</ele><time>2026-04-12T15:43:56Z</time></trkpt><trkpt lat="42.07707094244587" lon="12.898506806162036"><ele>521.0</ele><time>2026-04-12T15:43:57Z</time></trkpt><trkpt lat="42.077151274564834" lon="12.898426349284223"><ele>521.0</ele><time>2026-04-12T15:43:58Z</time></trkpt><trkpt lat="42.077225487840806" lon="12.89831353382803"><ele>521.0</ele><time>2026-04-12T15:43:59Z</time></trkpt><trkpt lat="42.07729799556203" lon="12.89818585018927"><ele>526.25</ele><time>2026-04-12T15:44:00Z</time></trkpt><trkpt lat="42.07738659365895" lon="12.898076473484226"><ele>531.5</ele><time>2026-04-12T15:44:01Z</time></trkpt><trkpt lat="42.07749778968498" lon="12.898018125062135"><ele>536.75</ele><time>2026-04-12T15:44:02Z</time></trkpt><trkpt lat="42.07762192425023" lon="12.898015038664193"><ele>542.0</ele><time>2026-04-12T15:44:03Z</time></trkpt><trkpt lat="42.07773676639284" lon="12.898070798799608"><ele>542.25</ele><time>2026-04-12T15:44:04Z</time></trkpt><trkpt lat="42.07777781485199" lon="12.898303511306931"><ele>542.5</ele><time>2026-04-12T15:44:05Z</time></trkpt><trkpt lat="42.07787502951137" lon="12.898386366113856"><ele>542.75</ele><time>2026-04-12T15:44:06Z</time></trkpt><trkpt lat="42.077997113738235" lon="12.898445294883697"><ele>543.0</ele><time>2026-04-12T15:44:06.999Z</time></trkpt><trkpt lat="42.0781488956645" lon="12.89842350045537"><ele>541.5</ele><time>2026-04-12T15:44:07.999Z</time></trkpt><trkpt lat="42.07827438684389" lon="12.898416979229987"><ele>540.0</ele><time>2026-04-12T15:44:08.999Z</time></trkpt><trkpt lat="42.07839901598926" lon="12.898441503000893"><ele>538.5</ele><time>2026-04-12T15:44:09.999Z</time></trkpt><trkpt lat="42.07849684514507" lon="12.898504358519723"><ele>537.0</ele><time>2026-04-12T15:44:10.999Z</time></trkpt><trkpt lat="42.07860051981429" lon="12.8986015390046"><ele>537.0</ele><time>2026-04-12T15:44:11.999Z</time></trkpt><trkpt lat="42.07870839645549" lon="12.898720318207697"><ele>537.0</ele><time>2026-04-12T15:44:12.999Z</time></trkpt><trkpt lat="42.078822822267945" lon="12.898838267934973"><ele>537.0</ele><time>2026-04-12T15:44:13.999Z</time></trkpt><trkpt lat="42.078928438353365" lon="12.898939601730728"><ele>537.0</ele><time>2026-04-12T15:44:14.999Z</time></trkpt><trkpt lat="42.07903337269264" lon="12.89901015250205"><ele>539.6</ele><time>2026-04-12T15:44:15.999Z</time></trkpt><trkpt lat="42.07917210443611" lon="12.898984359006628"><ele>542.2</ele><time>2026-04-12T15:44:16.999Z</time></trkpt><trkpt lat="42.079249851933724" lon="12.898945237499401"><ele>544.8</ele><time>2026-04-12T15:44:17.999Z</time></trkpt><trkpt lat="42.07928722459708" lon="12.89879786194194"><ele>547.4</ele><time>2026-04-12T15:44:18.999Z</time></trkpt><trkpt lat="42.079289746565905" lon="12.89870500267313"><ele>550.0</ele><time>2026-04-12T15:44:19.999Z</time></trkpt><trkpt lat="42.079245969669365" lon="12.898625032918131"><ele>550.0</ele><time>2026-04-12T15:44:20.999Z</time></trkpt><trkpt lat="42.07918035436613" lon="12.898600097220816"><ele>550.0</ele><time>2026-04-12T15:44:21.999Z</time></trkpt><trkpt lat="42.07911805968313" lon="12.898579083486844"><ele>550.0</ele><time>2026-04-12T15:44:22.999Z</time></trkpt><trkpt lat="42.079005967953876" lon="12.898535317571074"><ele>550.0</ele><time>2026-04-12T15:44:23.999Z</time></trkpt><trkpt lat="42.07887168000909" lon="12.89845525575747"><ele>550.0</ele><time>2026-04-12T15:44:24.999Z</time></trkpt><trkpt lat="42.07873159270807" lon="12.898304482980699"><ele>551.6666666666667</ele><time>2026-04-12T15:44:25.999Z</time></trkpt><trkpt lat="42.078608693153" lon="12.898102152233053"><ele>553.3333333333334</ele><time>2026-04-12T15:44:26.999Z</time></trkpt><trkpt lat="42.078467024256504" lon="12.897936044406702"><ele>555.0</ele><time>2026-04-12T15:44:27.999Z</time></trkpt><trkpt lat="42.07832856416172" lon="12.89780778096753"><ele>556.3333333333334</ele><time>2026-04-12T15:44:28.999Z</time></trkpt><trkpt lat="42.07814773625436" lon="12.897652454070293"><ele>557.6666666666667</ele><time>2026-04-12T15:44:29.999Z</time></trkpt><trkpt lat="42.07798686628284" lon="12.897503403611001"><ele>559.0</ele><time>2026-04-12T15:44:30.999Z</time></trkpt><trkpt lat="42.07785820133866" lon="12.897375326189772"><ele>559.0</ele><time>2026-04-12T15:44:32Z</time></trkpt><trkpt lat="42.07777200917045" lon="12.897278120008522"><ele>559.0</ele><time>2026-04-12T15:44:33Z</time></trkpt><trkpt lat="42.07775725235282" lon="12.897157018346103"><ele>559.0</ele><time>2026-04-12T15:44:34Z</time></trkpt><trkpt lat="42.077749465971635" lon="12.89705377045431"><ele>559.0</ele><time>2026-04-12T15:44:35Z</time></trkpt><trkpt lat="42.0778262189998" lon="12.89697509393254"><ele>559.0</ele><time>2026-04-12T15:44:36Z</time></trkpt><trkpt lat="42.07789302316638" lon="12.89694211341656"><ele>559.0</ele><time>2026-04-12T15:44:37Z</time></trkpt><trkpt lat="42.07797499898909" lon="12.897012088600892"><ele>559.0</ele><time>2026-04-12T15:44:38Z</time></trkpt><trkpt lat="42.07800648573307" lon="12.897120841856202"><ele>559.0</ele><time>2026-04-12T15:44:39Z</time></trkpt><trkpt lat="42.07807087250251" lon="12.89723920384185"><ele>559.0</ele><time>2026-04-12T15:44:40Z</time></trkpt><trkpt lat="42.07815928315079" lon="12.897352619552608"><ele>559.0</ele><time>2026-04-12T15:44:41Z</time></trkpt><trkpt lat="42.0782734623467" lon="12.897451216501873"><ele>564.6666666666667</ele><time>2026-04-12T15:44:42Z</time></trkpt><trkpt lat="42.07844417497109" lon="12.89744904686563"><ele>570.3333333333334</ele><time>2026-04-12T15:44:43Z</time></trkpt><trkpt lat="42.07859119769745" lon="12.897514345890018"><ele>576.0</ele><time>2026-04-12T15:44:44Z</time></trkpt><trkpt lat="42.078762972917424" lon="12.897580926608477"><ele>575.0</ele><time>2026-04-12T15:44:45Z</time></trkpt><trkpt lat="42.07892883278116" lon="12.89767635033288"><ele>574.0</ele><time>2026-04-12T15:44:46Z</time></trkpt><trkpt lat="42.07910401993633" lon="12.897798228545101"><ele>573.0</ele><time>2026-04-12T15:44:47Z</time></trkpt><trkpt lat="42.07927387672848" lon="12.897878971380072"><ele>573.0</ele><time>2026-04-12T15:44:48Z</time></trkpt><trkpt lat="42.07942342772163" lon="12.897889611807015"><ele>573.0</ele><time>2026-04-12T15:44:49Z</time></trkpt><trkpt lat="42.079570140081636" lon="12.897847619907706"><ele>573.0</ele><time>2026-04-12T15:44:50Z</time></trkpt><trkpt lat="42.079731021551915" lon="12.897824724066208"><ele>573.0</ele><time>2026-04-12T15:44:51Z</time></trkpt><trkpt lat="42.07989008721254" lon="12.897795637210894"><ele>573.0</ele><time>2026-04-12T15:44:52Z</time></trkpt><trkpt lat="42.08004856572309" lon="12.897799479474138"><ele>573.0</ele><time>2026-04-12T15:44:53Z</time></trkpt><trkpt lat="42.08020692499439" lon="12.897841316034112"><ele>575.6666666666666</ele><time>2026-04-12T15:44:54Z</time></trkpt><trkpt lat="42.08037759433218" lon="12.897894842790535"><ele>578.3333333333333</ele><time>2026-04-12T15:44:55Z</time></trkpt><trkpt lat="42.08053766438486" lon="12.897926196921372"><ele>581.0</ele><time>2026-04-12T15:44:56Z</time></trkpt><trkpt lat="42.080691490331255" lon="12.8980023418757"><ele>584.6666666666666</ele><time>2026-04-12T15:44:57Z</time></trkpt><trkpt lat="42.08085089194184" lon="12.898029304052315"><ele>588.3333333333334</ele><time>2026-04-12T15:44:58Z</time></trkpt><trkpt lat="42.08100960000604" lon="12.898054966685233"><ele>592.0</ele><time>2026-04-12T15:44:59Z</time></trkpt><trkpt lat="42.081176913168854" lon="12.89805872188141"><ele>592.0</ele><time>2026-04-12T15:45:00Z</time></trkpt><trkpt lat="42.08134959920755" lon="12.898034894649317"><ele>592.0</ele><time>2026-04-12T15:45:01Z</time></trkpt><trkpt lat="42.081520951316776" lon="12.898047725753242"><ele>592.0</ele><time>2026-04-12T15:45:02Z</time></trkpt><trkpt lat="42.081692508340446" lon="12.898037132971007"><ele>594.0</ele><time>2026-04-12T15:45:03Z</time></trkpt><trkpt lat="42.08185837373694" lon="12.89799085897793"><ele>596.0</ele><time>2026-04-12T15:45:04Z</time></trkpt><trkpt lat="42.08201475188307" lon="12.897944345460111"><ele>598.0</ele><time>2026-04-12T15:45:05Z</time></trkpt><trkpt lat="42.082165758800514" lon="12.897879472961932"><ele>598.0</ele><time>2026-04-12T15:45:06Z</time></trkpt><trkpt lat="42.082306498441405" lon="12.897805517379535"><ele>598.0</ele><time>2026-04-12T15:45:07Z</time></trkpt><trkpt lat="42.08242798561601" lon="12.89771488565853"><ele>598.0</ele><time>2026-04-12T15:45:08Z</time></trkpt><trkpt lat="42.08253169250728" lon="12.897598111867351"><ele>598.0</ele><time>2026-04-12T15:45:09Z</time></trkpt><trkpt lat="42.08262287502672" lon="12.897432797112137"><ele>604.6666666666667</ele><time>2026-04-12T15:45:10Z</time></trkpt><trkpt lat="42.082711780324814" lon="12.89725462102975"><ele>611.3333333333334</ele><time>2026-04-12T15:45:11Z</time></trkpt><trkpt lat="42.0828041676103" lon="12.89706877056217"><ele>618.0</ele><time>2026-04-12T15:45:12Z</time></trkpt><trkpt lat="42.08291151944508" lon="12.89689584781443"><ele>619.6666666666666</ele><time>2026-04-12T15:45:13Z</time></trkpt><trkpt lat="42.083036359493526" lon="12.896738459351326"><ele>621.3333333333333</ele><time>2026-04-12T15:45:14Z</time></trkpt><trkpt lat="42.0831663605383" lon="12.8965867604903"><ele>623.0</ele><time>2026-04-12T15:45:15Z</time></trkpt><trkpt lat="42.08329890735311" lon="12.89643463489714"><ele>623.0</ele><time>2026-04-12T15:45:16Z</time></trkpt><trkpt lat="42.08342863198763" lon="12.896280209670225"><ele>623.0</ele><time>2026-04-12T15:45:17Z</time></trkpt><trkpt lat="42.08356521194541" lon="12.896151868066648"><ele>623.0</ele><time>2026-04-12T15:45:18Z</time></trkpt><trkpt lat="42.08370255221128" lon="12.896047237562389"><ele>623.0</ele><time>2026-04-12T15:45:19Z</time></trkpt><trkpt lat="42.083860440479235" lon="12.89596994592756"><ele>623.0</ele><time>2026-04-12T15:45:20Z</time></trkpt><trkpt lat="42.08401162556279" lon="12.89589050534387"><ele>623.0</ele><time>2026-04-12T15:45:21Z</time></trkpt><trkpt lat="42.084158914595186" lon="12.895830276327803"><ele>624.75</ele><time>2026-04-12T15:45:22Z</time></trkpt><trkpt lat="42.08430548315802" lon="12.895785488013914"><ele>626.5</ele><time>2026-04-12T15:45:23Z</time></trkpt><trkpt lat="42.08443230611841" lon="12.895731445026975"><ele>628.25</ele><time>2026-04-12T15:45:24Z</time></trkpt><trkpt lat="42.08454691021144" lon="12.895682584885424"><ele>630.0</ele><time>2026-04-12T15:45:25Z</time></trkpt><trkpt lat="42.08464660478074" lon="12.895602871381309"><ele>630.0</ele><time>2026-04-12T15:45:26Z</time></trkpt><trkpt lat="42.08474957593517" lon="12.895493707670017"><ele>630.0</ele><time>2026-04-12T15:45:27Z</time></trkpt><trkpt lat="42.084863872829615" lon="12.895368718893803"><ele>630.0</ele><time>2026-04-12T15:45:28Z</time></trkpt><trkpt lat="42.084976299509215" lon="12.895254588263423"><ele>630.0</ele><time>2026-04-12T15:45:29Z</time></trkpt><trkpt lat="42.08508686124881" lon="12.895162650028219"><ele>632.8</ele><time>2026-04-12T15:45:30Z</time></trkpt><trkpt lat="42.085181550221186" lon="12.89508087147893"><ele>635.6</ele><time>2026-04-12T15:45:31Z</time></trkpt><trkpt lat="42.08524650028649" lon="12.89498438755756"><ele>638.4000000000001</ele><time>2026-04-12T15:45:32Z</time></trkpt><trkpt lat="42.0852749236763" lon="12.894876066475202"><ele>641.2</ele><time>2026-04-12T15:45:33Z</time></trkpt><trkpt lat="42.08527505861648" lon="12.894779815266961"><ele>644.0</ele><time>2026-04-12T15:45:34Z</time></trkpt><trkpt lat="42.08523729227085" lon="12.894666052906365"><ele>644.0</ele><time>2026-04-12T15:45:36Z</time></trkpt><trkpt lat="42.085297063181464" lon="12.894636105495579"><ele>644.0</ele><time>2026-04-12T15:45:51Z</time></trkpt><trkpt lat="42.08534934710305" lon="12.894777340674544"><ele>644.0</ele><time>2026-04-12T15:45:53Z</time></trkpt><trkpt lat="42.0853780709793" lon="12.894885698363016"><ele>644.0</ele><time>2026-04-12T15:45:54Z</time></trkpt><trkpt lat="42.08541790808376" lon="12.895009073477242"><ele>644.0</ele><time>2026-04-12T15:45:55Z</time></trkpt><trkpt lat="42.0854255760825" lon="12.89513178997121"><ele>645.6666666666666</ele><time>2026-04-12T15:45:56Z</time></trkpt><trkpt lat="42.08550412742586" lon="12.895208640623023"><ele>647.3333333333333</ele><time>2026-04-12T15:45:57Z</time></trkpt><trkpt lat="42.085584762036866" lon="12.895279993784667"><ele>649.0</ele><time>2026-04-12T15:45:58Z</time></trkpt><trkpt lat="42.08566914813837" lon="12.895311838851816"><ele>650.6666666666666</ele><time>2026-04-12T15:45:59Z</time></trkpt><trkpt lat="42.085734459911386" lon="12.895318447968132"><ele>652.3333333333334</ele><time>2026-04-12T15:46:00Z</time></trkpt><trkpt lat="42.08581620739149" lon="12.895303116694972"><ele>654.0</ele><time>2026-04-12T15:46:01Z</time></trkpt><trkpt lat="42.08589651051638" lon="12.89526061711055"><ele>654.0</ele><time>2026-04-12T15:46:02Z</time></trkpt><trkpt lat="42.085958393916385" lon="12.895233531501148"><ele>654.0</ele><time>2026-04-12T15:46:03Z</time></trkpt><trkpt lat="42.08602410858892" lon="12.895180842822732"><ele>654.0</ele><time>2026-04-12T15:46:04Z</time></trkpt><trkpt lat="42.08611487048052" lon="12.895156745583288"><ele>654.0</ele><time>2026-04-12T15:46:05Z</time></trkpt><trkpt lat="42.08618497684702" lon="12.895143107545834"><ele>654.0</ele><time>2026-04-12T15:46:06Z</time></trkpt><trkpt lat="42.08623840716075" lon="12.895191226834013"><ele>654.0</ele><time>2026-04-12T15:46:07Z</time></trkpt><trkpt lat="42.08636028356932" lon="12.895322498597201"><ele>654.0</ele><time>2026-04-12T15:46:09Z</time></trkpt><trkpt lat="42.086428667261984" lon="12.895439373252332"><ele>654.0</ele><time>2026-04-12T15:46:10Z</time></trkpt><trkpt lat="42.08649886090467" lon="12.89558718152836"><ele>654.0</ele><time>2026-04-12T15:46:11Z</time></trkpt><trkpt lat="42.08659885772689" lon="12.895723499525399"><ele>654.0</ele><time>2026-04-12T15:46:12Z</time></trkpt><trkpt lat="42.08671545641519" lon="12.895817627890562"><ele>659.25</ele><time>2026-04-12T15:46:13Z</time></trkpt><trkpt lat="42.08680518876629" lon="12.895874975195287"><ele>664.5</ele><time>2026-04-12T15:46:14Z</time></trkpt><trkpt lat="42.086903276493835" lon="12.895867273759126"><ele>669.75</ele><time>2026-04-12T15:46:15Z</time></trkpt><trkpt lat="42.0870166339092" lon="12.895772202640645"><ele>675.0</ele><time>2026-04-12T15:46:15.999Z</time></trkpt><trkpt lat="42.087137505786316" lon="12.895725523719332"><ele>675.0</ele><time>2026-04-12T15:46:16.999Z</time></trkpt><trkpt lat="42.087234375782884" lon="12.895687618666289"><ele>675.0</ele><time>2026-04-12T15:46:17.999Z</time></trkpt><trkpt lat="42.08734467125869" lon="12.895644266908958"><ele>675.0</ele><time>2026-04-12T15:46:18.999Z</time></trkpt><trkpt lat="42.08744392674101" lon="12.895609651490815"><ele>675.0</ele><time>2026-04-12T15:46:19.999Z</time></trkpt><trkpt lat="42.08752264280177" lon="12.895592438448803"><ele>675.0</ele><time>2026-04-12T15:46:20.999Z</time></trkpt><trkpt lat="42.08759261541174" lon="12.895586917814036"><ele>678.0</ele><time>2026-04-12T15:46:21.999Z</time></trkpt><trkpt lat="42.08767364727532" lon="12.895587165055488"><ele>681.0</ele><time>2026-04-12T15:46:22.999Z</time></trkpt><trkpt lat="42.087774183819036" lon="12.895589456870264"><ele>684.0</ele><time>2026-04-12T15:46:23.999Z</time></trkpt><trkpt lat="42.087877360785" lon="12.895569305990541"><ele>687.0</ele><time>2026-04-12T15:46:24.999Z</time></trkpt><trkpt lat="42.087996155193494" lon="12.895566775775006"><ele>690.0</ele><time>2026-04-12T15:46:25.999Z</time></trkpt><trkpt lat="42.08812326193108" lon="12.895546856396496"><ele>690.2</ele><time>2026-04-12T15:46:26.999Z</time></trkpt><trkpt lat="42.088261325155116" lon="12.895548676757874"><ele>690.4</ele><time>2026-04-12T15:46:27.999Z</time></trkpt><trkpt lat="42.08835604464609" lon="12.895518312448347"><ele>690.5999999999999</ele><time>2026-04-12T15:46:28.999Z</time></trkpt><trkpt lat="42.088426232129834" lon="12.895468573422852"><ele>690.8</ele><time>2026-04-12T15:46:29.999Z</time></trkpt><trkpt lat="42.088517389473374" lon="12.895440463133863"><ele>691.0</ele><time>2026-04-12T15:46:30.999Z</time></trkpt><trkpt lat="42.088612823012426" lon="12.8953717191028"><ele>691.0</ele><time>2026-04-12T15:46:31.999Z</time></trkpt><trkpt lat="42.08871068946297" lon="12.895295420048447"><ele>691.0</ele><time>2026-04-12T15:46:32.999Z</time></trkpt><trkpt lat="42.0888129453161" lon="12.895200590733824"><ele>691.0</ele><time>2026-04-12T15:46:33.999Z</time></trkpt><trkpt lat="42.08891854137994" lon="12.895108598376185"><ele>691.0</ele><time>2026-04-12T15:46:34.999Z</time></trkpt><trkpt lat="42.08901284369231" lon="12.895017887252008"><ele>693.8</ele><time>2026-04-12T15:46:35.999Z</time></trkpt><trkpt lat="42.08909974868792" lon="12.894957735269072"><ele>696.5999999999999</ele><time>2026-04-12T15:46:36.999Z</time></trkpt><trkpt lat="42.08918251975495" lon="12.894917621893946"><ele>699.4</ele><time>2026-04-12T15:46:38Z</time></trkpt><trkpt lat="42.089268534194645" lon="12.894945275620376"><ele>702.2</ele><time>2026-04-12T15:46:39Z</time></trkpt><trkpt lat="42.08935069077012" lon="12.894929317426069"><ele>705.0</ele><time>2026-04-12T15:46:40Z</time></trkpt><trkpt lat="42.08944492486635" lon="12.894911013282199"><ele>705.0</ele><time>2026-04-12T15:46:41Z</time></trkpt><trkpt lat="42.08952819423017" lon="12.894882585611434"><ele>705.0</ele><time>2026-04-12T15:46:42Z</time></trkpt><trkpt lat="42.08963097593194" lon="12.894830301314961"><ele>705.0</ele><time>2026-04-12T15:46:43Z</time></trkpt><trkpt lat="42.08972765314772" lon="12.894799734646464"><ele>705.0</ele><time>2026-04-12T15:46:44Z</time></trkpt><trkpt lat="42.089828773990476" lon="12.89481457124021"><ele>705.0</ele><time>2026-04-12T15:46:45Z</time></trkpt><trkpt lat="42.089935644770705" lon="12.894862267445083"><ele>704.2</ele><time>2026-04-12T15:46:46Z</time></trkpt><trkpt lat="42.09004671175369" lon="12.89492441277335"><ele>703.4</ele><time>2026-04-12T15:46:47Z</time></trkpt><trkpt lat="42.090145920838154" lon="12.894978051946996"><ele>702.5999999999999</ele><time>2026-04-12T15:46:48Z</time></trkpt><trkpt lat="42.09023651513667" lon="12.895037136352682"><ele>701.8</ele><time>2026-04-12T15:46:49Z</time></trkpt><trkpt lat="42.09031874910871" lon="12.895108341491731"><ele>701.0</ele><time>2026-04-12T15:46:50Z</time></trkpt><trkpt lat="42.09040294741774" lon="12.89517394332153"><ele>701.0</ele><time>2026-04-12T15:46:51Z</time></trkpt><trkpt lat="42.090494178405365" lon="12.895243512264413"><ele>701.0</ele><time>2026-04-12T15:46:52Z</time></trkpt><trkpt lat="42.090615244581464" lon="12.89532659895978"><ele>701.0</ele><time>2026-04-12T15:46:53Z</time></trkpt><trkpt lat="42.09076807075476" lon="12.895416883054024"><ele>701.0</ele><time>2026-04-12T15:46:54Z</time></trkpt><trkpt lat="42.09090773804289" lon="12.895503896283854"><ele>705.5999999999999</ele><time>2026-04-12T15:46:55Z</time></trkpt><trkpt lat="42.09102277147842" lon="12.895559309394221"><ele>710.2</ele><time>2026-04-12T15:46:56Z</time></trkpt><trkpt lat="42.09109636791285" lon="12.895617995910598"><ele>714.8</ele><time>2026-04-12T15:46:57Z</time></trkpt><trkpt lat="42.091169584218804" lon="12.895765152506723"><ele>719.4000000000001</ele><time>2026-04-12T15:46:59Z</time></trkpt><trkpt lat="42.0911764997385" lon="12.895861862659931"><ele>724.0</ele><time>2026-04-12T15:47:00Z</time></trkpt><trkpt lat="42.09114384221903" lon="12.89599553124347"><ele>724.0</ele><time>2026-04-12T15:47:01Z</time></trkpt><trkpt lat="42.09108782057691" lon="12.896159775439651"><ele>724.0</ele><time>2026-04-12T15:47:02Z</time></trkpt><trkpt lat="42.09105189939312" lon="12.896310964337328"><ele>724.0</ele><time>2026-04-12T15:47:03Z</time></trkpt><trkpt lat="42.09103859373085" lon="12.896469283773518"><ele>724.0</ele><time>2026-04-12T15:47:04Z</time></trkpt><trkpt lat="42.09105084790073" lon="12.896601479845923"><ele>724.0</ele><time>2026-04-12T15:47:05Z</time></trkpt><trkpt lat="42.09108333230428" lon="12.8966924978506"><ele>724.0</ele><time>2026-04-12T15:47:06Z</time></trkpt><trkpt lat="42.091140879430206" lon="12.896828302990142"><ele>724.0</ele><time>2026-04-12T15:47:07Z</time></trkpt><trkpt lat="42.09121030794246" lon="12.896911435199392"><ele>724.0</ele><time>2026-04-12T15:47:08Z</time></trkpt><trkpt lat="42.09127235312568" lon="12.89695401475611"><ele>724.0</ele><time>2026-04-12T15:47:09Z</time></trkpt><trkpt lat="42.091345831282986" lon="12.896969831348061"><ele>724.0</ele><time>2026-04-12T15:47:10Z</time></trkpt><trkpt lat="42.09144612440596" lon="12.896946238958945"><ele>723.0</ele><time>2026-04-12T15:47:11Z</time></trkpt><trkpt lat="42.09155788432644" lon="12.896893572722622"><ele>722.0</ele><time>2026-04-12T15:47:12Z</time></trkpt><trkpt lat="42.091679405624916" lon="12.896840558796443"><ele>721.0</ele><time>2026-04-12T15:47:13Z</time></trkpt><trkpt lat="42.091794972842315" lon="12.896793406485473"><ele>720.0</ele><time>2026-04-12T15:47:14Z</time></trkpt><trkpt lat="42.09189472185019" lon="12.896749836773468"><ele>720.0</ele><time>2026-04-12T15:47:15Z</time></trkpt><trkpt lat="42.09200137223232" lon="12.896776199311587"><ele>720.0</ele><time>2026-04-12T15:47:16Z</time></trkpt><trkpt lat="42.092111243289295" lon="12.896821247719869"><ele>720.0</ele><time>2026-04-12T15:47:17Z</time></trkpt><trkpt lat="42.09221576337736" lon="12.896866851075927"><ele>720.0</ele><time>2026-04-12T15:47:18Z</time></trkpt><trkpt lat="42.092315783445386" lon="12.896942819063002"><ele>720.0</ele><time>2026-04-12T15:47:19Z</time></trkpt><trkpt lat="42.092420133589954" lon="12.897032983435327"><ele>723.0</ele><time>2026-04-12T15:47:20Z</time></trkpt><trkpt lat="42.09253536058008" lon="12.897125324551377"><ele>726.0</ele><time>2026-04-12T15:47:21Z</time></trkpt><trkpt lat="42.09260434488111" lon="12.897162981685025"><ele>729.0</ele><time>2026-04-12T15:47:22Z</time></trkpt><trkpt lat="42.092729884363685" lon="12.89714470333278"><ele>732.0</ele><time>2026-04-12T15:47:24Z</time></trkpt><trkpt lat="42.09280005406706" lon="12.897098316729489"><ele>735.0</ele><time>2026-04-12T15:47:25Z</time></trkpt><trkpt lat="42.092877714169404" lon="12.897022429488823"><ele>735.0</ele><time>2026-04-12T15:47:26Z</time></trkpt><trkpt lat="42.092963412282494" lon="12.896924225219944"><ele>735.0</ele><time>2026-04-12T15:47:27Z</time></trkpt><trkpt lat="42.09304356493267" lon="12.896836419283877"><ele>735.0</ele><time>2026-04-12T15:47:28Z</time></trkpt><trkpt lat="42.09311694716053" lon="12.896779847666838"><ele>735.0</ele><time>2026-04-12T15:47:29Z</time></trkpt><trkpt lat="42.09319720755861" lon="12.89676196028334"><ele>735.0</ele><time>2026-04-12T15:47:30Z</time></trkpt><trkpt lat="42.09326719885862" lon="12.896786827738156"><ele>735.8333333333334</ele><time>2026-04-12T15:47:31Z</time></trkpt><trkpt lat="42.093356230066775" lon="12.896841313759342"><ele>736.6666666666666</ele><time>2026-04-12T15:47:32Z</time></trkpt><trkpt lat="42.093456875540085" lon="12.896898011663552"><ele>737.5</ele><time>2026-04-12T15:47:33Z</time></trkpt><trkpt lat="42.093540606517266" lon="12.896949513543722"><ele>738.3333333333333</ele><time>2026-04-12T15:47:34Z</time></trkpt><trkpt lat="42.09361639687276" lon="12.896967600069795"><ele>739.1666666666666</ele><time>2026-04-12T15:47:35Z</time></trkpt><trkpt lat="42.09368868090022" lon="12.896960117265149"><ele>740.0</ele><time>2026-04-12T15:47:36Z</time></trkpt><trkpt lat="42.09376700149196" lon="12.896945290771841"><ele>740.0</ele><time>2026-04-12T15:47:37Z</time></trkpt><trkpt lat="42.093852168566414" lon="12.896930682799407"><ele>740.0</ele><time>2026-04-12T15:47:38Z</time></trkpt><trkpt lat="42.09392669648056" lon="12.896918249550788"><ele>740.0</ele><time>2026-04-12T15:47:39Z</time></trkpt><trkpt lat="42.094026768799" lon="12.896941163331302"><ele>740.0</ele><time>2026-04-12T15:47:41Z</time></trkpt><trkpt lat="42.09406948829352" lon="12.897005707574683"><ele>740.0</ele><time>2026-04-12T15:47:42Z</time></trkpt><trkpt lat="42.094127747872086" lon="12.89714290127068"><ele>740.0</ele><time>2026-04-12T15:47:43Z</time></trkpt><trkpt lat="42.09417523903807" lon="12.89720919019358"><ele>741.8</ele><time>2026-04-12T15:47:44Z</time></trkpt><trkpt lat="42.09431085719234" lon="12.897193269256114"><ele>743.6</ele><time>2026-04-12T15:47:46Z</time></trkpt><trkpt lat="42.094390091532205" lon="12.897132637228221"><ele>745.4000000000001</ele><time>2026-04-12T15:47:47Z</time></trkpt><trkpt lat="42.0944642993588" lon="12.897058602054823"><ele>747.2</ele><time>2026-04-12T15:47:48Z</time></trkpt><trkpt lat="42.0945795964548" lon="12.897079175159508"><ele>749.0</ele><time>2026-04-12T15:47:50Z</time></trkpt><trkpt lat="42.09467255794589" lon="12.89717696214703"><ele>749.0</ele><time>2026-04-12T15:47:51Z</time></trkpt><trkpt lat="42.0947595644782" lon="12.897313323562136"><ele>749.0</ele><time>2026-04-12T15:47:52Z</time></trkpt><trkpt lat="42.09481771476364" lon="12.89745107624044"><ele>749.0</ele><time>2026-04-12T15:47:53Z</time></trkpt><trkpt lat="42.09486784510051" lon="12.897536472085838"><ele>749.0</ele><time>2026-04-12T15:47:54Z</time></trkpt><trkpt lat="42.09493593238268" lon="12.897539438075237"><ele>749.0</ele><time>2026-04-12T15:47:55Z</time></trkpt><trkpt lat="42.09501946290573" lon="12.897512110804815"><ele>746.25</ele><time>2026-04-12T15:47:56Z</time></trkpt><trkpt lat="42.095134324087354" lon="12.897556720410053"><ele>743.5</ele><time>2026-04-12T15:47:57Z</time></trkpt><trkpt lat="42.09525763362485" lon="12.89762191267401"><ele>740.75</ele><time>2026-04-12T15:47:58Z</time></trkpt><trkpt lat="42.09535985782719" lon="12.897691894300975"><ele>738.0</ele><time>2026-04-12T15:47:59Z</time></trkpt><trkpt lat="42.09544637012402" lon="12.89774973675736"><ele>738.0</ele><time>2026-04-12T15:48:00Z</time></trkpt><trkpt lat="42.09555439558837" lon="12.897774203028714"><ele>738.0</ele><time>2026-04-12T15:48:01Z</time></trkpt><trkpt lat="42.09567453169798" lon="12.897786503743438"><ele>738.0</ele><time>2026-04-12T15:48:02Z</time></trkpt><trkpt lat="42.09581077098603" lon="12.897769559173604"><ele>738.0</ele><time>2026-04-12T15:48:03Z</time></trkpt><trkpt lat="42.09597353050889" lon="12.897747843386856"><ele>744.3333333333334</ele><time>2026-04-12T15:48:04Z</time></trkpt><trkpt lat="42.09613639157559" lon="12.897728284812043"><ele>750.6666666666667</ele><time>2026-04-12T15:48:05Z</time></trkpt><trkpt lat="42.0962864507526" lon="12.897706900025018"><ele>757.0</ele><time>2026-04-12T15:48:06Z</time></trkpt><trkpt lat="42.0964229552721" lon="12.897735395961151"><ele>757.0</ele><time>2026-04-12T15:48:07Z</time></trkpt><trkpt lat="42.09657928979607" lon="12.897730109344336"><ele>757.0</ele><time>2026-04-12T15:48:08Z</time></trkpt><trkpt lat="42.096715470777596" lon="12.897725698601613"><ele>757.0</ele><time>2026-04-12T15:48:09Z</time></trkpt><trkpt lat="42.09684142305214" lon="12.897724588568403"><ele>757.0</ele><time>2026-04-12T15:48:10Z</time></trkpt><trkpt lat="42.09694131342205" lon="12.897740128866014"><ele>756.6666666666667</ele><time>2026-04-12T15:48:11Z</time></trkpt><trkpt lat="42.09704906364967" lon="12.89775622452602"><ele>756.3333333333334</ele><time>2026-04-12T15:48:12Z</time></trkpt><trkpt lat="42.09713999560903" lon="12.897755956271665"><ele>756.0</ele><time>2026-04-12T15:48:13Z</time></trkpt><trkpt lat="42.09720765073867" lon="12.897716219966586"><ele>755.6666666666666</ele><time>2026-04-12T15:48:14Z</time></trkpt><trkpt lat="42.09728438835547" lon="12.897662730788772"><ele>755.3333333333333</ele><time>2026-04-12T15:48:15Z</time></trkpt><trkpt lat="42.097351726262865" lon="12.8975987800022"><ele>755.0</ele><time>2026-04-12T15:48:16Z</time></trkpt><trkpt lat="42.0973985373695" lon="12.89753124916833"><ele>760.4</ele><time>2026-04-12T15:48:17Z</time></trkpt><trkpt lat="42.09743320373383" lon="12.897417124824717"><ele>765.8</ele><time>2026-04-12T15:48:18Z</time></trkpt><trkpt lat="42.09747495540982" lon="12.897274747627971"><ele>771.2</ele><time>2026-04-12T15:48:19Z</time></trkpt><trkpt lat="42.09750999981878" lon="12.8971389784878"><ele>776.6</ele><time>2026-04-12T15:48:20Z</time></trkpt><trkpt lat="42.097537067025186" lon="12.8970425302237"><ele>782.0</ele><time>2026-04-12T15:48:21Z</time></trkpt><trkpt lat="42.09763031596691" lon="12.89696561018761"><ele>782.0000000000001</ele><time>2026-04-12T15:48:23Z</time></trkpt><trkpt lat="42.097709429409896" lon="12.896924144448978"><ele>782.0</ele><time>2026-04-12T15:48:23.999Z</time></trkpt><trkpt lat="42.09777998901561" lon="12.896866611042416"><ele>782.0</ele><time>2026-04-12T15:48:24.999Z</time></trkpt><trkpt lat="42.09788338771037" lon="12.896819320929799"><ele>782.0</ele><time>2026-04-12T15:48:26.999Z</time></trkpt><trkpt lat="42.09794991459018" lon="12.896796399459364"><ele>782.0000000000001</ele><time>2026-04-12T15:48:28.999Z</time></trkpt><trkpt lat="42.09802170946196" lon="12.896756931609554"><ele>782.0</ele><time>2026-04-12T15:48:31.999Z</time></trkpt><trkpt lat="42.0980768825001" lon="12.896693584174232"><ele>785.0000000000001</ele><time>2026-04-12T15:48:34.999Z</time></trkpt><trkpt lat="42.098152654150546" lon="12.89667989871384"><ele>788.0</ele><time>2026-04-12T15:48:38.999Z</time></trkpt><trkpt lat="42.09822731587965" lon="12.896643866531996"><ele>791.0</ele><time>2026-04-12T15:48:41.999Z</time></trkpt><trkpt lat="42.09830811794386" lon="12.89661161382249"><ele>794.0</ele><time>2026-04-12T15:48:45Z</time></trkpt><trkpt lat="42.098402869954455" lon="12.896570373529634"><ele>797.0000000000001</ele><time>2026-04-12T15:48:47Z</time></trkpt><trkpt lat="42.09848068982546" lon="12.896600744198249"><ele>800.0</ele><time>2026-04-12T15:48:48Z</time></trkpt><trkpt lat="42.09854208106517" lon="12.896649598536477"><ele>801.25</ele><time>2026-04-12T15:48:49Z</time></trkpt><trkpt lat="42.09865768976167" lon="12.896637283164887"><ele>802.5</ele><time>2026-04-12T15:48:51Z</time></trkpt><trkpt lat="42.09876750711578" lon="12.896644754751106"><ele>803.75</ele><time>2026-04-12T15:48:53Z</time></trkpt><trkpt lat="42.098978247683995" lon="12.896659658168216"><ele>805.0</ele><time>2026-04-12T15:48:55Z</time></trkpt><trkpt lat="42.099066734786426" lon="12.89661919314626"><ele>805.0</ele><time>2026-04-12T15:48:57Z</time></trkpt><trkpt lat="42.09915194638488" lon="12.896509096076352"><ele>805.0</ele><time>2026-04-12T15:48:59Z</time></trkpt><trkpt lat="42.0992021784199" lon="12.89641281418266"><ele>805.0</ele><time>2026-04-12T15:49:00Z</time></trkpt><trkpt lat="42.099245726335944" lon="12.89629833060015"><ele>805.0</ele><time>2026-04-12T15:49:01Z</time></trkpt><trkpt lat="42.09930795421324" lon="12.89617764888716"><ele>805.0</ele><time>2026-04-12T15:49:02Z</time></trkpt><trkpt lat="42.09932915020997" lon="12.89606122549148"><ele>804.9999999999999</ele><time>2026-04-12T15:49:03Z</time></trkpt><trkpt lat="42.099359800730966" lon="12.89593314767303"><ele>805.0</ele><time>2026-04-12T15:49:05Z</time></trkpt><trkpt lat="42.09942758065949" lon="12.895872552277607"><ele>805.0</ele><time>2026-04-12T15:49:06Z</time></trkpt><trkpt lat="42.099481710897315" lon="12.895797477556371"><ele>805.0</ele><time>2026-04-12T15:49:07Z</time></trkpt><trkpt lat="42.099524984555295" lon="12.895705192170032"><ele>804.9999999999999</ele><time>2026-04-12T15:49:08Z</time></trkpt><trkpt lat="42.09957296742773" lon="12.895582845267981"><ele>805.0</ele><time>2026-04-12T15:49:09Z</time></trkpt><trkpt lat="42.09961934511974" lon="12.895455055676159"><ele>807.1666666666666</ele><time>2026-04-12T15:49:10Z</time></trkpt><trkpt lat="42.09966807178265" lon="12.89533083145031"><ele>809.3333333333333</ele><time>2026-04-12T15:49:11Z</time></trkpt><trkpt lat="42.09972544013312" lon="12.895252259219692"><ele>811.5</ele><time>2026-04-12T15:49:12Z</time></trkpt><trkpt lat="42.0997496162229" lon="12.89517046617514"><ele>813.6666666666667</ele><time>2026-04-12T15:49:14Z</time></trkpt><trkpt lat="42.09969770494147" lon="12.895118659700714"><ele>815.8333333333334</ele><time>2026-04-12T15:49:15Z</time></trkpt><trkpt lat="42.09976074187708" lon="12.895040838419476"><ele>818.0</ele><time>2026-04-12T15:49:16Z</time></trkpt><trkpt lat="42.09980794976919" lon="12.894950283710665"><ele>816.4</ele><time>2026-04-12T15:49:18Z</time></trkpt><trkpt lat="42.09987146823024" lon="12.894889480876062"><ele>814.8</ele><time>2026-04-12T15:49:19Z</time></trkpt><trkpt lat="42.09992763431001" lon="12.894774498140139"><ele>813.2</ele><time>2026-04-12T15:49:21Z</time></trkpt><trkpt lat="42.09997051571812" lon="12.894695548592727"><ele>811.6</ele><time>2026-04-12T15:49:22Z</time></trkpt><trkpt lat="42.10003681242223" lon="12.894594833165153"><ele>810.0</ele><time>2026-04-12T15:49:24Z</time></trkpt><trkpt lat="42.100079362031984" lon="12.894467380364635"><ele>810.0</ele><time>2026-04-12T15:49:26Z</time></trkpt><trkpt lat="42.10012017683465" lon="12.894326080458026"><ele>810.0</ele><time>2026-04-12T15:49:28Z</time></trkpt><trkpt lat="42.10014641369389" lon="12.894215342070767"><ele>810.0</ele><time>2026-04-12T15:49:29Z</time></trkpt><trkpt lat="42.100173117802086" lon="12.894126707509614"><ele>810.0</ele><time>2026-04-12T15:49:30Z</time></trkpt><trkpt lat="42.10020868604472" lon="12.89401364648789"><ele>810.0</ele><time>2026-04-12T15:49:32Z</time></trkpt><trkpt lat="42.10023667972091" lon="12.893887652607887"><ele>813.0</ele><time>2026-04-12T15:49:34Z</time></trkpt><trkpt lat="42.100316802445064" lon="12.893770560099696"><ele>816.0</ele><time>2026-04-12T15:49:36Z</time></trkpt><trkpt lat="42.100359103109945" lon="12.893698449388582"><ele>819.0</ele><time>2026-04-12T15:49:37Z</time></trkpt><trkpt lat="42.100396056297825" lon="12.893628379951208"><ele>822.0</ele><time>2026-04-12T15:49:38Z</time></trkpt><trkpt lat="42.10042807939764" lon="12.893521241494737"><ele>825.0</ele><time>2026-04-12T15:49:39Z</time></trkpt><trkpt lat="42.100479272880634" lon="12.893396965071787"><ele>828.0</ele><time>2026-04-12T15:49:41Z</time></trkpt><trkpt lat="42.10052409248607" lon="12.893258351764413"><ele>827.8333333333334</ele><time>2026-04-12T15:49:43Z</time></trkpt><trkpt lat="42.10057428403465" lon="12.893189682513013"><ele>827.6666666666667</ele><time>2026-04-12T15:49:44Z</time></trkpt><trkpt lat="42.10066472580414" lon="12.893121449809454"><ele>827.5</ele><time>2026-04-12T15:49:45Z</time></trkpt><trkpt lat="42.10074539126772" lon="12.893053456182958"><ele>827.3333333333334</ele><time>2026-04-12T15:49:46Z</time></trkpt><trkpt lat="42.10081221410874" lon="12.892983671465382"><ele>827.1666666666667</ele><time>2026-04-12T15:49:47Z</time></trkpt><trkpt lat="42.10086971467772" lon="12.892947987101351"><ele>827.0</ele><time>2026-04-12T15:49:48Z</time></trkpt><trkpt lat="42.10098196808274" lon="12.892868359407212"><ele>827.0000000000001</ele><time>2026-04-12T15:49:50Z</time></trkpt><trkpt lat="42.101032500396464" lon="12.892802741870682"><ele>827.0</ele><time>2026-04-12T15:49:51Z</time></trkpt><trkpt lat="42.10109291433303" lon="12.892739565797207"><ele>827.0</ele><time>2026-04-12T15:49:52Z</time></trkpt><trkpt lat="42.10114009012903" lon="12.892661777970977"><ele>827.0</ele><time>2026-04-12T15:49:53Z</time></trkpt><trkpt lat="42.101200360224226" lon="12.892603591430738"><ele>827.0000000000001</ele><time>2026-04-12T15:49:54Z</time></trkpt><trkpt lat="42.10125411527186" lon="12.892516638610743"><ele>827.0</ele><time>2026-04-12T15:49:55Z</time></trkpt><trkpt lat="42.101316004976155" lon="12.892403158244258"><ele>828.4000000000001</ele><time>2026-04-12T15:49:56Z</time></trkpt><trkpt lat="42.10139452274595" lon="12.892322467892505"><ele>829.8000000000001</ele><time>2026-04-12T15:49:57Z</time></trkpt><trkpt lat="42.10148479345796" lon="12.892250273816291"><ele>831.2</ele><time>2026-04-12T15:49:58Z</time></trkpt><trkpt lat="42.10156274941218" lon="12.89216813788767"><ele>832.6</ele><time>2026-04-12T15:49:59Z</time></trkpt><trkpt lat="42.10163571758075" lon="12.8920884328788"><ele>834.0</ele><time>2026-04-12T15:50:00Z</time></trkpt><trkpt lat="42.10172177642309" lon="12.892017921976025"><ele>834.0</ele><time>2026-04-12T15:50:01Z</time></trkpt><trkpt lat="42.10180642760592" lon="12.891945577918948"><ele>834.0</ele><time>2026-04-12T15:50:02Z</time></trkpt><trkpt lat="42.10186514370151" lon="12.891888416725518"><ele>834.0</ele><time>2026-04-12T15:50:03Z</time></trkpt><trkpt lat="42.101936335883174" lon="12.891835178614006"><ele>834.0</ele><time>2026-04-12T15:50:04Z</time></trkpt><trkpt lat="42.10204140807163" lon="12.891723887028133"><ele>834.0</ele><time>2026-04-12T15:50:06Z</time></trkpt><trkpt lat="42.10210902589189" lon="12.891611489135954"><ele>835.3333333333334</ele><time>2026-04-12T15:50:08Z</time></trkpt><trkpt lat="42.10213951808214" lon="12.891529809214976"><ele>836.6666666666667</ele><time>2026-04-12T15:50:09Z</time></trkpt><trkpt lat="42.102203169829124" lon="12.89137907775225"><ele>838.0</ele><time>2026-04-12T15:50:11Z</time></trkpt><trkpt lat="42.10225909169936" lon="12.891312368572994"><ele>839.3333333333334</ele><time>2026-04-12T15:50:12Z</time></trkpt><trkpt lat="42.1023197782794" lon="12.891238914997361"><ele>840.6666666666667</ele><time>2026-04-12T15:50:13Z</time></trkpt><trkpt lat="42.10237711770858" lon="12.891199011419484"><ele>842.0</ele><time>2026-04-12T15:50:14Z</time></trkpt><trkpt lat="42.10247269964817" lon="12.891114624131626"><ele>842.0</ele><time>2026-04-12T15:50:16Z</time></trkpt><trkpt lat="42.1025411207723" lon="12.891063422419537"><ele>842.0</ele><time>2026-04-12T15:50:17Z</time></trkpt><trkpt lat="42.10264502670519" lon="12.890990492387441"><ele>842.0</ele><time>2026-04-12T15:50:19Z</time></trkpt><trkpt lat="42.10274527441102" lon="12.890936315740749"><ele>842.0</ele><time>2026-04-12T15:50:21Z</time></trkpt><trkpt lat="42.10283012648392" lon="12.890865783986929"><ele>842.0</ele><time>2026-04-12T15:50:23Z</time></trkpt><trkpt lat="42.102937269701954" lon="12.890803894721763"><ele>847.4000000000001</ele><time>2026-04-12T15:50:25Z</time></trkpt><trkpt lat="42.103041065465014" lon="12.890724475940397"><ele>852.8000000000001</ele><time>2026-04-12T15:50:26.999Z</time></trkpt><trkpt lat="42.10314987591117" lon="12.89066739872874"><ele>858.2</ele><time>2026-04-12T15:50:28.999Z</time></trkpt><trkpt lat="42.10322632863531" lon="12.890655047934661"><ele>863.6</ele><time>2026-04-12T15:50:29.999Z</time></trkpt><trkpt lat="42.10331891754781" lon="12.890621692413767"><ele>869.0</ele><time>2026-04-12T15:50:30.999Z</time></trkpt><trkpt lat="42.10340858712667" lon="12.890573485007911"><ele>869.0000000000001</ele><time>2026-04-12T15:50:31.999Z</time></trkpt><trkpt lat="42.10348935699797" lon="12.890535064993237"><ele>869.0</ele><time>2026-04-12T15:50:32.999Z</time></trkpt><trkpt lat="42.10360741063545" lon="12.89051856865716"><ele>869.0</ele><time>2026-04-12T15:50:34.999Z</time></trkpt><trkpt lat="42.10368537855003" lon="12.890509972928854"><ele>869.0</ele><time>2026-04-12T15:50:35.999Z</time></trkpt><trkpt lat="42.103757461327106" lon="12.890479984739729"><ele>869.0000000000001</ele><time>2026-04-12T15:50:36.999Z</time></trkpt><trkpt lat="42.103836188204625" lon="12.890458131620884"><ele>869.0</ele><time>2026-04-12T15:50:37.999Z</time></trkpt><trkpt lat="42.10393820372264" lon="12.890444226263547"><ele>869.0</ele><time>2026-04-12T15:50:38.999Z</time></trkpt><trkpt lat="42.10405914606181" lon="12.89042298528081"><ele>869.0000000000001</ele><time>2026-04-12T15:50:39.999Z</time></trkpt><trkpt lat="42.10419648466934" lon="12.890425236118489"><ele>869.0000000000001</ele><time>2026-04-12T15:50:40.999Z</time></trkpt><trkpt lat="42.10428907812177" lon="12.890411036778586"><ele>869.0</ele><time>2026-04-12T15:50:41.999Z</time></trkpt><trkpt lat="42.104379747452136" lon="12.890405191763369"><ele>869.0</ele><time>2026-04-12T15:50:42.999Z</time></trkpt><trkpt lat="42.10449201335456" lon="12.890381192283664"><ele>867.75</ele><time>2026-04-12T15:50:43.999Z</time></trkpt><trkpt lat="42.1046325067649" lon="12.890376228992917"><ele>866.5</ele><time>2026-04-12T15:50:44.999Z</time></trkpt><trkpt lat="42.10478551333019" lon="12.890350280886441"><ele>865.25</ele><time>2026-04-12T15:50:45.999Z</time></trkpt><trkpt lat="42.10493329857436" lon="12.890349004117208"><ele>864.0</ele><time>2026-04-12T15:50:46.999Z</time></trkpt><trkpt lat="42.105043135402106" lon="12.890372199767183"><ele>863.25</ele><time>2026-04-12T15:50:47.999Z</time></trkpt><trkpt lat="42.105133695188954" lon="12.89038047642474"><ele>862.5</ele><time>2026-04-12T15:50:48.999Z</time></trkpt><trkpt lat="42.10527696267037" lon="12.89039732044663"><ele>861.75</ele><time>2026-04-12T15:50:50Z</time></trkpt><trkpt lat="42.1053957747961" lon="12.89040713247337"><ele>861.0</ele><time>2026-04-12T15:50:51Z</time></trkpt><trkpt lat="42.10550016013903" lon="12.890404131352076"><ele>861.0</ele><time>2026-04-12T15:50:52Z</time></trkpt><trkpt lat="42.10557479617083" lon="12.890406213876851"><ele>860.9999999999999</ele><time>2026-04-12T15:50:53Z</time></trkpt><trkpt lat="42.10563925045356" lon="12.890411650192547"><ele>860.9999999999999</ele><time>2026-04-12T15:50:54Z</time></trkpt><trkpt lat="42.10577338798656" lon="12.890429683384756"><ele>861.0</ele><time>2026-04-12T15:50:56Z</time></trkpt><trkpt lat="42.10586574446526" lon="12.890444627235532"><ele>861.0</ele><time>2026-04-12T15:50:58Z</time></trkpt><trkpt lat="42.105951151796916" lon="12.890471160316771"><ele>862.6666666666666</ele><time>2026-04-12T15:50:59Z</time></trkpt><trkpt lat="42.10602343608582" lon="12.890509747660975"><ele>864.3333333333333</ele><time>2026-04-12T15:51:00Z</time></trkpt><trkpt lat="42.10610695260311" lon="12.89052178441047"><ele>866.0</ele><time>2026-04-12T15:51:01Z</time></trkpt><trkpt lat="42.10619419349832" lon="12.890512348198476"><ele>867.6666666666666</ele><time>2026-04-12T15:51:02Z</time></trkpt><trkpt lat="42.10628158387791" lon="12.890494798451668"><ele>869.3333333333333</ele><time>2026-04-12T15:51:03Z</time></trkpt><trkpt lat="42.10636237050825" lon="12.890475951032009"><ele>871.0</ele><time>2026-04-12T15:51:04Z</time></trkpt><trkpt lat="42.10649128619315" lon="12.890440608161882"><ele>870.5999999999999</ele><time>2026-04-12T15:51:05Z</time></trkpt><trkpt lat="42.1065863571031" lon="12.890411708758101"><ele>870.1999999999999</ele><time>2026-04-12T15:51:06Z</time></trkpt><trkpt lat="42.10665906931778" lon="12.89037714795096"><ele>869.8000000000001</ele><time>2026-04-12T15:51:07Z</time></trkpt><trkpt lat="42.10674743893259" lon="12.890357010070405"><ele>869.4000000000001</ele><time>2026-04-12T15:51:08Z</time></trkpt><trkpt lat="42.10685510085117" lon="12.890354465814557"><ele>869.0</ele><time>2026-04-12T15:51:09Z</time></trkpt><trkpt lat="42.10695749599307" lon="12.890333818012296"><ele>869.0</ele><time>2026-04-12T15:51:10Z</time></trkpt><trkpt lat="42.107060155238365" lon="12.89031178559195"><ele>869.0000000000001</ele><time>2026-04-12T15:51:11Z</time></trkpt><trkpt lat="42.10714260660737" lon="12.890301814771904"><ele>869.0000000000001</ele><time>2026-04-12T15:51:12Z</time></trkpt><trkpt lat="42.10721922240374" lon="12.890299240477784"><ele>869.0</ele><time>2026-04-12T15:51:13Z</time></trkpt><trkpt lat="42.107357571088365" lon="12.890281151740258"><ele>869.0</ele><time>2026-04-12T15:51:14Z</time></trkpt><trkpt lat="42.10751436117413" lon="12.890264722589011"><ele>868.6</ele><time>2026-04-12T15:51:15Z</time></trkpt><trkpt lat="42.10763424007564" lon="12.89024366756661"><ele>868.2</ele><time>2026-04-12T15:51:16Z</time></trkpt><trkpt lat="42.107736668083675" lon="12.890231209780497"><ele>867.8000000000001</ele><time>2026-04-12T15:51:17Z</time></trkpt><trkpt lat="42.107804385627176" lon="12.890223167489445"><ele>867.4000000000001</ele><time>2026-04-12T15:51:18Z</time></trkpt><trkpt lat="42.10790807897474" lon="12.890205990534488"><ele>867.0</ele><time>2026-04-12T15:51:19Z</time></trkpt><trkpt lat="42.10800988101915" lon="12.890196730748666"><ele>867.0</ele><time>2026-04-12T15:51:20Z</time></trkpt><trkpt lat="42.10811439023447" lon="12.890207641726507"><ele>867.0</ele><time>2026-04-12T15:51:21Z</time></trkpt><trkpt lat="42.108226052941276" lon="12.890197929851974"><ele>867.0</ele><time>2026-04-12T15:51:22Z</time></trkpt><trkpt lat="42.10832923203196" lon="12.89015844306275"><ele>867.0</ele><time>2026-04-12T15:51:23Z</time></trkpt><trkpt lat="42.10844004922563" lon="12.890120960385898"><ele>867.0</ele><time>2026-04-12T15:51:24Z</time></trkpt><trkpt lat="42.10852265762143" lon="12.89008469032818"><ele>873.2</ele><time>2026-04-12T15:51:25Z</time></trkpt><trkpt lat="42.10859336552745" lon="12.89003541092134"><ele>879.4000000000001</ele><time>2026-04-12T15:51:26Z</time></trkpt><trkpt lat="42.10866379487045" lon="12.88998268217489"><ele>885.5999999999999</ele><time>2026-04-12T15:51:27Z</time></trkpt><trkpt lat="42.10875365680796" lon="12.889937888428303"><ele>891.8</ele><time>2026-04-12T15:51:28Z</time></trkpt><trkpt lat="42.10886362642073" lon="12.889879469638508"><ele>898.0</ele><time>2026-04-12T15:51:29Z</time></trkpt><trkpt lat="42.10897650929913" lon="12.889822439457957"><ele>897.2</ele><time>2026-04-12T15:51:30Z</time></trkpt><trkpt lat="42.10910232982842" lon="12.889786641381022"><ele>896.4</ele><time>2026-04-12T15:51:31Z</time></trkpt><trkpt lat="42.10920461840362" lon="12.8897658378852"><ele>895.6000000000001</ele><time>2026-04-12T15:51:32Z</time></trkpt><trkpt lat="42.10930958453144" lon="12.889742979562024"><ele>894.8000000000001</ele><time>2026-04-12T15:51:33Z</time></trkpt><trkpt lat="42.10937502363066" lon="12.889697750315689"><ele>894.0</ele><time>2026-04-12T15:51:34Z</time></trkpt><trkpt lat="42.10944783802274" lon="12.889657023731639"><ele>894.0</ele><time>2026-04-12T15:51:35Z</time></trkpt><trkpt lat="42.10953296482693" lon="12.889633023932335"><ele>894.0000000000001</ele><time>2026-04-12T15:51:36Z</time></trkpt><trkpt lat="42.109623086406685" lon="12.889615913795225"><ele>894.0000000000001</ele><time>2026-04-12T15:51:37Z</time></trkpt><trkpt lat="42.10971105307348" lon="12.889608126694295"><ele>894.0</ele><time>2026-04-12T15:51:38Z</time></trkpt><trkpt lat="42.10981031614193" lon="12.889570031552763"><ele>894.0</ele><time>2026-04-12T15:51:39Z</time></trkpt><trkpt lat="42.10989744728705" lon="12.889544039161354"><ele>894.5</ele><time>2026-04-12T15:51:40Z</time></trkpt><trkpt lat="42.1099743160014" lon="12.889517041004876"><ele>895.0</ele><time>2026-04-12T15:51:41Z</time></trkpt><trkpt lat="42.11005478445729" lon="12.88948811910864"><ele>895.5</ele><time>2026-04-12T15:51:42Z</time></trkpt><trkpt lat="42.1101301514614" lon="12.889440321175265"><ele>896.0</ele><time>2026-04-12T15:51:43Z</time></trkpt><trkpt lat="42.11021849318039" lon="12.889408353245798"><ele>896.5</ele><time>2026-04-12T15:51:44Z</time></trkpt><trkpt lat="42.11031129481656" lon="12.889389342328418"><ele>897.0</ele><time>2026-04-12T15:51:45Z</time></trkpt><trkpt lat="42.11041135290317" lon="12.889357675889947"><ele>897.0</ele><time>2026-04-12T15:51:46Z</time></trkpt><trkpt lat="42.110511459514555" lon="12.889328971057509"><ele>897.0</ele><time>2026-04-12T15:51:47Z</time></trkpt><trkpt lat="42.11061957613068" lon="12.889291914343486"><ele>897.0</ele><time>2026-04-12T15:51:48Z</time></trkpt><trkpt lat="42.11068254419747" lon="12.889266344381511"><ele>897.0</ele><time>2026-04-12T15:51:49Z</time></trkpt><trkpt lat="42.11075240343836" lon="12.889228691367766"><ele>897.0</ele><time>2026-04-12T15:51:50Z</time></trkpt><trkpt lat="42.1108496446554" lon="12.88922342899982"><ele>901.8333333333334</ele><time>2026-04-12T15:51:51Z</time></trkpt><trkpt lat="42.11092871689162" lon="12.889205364846594"><ele>906.6666666666667</ele><time>2026-04-12T15:51:52Z</time></trkpt><trkpt lat="42.11101012553773" lon="12.889194414161397"><ele>911.5</ele><time>2026-04-12T15:51:53Z</time></trkpt><trkpt lat="42.11107978058828" lon="12.88916374194758"><ele>916.3333333333334</ele><time>2026-04-12T15:51:54Z</time></trkpt><trkpt lat="42.111198180594954" lon="12.889161092258355"><ele>921.1666666666667</ele><time>2026-04-12T15:51:56Z</time></trkpt><trkpt lat="42.11127233469382" lon="12.889112838723689"><ele>926.0</ele><time>2026-04-12T15:51:57Z</time></trkpt><trkpt lat="42.111340355711754" lon="12.889088827474929"><ele>926.0000000000001</ele><time>2026-04-12T15:51:58Z</time></trkpt><trkpt lat="42.11141971247538" lon="12.889089356546878"><ele>926.0</ele><time>2026-04-12T15:51:59Z</time></trkpt><trkpt lat="42.11150279512096" lon="12.889076069386457"><ele>926.0</ele><time>2026-04-12T15:52:00Z</time></trkpt><trkpt lat="42.11159615427561" lon="12.889043751592268"><ele>926.0</ele><time>2026-04-12T15:52:01Z</time></trkpt><trkpt lat="42.111678929521624" lon="12.889012871393195"><ele>926.0000000000001</ele><time>2026-04-12T15:52:02Z</time></trkpt><trkpt lat="42.111762461970365" lon="12.889001269528654"><ele>926.0</ele><time>2026-04-12T15:52:03Z</time></trkpt><trkpt lat="42.11185442567758" lon="12.888979827235095"><ele>927.8</ele><time>2026-04-12T15:52:04Z</time></trkpt><trkpt lat="42.111931820590165" lon="12.888974968772093"><ele>929.5999999999999</ele><time>2026-04-12T15:52:05Z</time></trkpt><trkpt lat="42.11202137308586" lon="12.888949423161945"><ele>931.4</ele><time>2026-04-12T15:52:06Z</time></trkpt><trkpt lat="42.11213087455733" lon="12.888925257182052"><ele>933.2</ele><time>2026-04-12T15:52:07Z</time></trkpt><trkpt lat="42.11224034625732" lon="12.888895238897689"><ele>935.0</ele><time>2026-04-12T15:52:08Z</time></trkpt><trkpt lat="42.112353996360206" lon="12.88886409589542"><ele>936.4</ele><time>2026-04-12T15:52:09Z</time></trkpt><trkpt lat="42.112462894308166" lon="12.88884882064969"><ele>937.8</ele><time>2026-04-12T15:52:10Z</time></trkpt><trkpt lat="42.1125616929114" lon="12.88885613191348"><ele>939.2</ele><time>2026-04-12T15:52:11Z</time></trkpt><trkpt lat="42.11264602935528" lon="12.888852547609964"><ele>940.6</ele><time>2026-04-12T15:52:12Z</time></trkpt><trkpt lat="42.112736505682776" lon="12.888834368984798"><ele>942.0</ele><time>2026-04-12T15:52:13Z</time></trkpt><trkpt lat="42.112813269764516" lon="12.888819591026559"><ele>942.0</ele><time>2026-04-12T15:52:14Z</time></trkpt><trkpt lat="42.11288084186298" lon="12.88881124973754"><ele>942.0</ele><time>2026-04-12T15:52:15Z</time></trkpt><trkpt lat="42.11294810744103" lon="12.888802553822803"><ele>942.0</ele><time>2026-04-12T15:52:16Z</time></trkpt><trkpt lat="42.11307176306267" lon="12.88877095623221"><ele>942.0</ele><time>2026-04-12T15:52:18Z</time></trkpt><trkpt lat="42.11314300729239" lon="12.888745877819833"><ele>942.0</ele><time>2026-04-12T15:52:19Z</time></trkpt><trkpt lat="42.113225396459534" lon="12.88874536692804"><ele>942.0</ele><time>2026-04-12T15:52:20Z</time></trkpt><trkpt lat="42.11330070711499" lon="12.888742837990167"><ele>943.3333333333334</ele><time>2026-04-12T15:52:21Z</time></trkpt><trkpt lat="42.11337513607607" lon="12.888728617049336"><ele>944.6666666666667</ele><time>2026-04-12T15:52:22Z</time></trkpt><trkpt lat="42.113442596647126" lon="12.888737366124923"><ele>946.0</ele><time>2026-04-12T15:52:23Z</time></trkpt><trkpt lat="42.11351572372741" lon="12.888745077566893"><ele>947.3333333333334</ele><time>2026-04-12T15:52:24Z</time></trkpt><trkpt lat="42.11358431862951" lon="12.888754171388106"><ele>948.6666666666667</ele><time>2026-04-12T15:52:25Z</time></trkpt><trkpt lat="42.11365873808748" lon="12.888729308682507"><ele>950.0</ele><time>2026-04-12T15:52:26Z</time></trkpt><trkpt lat="42.11377398106884" lon="12.888729235658733"><ele>950.0</ele><time>2026-04-12T15:52:28Z</time></trkpt><trkpt lat="42.11386687438541" lon="12.888720472818736"><ele>950.0</ele><time>2026-04-12T15:52:29.999Z</time></trkpt><trkpt lat="42.113929594181904" lon="12.888708043136964"><ele>950.0</ele><time>2026-04-12T15:52:30.999Z</time></trkpt><trkpt lat="42.11403639071482" lon="12.888724485260258"><ele>950.0</ele><time>2026-04-12T15:52:32.999Z</time></trkpt><trkpt lat="42.11413875943246" lon="12.888727522843906"><ele>950.0</ele><time>2026-04-12T15:52:34.999Z</time></trkpt><trkpt lat="42.11423304795424" lon="12.888731780392513"><ele>952.8</ele><time>2026-04-12T15:52:36.999Z</time></trkpt><trkpt lat="42.114326478983536" lon="12.88876509991178"><ele>955.6</ele><time>2026-04-12T15:52:38.999Z</time></trkpt><trkpt lat="42.1144142153798" lon="12.888765242451932"><ele>958.4000000000001</ele><time>2026-04-12T15:52:40.999Z</time></trkpt><trkpt lat="42.114454062922604" lon="12.88866615040775"><ele>961.2</ele><time>2026-04-12T15:52:42.999Z</time></trkpt><trkpt lat="42.11438343453457" lon="12.888532696640699"><ele>964.0</ele><time>2026-04-12T15:52:44.999Z</time></trkpt><trkpt lat="42.11434569148821" lon="12.888458227547758"><ele>967.4000000000001</ele><time>2026-04-12T15:52:45.999Z</time></trkpt><trkpt lat="42.114254571658456" lon="12.888355607701236"><ele>970.8000000000001</ele><time>2026-04-12T15:52:47.999Z</time></trkpt><trkpt lat="42.11418097913937" lon="12.88831028958189"><ele>974.1999999999999</ele><time>2026-04-12T15:52:48.999Z</time></trkpt><trkpt lat="42.11409123771019" lon="12.88829000438984"><ele>977.5999999999999</ele><time>2026-04-12T15:52:49.999Z</time></trkpt><trkpt lat="42.11400105863166" lon="12.888279830472552"><ele>981.0</ele><time>2026-04-12T15:52:50.999Z</time></trkpt><trkpt lat="42.11394235084904" lon="12.88822498811903"><ele>981.0</ele><time>2026-04-12T15:52:52.999Z</time></trkpt><trkpt lat="42.11397548746405" lon="12.888150424435203"><ele>981.0</ele><time>2026-04-12T15:52:56Z</time></trkpt><trkpt lat="42.11406360185446" lon="12.888131391146482"><ele>981.0</ele><time>2026-04-12T15:53:28Z</time></trkpt><trkpt lat="42.114155951855984" lon="12.888140980206488"><ele>981.0</ele><time>2026-04-12T15:53:30Z</time></trkpt><trkpt lat="42.11426610236629" lon="12.888174768951636"><ele>981.0</ele><time>2026-04-12T15:53:32Z</time></trkpt><trkpt lat="42.114333304487474" lon="12.888208790496435"><ele>981.0</ele><time>2026-04-12T15:53:33Z</time></trkpt><trkpt lat="42.11445410688126" lon="12.888204795277838"><ele>982.8</ele><time>2026-04-12T15:53:35Z</time></trkpt><trkpt lat="42.114517047013614" lon="12.888191939391232"><ele>984.5999999999999</ele><time>2026-04-12T15:53:36Z</time></trkpt><trkpt lat="42.11466968993566" lon="12.888218738787861"><ele>986.4</ele><time>2026-04-12T15:53:38Z</time></trkpt><trkpt lat="42.11474715095416" lon="12.888274765148958"><ele>988.2</ele><time>2026-04-12T15:53:39Z</time></trkpt><trkpt lat="42.11482345210362" lon="12.888325871239397"><ele>990.0</ele><time>2026-04-12T15:53:40Z</time></trkpt><trkpt lat="42.11490214768319" lon="12.888373268845905"><ele>989.0</ele><time>2026-04-12T15:53:41Z</time></trkpt><trkpt lat="42.115022519763585" lon="12.888382028779102"><ele>988.0</ele><time>2026-04-12T15:53:43Z</time></trkpt><trkpt lat="42.115101627006624" lon="12.888382384334395"><ele>987.0</ele><time>2026-04-12T15:53:44Z</time></trkpt><trkpt lat="42.11518401589655" lon="12.888389671640743"><ele>986.0</ele><time>2026-04-12T15:53:45Z</time></trkpt><trkpt lat="42.11528306606024" lon="12.888429052343989"><ele>985.0</ele><time>2026-04-12T15:53:46Z</time></trkpt><trkpt lat="42.11536633487293" lon="12.888479055706812"><ele>985.0</ele><time>2026-04-12T15:53:47Z</time></trkpt><trkpt lat="42.115432698143" lon="12.888518693768594"><ele>985.0000000000001</ele><time>2026-04-12T15:53:48Z</time></trkpt><trkpt lat="42.11550041908544" lon="12.888531449818624"><ele>985.0</ele><time>2026-04-12T15:53:49Z</time></trkpt><trkpt lat="42.11557048080792" lon="12.888561429068028"><ele>985.0</ele><time>2026-04-12T15:53:50Z</time></trkpt><trkpt lat="42.11563392616415" lon="12.888580477915065"><ele>985.0000000000001</ele><time>2026-04-12T15:53:51Z</time></trkpt><trkpt lat="42.115699699149175" lon="12.888594450031551"><ele>985.0</ele><time>2026-04-12T15:53:52Z</time></trkpt><trkpt lat="42.11577131258947" lon="12.888638297855552"><ele>985.0</ele><time>2026-04-12T15:53:53Z</time></trkpt><trkpt lat="42.11584383535363" lon="12.888726949638555"><ele>989.8333333333333</ele><time>2026-04-12T15:53:54Z</time></trkpt><trkpt lat="42.11590239569899" lon="12.888821212169624"><ele>994.6666666666666</ele><time>2026-04-12T15:53:55Z</time></trkpt><trkpt lat="42.115955482480004" lon="12.888878843978288"><ele>999.5</ele><time>2026-04-12T15:53:56Z</time></trkpt><trkpt lat="42.11603065642491" lon="12.888913219801866"><ele>1004.3333333333333</ele><time>2026-04-12T15:53:57Z</time></trkpt><trkpt lat="42.11610250892119" lon="12.888990799473142"><ele>1009.1666666666666</ele><time>2026-04-12T15:53:58Z</time></trkpt><trkpt lat="42.11616631478545" lon="12.889091793633035"><ele>1014.0</ele><time>2026-04-12T15:53:59Z</time></trkpt><trkpt lat="42.116212289737504" lon="12.889201599283872"><ele>1014.8333333333334</ele><time>2026-04-12T15:54:00Z</time></trkpt><trkpt lat="42.11626461402139" lon="12.88928539309727"><ele>1015.6666666666667</ele><time>2026-04-12T15:54:01Z</time></trkpt><trkpt lat="42.116304821923315" lon="12.889364026946884"><ele>1016.5</ele><time>2026-04-12T15:54:02Z</time></trkpt><trkpt lat="42.11641452940414" lon="12.889420442405033"><ele>1017.3333333333334</ele><time>2026-04-12T15:54:04Z</time></trkpt><trkpt lat="42.11648902093745" lon="12.889415650131923"><ele>1018.1666666666667</ele><time>2026-04-12T15:54:05Z</time></trkpt><trkpt lat="42.11656128295417" lon="12.889415757459203"><ele>1019.0</ele><time>2026-04-12T15:54:06Z</time></trkpt><trkpt lat="42.11668508556543" lon="12.889407712042944"><ele>1019.0</ele><time>2026-04-12T15:54:08Z</time></trkpt><trkpt lat="42.11674532329732" lon="12.889361961340905"><ele>1019.0000000000001</ele><time>2026-04-12T15:54:09Z</time></trkpt><trkpt lat="42.116811313409656" lon="12.889303294240012"><ele>1019.0000000000001</ele><time>2026-04-12T15:54:10Z</time></trkpt><trkpt lat="42.11690248924458" lon="12.889286129043377"><ele>1019.0</ele><time>2026-04-12T15:54:11Z</time></trkpt><trkpt lat="42.1170112082953" lon="12.889314579838189"><ele>1019.0</ele><time>2026-04-12T15:54:12Z</time></trkpt><trkpt lat="42.117125711563965" lon="12.889346775081725"><ele>1019.0</ele><time>2026-04-12T15:54:13Z</time></trkpt><trkpt lat="42.11723012022405" lon="12.889377231066085"><ele>1019.0000000000001</ele><time>2026-04-12T15:54:14Z</time></trkpt><trkpt lat="42.11730425830866" lon="12.889394264140371"><ele>1019.0000000000001</ele><time>2026-04-12T15:54:15Z</time></trkpt><trkpt lat="42.11739106214305" lon="12.88948595256881"><ele>1019.0</ele><time>2026-04-12T15:54:17Z</time></trkpt><trkpt lat="42.11739655220601" lon="12.889591335579496"><ele>1019.0</ele><time>2026-04-12T15:54:18Z</time></trkpt><trkpt lat="42.11739570719742" lon="12.889723558372241"><ele>1025.0</ele><time>2026-04-12T15:54:19Z</time></trkpt><trkpt lat="42.11740331272208" lon="12.889863877034134"><ele>1031.0</ele><time>2026-04-12T15:54:20Z</time></trkpt><trkpt lat="42.11741820839941" lon="12.890025913330783"><ele>1037.0</ele><time>2026-04-12T15:54:21Z</time></trkpt><trkpt lat="42.11746932654183" lon="12.890185735754306"><ele>1043.0</ele><time>2026-04-12T15:54:22Z</time></trkpt><trkpt lat="42.11753032683192" lon="12.89035531825298"><ele>1043.0</ele><time>2026-04-12T15:54:23Z</time></trkpt><trkpt lat="42.117587420498204" lon="12.890481766537356"><ele>1043.0</ele><time>2026-04-12T15:54:24Z</time></trkpt><trkpt lat="42.117630580342535" lon="12.890583573685731"><ele>1043.0</ele><time>2026-04-12T15:54:25Z</time></trkpt><trkpt lat="42.11765735722305" lon="12.890688220468467"><ele>1043.0</ele><time>2026-04-12T15:54:26Z</time></trkpt><trkpt lat="42.11769978039094" lon="12.890787349657112"><ele>1043.0</ele><time>2026-04-12T15:54:27Z</time></trkpt><trkpt lat="42.11775866107387" lon="12.890897971349105"><ele>1039.8</ele><time>2026-04-12T15:54:27.999Z</time></trkpt><trkpt lat="42.11781637747218" lon="12.891005208431437"><ele>1036.6</ele><time>2026-04-12T15:54:28.999Z</time></trkpt><trkpt lat="42.1178635274681" lon="12.89114175680416"><ele>1033.4</ele><time>2026-04-12T15:54:29.999Z</time></trkpt><trkpt lat="42.11791050095008" lon="12.89126859533471"><ele>1030.2</ele><time>2026-04-12T15:54:30.999Z</time></trkpt><trkpt lat="42.11795466744137" lon="12.891391827559866"><ele>1027.0</ele><time>2026-04-12T15:54:31.999Z</time></trkpt><trkpt lat="42.11799506257577" lon="12.891513133966013"><ele>1027.0</ele><time>2026-04-12T15:54:32.999Z</time></trkpt><trkpt lat="42.11803129142419" lon="12.891603215034515"><ele>1027.0</ele><time>2026-04-12T15:54:33.999Z</time></trkpt><trkpt lat="42.118069259800244" lon="12.891685668411784"><ele>1027.0</ele><time>2026-04-12T15:54:34.999Z</time></trkpt><trkpt lat="42.11809819282932" lon="12.891778731242823"><ele>1027.0</ele><time>2026-04-12T15:54:35.999Z</time></trkpt><trkpt lat="42.118124033577814" lon="12.891882900156332"><ele>1027.0</ele><time>2026-04-12T15:54:36.999Z</time></trkpt><trkpt lat="42.118150582548935" lon="12.891978417555942"><ele>1027.0</ele><time>2026-04-12T15:54:37.999Z</time></trkpt><trkpt lat="42.118210918826605" lon="12.892067904929654"><ele>1031.0</ele><time>2026-04-12T15:54:39.999Z</time></trkpt><trkpt lat="42.118311680891196" lon="12.892198197395782"><ele>1035.0</ele><time>2026-04-12T15:54:41.999Z</time></trkpt><trkpt lat="42.118373131373446" lon="12.892300525921335"><ele>1039.0</ele><time>2026-04-12T15:54:42.999Z</time></trkpt><trkpt lat="42.11842389435558" lon="12.892402882338367"><ele>1043.0</ele><time>2026-04-12T15:54:43.999Z</time></trkpt><trkpt lat="42.11848954443931" lon="12.892531849781054"><ele>1047.0</ele><time>2026-04-12T15:54:45.999Z</time></trkpt><trkpt lat="42.11859191405802" lon="12.892615264528697"><ele>1047.4285714285716</ele><time>2026-04-12T15:54:47.999Z</time></trkpt><trkpt lat="42.11865400322726" lon="12.892666929884186"><ele>1047.857142857143</ele><time>2026-04-12T15:54:48.999Z</time></trkpt><trkpt lat="42.11870633112278" lon="12.892746960335028"><ele>1048.2857142857142</ele><time>2026-04-12T15:54:49.999Z</time></trkpt><trkpt lat="42.11873150827564" lon="12.892846936670814"><ele>1048.7142857142858</ele><time>2026-04-12T15:54:50.999Z</time></trkpt><trkpt lat="42.118745571081924" lon="12.892946307961823"><ele>1049.142857142857</ele><time>2026-04-12T15:54:51.999Z</time></trkpt><trkpt lat="42.1187827178766" lon="12.893025792799637"><ele>1049.5714285714287</ele><time>2026-04-12T15:54:52.999Z</time></trkpt><trkpt lat="42.118837526536524" lon="12.89308287233101"><ele>1050.0</ele><time>2026-04-12T15:54:53.999Z</time></trkpt><trkpt lat="42.118905733798805" lon="12.893114151901596"><ele>1050.0</ele><time>2026-04-12T15:54:54.999Z</time></trkpt><trkpt lat="42.11897753837308" lon="12.893108104849981"><ele>1050.0</ele><time>2026-04-12T15:54:55.999Z</time></trkpt><trkpt lat="42.11902979482398" lon="12.89305540225988"><ele>1050.0</ele><time>2026-04-12T15:55:31Z</time></trkpt><trkpt lat="42.119093734545636" lon="12.892976539144884"><ele>1050.0</ele><time>2026-04-12T15:58:39.999Z</time></trkpt><trkpt lat="42.11914576656384" lon="12.892848760436165"><ele>1050.0</ele><time>2026-04-12T15:58:43.999Z</time></trkpt><trkpt lat="42.11915240876853" lon="12.892736820976541"><ele>1050.0</ele><time>2026-04-12T15:58:44.999Z</time></trkpt><trkpt lat="42.11915717776938" lon="12.892614860307837"><ele>1053.5</ele><time>2026-04-12T15:58:45.999Z</time></trkpt><trkpt lat="42.119170467670116" lon="12.89248328400552"><ele>1057.0</ele><time>2026-04-12T15:58:46.999Z</time></trkpt><trkpt lat="42.11918129931074" lon="12.892340107852498"><ele>1060.5</ele><time>2026-04-12T15:58:47.999Z</time></trkpt><trkpt lat="42.119192899957184" lon="12.892183111998895"><ele>1064.0</ele><time>2026-04-12T15:58:48.999Z</time></trkpt><trkpt lat="42.11920028185379" lon="12.89200572820854"><ele>1064.0</ele><time>2026-04-12T15:58:49.999Z</time></trkpt><trkpt lat="42.11918910611668" lon="12.891850337193045"><ele>1064.0</ele><time>2026-04-12T15:58:50.999Z</time></trkpt><trkpt lat="42.11914413868947" lon="12.891694325847864"><ele>1064.0</ele><time>2026-04-12T15:58:51.999Z</time></trkpt><trkpt lat="42.119089497474455" lon="12.891539462444447"><ele>1064.0</ele><time>2026-04-12T15:58:52.999Z</time></trkpt><trkpt lat="42.11901904073603" lon="12.89139042780515"><ele>1065.75</ele><time>2026-04-12T15:58:53.999Z</time></trkpt><trkpt lat="42.11894262415318" lon="12.891248224130806"><ele>1067.5</ele><time>2026-04-12T15:58:54.999Z</time></trkpt><trkpt lat="42.118883201986975" lon="12.891098251293004"><ele>1069.25</ele><time>2026-04-12T15:58:55.999Z</time></trkpt><trkpt lat="42.11883523305748" lon="12.890944455893743"><ele>1071.0</ele><time>2026-04-12T15:58:56.999Z</time></trkpt><trkpt lat="42.11878979083459" lon="12.89078873905149"><ele>1071.0</ele><time>2026-04-12T15:58:57.999Z</time></trkpt><trkpt lat="42.118754904060935" lon="12.890659888467582"><ele>1071.0</ele><time>2026-04-12T15:58:58.999Z</time></trkpt><trkpt lat="42.11872198257107" lon="12.890540425224387"><ele>1071.0</ele><time>2026-04-12T15:58:59.999Z</time></trkpt><trkpt lat="42.11870612971223" lon="12.890420468321253"><ele>1071.0</ele><time>2026-04-12T15:59:00.999Z</time></trkpt><trkpt lat="42.11869788813426" lon="12.89029242845216"><ele>1071.0</ele><time>2026-04-12T15:59:01.999Z</time></trkpt><trkpt lat="42.11869253853552" lon="12.890149830862013"><ele>1072.5</ele><time>2026-04-12T15:59:02.999Z</time></trkpt><trkpt lat="42.11868812094456" lon="12.889998121543522"><ele>1074.0</ele><time>2026-04-12T15:59:03.999Z</time></trkpt><trkpt lat="42.11868578239624" lon="12.88983472147292"><ele>1075.5</ele><time>2026-04-12T15:59:04.999Z</time></trkpt><trkpt lat="42.118670305229614" lon="12.88967429571176"><ele>1077.0</ele><time>2026-04-12T15:59:05.999Z</time></trkpt><trkpt lat="42.11863143713171" lon="12.889519388436387"><ele>1077.0</ele><time>2026-04-12T15:59:06.999Z</time></trkpt><trkpt lat="42.1185759712963" lon="12.889378636467317"><ele>1077.0</ele><time>2026-04-12T15:59:07.999Z</time></trkpt><trkpt lat="42.118525107086285" lon="12.889272884611437"><ele>1077.0</ele><time>2026-04-12T15:59:08.999Z</time></trkpt><trkpt lat="42.11846256762192" lon="12.8891665454153"><ele>1077.0</ele><time>2026-04-12T15:59:09.999Z</time></trkpt><trkpt lat="42.118395322018735" lon="12.889075406643888"><ele>1077.0</ele><time>2026-04-12T15:59:10.999Z</time></trkpt><trkpt lat="42.11831585209687" lon="12.889011207365728"><ele>1074.3333333333333</ele><time>2026-04-12T15:59:11.999Z</time></trkpt><trkpt lat="42.118227156324366" lon="12.8889712269596"><ele>1071.6666666666667</ele><time>2026-04-12T15:59:12.999Z</time></trkpt><trkpt lat="42.11813443283709" lon="12.888946535941752"><ele>1069.0</ele><time>2026-04-12T15:59:14Z</time></trkpt><trkpt lat="42.11804813511037" lon="12.88890625293427"><ele>1066.3333333333335</ele><time>2026-04-12T15:59:15Z</time></trkpt><trkpt lat="42.117978171293224" lon="12.88884869975624"><ele>1063.6666666666667</ele><time>2026-04-12T15:59:16Z</time></trkpt><trkpt lat="42.11792188759084" lon="12.888771794956265"><ele>1061.0</ele><time>2026-04-12T15:59:17Z</time></trkpt><trkpt lat="42.11787716464287" lon="12.888671411376356"><ele>1061.0</ele><time>2026-04-12T15:59:18Z</time></trkpt><trkpt lat="42.117848204184526" lon="12.888561773238466"><ele>1061.0</ele><time>2026-04-12T15:59:19Z</time></trkpt><trkpt lat="42.11783428904336" lon="12.888468906485096"><ele>1061.0</ele><time>2026-04-12T15:59:20Z</time></trkpt><trkpt lat="42.11783606258204" lon="12.888374508358801"><ele>1061.0</ele><time>2026-04-12T15:59:21Z</time></trkpt><trkpt lat="42.11785568105507" lon="12.88827632475453"><ele>1061.0</ele><time>2026-04-12T15:59:22Z</time></trkpt><trkpt lat="42.11788479124824" lon="12.888182601983345"><ele>1061.0</ele><time>2026-04-12T15:59:23Z</time></trkpt><trkpt lat="42.11794579149075" lon="12.888085448633646"><ele>1064.3999999999999</ele><time>2026-04-12T15:59:25Z</time></trkpt><trkpt lat="42.11806057331542" lon="12.888001223637762"><ele>1067.8</ele><time>2026-04-12T15:59:27Z</time></trkpt><trkpt lat="42.118122927518904" lon="12.887937251228054"><ele>1071.1999999999998</ele><time>2026-04-12T15:59:28Z</time></trkpt><trkpt lat="42.11816714728468" lon="12.887858280323972"><ele>1074.6</ele><time>2026-04-12T15:59:29Z</time></trkpt><trkpt lat="42.11820099520808" lon="12.887742985844302"><ele>1078.0</ele><time>2026-04-12T15:59:30Z</time></trkpt><trkpt lat="42.118214189767556" lon="12.887626141872744"><ele>1081.6</ele><time>2026-04-12T15:59:31Z</time></trkpt><trkpt lat="42.118212491635546" lon="12.887526732132422"><ele>1085.1999999999998</ele><time>2026-04-12T15:59:32Z</time></trkpt><trkpt lat="42.118172628013674" lon="12.887357271750362"><ele>1088.8</ele><time>2026-04-12T15:59:34Z</time></trkpt><trkpt lat="42.11812607641623" lon="12.887267621025883"><ele>1092.3999999999999</ele><time>2026-04-12T15:59:35Z</time></trkpt><trkpt lat="42.11806898243616" lon="12.88719071460696"><ele>1096.0</ele><time>2026-04-12T15:59:36Z</time></trkpt><trkpt lat="42.11803870654718" lon="12.887050951243024"><ele>1096.0</ele><time>2026-04-12T15:59:38Z</time></trkpt><trkpt lat="42.118145026683806" lon="12.886973654709024"><ele>1096.0</ele><time>2026-04-12T15:59:40Z</time></trkpt><trkpt lat="42.11822764550863" lon="12.887014501677196"><ele>1096.0</ele><time>2026-04-12T15:59:41Z</time></trkpt><trkpt lat="42.11830388540281" lon="12.887097966764092"><ele>1096.0</ele><time>2026-04-12T15:59:42Z</time></trkpt><trkpt lat="42.11836821930593" lon="12.887234943378232"><ele>1096.0</ele><time>2026-04-12T15:59:43Z</time></trkpt><trkpt lat="42.118417845899735" lon="12.88734840764772"><ele>1093.3999999999999</ele><time>2026-04-12T15:59:44Z</time></trkpt><trkpt lat="42.11846309706627" lon="12.88742760970579"><ele>1090.8</ele><time>2026-04-12T15:59:45Z</time></trkpt><trkpt lat="42.11853593909827" lon="12.887486712542275"><ele>1088.1999999999998</ele><time>2026-04-12T15:59:47Z</time></trkpt><trkpt lat="42.1186393619256" lon="12.88744733751271"><ele>1085.6</ele><time>2026-04-12T15:59:49Z</time></trkpt><trkpt lat="42.11865652810089" lon="12.887315736541723"><ele>1083.0</ele><time>2026-04-12T15:59:51Z</time></trkpt><trkpt lat="42.11863190079847" lon="12.887207645143922"><ele>1083.0</ele><time>2026-04-12T15:59:52Z</time></trkpt><trkpt lat="42.118596948766694" lon="12.887084544526152"><ele>1083.0</ele><time>2026-04-12T15:59:53Z</time></trkpt><trkpt lat="42.11861992409214" lon="12.886932600596257"><ele>1083.0</ele><time>2026-04-12T15:59:55Z</time></trkpt><trkpt lat="42.118668833314885" lon="12.886851594719543"><ele>1083.0</ele><time>2026-04-12T15:59:56Z</time></trkpt><trkpt lat="42.11872992762755" lon="12.886754652178858"><ele>1083.0</ele><time>2026-04-12T15:59:57Z</time></trkpt><trkpt lat="42.118804456680735" lon="12.88663131965633"><ele>1084.0</ele><time>2026-04-12T15:59:58Z</time></trkpt><trkpt lat="42.11887884548039" lon="12.886521435003566"><ele>1085.0</ele><time>2026-04-12T15:59:59Z</time></trkpt><trkpt lat="42.11893841110684" lon="12.886434948785293"><ele>1086.0</ele><time>2026-04-12T16:00:00Z</time></trkpt><trkpt lat="42.11899674991235" lon="12.88633707916587"><ele>1087.0</ele><time>2026-04-12T16:00:01Z</time></trkpt><trkpt lat="42.119063168127575" lon="12.886231637206299"><ele>1088.0</ele><time>2026-04-12T16:00:02Z</time></trkpt><trkpt lat="42.119139917281586" lon="12.886136649772872"><ele>1082.8</ele><time>2026-04-12T16:00:03Z</time></trkpt><trkpt lat="42.11920128294511" lon="12.886045982315437"><ele>1077.6</ele><time>2026-04-12T16:00:04Z</time></trkpt><trkpt lat="42.11925653604251" lon="12.885930238489914"><ele>1072.4</ele><time>2026-04-12T16:00:05Z</time></trkpt><trkpt lat="42.11930506541879" lon="12.885790336424046"><ele>1067.2</ele><time>2026-04-12T16:00:06Z</time></trkpt><trkpt lat="42.11934803543225" lon="12.885667862544059"><ele>1062.0</ele><time>2026-04-12T16:00:07Z</time></trkpt><trkpt lat="42.119393196324054" lon="12.885565816603068"><ele>1061.1666666666667</ele><time>2026-04-12T16:00:08Z</time></trkpt><trkpt lat="42.11944467133567" lon="12.885490253128856"><ele>1060.3333333333333</ele><time>2026-04-12T16:00:09Z</time></trkpt><trkpt lat="42.119493887776635" lon="12.885425035578"><ele>1059.5</ele><time>2026-04-12T16:00:10Z</time></trkpt><trkpt lat="42.119556481645795" lon="12.885361893938263"><ele>1058.6666666666665</ele><time>2026-04-12T16:00:11Z</time></trkpt><trkpt lat="42.119641380267986" lon="12.88529646545123"><ele>1057.8333333333333</ele><time>2026-04-12T16:00:12Z</time></trkpt><trkpt lat="42.11973845252436" lon="12.885218434224065"><ele>1057.0</ele><time>2026-04-12T16:00:13Z</time></trkpt><trkpt lat="42.11983071240383" lon="12.885142076164874"><ele>1052.8</ele><time>2026-04-12T16:00:14Z</time></trkpt><trkpt lat="42.119923347062205" lon="12.885074917102047"><ele>1048.6</ele><time>2026-04-12T16:00:15Z</time></trkpt><trkpt lat="42.12001321450984" lon="12.884983323163265"><ele>1044.3999999999999</ele><time>2026-04-12T16:00:16Z</time></trkpt><trkpt lat="42.12008676464631" lon="12.884930869370463"><ele>1040.2</ele><time>2026-04-12T16:00:17Z</time></trkpt><trkpt lat="42.12015133901547" lon="12.884886865441615"><ele>1036.0</ele><time>2026-04-12T16:00:18Z</time></trkpt><trkpt lat="42.120228677872745" lon="12.884810897281548"><ele>1036.0</ele><time>2026-04-12T16:00:20Z</time></trkpt><trkpt lat="42.120292860171574" lon="12.884778792554714"><ele>1036.0</ele><time>2026-04-12T16:00:22Z</time></trkpt><trkpt lat="42.120378912664314" lon="12.884755995055468"><ele>1036.0</ele><time>2026-04-12T16:00:25Z</time></trkpt><trkpt lat="42.12050300415819" lon="12.884613694824099"><ele>1036.0</ele><time>2026-04-12T16:00:27Z</time></trkpt><trkpt lat="42.1205937354949" lon="12.884507937772344"><ele>1036.0</ele><time>2026-04-12T16:00:28Z</time></trkpt><trkpt lat="42.12069588063797" lon="12.884375695478251"><ele>1033.5</ele><time>2026-04-12T16:00:29Z</time></trkpt><trkpt lat="42.12081837973913" lon="12.884234577981061"><ele>1031.0</ele><time>2026-04-12T16:00:29.999Z</time></trkpt><trkpt lat="42.12090867924188" lon="12.884106718735602"><ele>1028.5</ele><time>2026-04-12T16:00:30.999Z</time></trkpt><trkpt lat="42.120991526432" lon="12.883997198380518"><ele>1026.0</ele><time>2026-04-12T16:00:31.999Z</time></trkpt><trkpt lat="42.12107419313613" lon="12.883889706048993"><ele>1026.0</ele><time>2026-04-12T16:00:32.999Z</time></trkpt><trkpt lat="42.12116679747287" lon="12.883791942993279"><ele>1026.0</ele><time>2026-04-12T16:00:33.999Z</time></trkpt><trkpt lat="42.12125548548516" lon="12.883686832804091"><ele>1026.0</ele><time>2026-04-12T16:00:34.999Z</time></trkpt><trkpt lat="42.121337640731845" lon="12.883572363486277"><ele>1026.0</ele><time>2026-04-12T16:00:35.999Z</time></trkpt><trkpt lat="42.12141798758365" lon="12.883436064146606"><ele>1025.3333333333333</ele><time>2026-04-12T16:00:36.999Z</time></trkpt><trkpt lat="42.12148154317968" lon="12.883312927462697"><ele>1024.6666666666667</ele><time>2026-04-12T16:00:37.999Z</time></trkpt><trkpt lat="42.121536665335796" lon="12.883213186872368"><ele>1024.0</ele><time>2026-04-12T16:00:38.999Z</time></trkpt><trkpt lat="42.12158325564462" lon="12.883120654164289"><ele>1023.3333333333334</ele><time>2026-04-12T16:00:39.999Z</time></trkpt><trkpt lat="42.12161635189846" lon="12.88303930934491"><ele>1022.6666666666667</ele><time>2026-04-12T16:00:40.999Z</time></trkpt><trkpt lat="42.12161413109312" lon="12.882932622106418"><ele>1022.0</ele><time>2026-04-12T16:00:41.999Z</time></trkpt><trkpt lat="42.121624888934626" lon="12.882806703497222"><ele>1022.0</ele><time>2026-04-12T16:00:42.999Z</time></trkpt><trkpt lat="42.12166366969506" lon="12.88267302670322"><ele>1022.0</ele><time>2026-04-12T16:00:43.999Z</time></trkpt><trkpt lat="42.121740408450776" lon="12.8825455990666"><ele>1022.0</ele><time>2026-04-12T16:00:44.999Z</time></trkpt><trkpt lat="42.121815997233" lon="12.882408527585167"><ele>1022.0</ele><time>2026-04-12T16:00:45.999Z</time></trkpt><trkpt lat="42.121878026571764" lon="12.882295588743816"><ele>1021.4000000000001</ele><time>2026-04-12T16:00:46.999Z</time></trkpt><trkpt lat="42.12192777841111" lon="12.882180890682132"><ele>1020.8000000000001</ele><time>2026-04-12T16:00:47.999Z</time></trkpt><trkpt lat="42.12197177095172" lon="12.882049800581152"><ele>1020.2</ele><time>2026-04-12T16:00:48.999Z</time></trkpt><trkpt lat="42.12201999886183" lon="12.881912910214828"><ele>1019.6</ele><time>2026-04-12T16:00:49.999Z</time></trkpt><trkpt lat="42.12208167188121" lon="12.881813520622211"><ele>1019.0</ele><time>2026-04-12T16:00:50.999Z</time></trkpt><trkpt lat="42.12215527780006" lon="12.881711548508246"><ele>1019.0</ele><time>2026-04-12T16:00:51.999Z</time></trkpt><trkpt lat="42.12223883678454" lon="12.88162910739802"><ele>1019.0000000000001</ele><time>2026-04-12T16:00:52.999Z</time></trkpt><trkpt lat="42.122326303510356" lon="12.881548362687258"><ele>1019.0000000000001</ele><time>2026-04-12T16:00:53.999Z</time></trkpt><trkpt lat="42.12239906806181" lon="12.881456126344453"><ele>1019.0</ele><time>2026-04-12T16:00:54.999Z</time></trkpt><trkpt lat="42.1224647966497" lon="12.881352054937786"><ele>1019.0</ele><time>2026-04-12T16:00:55.999Z</time></trkpt><trkpt lat="42.122508128021494" lon="12.881251576430492"><ele>1016.7142857142858</ele><time>2026-04-12T16:00:56.999Z</time></trkpt><trkpt lat="42.12254334851996" lon="12.8811775863393"><ele>1014.4285714285714</ele><time>2026-04-12T16:00:57.999Z</time></trkpt><trkpt lat="42.12256691195901" lon="12.88107643266777"><ele>1012.1428571428571</ele><time>2026-04-12T16:00:58.999Z</time></trkpt><trkpt lat="42.12257952438884" lon="12.880981162924725"><ele>1009.8571428571429</ele><time>2026-04-12T16:00:59.999Z</time></trkpt><trkpt lat="42.12258611075279" lon="12.880893098819831"><ele>1007.5714285714284</ele><time>2026-04-12T16:01:00.999Z</time></trkpt><trkpt lat="42.122580079516446" lon="12.880798270358092"><ele>1005.2857142857142</ele><time>2026-04-12T16:01:01.999Z</time></trkpt><trkpt lat="42.122571577620704" lon="12.880673457681622"><ele>1003.0</ele><time>2026-04-12T16:01:02.999Z</time></trkpt><trkpt lat="42.12258052643492" lon="12.880533293268023"><ele>1003.0</ele><time>2026-04-12T16:01:03.999Z</time></trkpt><trkpt lat="42.122616537122695" lon="12.880391968114376"><ele>1003.0</ele><time>2026-04-12T16:01:04.999Z</time></trkpt><trkpt lat="42.122653325315646" lon="12.880254023682058"><ele>1003.0</ele><time>2026-04-12T16:01:05.999Z</time></trkpt><trkpt lat="42.12268341859005" lon="12.880140153815542"><ele>1003.0</ele><time>2026-04-12T16:01:06.999Z</time></trkpt><trkpt lat="42.122679127363085" lon="12.880013019439597"><ele>1003.0</ele><time>2026-04-12T16:01:07.999Z</time></trkpt><trkpt lat="42.12267076314935" lon="12.879876626492878"><ele>1002.6666666666666</ele><time>2026-04-12T16:01:08.999Z</time></trkpt><trkpt lat="42.122655744614086" lon="12.879744568787785"><ele>1002.3333333333333</ele><time>2026-04-12T16:01:09.999Z</time></trkpt><trkpt lat="42.12266264771698" lon="12.87962939260019"><ele>1002.0</ele><time>2026-04-12T16:01:10.999Z</time></trkpt><trkpt lat="42.12268099668693" lon="12.879526447734472"><ele>1001.6666666666667</ele><time>2026-04-12T16:01:11.999Z</time></trkpt><trkpt lat="42.122684146945396" lon="12.879423711475512"><ele>1001.3333333333334</ele><time>2026-04-12T16:01:12.999Z</time></trkpt><trkpt lat="42.122724703125066" lon="12.879304019803236"><ele>1001.0</ele><time>2026-04-12T16:01:13.999Z</time></trkpt><trkpt lat="42.12275193241768" lon="12.879170092311004"><ele>1000.8</ele><time>2026-04-12T16:01:14.999Z</time></trkpt><trkpt lat="42.12277311843624" lon="12.8790200325049"><ele>1000.5999999999999</ele><time>2026-04-12T16:01:15.999Z</time></trkpt><trkpt lat="42.12279708586532" lon="12.878899436632915"><ele>1000.4</ele><time>2026-04-12T16:01:16.999Z</time></trkpt><trkpt lat="42.12283458154293" lon="12.878768588833974"><ele>1000.2</ele><time>2026-04-12T16:01:17.999Z</time></trkpt><trkpt lat="42.122857220127386" lon="12.878665938589206"><ele>1000.0</ele><time>2026-04-12T16:01:19Z</time></trkpt><trkpt lat="42.12288095857962" lon="12.878575447555002"><ele>999.4</ele><time>2026-04-12T16:01:20Z</time></trkpt><trkpt lat="42.122905354872664" lon="12.878415439534315"><ele>998.8</ele><time>2026-04-12T16:01:22Z</time></trkpt><trkpt lat="42.122956477694814" lon="12.878305643210618"><ele>998.2</ele><time>2026-04-12T16:01:24Z</time></trkpt><trkpt lat="42.12301174075295" lon="12.878241245684253"><ele>997.6</ele><time>2026-04-12T16:01:26Z</time></trkpt><trkpt lat="42.1230517162433" lon="12.87817170331155"><ele>997.0</ele><time>2026-04-12T16:01:27Z</time></trkpt><trkpt lat="42.123079619551945" lon="12.878035499657932"><ele>997.0</ele><time>2026-04-12T16:01:29Z</time></trkpt><trkpt lat="42.123095652287404" lon="12.87793209746853"><ele>997.0</ele><time>2026-04-12T16:01:30Z</time></trkpt><trkpt lat="42.123106953363525" lon="12.87782806849153"><ele>997.0</ele><time>2026-04-12T16:01:31Z</time></trkpt><trkpt lat="42.12311680509253" lon="12.877705942257077"><ele>997.0</ele><time>2026-04-12T16:01:32Z</time></trkpt><trkpt lat="42.123142836568235" lon="12.877560504590617"><ele>997.0</ele><time>2026-04-12T16:01:34Z</time></trkpt><trkpt lat="42.12320290784484" lon="12.877362860856591"><ele>990.8</ele><time>2026-04-12T16:01:36Z</time></trkpt><trkpt lat="42.12328400556842" lon="12.877252098209627"><ele>984.6</ele><time>2026-04-12T16:01:37Z</time></trkpt><trkpt lat="42.123369461468855" lon="12.877165371556263"><ele>978.3999999999999</ele><time>2026-04-12T16:01:38Z</time></trkpt><trkpt lat="42.1234811482142" lon="12.877082909801262"><ele>972.1999999999999</ele><time>2026-04-12T16:01:39Z</time></trkpt><trkpt lat="42.12355834327689" lon="12.877000574740865"><ele>966.0</ele><time>2026-04-12T16:01:40Z</time></trkpt><trkpt lat="42.12360417482897" lon="12.876908277625867"><ele>966.0</ele><time>2026-04-12T16:01:41Z</time></trkpt><trkpt lat="42.1236352690399" lon="12.876820614135006"><ele>966.0</ele><time>2026-04-12T16:01:42Z</time></trkpt><trkpt lat="42.123660767720835" lon="12.876737916820607"><ele>966.0</ele><time>2026-04-12T16:01:43Z</time></trkpt><trkpt lat="42.12367549968238" lon="12.876645608409898"><ele>966.0</ele><time>2026-04-12T16:01:44Z</time></trkpt><trkpt lat="42.123692735625006" lon="12.876471088209032"><ele>966.0</ele><time>2026-04-12T16:01:46Z</time></trkpt><trkpt lat="42.12371367550226" lon="12.876373789690845"><ele>966.0</ele><time>2026-04-12T16:01:47Z</time></trkpt><trkpt lat="42.12373842933269" lon="12.876261253895251"><ele>962.5999999999999</ele><time>2026-04-12T16:01:48Z</time></trkpt><trkpt lat="42.123765041770866" lon="12.876101607136922"><ele>959.1999999999999</ele><time>2026-04-12T16:01:49Z</time></trkpt><trkpt lat="42.12378795017287" lon="12.875952581231386"><ele>955.8000000000001</ele><time>2026-04-12T16:01:50Z</time></trkpt><trkpt lat="42.12380880954824" lon="12.875831965151729"><ele>952.4000000000001</ele><time>2026-04-12T16:01:51Z</time></trkpt><trkpt lat="42.12383297057033" lon="12.875723136578198"><ele>949.0</ele><time>2026-04-12T16:01:52Z</time></trkpt><trkpt lat="42.123839268236544" lon="12.875606912566083"><ele>947.3333333333333</ele><time>2026-04-12T16:01:53Z</time></trkpt><trkpt lat="42.12383336717911" lon="12.875500029575004"><ele>945.6666666666666</ele><time>2026-04-12T16:01:54Z</time></trkpt><trkpt lat="42.12384308914041" lon="12.875383476074344"><ele>944.0</ele><time>2026-04-12T16:01:55Z</time></trkpt><trkpt lat="42.123857142710875" lon="12.875270970742681"><ele>942.3333333333333</ele><time>2026-04-12T16:01:56Z</time></trkpt><trkpt lat="42.123865085246614" lon="12.875166648301146"><ele>940.6666666666666</ele><time>2026-04-12T16:01:57Z</time></trkpt><trkpt lat="42.123892613933286" lon="12.875022795063714"><ele>939.0</ele><time>2026-04-12T16:01:58Z</time></trkpt><trkpt lat="42.123925357881085" lon="12.874909443543842"><ele>938.2</ele><time>2026-04-12T16:01:59Z</time></trkpt><trkpt lat="42.123977621839494" lon="12.87482607782952"><ele>937.4000000000001</ele><time>2026-04-12T16:02:00Z</time></trkpt><trkpt lat="42.12403603883887" lon="12.874714601018354"><ele>936.6</ele><time>2026-04-12T16:02:01Z</time></trkpt><trkpt lat="42.12409399693206" lon="12.874584141381387"><ele>935.8</ele><time>2026-04-12T16:02:02Z</time></trkpt><trkpt lat="42.12415106321067" lon="12.874457486708792"><ele>935.0</ele><time>2026-04-12T16:02:03Z</time></trkpt><trkpt lat="42.124207444247475" lon="12.874353731695695"><ele>935.0000000000001</ele><time>2026-04-12T16:02:04Z</time></trkpt><trkpt lat="42.124242110911965" lon="12.874272837774761"><ele>935.0</ele><time>2026-04-12T16:02:05Z</time></trkpt><trkpt lat="42.12425823615911" lon="12.874187634038446"><ele>935.0</ele><time>2026-04-12T16:02:06Z</time></trkpt><trkpt lat="42.124255117507126" lon="12.874091336605401"><ele>935.0</ele><time>2026-04-12T16:02:07Z</time></trkpt><trkpt lat="42.12423490655075" lon="12.873990209893208"><ele>935.0000000000001</ele><time>2026-04-12T16:02:08Z</time></trkpt><trkpt lat="42.124200403923076" lon="12.873875047256343"><ele>935.0</ele><time>2026-04-12T16:02:09Z</time></trkpt><trkpt lat="42.124178192652366" lon="12.873770140503037"><ele>932.5000000000001</ele><time>2026-04-12T16:02:10Z</time></trkpt><trkpt lat="42.12418172313378" lon="12.873677190538267"><ele>930.0</ele><time>2026-04-12T16:02:11Z</time></trkpt><trkpt lat="42.124192950871944" lon="12.873591751243366"><ele>927.5</ele><time>2026-04-12T16:02:12Z</time></trkpt><trkpt lat="42.124236981968394" lon="12.87348814820125"><ele>925.0</ele><time>2026-04-12T16:02:13Z</time></trkpt><trkpt lat="42.12429510893716" lon="12.873394622184485"><ele>922.5000000000001</ele><time>2026-04-12T16:02:14Z</time></trkpt><trkpt lat="42.124362937950025" lon="12.873327365952862"><ele>920.0</ele><time>2026-04-12T16:02:15Z</time></trkpt><trkpt lat="42.124435109850516" lon="12.87319741608784"><ele>918.1666666666667</ele><time>2026-04-12T16:02:17Z</time></trkpt><trkpt lat="42.12442932552806" lon="12.873086674358401"><ele>916.3333333333334</ele><time>2026-04-12T16:02:18Z</time></trkpt><trkpt lat="42.12441412081765" lon="12.872981357748749"><ele>914.5</ele><time>2026-04-12T16:02:19Z</time></trkpt><trkpt lat="42.1243763756824" lon="12.872898698822485"><ele>912.6666666666667</ele><time>2026-04-12T16:02:20Z</time></trkpt><trkpt lat="42.124327712328764" lon="12.872811035771122"><ele>910.8333333333334</ele><time>2026-04-12T16:02:21Z</time></trkpt><trkpt lat="42.12425774265305" lon="12.872677827821608"><ele>909.0</ele><time>2026-04-12T16:02:22Z</time></trkpt><trkpt lat="42.12419985360333" lon="12.872558205309247"><ele>907.6</ele><time>2026-04-12T16:02:23Z</time></trkpt><trkpt lat="42.124175536028694" lon="12.872451475820892"><ele>906.2</ele><time>2026-04-12T16:02:24Z</time></trkpt><trkpt lat="42.12415899272642" lon="12.872317831486363"><ele>904.8000000000001</ele><time>2026-04-12T16:02:25Z</time></trkpt><trkpt lat="42.12412840779406" lon="12.872178342554351"><ele>903.4000000000001</ele><time>2026-04-12T16:02:26Z</time></trkpt><trkpt lat="42.12409409535061" lon="12.872073829746821"><ele>902.0</ele><time>2026-04-12T16:02:27Z</time></trkpt><trkpt lat="42.12402161097231" lon="12.87195902148497"><ele>899.6</ele><time>2026-04-12T16:02:28Z</time></trkpt><trkpt lat="42.123948608841005" lon="12.87183229445267"><ele>897.2</ele><time>2026-04-12T16:02:29Z</time></trkpt><trkpt lat="42.12390392179857" lon="12.87172362849164"><ele>894.8</ele><time>2026-04-12T16:02:30Z</time></trkpt><trkpt lat="42.12387167057152" lon="12.871598008785602"><ele>892.4</ele><time>2026-04-12T16:02:30.999Z</time></trkpt><trkpt lat="42.12385035348356" lon="12.871495805838919"><ele>890.0</ele><time>2026-04-12T16:02:31.999Z</time></trkpt><trkpt lat="42.123791426483514" lon="12.871425108724567"><ele>890.0</ele><time>2026-04-12T16:02:33.999Z</time></trkpt><trkpt lat="42.123709375348646" lon="12.871532270309718"><ele>890.0</ele><time>2026-04-12T16:02:35.999Z</time></trkpt><trkpt lat="42.12368506009319" lon="12.871642347918616"><ele>890.0</ele><time>2026-04-12T16:02:36.999Z</time></trkpt><trkpt lat="42.12365612941324" lon="12.871780307213141"><ele>890.0</ele><time>2026-04-12T16:02:37.999Z</time></trkpt><trkpt lat="42.123636100365005" lon="12.87194078373649"><ele>890.0</ele><time>2026-04-12T16:02:38.999Z</time></trkpt><trkpt lat="42.12360244002342" lon="12.872107625459119"><ele>890.0</ele><time>2026-04-12T16:02:39.999Z</time></trkpt><trkpt lat="42.12356976673152" lon="12.872218449146752"><ele>890.0</ele><time>2026-04-12T16:02:40.999Z</time></trkpt><trkpt lat="42.12352729192176" lon="12.872296022475027"><ele>890.0</ele><time>2026-04-12T16:02:41.999Z</time></trkpt><trkpt lat="42.12343047980203" lon="12.872360462237728"><ele>890.0</ele><time>2026-04-12T16:02:43.999Z</time></trkpt><trkpt lat="42.12328999998892" lon="12.872337317513717"><ele>890.0</ele><time>2026-04-12T16:02:45.999Z</time></trkpt><trkpt lat="42.12321529006418" lon="12.872359385010409"><ele>901.0</ele><time>2026-04-12T16:02:46.999Z</time></trkpt><trkpt lat="42.12308557514264" lon="12.872222450707364"><ele>912.0</ele><time>2026-04-12T16:02:48.999Z</time></trkpt><trkpt lat="42.122994967386944" lon="12.872110444833261"><ele>923.0</ele><time>2026-04-12T16:02:49.999Z</time></trkpt><trkpt lat="42.12286750512358" lon="12.87195213150107"><ele>923.0</ele><time>2026-04-12T16:02:50.999Z</time></trkpt><trkpt lat="42.122732188088946" lon="12.871813308541562"><ele>923.0</ele><time>2026-04-12T16:02:51.999Z</time></trkpt><trkpt lat="42.122613563507805" lon="12.87169038371936"><ele>923.0</ele><time>2026-04-12T16:02:52.999Z</time></trkpt><trkpt lat="42.12250811359019" lon="12.871581964032691"><ele>919.8</ele><time>2026-04-12T16:02:53.999Z</time></trkpt><trkpt lat="42.12241569479336" lon="12.871482856328997"><ele>916.5999999999999</ele><time>2026-04-12T16:02:54.999Z</time></trkpt><trkpt lat="42.12233250388266" lon="12.871387493516592"><ele>913.4000000000001</ele><time>2026-04-12T16:02:55.999Z</time></trkpt><trkpt lat="42.1222645478941" lon="12.871269733613856"><ele>910.2</ele><time>2026-04-12T16:02:56.999Z</time></trkpt><trkpt lat="42.12220687790149" lon="12.871141229326996"><ele>907.0</ele><time>2026-04-12T16:02:57.999Z</time></trkpt><trkpt lat="42.122155425096174" lon="12.871002858596084"><ele>901.8</ele><time>2026-04-12T16:02:58.999Z</time></trkpt><trkpt lat="42.122107384012864" lon="12.870893134557926"><ele>896.6</ele><time>2026-04-12T16:02:59.999Z</time></trkpt><trkpt lat="42.1220508899026" lon="12.870799711756533"><ele>891.3999999999999</ele><time>2026-04-12T16:03:00.999Z</time></trkpt><trkpt lat="42.12198304217403" lon="12.870723002909589"><ele>886.1999999999999</ele><time>2026-04-12T16:03:01.999Z</time></trkpt><trkpt lat="42.12189053240926" lon="12.870651625823248"><ele>881.0</ele><time>2026-04-12T16:03:02.999Z</time></trkpt><trkpt lat="42.121816170665674" lon="12.870616716625513"><ele>881.0</ele><time>2026-04-12T16:03:03.999Z</time></trkpt><trkpt lat="42.1217377429609" lon="12.870621691117295"><ele>880.9999999999999</ele><time>2026-04-12T16:03:04.999Z</time></trkpt><trkpt lat="42.121634520739256" lon="12.870647919373287"><ele>880.9999999999999</ele><time>2026-04-12T16:03:05.999Z</time></trkpt><trkpt lat="42.12151452512462" lon="12.870697374833538"><ele>881.0</ele><time>2026-04-12T16:03:06.999Z</time></trkpt><trkpt lat="42.1213796349645" lon="12.870749829398465"><ele>881.0</ele><time>2026-04-12T16:03:07.999Z</time></trkpt><trkpt lat="42.12124962559503" lon="12.870798259369796"><ele>879.8</ele><time>2026-04-12T16:03:08.999Z</time></trkpt><trkpt lat="42.121144824917536" lon="12.870849665921295"><ele>878.5999999999999</ele><time>2026-04-12T16:03:09.999Z</time></trkpt><trkpt lat="42.12107509695053" lon="12.870914629629992"><ele>877.4</ele><time>2026-04-12T16:03:10.999Z</time></trkpt><trkpt lat="42.1210045835195" lon="12.870993285914123"><ele>876.2</ele><time>2026-04-12T16:03:11.999Z</time></trkpt><trkpt lat="42.12093767856756" lon="12.871101120067559"><ele>875.0</ele><time>2026-04-12T16:03:12.999Z</time></trkpt><trkpt lat="42.120886833651305" lon="12.8711850304738"><ele>877.0000000000001</ele><time>2026-04-12T16:03:13.999Z</time></trkpt><trkpt lat="42.120827300039196" lon="12.871234252105438"><ele>879.0</ele><time>2026-04-12T16:03:19.999Z</time></trkpt><trkpt lat="42.12076785459882" lon="12.871269791758044"><ele>881.0</ele><time>2026-04-12T16:03:25Z</time></trkpt><trkpt lat="42.1207042946309" lon="12.8712071525784"><ele>883.0</ele><time>2026-04-12T16:03:32Z</time></trkpt><trkpt lat="42.120654280336225" lon="12.871124083112932"><ele>885.0000000000001</ele><time>2026-04-12T16:03:36Z</time></trkpt><trkpt lat="42.12056511838893" lon="12.871109718200604"><ele>887.0</ele><time>2026-04-12T16:03:42Z</time></trkpt><trkpt lat="42.12055219343005" lon="12.871002781481165"><ele>888.6</ele><time>2026-04-12T16:03:49Z</time></trkpt><trkpt lat="42.120660656825734" lon="12.870889897671235"><ele>890.2</ele><time>2026-04-12T16:03:51Z</time></trkpt><trkpt lat="42.12069090993571" lon="12.870809453861021"><ele>891.8</ele><time>2026-04-12T16:03:52Z</time></trkpt><trkpt lat="42.12074427735352" lon="12.870738372237854"><ele>893.4</ele><time>2026-04-12T16:03:53Z</time></trkpt><trkpt lat="42.12081045333512" lon="12.870634425943486"><ele>895.0</ele><time>2026-04-12T16:03:54Z</time></trkpt><trkpt lat="42.12085260240817" lon="12.870493209450656"><ele>891.5</ele><time>2026-04-12T16:03:55Z</time></trkpt><trkpt lat="42.120925129158216" lon="12.870334218706136"><ele>888.0</ele><time>2026-04-12T16:03:56Z</time></trkpt><trkpt lat="42.12099937740943" lon="12.870189954682997"><ele>884.5</ele><time>2026-04-12T16:03:57Z</time></trkpt><trkpt lat="42.121052642618984" lon="12.870077083943698"><ele>881.0</ele><time>2026-04-12T16:03:58Z</time></trkpt><trkpt lat="42.12107497768155" lon="12.869956650257901"><ele>881.0</ele><time>2026-04-12T16:03:59Z</time></trkpt><trkpt lat="42.121081015071944" lon="12.869836488256798"><ele>880.9999999999999</ele><time>2026-04-12T16:04:00Z</time></trkpt><trkpt lat="42.12108252219053" lon="12.869741271904214"><ele>880.9999999999999</ele><time>2026-04-12T16:04:01Z</time></trkpt><trkpt lat="42.121004513863" lon="12.86966418539912"><ele>881.0</ele><time>2026-04-12T16:04:03Z</time></trkpt><trkpt lat="42.12087150401577" lon="12.869613152663254"><ele>881.0</ele><time>2026-04-12T16:04:05Z</time></trkpt><trkpt lat="42.12078952444643" lon="12.86959481864392"><ele>885.4</ele><time>2026-04-12T16:04:06Z</time></trkpt><trkpt lat="42.12070703097881" lon="12.86957743650142"><ele>889.8</ele><time>2026-04-12T16:04:07Z</time></trkpt><trkpt lat="42.1206580872129" lon="12.869505405924391"><ele>894.1999999999999</ele><time>2026-04-12T16:04:08Z</time></trkpt><trkpt lat="42.12064013713837" lon="12.869329571317179"><ele>898.5999999999999</ele><time>2026-04-12T16:04:10Z</time></trkpt><trkpt lat="42.12065903338873" lon="12.869212399015524"><ele>903.0</ele><time>2026-04-12T16:04:11Z</time></trkpt><trkpt lat="42.1207116120332" lon="12.869077626694068"><ele>903.0</ele><time>2026-04-12T16:04:12Z</time></trkpt><trkpt lat="42.12073279295413" lon="12.868981796984519"><ele>903.0</ele><time>2026-04-12T16:04:13Z</time></trkpt><trkpt lat="42.120667873929165" lon="12.86877853520912"><ele>903.0</ele><time>2026-04-12T16:04:15Z</time></trkpt><trkpt lat="42.12059691726468" lon="12.86860105373988"><ele>903.0</ele><time>2026-04-12T16:04:16Z</time></trkpt><trkpt lat="42.120541768933485" lon="12.868422617720935"><ele>904.2</ele><time>2026-04-12T16:04:17Z</time></trkpt><trkpt lat="42.12053561763845" lon="12.868299977866364"><ele>905.4</ele><time>2026-04-12T16:04:18Z</time></trkpt><trkpt lat="42.1205501648029" lon="12.868198319013091"><ele>906.6000000000001</ele><time>2026-04-12T16:04:19Z</time></trkpt><trkpt lat="42.12058433530615" lon="12.868063987276912"><ele>907.8000000000001</ele><time>2026-04-12T16:04:20Z</time></trkpt><trkpt lat="42.12062089342795" lon="12.867925323237042"><ele>909.0</ele><time>2026-04-12T16:04:21Z</time></trkpt><trkpt lat="42.120679471015386" lon="12.867796831258952"><ele>909.0</ele><time>2026-04-12T16:04:22Z</time></trkpt><trkpt lat="42.12072072393307" lon="12.867665139483922"><ele>909.0</ele><time>2026-04-12T16:04:23Z</time></trkpt><trkpt lat="42.12081437698673" lon="12.867556914418715"><ele>909.0</ele><time>2026-04-12T16:04:24Z</time></trkpt><trkpt lat="42.12088221032322" lon="12.867436724510515"><ele>909.0</ele><time>2026-04-12T16:04:25Z</time></trkpt><trkpt lat="42.12094983636686" lon="12.867296377484196"><ele>908.3333333333334</ele><time>2026-04-12T16:04:26Z</time></trkpt><trkpt lat="42.1210253931305" lon="12.867196214105132"><ele>907.6666666666667</ele><time>2026-04-12T16:04:27Z</time></trkpt><trkpt lat="42.12110893330007" lon="12.867115920215575"><ele>907.0</ele><time>2026-04-12T16:04:28Z</time></trkpt><trkpt lat="42.121169429988754" lon="12.86704896278669"><ele>906.3333333333334</ele><time>2026-04-12T16:04:29Z</time></trkpt><trkpt lat="42.121221298149344" lon="12.866973523170998"><ele>905.6666666666667</ele><time>2026-04-12T16:04:30Z</time></trkpt><trkpt lat="42.12123000608696" lon="12.866863397490663"><ele>905.0</ele><time>2026-04-12T16:04:31Z</time></trkpt><trkpt lat="42.12119708245131" lon="12.866754441746917"><ele>905.0</ele><time>2026-04-12T16:04:32Z</time></trkpt><trkpt lat="42.121162337539566" lon="12.866623595511621"><ele>905.0</ele><time>2026-04-12T16:04:32.999Z</time></trkpt><trkpt lat="42.1211111620739" lon="12.866497018190735"><ele>905.0</ele><time>2026-04-12T16:04:33.999Z</time></trkpt><trkpt lat="42.12108699511694" lon="12.866391427439916"><ele>905.0</ele><time>2026-04-12T16:04:34.999Z</time></trkpt><trkpt lat="42.12111425223873" lon="12.866290517484423"><ele>905.0</ele><time>2026-04-12T16:04:35.999Z</time></trkpt><trkpt lat="42.121159470517846" lon="12.86616690164496"><ele>905.0</ele><time>2026-04-12T16:04:36.999Z</time></trkpt><trkpt lat="42.121238540999556" lon="12.866035197258926"><ele>905.0</ele><time>2026-04-12T16:04:37.999Z</time></trkpt><trkpt lat="42.12132952457549" lon="12.865920235850533"><ele>905.0</ele><time>2026-04-12T16:04:38.999Z</time></trkpt><trkpt lat="42.12142428941134" lon="12.865784069544075"><ele>905.0</ele><time>2026-04-12T16:04:39.999Z</time></trkpt><trkpt lat="42.12150996828993" lon="12.865665272413704"><ele>904.5000000000001</ele><time>2026-04-12T16:04:40.999Z</time></trkpt><trkpt lat="42.121564890716485" lon="12.865548815782786"><ele>904.0</ele><time>2026-04-12T16:04:41.999Z</time></trkpt><trkpt lat="42.12157702575762" lon="12.8654415757407"><ele>903.5</ele><time>2026-04-12T16:04:42.999Z</time></trkpt><trkpt lat="42.121582216500215" lon="12.865284530160077"><ele>903.0</ele><time>2026-04-12T16:04:44.999Z</time></trkpt><trkpt lat="42.12158104721558" lon="12.865191968335804"><ele>902.5000000000001</ele><time>2026-04-12T16:04:45.999Z</time></trkpt><trkpt lat="42.1215792025676" lon="12.865105025538966"><ele>902.0</ele><time>2026-04-12T16:04:46.999Z</time></trkpt><trkpt lat="42.121596491042254" lon="12.865001891202724"><ele>902.0</ele><time>2026-04-12T16:04:47.999Z</time></trkpt><trkpt lat="42.12163008361778" lon="12.864884945553985"><ele>902.0</ele><time>2026-04-12T16:04:48.999Z</time></trkpt><trkpt lat="42.121675276835624" lon="12.864809202943336"><ele>902.0</ele><time>2026-04-12T16:04:49.999Z</time></trkpt><trkpt lat="42.12177701295009" lon="12.864710914529457"><ele>902.0</ele><time>2026-04-12T16:04:51.999Z</time></trkpt><trkpt lat="42.12185098199533" lon="12.8646819539002"><ele>902.0</ele><time>2026-04-12T16:04:52.999Z</time></trkpt><trkpt lat="42.12192091988718" lon="12.86460186099072"><ele>902.0</ele><time>2026-04-12T16:04:53.999Z</time></trkpt><trkpt lat="42.121982215605485" lon="12.864480401126958"><ele>902.0</ele><time>2026-04-12T16:04:54.999Z</time></trkpt><trkpt lat="42.1220186529878" lon="12.864357914290435"><ele>902.0</ele><time>2026-04-12T16:04:55.999Z</time></trkpt><trkpt lat="42.12210781393" lon="12.864250900577364"><ele>902.0</ele><time>2026-04-12T16:04:56.999Z</time></trkpt><trkpt lat="42.122193569006505" lon="12.864184688824999"><ele>902.0</ele><time>2026-04-12T16:04:57.999Z</time></trkpt><trkpt lat="42.122293973086656" lon="12.86415590212307"><ele>901.2</ele><time>2026-04-12T16:04:58.999Z</time></trkpt><trkpt lat="42.1224027317069" lon="12.864122200106015"><ele>900.4000000000001</ele><time>2026-04-12T16:04:59.999Z</time></trkpt><trkpt lat="42.12250564614348" lon="12.864089466072782"><ele>899.5999999999999</ele><time>2026-04-12T16:05:00.999Z</time></trkpt><trkpt lat="42.12257863968684" lon="12.864059235847709"><ele>898.8</ele><time>2026-04-12T16:05:01.999Z</time></trkpt><trkpt lat="42.122652880609806" lon="12.86389448961492"><ele>898.0</ele><time>2026-04-12T16:05:03.999Z</time></trkpt><trkpt lat="42.12268796427544" lon="12.863759804983003"><ele>898.0</ele><time>2026-04-12T16:05:04.999Z</time></trkpt><trkpt lat="42.122708135828496" lon="12.863613704465406"><ele>898.0</ele><time>2026-04-12T16:05:05.999Z</time></trkpt><trkpt lat="42.12273530660625" lon="12.863473736383952"><ele>898.0</ele><time>2026-04-12T16:05:06.999Z</time></trkpt><trkpt lat="42.12278809827367" lon="12.863349208658391"><ele>898.0</ele><time>2026-04-12T16:05:07.999Z</time></trkpt><trkpt lat="42.12284029994171" lon="12.863235981319088"><ele>898.0</ele><time>2026-04-12T16:05:08.999Z</time></trkpt><trkpt lat="42.122911955233654" lon="12.863122326291094"><ele>899.4</ele><time>2026-04-12T16:05:09.999Z</time></trkpt><trkpt lat="42.12297831559926" lon="12.863010879763515"><ele>900.8</ele><time>2026-04-12T16:05:10.999Z</time></trkpt><trkpt lat="42.12303332431139" lon="12.86289759737977"><ele>902.2</ele><time>2026-04-12T16:05:11.999Z</time></trkpt><trkpt lat="42.12307510694746" lon="12.862807475349825"><ele>903.6</ele><time>2026-04-12T16:05:12.999Z</time></trkpt><trkpt lat="42.123160542187385" lon="12.862756363919093"><ele>905.0</ele><time>2026-04-12T16:05:13.999Z</time></trkpt><trkpt lat="42.12327306873625" lon="12.862682705376569"><ele>905.0</ele><time>2026-04-12T16:05:15.999Z</time></trkpt><trkpt lat="42.1234138137023" lon="12.862657002837203"><ele>905.0</ele><time>2026-04-12T16:05:17.999Z</time></trkpt><trkpt lat="42.123534412262465" lon="12.862718194025717"><ele>905.0</ele><time>2026-04-12T16:05:19.999Z</time></trkpt><trkpt lat="42.123658799072174" lon="12.862696150511972"><ele>905.0</ele><time>2026-04-12T16:05:20.999Z</time></trkpt><trkpt lat="42.12376409339137" lon="12.8626630989187"><ele>907.5000000000001</ele><time>2026-04-12T16:05:21.999Z</time></trkpt><trkpt lat="42.12383276925856" lon="12.862612706911033"><ele>910.0</ele><time>2026-04-12T16:05:22.999Z</time></trkpt><trkpt lat="42.123908480265506" lon="12.862562465724494"><ele>912.5</ele><time>2026-04-12T16:05:23.999Z</time></trkpt><trkpt lat="42.123980792750984" lon="12.862467703713866"><ele>915.0</ele><time>2026-04-12T16:05:24.999Z</time></trkpt><trkpt lat="42.12399163547543" lon="12.862347476039705"><ele>917.5000000000001</ele><time>2026-04-12T16:05:25.999Z</time></trkpt><trkpt lat="42.12397537510279" lon="12.862222186414005"><ele>920.0</ele><time>2026-04-12T16:05:26.999Z</time></trkpt><trkpt lat="42.12395597578839" lon="12.862112817814731"><ele>920.0</ele><time>2026-04-12T16:05:27.999Z</time></trkpt><trkpt lat="42.12391436566931" lon="12.862007829037475"><ele>920.0</ele><time>2026-04-12T16:05:28.999Z</time></trkpt><trkpt lat="42.12388391639095" lon="12.861866439479982"><ele>920.0</ele><time>2026-04-12T16:05:29.999Z</time></trkpt><trkpt lat="42.12386445465656" lon="12.861697853543143"><ele>920.0</ele><time>2026-04-12T16:05:31Z</time></trkpt><trkpt lat="42.123876302630755" lon="12.861539751576064"><ele>920.0</ele><time>2026-04-12T16:05:32Z</time></trkpt><trkpt lat="42.123875262106516" lon="12.861402339654033"><ele>925.75</ele><time>2026-04-12T16:05:33Z</time></trkpt><trkpt lat="42.12387620692031" lon="12.861257820526367"><ele>931.5</ele><time>2026-04-12T16:05:34Z</time></trkpt><trkpt lat="42.12390160479347" lon="12.861118896238416"><ele>937.25</ele><time>2026-04-12T16:05:35Z</time></trkpt><trkpt lat="42.12388006706597" lon="12.8609457984217"><ele>943.0</ele><time>2026-04-12T16:05:36Z</time></trkpt><trkpt lat="42.12385612934962" lon="12.860782319810022"><ele>945.0</ele><time>2026-04-12T16:05:37Z</time></trkpt><trkpt lat="42.123807845192786" lon="12.860652236020623"><ele>947.0</ele><time>2026-04-12T16:05:38Z</time></trkpt><trkpt lat="42.12377090062847" lon="12.860513099460373"><ele>949.0</ele><time>2026-04-12T16:05:39Z</time></trkpt><trkpt lat="42.12372732863588" lon="12.860362673216049"><ele>951.0</ele><time>2026-04-12T16:05:40Z</time></trkpt><trkpt lat="42.1236835572816" lon="12.8602021987484"><ele>949.25</ele><time>2026-04-12T16:05:41Z</time></trkpt><trkpt lat="42.12364039706945" lon="12.86002812682895"><ele>947.5</ele><time>2026-04-12T16:05:42Z</time></trkpt><trkpt lat="42.12359374441755" lon="12.85985619875908"><ele>945.75</ele><time>2026-04-12T16:05:43Z</time></trkpt><trkpt lat="42.123544167887815" lon="12.859727093431026"><ele>944.0</ele><time>2026-04-12T16:05:44Z</time></trkpt><trkpt lat="42.12351122060152" lon="12.859585505145967"><ele>944.0</ele><time>2026-04-12T16:05:45Z</time></trkpt><trkpt lat="42.12349387374128" lon="12.859475492773916"><ele>944.0000000000001</ele><time>2026-04-12T16:05:46Z</time></trkpt><trkpt lat="42.123499401118" lon="12.859376933647875"><ele>944.0000000000001</ele><time>2026-04-12T16:05:47Z</time></trkpt><trkpt lat="42.12352322455242" lon="12.859255177548887"><ele>944.0</ele><time>2026-04-12T16:05:48Z</time></trkpt><trkpt lat="42.123561083736774" lon="12.859122012813744"><ele>944.0</ele><time>2026-04-12T16:05:49Z</time></trkpt><trkpt lat="42.1236321573716" lon="12.859011697139294"><ele>944.2</ele><time>2026-04-12T16:05:50Z</time></trkpt><trkpt lat="42.123691273520016" lon="12.858864438338234"><ele>944.4000000000001</ele><time>2026-04-12T16:05:51Z</time></trkpt><trkpt lat="42.12375030359026" lon="12.858740215137768"><ele>944.6</ele><time>2026-04-12T16:05:52Z</time></trkpt><trkpt lat="42.12380698228601" lon="12.858620111185079"><ele>944.8</ele><time>2026-04-12T16:05:53Z</time></trkpt><trkpt lat="42.12387425590614" lon="12.858503772855157"><ele>945.0</ele><time>2026-04-12T16:05:54Z</time></trkpt><trkpt lat="42.12387294761843" lon="12.858404600650157"><ele>947.6</ele><time>2026-04-12T16:05:55Z</time></trkpt><trkpt lat="42.12385140504471" lon="12.85828408895426"><ele>950.2</ele><time>2026-04-12T16:05:56Z</time></trkpt><trkpt lat="42.123845952691674" lon="12.858144879883632"><ele>952.8</ele><time>2026-04-12T16:05:57Z</time></trkpt><trkpt lat="42.12385880371965" lon="12.857993196001303"><ele>955.4</ele><time>2026-04-12T16:05:58Z</time></trkpt><trkpt lat="42.123902119029395" lon="12.857869381881947"><ele>958.0</ele><time>2026-04-12T16:05:59Z</time></trkpt><trkpt lat="42.12397525259083" lon="12.857760711445348"><ele>958.0</ele><time>2026-04-12T16:06:00Z</time></trkpt><trkpt lat="42.1240343328865" lon="12.857644354705704"><ele>958.0</ele><time>2026-04-12T16:06:01Z</time></trkpt><trkpt lat="42.12412539217713" lon="12.857557568433393"><ele>958.0</ele><time>2026-04-12T16:06:02Z</time></trkpt><trkpt lat="42.12421482413665" lon="12.857472639032668"><ele>958.0</ele><time>2026-04-12T16:06:03Z</time></trkpt><trkpt lat="42.12427493731373" lon="12.857385482324345"><ele>958.0</ele><time>2026-04-12T16:06:04Z</time></trkpt><trkpt lat="42.12433214811436" lon="12.8573082936762"><ele>951.8</ele><time>2026-04-12T16:06:05Z</time></trkpt><trkpt lat="42.124381690156824" lon="12.85723746379588"><ele>945.5999999999999</ele><time>2026-04-12T16:06:06Z</time></trkpt><trkpt lat="42.12445960128749" lon="12.857139222968572"><ele>939.4000000000001</ele><time>2026-04-12T16:06:07Z</time></trkpt><trkpt lat="42.12452241682002" lon="12.857028531322058"><ele>933.2</ele><time>2026-04-12T16:06:08Z</time></trkpt><trkpt lat="42.12457175191877" lon="12.856927117311509"><ele>927.0</ele><time>2026-04-12T16:06:09Z</time></trkpt><trkpt lat="42.12461447462277" lon="12.856831629349081"><ele>931.1666666666666</ele><time>2026-04-12T16:06:10Z</time></trkpt><trkpt lat="42.12466374113262" lon="12.856733100957536"><ele>935.3333333333333</ele><time>2026-04-12T16:06:11Z</time></trkpt><trkpt lat="42.124712953891304" lon="12.856660275904064"><ele>939.5</ele><time>2026-04-12T16:06:12Z</time></trkpt><trkpt lat="42.12476811005872" lon="12.85658623666646"><ele>943.6666666666666</ele><time>2026-04-12T16:06:13Z</time></trkpt><trkpt lat="42.12484105606147" lon="12.856529265499377"><ele>947.8333333333333</ele><time>2026-04-12T16:06:14Z</time></trkpt><trkpt lat="42.1249110590546" lon="12.856503390202844"><ele>952.0</ele><time>2026-04-12T16:06:15Z</time></trkpt><trkpt lat="42.12496824457302" lon="12.856459575273147"><ele>943.6666666666666</ele><time>2026-04-12T16:06:16Z</time></trkpt><trkpt lat="42.12503911197527" lon="12.856417733013648"><ele>935.3333333333333</ele><time>2026-04-12T16:06:17Z</time></trkpt><trkpt lat="42.125119474697215" lon="12.856379644000441"><ele>927.0</ele><time>2026-04-12T16:06:18Z</time></trkpt><trkpt lat="42.12515742989168" lon="12.856299395542369"><ele>918.6666666666667</ele><time>2026-04-12T16:06:19Z</time></trkpt><trkpt lat="42.125228381659994" lon="12.856207574897548"><ele>910.3333333333334</ele><time>2026-04-12T16:06:20Z</time></trkpt><trkpt lat="42.12529801008601" lon="12.856101121679444"><ele>902.0</ele><time>2026-04-12T16:06:21Z</time></trkpt><trkpt lat="42.125374666554215" lon="12.856007625366443"><ele>910.25</ele><time>2026-04-12T16:06:22Z</time></trkpt><trkpt lat="42.12545707664578" lon="12.855901198190077"><ele>918.5</ele><time>2026-04-12T16:06:23Z</time></trkpt><trkpt lat="42.12554168903541" lon="12.855806025581805"><ele>926.75</ele><time>2026-04-12T16:06:24Z</time></trkpt><trkpt lat="42.125627932381725" lon="12.855703955738493"><ele>935.0</ele><time>2026-04-12T16:06:25Z</time></trkpt><trkpt lat="42.125726650432036" lon="12.855604218148873"><ele>926.6</ele><time>2026-04-12T16:06:26Z</time></trkpt><trkpt lat="42.125829550524436" lon="12.85550754455863"><ele>918.2</ele><time>2026-04-12T16:06:27Z</time></trkpt><trkpt lat="42.12592013030112" lon="12.855408025197749"><ele>909.8</ele><time>2026-04-12T16:06:28Z</time></trkpt><trkpt lat="42.126005039875636" lon="12.855326131258563"><ele>901.4</ele><time>2026-04-12T16:06:29Z</time></trkpt><trkpt lat="42.12608439062061" lon="12.85527092824122"><ele>893.0</ele><time>2026-04-12T16:06:30Z</time></trkpt><trkpt lat="42.12617147556822" lon="12.855229151595545"><ele>893.0</ele><time>2026-04-12T16:06:31Z</time></trkpt><trkpt lat="42.12624626126198" lon="12.855183951319312"><ele>893.0</ele><time>2026-04-12T16:06:32Z</time></trkpt><trkpt lat="42.12630250006992" lon="12.855055461120713"><ele>893.0</ele><time>2026-04-12T16:06:34Z</time></trkpt><trkpt lat="42.12629834307099" lon="12.854890138316327"><ele>893.0</ele><time>2026-04-12T16:06:35.999Z</time></trkpt><trkpt lat="42.126291017078586" lon="12.854758475708703"><ele>893.0</ele><time>2026-04-12T16:06:36.999Z</time></trkpt><trkpt lat="42.12627423795418" lon="12.85457099235757"><ele>897.5999999999999</ele><time>2026-04-12T16:06:37.999Z</time></trkpt><trkpt lat="42.12626852850659" lon="12.854402395618838"><ele>902.1999999999999</ele><time>2026-04-12T16:06:38.999Z</time></trkpt><trkpt lat="42.126247529970485" lon="12.854256420328422"><ele>906.8</ele><time>2026-04-12T16:06:39.999Z</time></trkpt><trkpt lat="42.1262601783003" lon="12.85411399729768"><ele>911.4</ele><time>2026-04-12T16:06:40.999Z</time></trkpt><trkpt lat="42.12625244993146" lon="12.853996838650634"><ele>916.0</ele><time>2026-04-12T16:06:41.999Z</time></trkpt><trkpt lat="42.12622147764449" lon="12.85387609597983"><ele>917.1666666666666</ele><time>2026-04-12T16:06:42.999Z</time></trkpt><trkpt lat="42.12620825264584" lon="12.853751332358977"><ele>918.3333333333333</ele><time>2026-04-12T16:06:43.999Z</time></trkpt><trkpt lat="42.12621770718867" lon="12.853629730658744"><ele>919.5</ele><time>2026-04-12T16:06:44.999Z</time></trkpt><trkpt lat="42.126243204733065" lon="12.853518895110053"><ele>920.6666666666667</ele><time>2026-04-12T16:06:45.999Z</time></trkpt><trkpt lat="42.126261477061455" lon="12.85342965911003"><ele>921.8333333333334</ele><time>2026-04-12T16:06:46.999Z</time></trkpt><trkpt lat="42.12625786953537" lon="12.853324268721908"><ele>923.0</ele><time>2026-04-12T16:06:48.999Z</time></trkpt><trkpt lat="42.126206915753464" lon="12.853274206569207"><ele>920.0000000000001</ele><time>2026-04-12T16:06:53.999Z</time></trkpt><trkpt lat="42.12617389404336" lon="12.85319816520812"><ele>917.0</ele><time>2026-04-12T16:07:11.999Z</time></trkpt><trkpt lat="42.12611867356646" lon="12.853147026715957"><ele>914.0</ele><time>2026-04-12T16:16:41Z</time></trkpt><trkpt lat="42.12599708404739" lon="12.853116114303297"><ele>911.0</ele><time>2026-04-12T16:16:44Z</time></trkpt><trkpt lat="42.12590950763717" lon="12.853086101497157"><ele>908.0000000000001</ele><time>2026-04-12T16:16:45Z</time></trkpt><trkpt lat="42.125807740047335" lon="12.853068774922571"><ele>905.0</ele><time>2026-04-12T16:16:46Z</time></trkpt><trkpt lat="42.125693844820795" lon="12.853077084832956"><ele>905.0</ele><time>2026-04-12T16:16:47Z</time></trkpt><trkpt lat="42.125571101571424" lon="12.85308526647046"><ele>905.0</ele><time>2026-04-12T16:16:48Z</time></trkpt><trkpt lat="42.12545473182562" lon="12.853081527150053"><ele>905.0</ele><time>2026-04-12T16:16:49Z</time></trkpt><trkpt lat="42.12534687507509" lon="12.85305495770125"><ele>905.0</ele><time>2026-04-12T16:16:50Z</time></trkpt><trkpt lat="42.12525234870626" lon="12.853001666371883"><ele>905.0</ele><time>2026-04-12T16:16:51Z</time></trkpt><trkpt lat="42.12515047753725" lon="12.852945200236885"><ele>905.0</ele><time>2026-04-12T16:16:52Z</time></trkpt><trkpt lat="42.12505504524435" lon="12.852921107605816"><ele>905.0</ele><time>2026-04-12T16:16:53Z</time></trkpt><trkpt lat="42.12495552104225" lon="12.852914644146926"><ele>905.0</ele><time>2026-04-12T16:16:54Z</time></trkpt><trkpt lat="42.12484267656467" lon="12.852917784378405"><ele>905.0</ele><time>2026-04-12T16:16:55Z</time></trkpt><trkpt lat="42.124710085217984" lon="12.852962615197214"><ele>902.0</ele><time>2026-04-12T16:16:56Z</time></trkpt><trkpt lat="42.12459428127239" lon="12.853000484425303"><ele>899.0</ele><time>2026-04-12T16:16:56.999Z</time></trkpt><trkpt lat="42.124490890591055" lon="12.853050922962142"><ele>896.0</ele><time>2026-04-12T16:16:57.999Z</time></trkpt><trkpt lat="42.12437972084145" lon="12.853116123501376"><ele>893.0</ele><time>2026-04-12T16:16:58.999Z</time></trkpt><trkpt lat="42.124259751758395" lon="12.853173204174956"><ele>893.0</ele><time>2026-04-12T16:16:59.999Z</time></trkpt><trkpt lat="42.124127724885916" lon="12.853242117374029"><ele>893.0</ele><time>2026-04-12T16:17:00.999Z</time></trkpt><trkpt lat="42.12400819605523" lon="12.853293355374765"><ele>893.0</ele><time>2026-04-12T16:17:01.999Z</time></trkpt><trkpt lat="42.12388626092694" lon="12.85335459005454"><ele>893.0</ele><time>2026-04-12T16:17:02.999Z</time></trkpt><trkpt lat="42.12374764416808" lon="12.853415899278131"><ele>900.25</ele><time>2026-04-12T16:17:03.999Z</time></trkpt><trkpt lat="42.123634397755765" lon="12.85347107909753"><ele>907.5</ele><time>2026-04-12T16:17:04.999Z</time></trkpt><trkpt lat="42.12349950805793" lon="12.853498050482187"><ele>914.75</ele><time>2026-04-12T16:17:05.999Z</time></trkpt><trkpt lat="42.12336314876258" lon="12.853523508318487"><ele>922.0</ele><time>2026-04-12T16:17:06.999Z</time></trkpt><trkpt lat="42.123232535426574" lon="12.85354634147502"><ele>919.75</ele><time>2026-04-12T16:17:07.999Z</time></trkpt><trkpt lat="42.12311849069107" lon="12.853552826295896"><ele>917.5</ele><time>2026-04-12T16:17:08.999Z</time></trkpt><trkpt lat="42.12301058524723" lon="12.853542469913302"><ele>915.25</ele><time>2026-04-12T16:17:09.999Z</time></trkpt><trkpt lat="42.12288978854329" lon="12.853521530872925"><ele>913.0</ele><time>2026-04-12T16:17:10.999Z</time></trkpt><trkpt lat="42.1227768358624" lon="12.853474936281438"><ele>901.75</ele><time>2026-04-12T16:17:11.999Z</time></trkpt><trkpt lat="42.12266958159152" lon="12.853438140665265"><ele>890.5</ele><time>2026-04-12T16:17:12.999Z</time></trkpt><trkpt lat="42.122550506398625" lon="12.85339863958559"><ele>879.25</ele><time>2026-04-12T16:17:13.999Z</time></trkpt><trkpt lat="42.12242088635497" lon="12.853363007592064"><ele>868.0</ele><time>2026-04-12T16:17:14.999Z</time></trkpt><trkpt lat="42.12232031205736" lon="12.853299846123063"><ele>865.8</ele><time>2026-04-12T16:17:15.999Z</time></trkpt><trkpt lat="42.12222793371377" lon="12.853246093774159"><ele>863.5999999999999</ele><time>2026-04-12T16:17:16.999Z</time></trkpt><trkpt lat="42.12214740701614" lon="12.853221631130637"><ele>861.4000000000001</ele><time>2026-04-12T16:17:17.999Z</time></trkpt><trkpt lat="42.12206573749851" lon="12.85322505561838"><ele>859.2</ele><time>2026-04-12T16:17:18.999Z</time></trkpt><trkpt lat="42.12197496929496" lon="12.853252670277158"><ele>857.0</ele><time>2026-04-12T16:17:19.999Z</time></trkpt><trkpt lat="42.12187503763466" lon="12.853314795350386"><ele>857.0</ele><time>2026-04-12T16:17:20.999Z</time></trkpt><trkpt lat="42.121770801565134" lon="12.853380876888652"><ele>857.0</ele><time>2026-04-12T16:17:21.999Z</time></trkpt><trkpt lat="42.1216704284856" lon="12.85344825253254"><ele>857.0</ele><time>2026-04-12T16:17:22.999Z</time></trkpt><trkpt lat="42.12157096756405" lon="12.853521558325609"><ele>857.0</ele><time>2026-04-12T16:17:23.999Z</time></trkpt><trkpt lat="42.12146892372476" lon="12.853609935082941"><ele>858.6</ele><time>2026-04-12T16:17:24.999Z</time></trkpt><trkpt lat="42.1213813521554" lon="12.853702694935738"><ele>860.2</ele><time>2026-04-12T16:17:25.999Z</time></trkpt><trkpt lat="42.121291941204646" lon="12.853798583234163"><ele>861.8</ele><time>2026-04-12T16:17:26.999Z</time></trkpt><trkpt lat="42.12119582285026" lon="12.853899120746012"><ele>863.4</ele><time>2026-04-12T16:17:27.999Z</time></trkpt><trkpt lat="42.12113427642087" lon="12.853993147181535"><ele>865.0</ele><time>2026-04-12T16:17:28.999Z</time></trkpt><trkpt lat="42.12101933211992" lon="12.854091357332836"><ele>865.0</ele><time>2026-04-12T16:17:29.999Z</time></trkpt><trkpt lat="42.120897305611535" lon="12.85415158805158"><ele>865.0</ele><time>2026-04-12T16:17:30.999Z</time></trkpt><trkpt lat="42.12079848643336" lon="12.854184246502824"><ele>865.0</ele><time>2026-04-12T16:17:31.999Z</time></trkpt><trkpt lat="42.12069781993481" lon="12.854205091866865"><ele>865.0</ele><time>2026-04-12T16:17:32.999Z</time></trkpt><trkpt lat="42.120578587796025" lon="12.854190409996257"><ele>865.3333333333333</ele><time>2026-04-12T16:17:33.999Z</time></trkpt><trkpt lat="42.120435016197064" lon="12.85418058327992"><ele>865.6666666666667</ele><time>2026-04-12T16:17:34.999Z</time></trkpt><trkpt lat="42.12028314002995" lon="12.85408701005658"><ele>866.0</ele><time>2026-04-12T16:17:35.999Z</time></trkpt><trkpt lat="42.120151557635346" lon="12.854022913306155"><ele>866.0</ele><time>2026-04-12T16:17:36.999Z</time></trkpt><trkpt lat="42.12004810549772" lon="12.853970141108293"><ele>865.9999999999999</ele><time>2026-04-12T16:17:37.999Z</time></trkpt><trkpt lat="42.119984499892695" lon="12.853935156758856"><ele>865.9999999999999</ele><time>2026-04-12T16:17:38.999Z</time></trkpt><trkpt lat="42.11989417823031" lon="12.853947355852874"><ele>866.0</ele><time>2026-04-12T16:17:39.999Z</time></trkpt><trkpt lat="42.11976403305703" lon="12.853978133069361"><ele>866.0</ele><time>2026-04-12T16:17:40.999Z</time></trkpt><trkpt lat="42.1196368525664" lon="12.854023291383122"><ele>867.8</ele><time>2026-04-12T16:17:41.999Z</time></trkpt><trkpt lat="42.119530647645085" lon="12.854035976959489"><ele>869.5999999999999</ele><time>2026-04-12T16:17:42.999Z</time></trkpt><trkpt lat="42.11944983112157" lon="12.854024943624205"><ele>871.4</ele><time>2026-04-12T16:17:43.999Z</time></trkpt><trkpt lat="42.11934103544951" lon="12.853988491327666"><ele>873.2</ele><time>2026-04-12T16:17:44.999Z</time></trkpt><trkpt lat="42.119231797604094" lon="12.853937261184981"><ele>875.0</ele><time>2026-04-12T16:17:45.999Z</time></trkpt><trkpt lat="42.11911397179012" lon="12.853886544145256"><ele>878.4</ele><time>2026-04-12T16:17:46.999Z</time></trkpt><trkpt lat="42.119000502802976" lon="12.853810658965156"><ele>881.8</ele><time>2026-04-12T16:17:47.999Z</time></trkpt><trkpt lat="42.11890976416985" lon="12.853727546000437"><ele>885.2</ele><time>2026-04-12T16:17:48.999Z</time></trkpt><trkpt lat="42.11884196652734" lon="12.853611951937477"><ele>888.6</ele><time>2026-04-12T16:17:49.999Z</time></trkpt><trkpt lat="42.118788091091425" lon="12.853496390219842"><ele>892.0</ele><time>2026-04-12T16:17:50.999Z</time></trkpt><trkpt lat="42.11874548058684" lon="12.85340232935598"><ele>884.4000000000001</ele><time>2026-04-12T16:17:51.999Z</time></trkpt><trkpt lat="42.11867562699874" lon="12.853336245250215"><ele>876.8000000000001</ele><time>2026-04-12T16:17:52.999Z</time></trkpt><trkpt lat="42.118598617595694" lon="12.853281347818246"><ele>869.2</ele><time>2026-04-12T16:17:53.999Z</time></trkpt><trkpt lat="42.118472646037276" lon="12.853280210440143"><ele>861.6</ele><time>2026-04-12T16:17:54.999Z</time></trkpt><trkpt lat="42.11834635768962" lon="12.853292739185784"><ele>854.0</ele><time>2026-04-12T16:17:55.999Z</time></trkpt><trkpt lat="42.118223032374964" lon="12.853318389672072"><ele>851.75</ele><time>2026-04-12T16:17:56.999Z</time></trkpt><trkpt lat="42.11808833299036" lon="12.85334636516957"><ele>849.5</ele><time>2026-04-12T16:17:57.999Z</time></trkpt><trkpt lat="42.11794367369319" lon="12.853389674609591"><ele>847.25</ele><time>2026-04-12T16:17:58.999Z</time></trkpt><trkpt lat="42.11781374616312" lon="12.853439535962696"><ele>845.0</ele><time>2026-04-12T16:17:59.999Z</time></trkpt><trkpt lat="42.11763853359823" lon="12.85348719331302"><ele>853.5</ele><time>2026-04-12T16:18:00.999Z</time></trkpt><trkpt lat="42.11748498661925" lon="12.853523730329623"><ele>862.0</ele><time>2026-04-12T16:18:01.999Z</time></trkpt><trkpt lat="42.11735057512774" lon="12.85354516516194"><ele>870.5</ele><time>2026-04-12T16:18:02.999Z</time></trkpt><trkpt lat="42.11722173086837" lon="12.85355424611551"><ele>879.0</ele><time>2026-04-12T16:18:03.999Z</time></trkpt><trkpt lat="42.11707956818499" lon="12.853559017864129"><ele>879.0</ele><time>2026-04-12T16:18:04.999Z</time></trkpt><trkpt lat="42.116966597660124" lon="12.853540192180963"><ele>879.0</ele><time>2026-04-12T16:18:05.999Z</time></trkpt><trkpt lat="42.1168401346332" lon="12.853506705702529"><ele>879.0</ele><time>2026-04-12T16:18:07Z</time></trkpt><trkpt lat="42.11672049642562" lon="12.853465340168027"><ele>879.0</ele><time>2026-04-12T16:18:08Z</time></trkpt><trkpt lat="42.11661270128066" lon="12.85342697507102"><ele>876.8000000000001</ele><time>2026-04-12T16:18:09Z</time></trkpt><trkpt lat="42.11652323679941" lon="12.853380133314657"><ele>874.6000000000001</ele><time>2026-04-12T16:18:10Z</time></trkpt><trkpt lat="42.116461718493234" lon="12.853326691634292"><ele>872.4</ele><time>2026-04-12T16:18:11Z</time></trkpt><trkpt lat="42.11642003941331" lon="12.853261769987093"><ele>870.2</ele><time>2026-04-12T16:18:12Z</time></trkpt><trkpt lat="42.11644119113033" lon="12.85307389665181"><ele>868.0</ele><time>2026-04-12T16:18:14Z</time></trkpt><trkpt lat="42.11646122660603" lon="12.852967144211393"><ele>868.0</ele><time>2026-04-12T16:18:15Z</time></trkpt><trkpt lat="42.1164627092458" lon="12.85282066969158"><ele>868.0</ele><time>2026-04-12T16:18:16Z</time></trkpt><trkpt lat="42.1164506707983" lon="12.852647157021178"><ele>868.0</ele><time>2026-04-12T16:18:17Z</time></trkpt><trkpt lat="42.116433161599765" lon="12.852466010835776"><ele>868.0</ele><time>2026-04-12T16:18:18Z</time></trkpt><trkpt lat="42.1164384036772" lon="12.852300203496693"><ele>866.2</ele><time>2026-04-12T16:18:19Z</time></trkpt><trkpt lat="42.11644822680288" lon="12.852173743561915"><ele>864.4</ele><time>2026-04-12T16:18:20Z</time></trkpt><trkpt lat="42.11644008525958" lon="12.85207424816396"><ele>862.6000000000001</ele><time>2026-04-12T16:18:21Z</time></trkpt><trkpt lat="42.11635371435855" lon="12.851894081833303"><ele>860.8000000000001</ele><time>2026-04-12T16:18:23Z</time></trkpt><trkpt lat="42.116290728590094" lon="12.851803261799184"><ele>859.0</ele><time>2026-04-12T16:18:24Z</time></trkpt><trkpt lat="42.11622137423688" lon="12.85173974831408"><ele>854.0</ele><time>2026-04-12T16:18:25Z</time></trkpt><trkpt lat="42.11613393598707" lon="12.851715646771558"><ele>849.0000000000001</ele><time>2026-04-12T16:18:26Z</time></trkpt><trkpt lat="42.11602734393984" lon="12.851689188969804"><ele>844.0</ele><time>2026-04-12T16:18:27Z</time></trkpt><trkpt lat="42.11591075676627" lon="12.851681788361931"><ele>839.0</ele><time>2026-04-12T16:18:28Z</time></trkpt><trkpt lat="42.11578047678668" lon="12.85170745995097"><ele>834.0</ele><time>2026-04-12T16:18:29Z</time></trkpt><trkpt lat="42.11563754617966" lon="12.851736167655943"><ele>832.0</ele><time>2026-04-12T16:18:30Z</time></trkpt><trkpt lat="42.115492778496055" lon="12.851766945399847"><ele>830.0</ele><time>2026-04-12T16:18:31Z</time></trkpt><trkpt lat="42.11535721381336" lon="12.851806757328847"><ele>828.0</ele><time>2026-04-12T16:18:32Z</time></trkpt><trkpt lat="42.11523559118709" lon="12.851859468177294"><ele>826.0</ele><time>2026-04-12T16:18:33Z</time></trkpt><trkpt lat="42.11512495777544" lon="12.851917970063088"><ele>832.5999999999999</ele><time>2026-04-12T16:18:34Z</time></trkpt><trkpt lat="42.115019641716394" lon="12.851969213613252"><ele>839.2</ele><time>2026-04-12T16:18:35Z</time></trkpt><trkpt lat="42.114916440517504" lon="12.852003858579598"><ele>845.8000000000001</ele><time>2026-04-12T16:18:36Z</time></trkpt><trkpt lat="42.1148190089565" lon="12.852010541532476"><ele>852.4000000000001</ele><time>2026-04-12T16:18:37Z</time></trkpt><trkpt lat="42.114736552328374" lon="12.852000928625696"><ele>859.0</ele><time>2026-04-12T16:18:38Z</time></trkpt><trkpt lat="42.11466790471396" lon="12.851974416489423"><ele>860.0</ele><time>2026-04-12T16:18:39Z</time></trkpt><trkpt lat="42.11458522544846" lon="12.851806116710293"><ele>861.0</ele><time>2026-04-12T16:18:41Z</time></trkpt><trkpt lat="42.114537883298375" lon="12.851650585052852"><ele>862.0</ele><time>2026-04-12T16:18:42Z</time></trkpt><trkpt lat="42.11449179124109" lon="12.851507657776438"><ele>863.0</ele><time>2026-04-12T16:18:43Z</time></trkpt><trkpt lat="42.11448031919602" lon="12.851346439851373"><ele>859.4</ele><time>2026-04-12T16:18:44Z</time></trkpt><trkpt lat="42.11445964691731" lon="12.851200059283773"><ele>855.8</ele><time>2026-04-12T16:18:45Z</time></trkpt><trkpt lat="42.11440219034608" lon="12.851052231113014"><ele>852.2</ele><time>2026-04-12T16:18:45.999Z</time></trkpt><trkpt lat="42.11435456238391" lon="12.85096236876992"><ele>848.6</ele><time>2026-04-12T16:18:46.999Z</time></trkpt><trkpt lat="42.11429223314728" lon="12.850918976025794"><ele>845.0</ele><time>2026-04-12T16:18:47.999Z</time></trkpt><trkpt lat="42.11419908718033" lon="12.850876276185064"><ele>843.0</ele><time>2026-04-12T16:18:48.999Z</time></trkpt><trkpt lat="42.11409058791231" lon="12.850828793409296"><ele>841.0</ele><time>2026-04-12T16:18:49.999Z</time></trkpt><trkpt lat="42.113973429974855" lon="12.850762018197152"><ele>839.0</ele><time>2026-04-12T16:18:50.999Z</time></trkpt><trkpt lat="42.113869050429365" lon="12.850677977445653"><ele>837.0</ele><time>2026-04-12T16:18:51.999Z</time></trkpt><trkpt lat="42.113766631908824" lon="12.850626063804677"><ele>837.0</ele><time>2026-04-12T16:18:52.999Z</time></trkpt><trkpt lat="42.113649628236416" lon="12.850577211324225"><ele>837.0</ele><time>2026-04-12T16:18:53.999Z</time></trkpt><trkpt lat="42.11351760975845" lon="12.850551405044124"><ele>837.0</ele><time>2026-04-12T16:18:54.999Z</time></trkpt><trkpt lat="42.11337223338383" lon="12.850539379790982"><ele>837.0</ele><time>2026-04-12T16:18:55.999Z</time></trkpt><trkpt lat="42.11322633634098" lon="12.850504677227446"><ele>838.0</ele><time>2026-04-12T16:18:56.999Z</time></trkpt><trkpt lat="42.113096484342464" lon="12.850461113295509"><ele>839.0</ele><time>2026-04-12T16:18:57.999Z</time></trkpt><trkpt lat="42.11298476757237" lon="12.850445366293348"><ele>840.0</ele><time>2026-04-12T16:18:58.999Z</time></trkpt><trkpt lat="42.1128775722801" lon="12.850450375511722"><ele>841.0</ele><time>2026-04-12T16:18:59.999Z</time></trkpt><trkpt lat="42.11277905297899" lon="12.85049378234567"><ele>841.0</ele><time>2026-04-12T16:19:00.999Z</time></trkpt><trkpt lat="42.112674904448426" lon="12.850555566253414"><ele>841.0</ele><time>2026-04-12T16:19:01.999Z</time></trkpt><trkpt lat="42.11256765935679" lon="12.85063682282222"><ele>841.0</ele><time>2026-04-12T16:19:02.999Z</time></trkpt><trkpt lat="42.112448480717575" lon="12.850743720414984"><ele>841.0</ele><time>2026-04-12T16:19:03.999Z</time></trkpt><trkpt lat="42.11232503923854" lon="12.850820348266717"><ele>842.5</ele><time>2026-04-12T16:19:04.999Z</time></trkpt><trkpt lat="42.11218405926429" lon="12.850867738675278"><ele>844.0</ele><time>2026-04-12T16:19:05.999Z</time></trkpt><trkpt lat="42.11205339675394" lon="12.850906783750917"><ele>845.5</ele><time>2026-04-12T16:19:06.999Z</time></trkpt><trkpt lat="42.11191059954651" lon="12.85094354984872"><ele>847.0</ele><time>2026-04-12T16:19:07.999Z</time></trkpt><trkpt lat="42.1117564207339" lon="12.850980188340221"><ele>855.0</ele><time>2026-04-12T16:19:08.999Z</time></trkpt><trkpt lat="42.11160521628216" lon="12.851022854912204"><ele>863.0</ele><time>2026-04-12T16:19:09.999Z</time></trkpt><trkpt lat="42.11144360163619" lon="12.851088408716613"><ele>871.0</ele><time>2026-04-12T16:19:10.999Z</time></trkpt><trkpt lat="42.111283983512834" lon="12.85113636934667"><ele>871.0</ele><time>2026-04-12T16:19:11.999Z</time></trkpt><trkpt lat="42.11114435522856" lon="12.851177293386097"><ele>871.0</ele><time>2026-04-12T16:19:12.999Z</time></trkpt><trkpt lat="42.111014415168114" lon="12.851194552632224"><ele>871.0</ele><time>2026-04-12T16:19:13.999Z</time></trkpt><trkpt lat="42.110880851308586" lon="12.851221480050118"><ele>871.0</ele><time>2026-04-12T16:19:14.999Z</time></trkpt><trkpt lat="42.11074092915917" lon="12.85127090436039"><ele>870.0</ele><time>2026-04-12T16:19:15.999Z</time></trkpt><trkpt lat="42.11060613065225" lon="12.85135474488736"><ele>869.0</ele><time>2026-04-12T16:19:16.999Z</time></trkpt><trkpt lat="42.11048232615252" lon="12.851400939535495"><ele>868.0</ele><time>2026-04-12T16:19:17.999Z</time></trkpt><trkpt lat="42.11037338573726" lon="12.851440852978177"><ele>867.0</ele><time>2026-04-12T16:19:18.999Z</time></trkpt><trkpt lat="42.110278018853045" lon="12.851490881544423"><ele>867.0</ele><time>2026-04-12T16:19:19.999Z</time></trkpt><trkpt lat="42.11018350438037" lon="12.851550167750906"><ele>867.0</ele><time>2026-04-12T16:19:20.999Z</time></trkpt><trkpt lat="42.1100944071544" lon="12.851586800768738"><ele>867.0</ele><time>2026-04-12T16:19:21.999Z</time></trkpt><trkpt lat="42.11000548315812" lon="12.85159484592045"><ele>867.0</ele><time>2026-04-12T16:19:22.999Z</time></trkpt><trkpt lat="42.10991419814327" lon="12.851587233115497"><ele>867.0</ele><time>2026-04-12T16:19:23.999Z</time></trkpt><trkpt lat="42.109807516472806" lon="12.851559746793423"><ele>867.1666666666666</ele><time>2026-04-12T16:19:24.999Z</time></trkpt><trkpt lat="42.10971263929361" lon="12.851530332647279"><ele>867.3333333333333</ele><time>2026-04-12T16:19:25.999Z</time></trkpt><trkpt lat="42.10962565321343" lon="12.851520544932796"><ele>867.5</ele><time>2026-04-12T16:19:26.999Z</time></trkpt><trkpt lat="42.10955392091802" lon="12.851520825385373"><ele>867.6666666666666</ele><time>2026-04-12T16:19:27.999Z</time></trkpt><trkpt lat="42.10949266598128" lon="12.851497475556895"><ele>867.8333333333333</ele><time>2026-04-12T16:19:28.999Z</time></trkpt><trkpt lat="42.1094324471705" lon="12.85144914420762"><ele>868.0</ele><time>2026-04-12T16:19:29.999Z</time></trkpt><trkpt lat="42.10944322822741" lon="12.851331580953687"><ele>868.0</ele><time>2026-04-12T16:19:31.999Z</time></trkpt><trkpt lat="42.10953202675367" lon="12.85123227542648"><ele>868.0</ele><time>2026-04-12T16:19:33.999Z</time></trkpt><trkpt lat="42.10961472519519" lon="12.851174578604455"><ele>868.0</ele><time>2026-04-12T16:19:34.999Z</time></trkpt><trkpt lat="42.10972309293953" lon="12.85113417027382"><ele>868.0</ele><time>2026-04-12T16:19:35.999Z</time></trkpt><trkpt lat="42.10985318190267" lon="12.851083837884246"><ele>867.6666666666666</ele><time>2026-04-12T16:19:36.999Z</time></trkpt><trkpt lat="42.110005661537365" lon="12.85103172976913"><ele>867.3333333333333</ele><time>2026-04-12T16:19:37.999Z</time></trkpt><trkpt lat="42.11015061155529" lon="12.850972826185387"><ele>867.0</ele><time>2026-04-12T16:19:38.999Z</time></trkpt><trkpt lat="42.110288015876854" lon="12.850900382214878"><ele>863.6666666666667</ele><time>2026-04-12T16:19:39.999Z</time></trkpt><trkpt lat="42.11044355899906" lon="12.850826707259985"><ele>860.3333333333334</ele><time>2026-04-12T16:19:40.999Z</time></trkpt><trkpt lat="42.11058287474796" lon="12.850757237364627"><ele>857.0</ele><time>2026-04-12T16:19:41.999Z</time></trkpt><trkpt lat="42.110720106884564" lon="12.850682486700846"><ele>855.5</ele><time>2026-04-12T16:19:42.999Z</time></trkpt><trkpt lat="42.11086623640497" lon="12.85062248838153"><ele>854.0</ele><time>2026-04-12T16:19:43.999Z</time></trkpt><trkpt lat="42.110946554809075" lon="12.850559633814424"><ele>852.5</ele><time>2026-04-12T16:19:44.999Z</time></trkpt><trkpt lat="42.11105769027671" lon="12.850488837660695"><ele>851.0</ele><time>2026-04-12T16:19:45.999Z</time></trkpt><trkpt lat="42.11116062099498" lon="12.85045763267124"><ele>851.0</ele><time>2026-04-12T16:19:46.999Z</time></trkpt><trkpt lat="42.111265621428174" lon="12.850426078312104"><ele>851.0</ele><time>2026-04-12T16:19:47.999Z</time></trkpt><trkpt lat="42.111373700814305" lon="12.850380211724058"><ele>851.0</ele><time>2026-04-12T16:19:48.999Z</time></trkpt><trkpt lat="42.11148595948287" lon="12.850233046492955"><ele>851.0</ele><time>2026-04-12T16:19:49.999Z</time></trkpt><trkpt lat="42.11162626177498" lon="12.850125277762649"><ele>849.25</ele><time>2026-04-12T16:19:50.999Z</time></trkpt><trkpt lat="42.11175012522299" lon="12.850017864612768"><ele>847.5</ele><time>2026-04-12T16:19:51.999Z</time></trkpt><trkpt lat="42.11187167113749" lon="12.84991577970024"><ele>845.75</ele><time>2026-04-12T16:19:52.999Z</time></trkpt><trkpt lat="42.11199749138501" lon="12.849816652694171"><ele>844.0</ele><time>2026-04-12T16:19:53.999Z</time></trkpt><trkpt lat="42.1120971420059" lon="12.84973534719669"><ele>844.0</ele><time>2026-04-12T16:19:54.999Z</time></trkpt><trkpt lat="42.112188910921155" lon="12.84966796450159"><ele>844.0</ele><time>2026-04-12T16:19:55.999Z</time></trkpt><trkpt lat="42.112272175594775" lon="12.849583597487449"><ele>844.0</ele><time>2026-04-12T16:19:56.999Z</time></trkpt><trkpt lat="42.11231922339411" lon="12.849427486306515"><ele>844.0</ele><time>2026-04-12T16:19:57.999Z</time></trkpt><trkpt lat="42.11241461321244" lon="12.84925436641603"><ele>841.0</ele><time>2026-04-12T16:19:58.999Z</time></trkpt><trkpt lat="42.112488006059806" lon="12.849075584274125"><ele>838.0</ele><time>2026-04-12T16:19:59.999Z</time></trkpt><trkpt lat="42.11258632248151" lon="12.848940907053615"><ele>835.0</ele><time>2026-04-12T16:20:00.999Z</time></trkpt><trkpt lat="42.11267942555738" lon="12.848833664643065"><ele>832.0</ele><time>2026-04-12T16:20:01.999Z</time></trkpt><trkpt lat="42.112777201830795" lon="12.8487313793931"><ele>832.0</ele><time>2026-04-12T16:20:02.999Z</time></trkpt><trkpt lat="42.11289642126712" lon="12.848645814639344"><ele>832.0</ele><time>2026-04-12T16:20:03.999Z</time></trkpt><trkpt lat="42.113015298170716" lon="12.848592836778758"><ele>832.0</ele><time>2026-04-12T16:20:04.999Z</time></trkpt><trkpt lat="42.113135711655104" lon="12.848555455378518"><ele>832.0</ele><time>2026-04-12T16:20:05.999Z</time></trkpt><trkpt lat="42.11327176631063" lon="12.848467084078587"><ele>832.25</ele><time>2026-04-12T16:20:06.999Z</time></trkpt><trkpt lat="42.11338768613046" lon="12.848396770054622"><ele>832.5</ele><time>2026-04-12T16:20:07.999Z</time></trkpt><trkpt lat="42.1135122944424" lon="12.848345924716137"><ele>832.75</ele><time>2026-04-12T16:20:08.999Z</time></trkpt><trkpt lat="42.113644530618586" lon="12.848309804772423"><ele>833.0</ele><time>2026-04-12T16:20:09.999Z</time></trkpt><trkpt lat="42.11376230829349" lon="12.848290609884819"><ele>833.0</ele><time>2026-04-12T16:20:10.999Z</time></trkpt><trkpt lat="42.11390848417767" lon="12.848231206162403"><ele>833.0</ele><time>2026-04-12T16:20:11.999Z</time></trkpt><trkpt lat="42.114002598063614" lon="12.848122925913447"><ele>833.0</ele><time>2026-04-12T16:20:13Z</time></trkpt><trkpt lat="42.114096286683576" lon="12.848022306742402"><ele>833.0</ele><time>2026-04-12T16:20:14Z</time></trkpt><trkpt lat="42.114186886349884" lon="12.847918355731512"><ele>829.0</ele><time>2026-04-12T16:20:15Z</time></trkpt><trkpt lat="42.11431067400208" lon="12.847853231252621"><ele>825.0</ele><time>2026-04-12T16:20:16Z</time></trkpt><trkpt lat="42.11443345180655" lon="12.84781843286836"><ele>821.0</ele><time>2026-04-12T16:20:17Z</time></trkpt><trkpt lat="42.1145547837667" lon="12.847826240156685"><ele>817.0</ele><time>2026-04-12T16:20:18Z</time></trkpt><trkpt lat="42.1146827357603" lon="12.847846470238805"><ele>817.0</ele><time>2026-04-12T16:20:19Z</time></trkpt><trkpt lat="42.114824288184934" lon="12.847877244536269"><ele>817.0</ele><time>2026-04-12T16:20:20Z</time></trkpt><trkpt lat="42.11497428144812" lon="12.84788951377722"><ele>817.0</ele><time>2026-04-12T16:20:21Z</time></trkpt><trkpt lat="42.1151088592536" lon="12.847915831065237"><ele>817.0</ele><time>2026-04-12T16:20:22Z</time></trkpt><trkpt lat="42.11524603567792" lon="12.847932185194002"><ele>816.6</ele><time>2026-04-12T16:20:23Z</time></trkpt><trkpt lat="42.11536506856285" lon="12.847941435804897"><ele>816.2</ele><time>2026-04-12T16:20:24Z</time></trkpt><trkpt lat="42.11546580475022" lon="12.84792856454806"><ele>815.8</ele><time>2026-04-12T16:20:25Z</time></trkpt><trkpt lat="42.115559120570225" lon="12.847874339716421"><ele>815.4</ele><time>2026-04-12T16:20:26Z</time></trkpt><trkpt lat="42.11564394267992" lon="12.847813743363865"><ele>815.0</ele><time>2026-04-12T16:20:27Z</time></trkpt><trkpt lat="42.115752630039836" lon="12.847727393666174"><ele>815.0</ele><time>2026-04-12T16:20:28Z</time></trkpt><trkpt lat="42.11586205243428" lon="12.847661251333747"><ele>815.0</ele><time>2026-04-12T16:20:29Z</time></trkpt><trkpt lat="42.11599717120172" lon="12.84760194160008"><ele>815.0</ele><time>2026-04-12T16:20:30Z</time></trkpt><trkpt lat="42.11616211771173" lon="12.847575580758768"><ele>815.0</ele><time>2026-04-12T16:20:31Z</time></trkpt><trkpt lat="42.1163008442401" lon="12.847530552595918"><ele>830.0</ele><time>2026-04-12T16:20:32Z</time></trkpt><trkpt lat="42.11643628119957" lon="12.847494150067062"><ele>845.0</ele><time>2026-04-12T16:20:33Z</time></trkpt><trkpt lat="42.116584721283125" lon="12.847472228128575"><ele>860.0</ele><time>2026-04-12T16:20:34Z</time></trkpt><trkpt lat="42.11675300062436" lon="12.8474728006899"><ele>860.0</ele><time>2026-04-12T16:20:35Z</time></trkpt><trkpt lat="42.11691548533061" lon="12.847494101165674"><ele>860.0</ele><time>2026-04-12T16:20:36Z</time></trkpt><trkpt lat="42.11704738049746" lon="12.847514143255797"><ele>860.0</ele><time>2026-04-12T16:20:37Z</time></trkpt><trkpt lat="42.11717835867884" lon="12.847529688893912"><ele>860.0</ele><time>2026-04-12T16:20:38Z</time></trkpt><trkpt lat="42.117321512821725" lon="12.847553409123636"><ele>861.5</ele><time>2026-04-12T16:20:39Z</time></trkpt><trkpt lat="42.11746592295879" lon="12.847567585868747"><ele>863.0</ele><time>2026-04-12T16:20:40Z</time></trkpt><trkpt lat="42.117618599571095" lon="12.847571393328128"><ele>864.5</ele><time>2026-04-12T16:20:41Z</time></trkpt><trkpt lat="42.117744055797345" lon="12.847584355305283"><ele>866.0</ele><time>2026-04-12T16:20:42Z</time></trkpt><trkpt lat="42.11786142452644" lon="12.847588599443256"><ele>866.0</ele><time>2026-04-12T16:20:43Z</time></trkpt><trkpt lat="42.11796096829919" lon="12.84757416790148"><ele>866.0</ele><time>2026-04-12T16:20:44Z</time></trkpt><trkpt lat="42.118062139983024" lon="12.847537230992476"><ele>866.0</ele><time>2026-04-12T16:20:45Z</time></trkpt><trkpt lat="42.11816799717107" lon="12.847482939771798"><ele>866.0</ele><time>2026-04-12T16:20:46Z</time></trkpt><trkpt lat="42.11828961762118" lon="12.847410172394287"><ele>864.25</ele><time>2026-04-12T16:20:47Z</time></trkpt><trkpt lat="42.11841341198267" lon="12.847330359467955"><ele>862.5</ele><time>2026-04-12T16:20:48Z</time></trkpt><trkpt lat="42.11853376994953" lon="12.847242172213246"><ele>860.75</ele><time>2026-04-12T16:20:49Z</time></trkpt><trkpt lat="42.11867304902015" lon="12.847138143520922"><ele>859.0</ele><time>2026-04-12T16:20:50Z</time></trkpt><trkpt lat="42.1188221000069" lon="12.847059431920222"><ele>859.0</ele><time>2026-04-12T16:20:51Z</time></trkpt><trkpt lat="42.11898913101063" lon="12.846955087263122"><ele>859.0</ele><time>2026-04-12T16:20:52Z</time></trkpt><trkpt lat="42.11911576509431" lon="12.846878443145732"><ele>859.0</ele><time>2026-04-12T16:20:53Z</time></trkpt><trkpt lat="42.1192004772473" lon="12.846796483016805"><ele>859.0</ele><time>2026-04-12T16:20:54Z</time></trkpt><trkpt lat="42.11929756022861" lon="12.846686054475185"><ele>862.75</ele><time>2026-04-12T16:20:55Z</time></trkpt><trkpt lat="42.119387015508735" lon="12.84656203968062"><ele>866.5</ele><time>2026-04-12T16:20:56Z</time></trkpt><trkpt lat="42.11946202019591" lon="12.846449044566576"><ele>870.25</ele><time>2026-04-12T16:20:57Z</time></trkpt><trkpt lat="42.11955671636563" lon="12.84637050262647"><ele>874.0</ele><time>2026-04-12T16:20:58Z</time></trkpt><trkpt lat="42.11964407595444" lon="12.846293722224187"><ele>874.0</ele><time>2026-04-12T16:20:59Z</time></trkpt><trkpt lat="42.1197747742049" lon="12.846222671226887"><ele>874.0</ele><time>2026-04-12T16:21:00Z</time></trkpt><trkpt lat="42.1198925415106" lon="12.846135257137039"><ele>874.0</ele><time>2026-04-12T16:21:01Z</time></trkpt><trkpt lat="42.12002804862739" lon="12.846015800381412"><ele>874.0</ele><time>2026-04-12T16:21:02Z</time></trkpt><trkpt lat="42.120150043586165" lon="12.845918765036753"><ele>877.25</ele><time>2026-04-12T16:21:03Z</time></trkpt><trkpt lat="42.12027467415532" lon="12.845832585608791"><ele>880.5</ele><time>2026-04-12T16:21:03.999Z</time></trkpt><trkpt lat="42.12038348244784" lon="12.845737034588778"><ele>883.75</ele><time>2026-04-12T16:21:04.999Z</time></trkpt><trkpt lat="42.12052511128976" lon="12.845635904658756"><ele>887.0</ele><time>2026-04-12T16:21:05.999Z</time></trkpt><trkpt lat="42.120636338145985" lon="12.84552387977416"><ele>887.0</ele><time>2026-04-12T16:21:06.999Z</time></trkpt><trkpt lat="42.12072113279696" lon="12.845418752757883"><ele>887.0</ele><time>2026-04-12T16:21:07.999Z</time></trkpt><trkpt lat="42.12082628038665" lon="12.84530316496177"><ele>887.0</ele><time>2026-04-12T16:21:08.999Z</time></trkpt><trkpt lat="42.12089428894213" lon="12.845203264513342"><ele>887.0</ele><time>2026-04-12T16:21:09.999Z</time></trkpt><trkpt lat="42.120948181691425" lon="12.845105844131885"><ele>887.0</ele><time>2026-04-12T16:21:10.999Z</time></trkpt><trkpt lat="42.12099236033682" lon="12.845025157072474"><ele>887.5</ele><time>2026-04-12T16:21:11.999Z</time></trkpt><trkpt lat="42.12102774300097" lon="12.844845096874314"><ele>888.0</ele><time>2026-04-12T16:21:13.999Z</time></trkpt><trkpt lat="42.121002411239566" lon="12.84472486306509"><ele>888.5</ele><time>2026-04-12T16:21:14.999Z</time></trkpt><trkpt lat="42.1209831664024" lon="12.844582679689273"><ele>889.0</ele><time>2026-04-12T16:21:15.999Z</time></trkpt><trkpt lat="42.12097379930272" lon="12.844403097027723"><ele>891.8000000000001</ele><time>2026-04-12T16:21:16.999Z</time></trkpt><trkpt lat="42.1209605524844" lon="12.84424506140358"><ele>894.6000000000001</ele><time>2026-04-12T16:21:17.999Z</time></trkpt><trkpt lat="42.120992279532665" lon="12.844112727320887"><ele>897.4</ele><time>2026-04-12T16:21:18.999Z</time></trkpt><trkpt lat="42.12102423719481" lon="12.84399261913084"><ele>900.2</ele><time>2026-04-12T16:21:19.999Z</time></trkpt><trkpt lat="42.12106998406858" lon="12.843865080001038"><ele>903.0</ele><time>2026-04-12T16:21:20.999Z</time></trkpt><trkpt lat="42.12115606995935" lon="12.843738388767145"><ele>903.0</ele><time>2026-04-12T16:21:21.999Z</time></trkpt><trkpt lat="42.12123408070049" lon="12.843574713552053"><ele>903.0</ele><time>2026-04-12T16:21:22.999Z</time></trkpt><trkpt lat="42.12127657567117" lon="12.843424159615719"><ele>903.0</ele><time>2026-04-12T16:21:23.999Z</time></trkpt><trkpt lat="42.12130364502928" lon="12.843271501180523"><ele>903.0</ele><time>2026-04-12T16:21:24.999Z</time></trkpt><trkpt lat="42.12130674776165" lon="12.843119282344379"><ele>906.5999999999999</ele><time>2026-04-12T16:21:25.999Z</time></trkpt><trkpt lat="42.1212710180558" lon="12.84295591416274"><ele>910.1999999999999</ele><time>2026-04-12T16:21:26.999Z</time></trkpt><trkpt lat="42.121253189722445" lon="12.842795281350403"><ele>913.8</ele><time>2026-04-12T16:21:27.999Z</time></trkpt><trkpt lat="42.121263337249296" lon="12.84266888400717"><ele>917.4</ele><time>2026-04-12T16:21:28.999Z</time></trkpt><trkpt lat="42.121300650084166" lon="12.842554970236638"><ele>921.0</ele><time>2026-04-12T16:21:29.999Z</time></trkpt><trkpt lat="42.121347052596775" lon="12.842421826603113"><ele>923.0</ele><time>2026-04-12T16:21:30.999Z</time></trkpt><trkpt lat="42.12141121366237" lon="12.842251574084901"><ele>925.0</ele><time>2026-04-12T16:21:31.999Z</time></trkpt><trkpt lat="42.12147663671396" lon="12.84208676589107"><ele>927.0</ele><time>2026-04-12T16:21:32.999Z</time></trkpt><trkpt lat="42.12154760452319" lon="12.84193415659855"><ele>929.0</ele><time>2026-04-12T16:21:33.999Z</time></trkpt><trkpt lat="42.12163407288077" lon="12.841816714943635"><ele>922.0</ele><time>2026-04-12T16:21:34.999Z</time></trkpt><trkpt lat="42.12172890137292" lon="12.841697937105181"><ele>915.0</ele><time>2026-04-12T16:21:35.999Z</time></trkpt><trkpt lat="42.12181680414529" lon="12.841572518599833"><ele>908.0</ele><time>2026-04-12T16:21:36.999Z</time></trkpt><trkpt lat="42.121886874124066" lon="12.841457118015029"><ele>901.0</ele><time>2026-04-12T16:21:37.999Z</time></trkpt><trkpt lat="42.121931253618925" lon="12.8413619961043"><ele>900.9999999999999</ele><time>2026-04-12T16:21:38.999Z</time></trkpt><trkpt lat="42.121950352799075" lon="12.841235336553062"><ele>901.0</ele><time>2026-04-12T16:21:40.999Z</time></trkpt><trkpt lat="42.12189131758675" lon="12.84117176070766"><ele>901.0</ele><time>2026-04-12T16:21:43.999Z</time></trkpt><trkpt lat="42.12182931978854" lon="12.841138155208947"><ele>901.0</ele><time>2026-04-12T16:21:45.999Z</time></trkpt><trkpt lat="42.121753841816336" lon="12.841101695851908"><ele>900.9999999999999</ele><time>2026-04-12T16:21:48.999Z</time></trkpt><trkpt lat="42.12168755660018" lon="12.841081152217066"><ele>901.0</ele><time>2026-04-12T16:22:00.999Z</time></trkpt><trkpt lat="42.121622959130626" lon="12.840999290935162"><ele>900.6666666666666</ele><time>2026-04-12T16:22:02.999Z</time></trkpt><trkpt lat="42.12157176706788" lon="12.840926635133101"><ele>900.3333333333333</ele><time>2026-04-12T16:22:04.999Z</time></trkpt><trkpt lat="42.12148939246315" lon="12.840904567343408"><ele>900.0</ele><time>2026-04-12T16:22:08.999Z</time></trkpt><trkpt lat="42.12141493767273" lon="12.840906280400192"><ele>899.6666666666667</ele><time>2026-04-12T16:22:12.999Z</time></trkpt><trkpt lat="42.12133649472852" lon="12.840896374817639"><ele>899.3333333333334</ele><time>2026-04-12T16:22:18Z</time></trkpt><trkpt lat="42.12127622656352" lon="12.840955397850328"><ele>899.0</ele><time>2026-04-12T16:22:23Z</time></trkpt><trkpt lat="42.12118812430717" lon="12.841013937208185"><ele>899.0000000000001</ele><time>2026-04-12T16:22:25Z</time></trkpt><trkpt lat="42.12112876047367" lon="12.841067825091166"><ele>899.0</ele><time>2026-04-12T16:22:27Z</time></trkpt><trkpt lat="42.121057213043606" lon="12.841042217875561"><ele>899.0</ele><time>2026-04-12T16:22:29Z</time></trkpt><trkpt lat="42.12098046095482" lon="12.840991552895652"><ele>899.0</ele><time>2026-04-12T16:22:31Z</time></trkpt><trkpt lat="42.12088228949353" lon="12.840961048123791"><ele>899.0000000000001</ele><time>2026-04-12T16:22:33Z</time></trkpt><trkpt lat="42.12081757324747" lon="12.840946982439409"><ele>899.0</ele><time>2026-04-12T16:22:35Z</time></trkpt><trkpt lat="42.120745606960995" lon="12.840986286006455"><ele>902.25</ele><time>2026-04-12T16:23:01Z</time></trkpt><trkpt lat="42.12061181713907" lon="12.840892620428146"><ele>905.5</ele><time>2026-04-12T16:23:03Z</time></trkpt><trkpt lat="42.12052420691434" lon="12.840782493755547"><ele>908.75</ele><time>2026-04-12T16:23:04Z</time></trkpt><trkpt lat="42.120424407425574" lon="12.840680022426266"><ele>912.0</ele><time>2026-04-12T16:23:05Z</time></trkpt><trkpt lat="42.12033518634018" lon="12.84057435750552"><ele>912.0</ele><time>2026-04-12T16:23:05.999Z</time></trkpt><trkpt lat="42.12025125191035" lon="12.840490400126317"><ele>912.0</ele><time>2026-04-12T16:23:06.999Z</time></trkpt><trkpt lat="42.12016271868644" lon="12.84040168436328"><ele>912.0</ele><time>2026-04-12T16:23:07.999Z</time></trkpt><trkpt lat="42.12007652250247" lon="12.840315663382905"><ele>912.0</ele><time>2026-04-12T16:23:08.999Z</time></trkpt><trkpt lat="42.11999549294684" lon="12.840234937867047"><ele>912.0</ele><time>2026-04-12T16:23:09.999Z</time></trkpt><trkpt lat="42.119913329218754" lon="12.840158270551278"><ele>906.5</ele><time>2026-04-12T16:23:10.999Z</time></trkpt><trkpt lat="42.119807826006884" lon="12.84006414528994"><ele>901.0</ele><time>2026-04-12T16:23:11.999Z</time></trkpt><trkpt lat="42.119692674678014" lon="12.839992162681751"><ele>895.5</ele><time>2026-04-12T16:23:12.999Z</time></trkpt><trkpt lat="42.11959836382317" lon="12.839891779213582"><ele>890.0</ele><time>2026-04-12T16:23:13.999Z</time></trkpt><trkpt lat="42.11948386076932" lon="12.839808772258298"><ele>890.0</ele><time>2026-04-12T16:23:14.999Z</time></trkpt><trkpt lat="42.11938543330023" lon="12.839747290379831"><ele>890.0</ele><time>2026-04-12T16:23:15.999Z</time></trkpt><trkpt lat="42.119274380297156" lon="12.839693864603467"><ele>890.0</ele><time>2026-04-12T16:23:16.999Z</time></trkpt><trkpt lat="42.119167780492354" lon="12.839663715509664"><ele>890.0</ele><time>2026-04-12T16:23:17.999Z</time></trkpt><trkpt lat="42.11902875281021" lon="12.839639520855625"><ele>889.0</ele><time>2026-04-12T16:23:18.999Z</time></trkpt><trkpt lat="42.11889708482883" lon="12.83962325805637"><ele>888.0</ele><time>2026-04-12T16:23:19.999Z</time></trkpt><trkpt lat="42.11876667617939" lon="12.83960969552932"><ele>887.0</ele><time>2026-04-12T16:23:20.999Z</time></trkpt><trkpt lat="42.1186183491851" lon="12.839604751478873"><ele>886.0</ele><time>2026-04-12T16:23:21.999Z</time></trkpt><trkpt lat="42.11848938917428" lon="12.839589437682253"><ele>886.0</ele><time>2026-04-12T16:23:22.999Z</time></trkpt><trkpt lat="42.1183953967307" lon="12.839569376627837"><ele>886.0</ele><time>2026-04-12T16:23:23.999Z</time></trkpt><trkpt lat="42.11829602704823" lon="12.839548167864987"><ele>886.0</ele><time>2026-04-12T16:23:24.999Z</time></trkpt><trkpt lat="42.118178151960876" lon="12.839527732805125"><ele>886.0</ele><time>2026-04-12T16:23:25.999Z</time></trkpt><trkpt lat="42.11803204876307" lon="12.839547242061522"><ele>883.0</ele><time>2026-04-12T16:23:26.999Z</time></trkpt><trkpt lat="42.11789992528159" lon="12.83959535135619"><ele>880.0</ele><time>2026-04-12T16:23:27.999Z</time></trkpt><trkpt lat="42.11777081999687" lon="12.839643133432595"><ele>877.0</ele><time>2026-04-12T16:23:28.999Z</time></trkpt><trkpt lat="42.11762769416397" lon="12.83967782463273"><ele>874.0</ele><time>2026-04-12T16:23:29.999Z</time></trkpt><trkpt lat="42.117499299118464" lon="12.839694077595716"><ele>870.75</ele><time>2026-04-12T16:23:30.999Z</time></trkpt><trkpt lat="42.117389563232294" lon="12.839689953733624"><ele>867.5</ele><time>2026-04-12T16:23:31.999Z</time></trkpt><trkpt lat="42.11728665099626" lon="12.839674060727509"><ele>864.25</ele><time>2026-04-12T16:23:32.999Z</time></trkpt><trkpt lat="42.117166126621974" lon="12.839642807993998"><ele>861.0</ele><time>2026-04-12T16:23:33.999Z</time></trkpt><trkpt lat="42.11703238148999" lon="12.839580639913379"><ele>861.0</ele><time>2026-04-12T16:23:34.999Z</time></trkpt><trkpt lat="42.116915185607446" lon="12.839525918662826"><ele>860.9999999999999</ele><time>2026-04-12T16:23:35.999Z</time></trkpt><trkpt lat="42.116800417500016" lon="12.839487435107085"><ele>860.9999999999999</ele><time>2026-04-12T16:23:36.999Z</time></trkpt><trkpt lat="42.116699670803094" lon="12.839458188297371"><ele>861.0</ele><time>2026-04-12T16:23:37.999Z</time></trkpt><trkpt lat="42.116599103021606" lon="12.839429425624813"><ele>861.0</ele><time>2026-04-12T16:23:38.999Z</time></trkpt><trkpt lat="42.11648569702432" lon="12.839411020523816"><ele>860.8</ele><time>2026-04-12T16:23:39.999Z</time></trkpt><trkpt lat="42.11639415389335" lon="12.839369543082483"><ele>860.5999999999999</ele><time>2026-04-12T16:23:40.999Z</time></trkpt><trkpt lat="42.11632983364007" lon="12.839334732908492"><ele>860.4</ele><time>2026-04-12T16:23:41.999Z</time></trkpt><trkpt lat="42.11626429926855" lon="12.839244113597049"><ele>860.2</ele><time>2026-04-12T16:23:43.999Z</time></trkpt><trkpt lat="42.11621173159304" lon="12.839166096759717"><ele>860.0</ele><time>2026-04-12T16:23:44.999Z</time></trkpt><trkpt lat="42.11621407644608" lon="12.839002271003196"><ele>860.0</ele><time>2026-04-12T16:23:45.999Z</time></trkpt><trkpt lat="42.11625360672038" lon="12.838872142638078"><ele>860.0</ele><time>2026-04-12T16:23:46.999Z</time></trkpt><trkpt lat="42.116255924952654" lon="12.838724581471306"><ele>860.0</ele><time>2026-04-12T16:23:47.999Z</time></trkpt><trkpt lat="42.11624435767426" lon="12.838611742982279"><ele>860.0</ele><time>2026-04-12T16:23:48.999Z</time></trkpt><trkpt lat="42.116224936870616" lon="12.838506712345696"><ele>860.0</ele><time>2026-04-12T16:23:49.999Z</time></trkpt><trkpt lat="42.11618912003751" lon="12.83838152365918"><ele>858.25</ele><time>2026-04-12T16:23:50.999Z</time></trkpt><trkpt lat="42.11616002835821" lon="12.838273224020709"><ele>856.5</ele><time>2026-04-12T16:23:51.999Z</time></trkpt><trkpt lat="42.116077932109185" lon="12.838174384408873"><ele>854.75</ele><time>2026-04-12T16:23:52.999Z</time></trkpt><trkpt lat="42.11598134863357" lon="12.838060762170025"><ele>853.0</ele><time>2026-04-12T16:23:53.999Z</time></trkpt><trkpt lat="42.115877321295244" lon="12.837947291585497"><ele>853.0</ele><time>2026-04-12T16:23:54.999Z</time></trkpt><trkpt lat="42.11577606488057" lon="12.837836134470843"><ele>853.0</ele><time>2026-04-12T16:23:55.999Z</time></trkpt><trkpt lat="42.115699918383584" lon="12.837745341927393"><ele>853.0</ele><time>2026-04-12T16:23:56.999Z</time></trkpt><trkpt lat="42.11563927243427" lon="12.837617159118572"><ele>853.0</ele><time>2026-04-12T16:23:57.999Z</time></trkpt><trkpt lat="42.11556880596862" lon="12.83750129372034"><ele>851.0</ele><time>2026-04-12T16:23:58.999Z</time></trkpt><trkpt lat="42.1155089138799" lon="12.837373160776243"><ele>849.0</ele><time>2026-04-12T16:23:59.999Z</time></trkpt><trkpt lat="42.115461193694" lon="12.83727106835531"><ele>847.0</ele><time>2026-04-12T16:24:00.999Z</time></trkpt><trkpt lat="42.115394937521806" lon="12.837133071530042"><ele>845.0</ele><time>2026-04-12T16:24:02.999Z</time></trkpt><trkpt lat="42.1152755858061" lon="12.83706381255685"><ele>845.0</ele><time>2026-04-12T16:24:03.999Z</time></trkpt><trkpt lat="42.11517614099286" lon="12.837054733036489"><ele>845.0</ele><time>2026-04-12T16:24:04.999Z</time></trkpt><trkpt lat="42.11507275790997" lon="12.837072224632935"><ele>845.0</ele><time>2026-04-12T16:24:05.999Z</time></trkpt><trkpt lat="42.11494865716743" lon="12.837151233464926"><ele>845.0</ele><time>2026-04-12T16:24:06.999Z</time></trkpt><trkpt lat="42.114868627048864" lon="12.837211601510582"><ele>845.0</ele><time>2026-04-12T16:24:07.999Z</time></trkpt><trkpt lat="42.11479259647689" lon="12.837267711603511"><ele>846.6</ele><time>2026-04-12T16:24:09.999Z</time></trkpt><trkpt lat="42.114708909105325" lon="12.837256103881646"><ele>848.2</ele><time>2026-04-12T16:24:10.999Z</time></trkpt><trkpt lat="42.114616351516894" lon="12.837173869941584"><ele>849.8</ele><time>2026-04-12T16:24:11.999Z</time></trkpt><trkpt lat="42.114514012187804" lon="12.837111664805592"><ele>851.4</ele><time>2026-04-12T16:24:12.999Z</time></trkpt><trkpt lat="42.11440917289295" lon="12.837056570150194"><ele>853.0</ele><time>2026-04-12T16:24:13.999Z</time></trkpt><trkpt lat="42.11431483797341" lon="12.836983977994773"><ele>853.0</ele><time>2026-04-12T16:24:14.999Z</time></trkpt><trkpt lat="42.11421940327494" lon="12.836938363078861"><ele>853.0</ele><time>2026-04-12T16:24:15.999Z</time></trkpt><trkpt lat="42.114122958164025" lon="12.836910686773006"><ele>853.0</ele><time>2026-04-12T16:24:16.999Z</time></trkpt><trkpt lat="42.11403786018868" lon="12.836907820535846"><ele>853.0</ele><time>2026-04-12T16:24:17.999Z</time></trkpt><trkpt lat="42.11392230401589" lon="12.836940142098724"><ele>853.0</ele><time>2026-04-12T16:24:18.999Z</time></trkpt><trkpt lat="42.113790340562105" lon="12.837023794388713"><ele>851.8333333333333</ele><time>2026-04-12T16:24:19.999Z</time></trkpt><trkpt lat="42.113693271709295" lon="12.837083170310198"><ele>850.6666666666666</ele><time>2026-04-12T16:24:20.999Z</time></trkpt><trkpt lat="42.11361932763541" lon="12.837125676234432"><ele>849.5</ele><time>2026-04-12T16:24:21.999Z</time></trkpt><trkpt lat="42.113536203303795" lon="12.83719182078265"><ele>848.3333333333333</ele><time>2026-04-12T16:24:25Z</time></trkpt><trkpt lat="42.11350412671969" lon="12.837108483952596"><ele>847.1666666666666</ele><time>2026-04-12T16:24:26Z</time></trkpt><trkpt lat="42.11344833256122" lon="12.837012913179253"><ele>846.0</ele><time>2026-04-12T16:24:27Z</time></trkpt><trkpt lat="42.11336860347681" lon="12.836870981068646"><ele>843.3333333333333</ele><time>2026-04-12T16:24:28Z</time></trkpt><trkpt lat="42.11327342236402" lon="12.836736244215508"><ele>840.6666666666666</ele><time>2026-04-12T16:24:29Z</time></trkpt><trkpt lat="42.113160263825336" lon="12.836600045006607"><ele>838.0</ele><time>2026-04-12T16:24:30Z</time></trkpt><trkpt lat="42.113041151340234" lon="12.836446084107585"><ele>842.5</ele><time>2026-04-12T16:24:31Z</time></trkpt><trkpt lat="42.112906804283526" lon="12.836315700134808"><ele>847.0</ele><time>2026-04-12T16:24:32Z</time></trkpt><trkpt lat="42.112792793132066" lon="12.836188197288552"><ele>851.5</ele><time>2026-04-12T16:24:33Z</time></trkpt><trkpt lat="42.1127099652673" lon="12.8360443430522"><ele>856.0</ele><time>2026-04-12T16:24:34Z</time></trkpt><trkpt lat="42.11263345347976" lon="12.83592487136269"><ele>856.0</ele><time>2026-04-12T16:24:35Z</time></trkpt><trkpt lat="42.11255715531749" lon="12.83582716511315"><ele>855.9999999999999</ele><time>2026-04-12T16:24:36Z</time></trkpt><trkpt lat="42.11247562378916" lon="12.835740187661113"><ele>855.9999999999999</ele><time>2026-04-12T16:24:37Z</time></trkpt><trkpt lat="42.11237199292464" lon="12.835672586547055"><ele>856.0</ele><time>2026-04-12T16:24:38Z</time></trkpt><trkpt lat="42.112282053241195" lon="12.835563178045756"><ele>856.0</ele><time>2026-04-12T16:24:39Z</time></trkpt><trkpt lat="42.11217409123494" lon="12.835478958579456"><ele>855.1999999999999</ele><time>2026-04-12T16:24:40Z</time></trkpt><trkpt lat="42.11207250172106" lon="12.835404514279524"><ele>854.3999999999999</ele><time>2026-04-12T16:24:41Z</time></trkpt><trkpt lat="42.111974194417215" lon="12.835332583190844"><ele>853.6</ele><time>2026-04-12T16:24:42Z</time></trkpt><trkpt lat="42.11188130994411" lon="12.835265549384227"><ele>852.8</ele><time>2026-04-12T16:24:43Z</time></trkpt><trkpt lat="42.11178401666214" lon="12.835196144549691"><ele>852.0</ele><time>2026-04-12T16:24:44Z</time></trkpt><trkpt lat="42.11169188686867" lon="12.835146783845731"><ele>850.0</ele><time>2026-04-12T16:24:45Z</time></trkpt><trkpt lat="42.11161634007861" lon="12.835036474041093"><ele>848.0</ele><time>2026-04-12T16:24:46Z</time></trkpt><trkpt lat="42.11153479762262" lon="12.834936845572512"><ele>846.0</ele><time>2026-04-12T16:24:47Z</time></trkpt><trkpt lat="42.111452162474045" lon="12.83484202694368"><ele>844.0</ele><time>2026-04-12T16:24:48Z</time></trkpt><trkpt lat="42.11136871304491" lon="12.834747988546296"><ele>842.0</ele><time>2026-04-12T16:24:49Z</time></trkpt><trkpt lat="42.11129397502581" lon="12.834644450548867"><ele>839.25</ele><time>2026-04-12T16:24:50Z</time></trkpt><trkpt lat="42.11121319112728" lon="12.834543672796041"><ele>836.5</ele><time>2026-04-12T16:24:51Z</time></trkpt><trkpt lat="42.11113529916865" lon="12.834431506491091"><ele>833.75</ele><time>2026-04-12T16:24:52Z</time></trkpt><trkpt lat="42.1110578675535" lon="12.834316641695262"><ele>831.0</ele><time>2026-04-12T16:24:53Z</time></trkpt><trkpt lat="42.11098932331165" lon="12.834192310768648"><ele>830.75</ele><time>2026-04-12T16:24:54Z</time></trkpt><trkpt lat="42.11090516877092" lon="12.83407357989758"><ele>830.5</ele><time>2026-04-12T16:24:55Z</time></trkpt><trkpt lat="42.11081615734377" lon="12.833962248704077"><ele>830.25</ele><time>2026-04-12T16:24:56Z</time></trkpt><trkpt lat="42.11073866653877" lon="12.83384107193854"><ele>830.0</ele><time>2026-04-12T16:24:57Z</time></trkpt><trkpt lat="42.11065982866752" lon="12.833717321632818"><ele>828.0</ele><time>2026-04-12T16:24:58Z</time></trkpt><trkpt lat="42.110583067087795" lon="12.833596830438093"><ele>826.0</ele><time>2026-04-12T16:24:59Z</time></trkpt><trkpt lat="42.11052418257494" lon="12.833464694621513"><ele>824.0</ele><time>2026-04-12T16:25:00Z</time></trkpt><trkpt lat="42.11044034796386" lon="12.833364387877474"><ele>822.0</ele><time>2026-04-12T16:25:01Z</time></trkpt><trkpt lat="42.11034485990901" lon="12.83327422948415"><ele>821.2</ele><time>2026-04-12T16:25:02Z</time></trkpt><trkpt lat="42.11024939164834" lon="12.833190217499938"><ele>820.4000000000001</ele><time>2026-04-12T16:25:03Z</time></trkpt><trkpt lat="42.1101545393586" lon="12.833097764987125"><ele>819.5999999999999</ele><time>2026-04-12T16:25:04Z</time></trkpt><trkpt lat="42.110079962199684" lon="12.833016701895522"><ele>818.8</ele><time>2026-04-12T16:25:05Z</time></trkpt><trkpt lat="42.11000207290634" lon="12.832910763023675"><ele>818.0</ele><time>2026-04-12T16:25:06Z</time></trkpt><trkpt lat="42.109926980744596" lon="12.83279433634179"><ele>815.5</ele><time>2026-04-12T16:25:07Z</time></trkpt><trkpt lat="42.10985388598752" lon="12.832667694992864"><ele>813.0</ele><time>2026-04-12T16:25:08Z</time></trkpt><trkpt lat="42.109777440077174" lon="12.832532740089638"><ele>810.5</ele><time>2026-04-12T16:25:08.999Z</time></trkpt><trkpt lat="42.10969385070715" lon="12.832416699174805"><ele>808.0</ele><time>2026-04-12T16:25:09.999Z</time></trkpt><trkpt lat="42.10960581645791" lon="12.83230983107352"><ele>807.6666666666666</ele><time>2026-04-12T16:25:10.999Z</time></trkpt><trkpt lat="42.1095313126755" lon="12.832212223491418"><ele>807.3333333333333</ele><time>2026-04-12T16:25:11.999Z</time></trkpt><trkpt lat="42.10947021360877" lon="12.832112529790466"><ele>807.0</ele><time>2026-04-12T16:25:12.999Z</time></trkpt><trkpt lat="42.109425155362544" lon="12.832014927012803"><ele>806.6666666666667</ele><time>2026-04-12T16:25:13.999Z</time></trkpt><trkpt lat="42.109372019764955" lon="12.831936562603277"><ele>806.3333333333334</ele><time>2026-04-12T16:25:14.999Z</time></trkpt><trkpt lat="42.10933356269094" lon="12.831842412974337"><ele>806.0</ele><time>2026-04-12T16:25:15.999Z</time></trkpt><trkpt lat="42.109307812638306" lon="12.831759794132612"><ele>806.0000000000001</ele><time>2026-04-12T16:25:16.999Z</time></trkpt><trkpt lat="42.109268272405394" lon="12.83160716364412"><ele>806.0</ele><time>2026-04-12T16:25:18.999Z</time></trkpt><trkpt lat="42.109243691586485" lon="12.83151029770612"><ele>806.0</ele><time>2026-04-12T16:25:19.999Z</time></trkpt><trkpt lat="42.10921697214502" lon="12.831410749721034"><ele>806.0</ele><time>2026-04-12T16:25:20.999Z</time></trkpt><trkpt lat="42.10918515214946" lon="12.831313948420759"><ele>806.0000000000001</ele><time>2026-04-12T16:25:21.999Z</time></trkpt><trkpt lat="42.10915475383734" lon="12.831229805605366"><ele>806.0</ele><time>2026-04-12T16:25:22.999Z</time></trkpt><trkpt lat="42.1091160094692" lon="12.83112428916938"><ele>806.0</ele><time>2026-04-12T16:25:24.999Z</time></trkpt><trkpt lat="42.10908725392796" lon="12.831032807701469"><ele>806.0</ele><time>2026-04-12T16:25:29.999Z</time></trkpt><trkpt lat="42.109048497469445" lon="12.830911286433343"><ele>806.0</ele><time>2026-04-12T16:25:47.999Z</time></trkpt><trkpt lat="42.108970674389695" lon="12.83076620769395"><ele>806.0</ele><time>2026-04-12T16:25:49.999Z</time></trkpt><trkpt lat="42.10891689909019" lon="12.830670939030151"><ele>806.0</ele><time>2026-04-12T16:25:50.999Z</time></trkpt><trkpt lat="42.10886243358904" lon="12.830553456164928"><ele>806.8</ele><time>2026-04-12T16:25:51.999Z</time></trkpt><trkpt lat="42.10884124938455" lon="12.830392821379743"><ele>807.5999999999999</ele><time>2026-04-12T16:25:52.999Z</time></trkpt><trkpt lat="42.10878672516673" lon="12.83028449286963"><ele>808.4</ele><time>2026-04-12T16:25:53.999Z</time></trkpt><trkpt lat="42.10874585962281" lon="12.830193807048856"><ele>809.2</ele><time>2026-04-12T16:25:54.999Z</time></trkpt><trkpt lat="42.10870570787759" lon="12.83011223180418"><ele>810.0</ele><time>2026-04-12T16:25:55.999Z</time></trkpt><trkpt lat="42.10863315316082" lon="12.830054360969855"><ele>810.3333333333334</ele><time>2026-04-12T16:25:56.999Z</time></trkpt><trkpt lat="42.10858677971936" lon="12.829942040115245"><ele>810.6666666666667</ele><time>2026-04-12T16:25:59.999Z</time></trkpt><trkpt lat="42.10855579556068" lon="12.829865437175854"><ele>811.0</ele><time>2026-04-12T16:26:00.999Z</time></trkpt><trkpt lat="42.10852065238469" lon="12.829778551755188"><ele>811.3333333333334</ele><time>2026-04-12T16:26:01.999Z</time></trkpt><trkpt lat="42.108480602364324" lon="12.829679535016897"><ele>811.6666666666667</ele><time>2026-04-12T16:26:02.999Z</time></trkpt><trkpt lat="42.10843459810992" lon="12.82956579746471"><ele>812.0</ele><time>2026-04-12T16:26:03.999Z</time></trkpt><trkpt lat="42.10839275935519" lon="12.829462705255525"><ele>812.0</ele><time>2026-04-12T16:26:04.999Z</time></trkpt><trkpt lat="42.10835037392944" lon="12.829358371898381"><ele>812.0</ele><time>2026-04-12T16:26:05.999Z</time></trkpt><trkpt lat="42.10830521510601" lon="12.82924783370209"><ele>812.0</ele><time>2026-04-12T16:26:06.999Z</time></trkpt><trkpt lat="42.10826673931317" lon="12.829157680214271"><ele>812.0</ele><time>2026-04-12T16:26:07.999Z</time></trkpt><trkpt lat="42.10823125552852" lon="12.829076903561612"><ele>812.0</ele><time>2026-04-12T16:26:08.999Z</time></trkpt><trkpt lat="42.108148780618784" lon="12.828933119289788"><ele>807.25</ele><time>2026-04-12T16:26:10.999Z</time></trkpt><trkpt lat="42.10798332973955" lon="12.828872033064364"><ele>802.5</ele><time>2026-04-12T16:26:12.999Z</time></trkpt><trkpt lat="42.1078864649669" lon="12.82887707960234"><ele>797.75</ele><time>2026-04-12T16:26:13.999Z</time></trkpt><trkpt lat="42.10779154479471" lon="12.828846969386161"><ele>793.0</ele><time>2026-04-12T16:26:14.999Z</time></trkpt><trkpt lat="42.10771721728527" lon="12.828740657458999"><ele>792.9999999999999</ele><time>2026-04-12T16:26:15.999Z</time></trkpt><trkpt lat="42.10767539651299" lon="12.828652489070581"><ele>793.0</ele><time>2026-04-12T16:26:16.999Z</time></trkpt><trkpt lat="42.10764009441038" lon="12.828532197691985"><ele>793.0</ele><time>2026-04-12T16:26:17.999Z</time></trkpt><trkpt lat="42.10758365054106" lon="12.828453186212775"><ele>793.0</ele><time>2026-04-12T16:26:18.999Z</time></trkpt><trkpt lat="42.107530155529496" lon="12.82835176863724"><ele>792.9999999999999</ele><time>2026-04-12T16:26:19.999Z</time></trkpt><trkpt lat="42.10749176238499" lon="12.828247860346053"><ele>793.0</ele><time>2026-04-12T16:26:21.999Z</time></trkpt><trkpt lat="42.107456068279994" lon="12.828155258917322"><ele>788.0</ele><time>2026-04-12T16:26:22.999Z</time></trkpt><trkpt lat="42.107403459072295" lon="12.828079318918045"><ele>783.0</ele><time>2026-04-12T16:26:23.999Z</time></trkpt><trkpt lat="42.10738121943785" lon="12.827968935271846"><ele>778.0</ele><time>2026-04-12T16:26:24.999Z</time></trkpt><trkpt lat="42.10733058826172" lon="12.827904025322617"><ele>773.0</ele><time>2026-04-12T16:26:25.999Z</time></trkpt><trkpt lat="42.10716860299033" lon="12.827678389973773"><ele>773.0000000000001</ele><time>2026-04-12T16:26:27.999Z</time></trkpt><trkpt lat="42.10706332797552" lon="12.827708362090934"><ele>773.0</ele><time>2026-04-12T16:26:29Z</time></trkpt><trkpt lat="42.10696402279353" lon="12.82772661335849"><ele>773.0</ele><time>2026-04-12T16:26:30Z</time></trkpt><trkpt lat="42.10688263014122" lon="12.827735321233295"><ele>773.0</ele><time>2026-04-12T16:26:31Z</time></trkpt><trkpt lat="42.1068176571695" lon="12.827720077669438"><ele>773.0000000000001</ele><time>2026-04-12T16:26:32Z</time></trkpt><trkpt lat="42.10674057910369" lon="12.827687586239444"><ele>773.0</ele><time>2026-04-12T16:26:33Z</time></trkpt><trkpt lat="42.10665782110357" lon="12.827644717225752"><ele>773.2</ele><time>2026-04-12T16:26:34Z</time></trkpt><trkpt lat="42.106580242803716" lon="12.827602018098558"><ele>773.4</ele><time>2026-04-12T16:26:35Z</time></trkpt><trkpt lat="42.10649503595655" lon="12.827553510345448"><ele>773.6</ele><time>2026-04-12T16:26:36Z</time></trkpt><trkpt lat="42.10640332081153" lon="12.827501116598572"><ele>773.8000000000001</ele><time>2026-04-12T16:26:37Z</time></trkpt><trkpt lat="42.10632239000503" lon="12.8274524159959"><ele>774.0</ele><time>2026-04-12T16:26:38Z</time></trkpt><trkpt lat="42.10624431289666" lon="12.82739846350386"><ele>772.75</ele><time>2026-04-12T16:26:39Z</time></trkpt><trkpt lat="42.10614811427406" lon="12.827319955339311"><ele>771.5</ele><time>2026-04-12T16:26:40Z</time></trkpt><trkpt lat="42.10603498663508" lon="12.82722081960649"><ele>770.25</ele><time>2026-04-12T16:26:41Z</time></trkpt><trkpt lat="42.105922321324734" lon="12.827117963446417"><ele>769.0</ele><time>2026-04-12T16:26:42Z</time></trkpt><trkpt lat="42.10579906629621" lon="12.827005083262645"><ele>767.75</ele><time>2026-04-12T16:26:43Z</time></trkpt><trkpt lat="42.10568180728377" lon="12.826894856180738"><ele>766.5</ele><time>2026-04-12T16:26:44Z</time></trkpt><trkpt lat="42.10556810293041" lon="12.826787029844663"><ele>765.25</ele><time>2026-04-12T16:26:45Z</time></trkpt><trkpt lat="42.10545823987851" lon="12.826688824722567"><ele>764.0</ele><time>2026-04-12T16:26:46Z</time></trkpt><trkpt lat="42.10534407286107" lon="12.826604298154514"><ele>763.75</ele><time>2026-04-12T16:26:47Z</time></trkpt><trkpt lat="42.10523484520873" lon="12.826532688472225"><ele>763.5</ele><time>2026-04-12T16:26:48Z</time></trkpt><trkpt lat="42.10512420080447" lon="12.826473414377329"><ele>763.25</ele><time>2026-04-12T16:26:49Z</time></trkpt><trkpt lat="42.105007929386595" lon="12.826425619543429"><ele>763.0</ele><time>2026-04-12T16:26:50Z</time></trkpt><trkpt lat="42.10488820211441" lon="12.826393397549872"><ele>762.4</ele><time>2026-04-12T16:26:51Z</time></trkpt><trkpt lat="42.10477650863098" lon="12.826366198179587"><ele>761.8</ele><time>2026-04-12T16:26:52Z</time></trkpt><trkpt lat="42.104673345903" lon="12.826338044995694"><ele>761.2</ele><time>2026-04-12T16:26:53Z</time></trkpt><trkpt lat="42.1045731630631" lon="12.82631417942437"><ele>760.6</ele><time>2026-04-12T16:26:54Z</time></trkpt><trkpt lat="42.104479406865586" lon="12.826303586423482"><ele>760.0</ele><time>2026-04-12T16:26:55Z</time></trkpt><trkpt lat="42.10439182381022" lon="12.826308630381476"><ele>760.0</ele><time>2026-04-12T16:26:56Z</time></trkpt><trkpt lat="42.10431358561541" lon="12.826315647012821"><ele>760.0</ele><time>2026-04-12T16:26:57Z</time></trkpt><trkpt lat="42.10424826348855" lon="12.826324349250122"><ele>760.0</ele><time>2026-04-12T16:26:58Z</time></trkpt><trkpt lat="42.104184839113586" lon="12.826333410811431"><ele>760.0</ele><time>2026-04-12T16:26:59Z</time></trkpt><trkpt lat="42.10410245629323" lon="12.826353406612357"><ele>760.0</ele><time>2026-04-12T16:27:00Z</time></trkpt><trkpt lat="42.10401391574784" lon="12.826388024160241"><ele>760.0</ele><time>2026-04-12T16:27:01Z</time></trkpt><trkpt lat="42.10392975080819" lon="12.826503486056538"><ele>761.4</ele><time>2026-04-12T16:27:02Z</time></trkpt><trkpt lat="42.103829041694645" lon="12.826587275439222"><ele>762.8</ele><time>2026-04-12T16:27:03Z</time></trkpt><trkpt lat="42.103728910893906" lon="12.826674228885674"><ele>764.2</ele><time>2026-04-12T16:27:04Z</time></trkpt><trkpt lat="42.10363227694636" lon="12.826729609135143"><ele>765.6</ele><time>2026-04-12T16:27:05Z</time></trkpt><trkpt lat="42.10354357088824" lon="12.82667208644225"><ele>767.0</ele><time>2026-04-12T16:27:06Z</time></trkpt><trkpt lat="42.10346200837139" lon="12.826662274662194"><ele>767.0</ele><time>2026-04-12T16:27:07Z</time></trkpt><trkpt lat="42.1033771432558" lon="12.82664039990304"><ele>767.0</ele><time>2026-04-12T16:27:08Z</time></trkpt><trkpt lat="42.103284582720036" lon="12.826607837731881"><ele>767.0</ele><time>2026-04-12T16:27:09Z</time></trkpt><trkpt lat="42.10318329000852" lon="12.826564861555815"><ele>767.0</ele><time>2026-04-12T16:27:10Z</time></trkpt><trkpt lat="42.10307662008207" lon="12.826518550622877"><ele>767.0</ele><time>2026-04-12T16:27:10.999Z</time></trkpt><trkpt lat="42.10297800114015" lon="12.826473620974507"><ele>766.75</ele><time>2026-04-12T16:27:11.999Z</time></trkpt><trkpt lat="42.10285891143831" lon="12.826432735432109"><ele>766.5</ele><time>2026-04-12T16:27:12.999Z</time></trkpt><trkpt lat="42.10273832668999" lon="12.82642232730674"><ele>766.25</ele><time>2026-04-12T16:27:13.999Z</time></trkpt><trkpt lat="42.102613656030655" lon="12.826428343131136"><ele>766.0</ele><time>2026-04-12T16:27:14.999Z</time></trkpt><trkpt lat="42.102492665650736" lon="12.826439425126678"><ele>766.5</ele><time>2026-04-12T16:27:15.999Z</time></trkpt><trkpt lat="42.10236849872124" lon="12.826460786662132"><ele>767.0</ele><time>2026-04-12T16:27:16.999Z</time></trkpt><trkpt lat="42.102251160164535" lon="12.826466591774139"><ele>767.5</ele><time>2026-04-12T16:27:17.999Z</time></trkpt><trkpt lat="42.10212858655023" lon="12.82645733270824"><ele>768.0</ele><time>2026-04-12T16:27:18.999Z</time></trkpt><trkpt lat="42.10200798808735" lon="12.826445365351281"><ele>768.0</ele><time>2026-04-12T16:27:19.999Z</time></trkpt><trkpt lat="42.10187836861367" lon="12.826441236181067"><ele>768.0</ele><time>2026-04-12T16:27:20.999Z</time></trkpt><trkpt lat="42.10176569756643" lon="12.826475483785963"><ele>768.0</ele><time>2026-04-12T16:27:21.999Z</time></trkpt><trkpt lat="42.10165877054554" lon="12.826535161870739"><ele>768.0</ele><time>2026-04-12T16:27:22.999Z</time></trkpt><trkpt lat="42.101545081414294" lon="12.826589487663682"><ele>771.25</ele><time>2026-04-12T16:27:23.999Z</time></trkpt><trkpt lat="42.101424640636736" lon="12.82660702803704"><ele>774.5</ele><time>2026-04-12T16:27:24.999Z</time></trkpt><trkpt lat="42.101310684932066" lon="12.826641491900174"><ele>777.75</ele><time>2026-04-12T16:27:25.999Z</time></trkpt><trkpt lat="42.10118919092252" lon="12.826679873115035"><ele>781.0</ele><time>2026-04-12T16:27:26.999Z</time></trkpt><trkpt lat="42.10106908908576" lon="12.826744083059166"><ele>781.0</ele><time>2026-04-12T16:27:27.999Z</time></trkpt><trkpt lat="42.10093883800609" lon="12.826779024644722"><ele>781.0</ele><time>2026-04-12T16:27:28.999Z</time></trkpt><trkpt lat="42.10081805897228" lon="12.826830102801543"><ele>781.0</ele><time>2026-04-12T16:27:29.999Z</time></trkpt><trkpt lat="42.10069917679156" lon="12.826902413522523"><ele>781.0</ele><time>2026-04-12T16:27:30.999Z</time></trkpt><trkpt lat="42.100580539635104" lon="12.826949032925755"><ele>779.5999999999999</ele><time>2026-04-12T16:27:31.999Z</time></trkpt><trkpt lat="42.1004631767058" lon="12.826981722035695"><ele>778.2</ele><time>2026-04-12T16:27:32.999Z</time></trkpt><trkpt lat="42.1003505424829" lon="12.82699795965212"><ele>776.8</ele><time>2026-04-12T16:27:33.999Z</time></trkpt><trkpt lat="42.1002454732837" lon="12.827011807696211"><ele>775.4000000000001</ele><time>2026-04-12T16:27:34.999Z</time></trkpt><trkpt lat="42.10013950120645" lon="12.827023070018466"><ele>774.0</ele><time>2026-04-12T16:27:35.999Z</time></trkpt><trkpt lat="42.1000487292557" lon="12.82701464332618"><ele>774.0</ele><time>2026-04-12T16:27:36.999Z</time></trkpt><trkpt lat="42.099998770334416" lon="12.826894351277224"><ele>774.0</ele><time>2026-04-12T16:27:37.999Z</time></trkpt><trkpt lat="42.09990643783761" lon="12.826779288786971"><ele>774.0</ele><time>2026-04-12T16:27:39.999Z</time></trkpt><trkpt lat="42.099841388410354" lon="12.826704836900571"><ele>774.0</ele><time>2026-04-12T16:27:40.999Z</time></trkpt><trkpt lat="42.09976589019803" lon="12.826615269888336"><ele>774.0</ele><time>2026-04-12T16:27:41.999Z</time></trkpt><trkpt lat="42.099687395260304" lon="12.826522147738155"><ele>774.25</ele><time>2026-04-12T16:27:42.999Z</time></trkpt><trkpt lat="42.099607857578924" lon="12.826428923943745"><ele>774.5</ele><time>2026-04-12T16:27:43.999Z</time></trkpt><trkpt lat="42.09951516648256" lon="12.82632841223238"><ele>774.75</ele><time>2026-04-12T16:27:44.999Z</time></trkpt><trkpt lat="42.099415506247986" lon="12.826229638438969"><ele>775.0</ele><time>2026-04-12T16:27:45.999Z</time></trkpt><trkpt lat="42.099309650434165" lon="12.826133343809092"><ele>775.0</ele><time>2026-04-12T16:27:46.999Z</time></trkpt><trkpt lat="42.09920361917068" lon="12.826041181085536"><ele>775.0</ele><time>2026-04-12T16:27:47.999Z</time></trkpt><trkpt lat="42.09910594161714" lon="12.825950952824103"><ele>775.0</ele><time>2026-04-12T16:27:48.999Z</time></trkpt><trkpt lat="42.09901049221156" lon="12.825861667665801"><ele>775.0</ele><time>2026-04-12T16:27:49.999Z</time></trkpt><trkpt lat="42.09891387830733" lon="12.825769089072208"><ele>776.2</ele><time>2026-04-12T16:27:50.999Z</time></trkpt><trkpt lat="42.098823441752195" lon="12.825678584885816"><ele>777.4</ele><time>2026-04-12T16:27:51.999Z</time></trkpt><trkpt lat="42.09874237385204" lon="12.825588650416872"><ele>778.5999999999999</ele><time>2026-04-12T16:27:52.999Z</time></trkpt><trkpt lat="42.098664777646434" lon="12.825492353723813"><ele>779.8</ele><time>2026-04-12T16:27:53.999Z</time></trkpt><trkpt lat="42.098586571228" lon="12.82539409426615"><ele>781.0</ele><time>2026-04-12T16:27:54.999Z</time></trkpt><trkpt lat="42.09850997429822" lon="12.825296414947276"><ele>781.0</ele><time>2026-04-12T16:27:55.999Z</time></trkpt><trkpt lat="42.098439295744086" lon="12.825206283020554"><ele>781.0</ele><time>2026-04-12T16:27:56.999Z</time></trkpt><trkpt lat="42.098370323643344" lon="12.82511738609279"><ele>781.0</ele><time>2026-04-12T16:27:57.999Z</time></trkpt><trkpt lat="42.09830038583931" lon="12.825026410420719"><ele>781.0</ele><time>2026-04-12T16:27:58.999Z</time></trkpt><trkpt lat="42.098236556845094" lon="12.824943381143374"><ele>781.0</ele><time>2026-04-12T16:27:59.999Z</time></trkpt><trkpt lat="42.09816529867435" lon="12.824859651349094"><ele>782.9999999999999</ele><time>2026-04-12T16:28:00.999Z</time></trkpt><trkpt lat="42.098091341498666" lon="12.824784212969487"><ele>785.0</ele><time>2026-04-12T16:28:01.999Z</time></trkpt><trkpt lat="42.098029618283384" lon="12.824718672202325"><ele>787.0</ele><time>2026-04-12T16:28:02.999Z</time></trkpt><trkpt lat="42.097950011692326" lon="12.824604994291182"><ele>789.0</ele><time>2026-04-12T16:28:04.999Z</time></trkpt><trkpt lat="42.097928537828885" lon="12.824518844628585"><ele>790.9999999999999</ele><time>2026-04-12T16:28:06.999Z</time></trkpt><trkpt lat="42.09791591335612" lon="12.824433476231226"><ele>793.0</ele><time>2026-04-12T16:28:08.999Z</time></trkpt><trkpt lat="42.097856951153325" lon="12.824481083938105"><ele>793.0</ele><time>2026-04-12T16:28:12.999Z</time></trkpt><trkpt lat="42.097958645048074" lon="12.824613304933745"><ele>793.0</ele><time>2026-04-12T16:28:15.999Z</time></trkpt><trkpt lat="42.097966893338906" lon="12.824722213569213"><ele>793.0</ele><time>2026-04-12T16:28:17.999Z</time></trkpt><trkpt lat="42.098094540805235" lon="12.824714677108688"><ele>793.0</ele><time>2026-04-12T16:28:18.999Z</time></trkpt><trkpt lat="42.098166072253804" lon="12.824712808014212"><ele>793.0</ele><time>2026-04-12T16:28:20.999Z</time></trkpt><trkpt lat="42.09824736324208" lon="12.824674480666319"><ele>792.9999999999999</ele><time>2026-04-12T16:28:23.999Z</time></trkpt><trkpt lat="42.09829618606037" lon="12.824608704879626"><ele>793.0</ele><time>2026-04-12T16:28:25.999Z</time></trkpt><trkpt lat="42.09821756354757" lon="12.82456090158794"><ele>793.0</ele><time>2026-04-12T16:29:56.999Z</time></trkpt><trkpt lat="42.09815565712904" lon="12.82461258514197"><ele>793.0</ele><time>2026-04-12T16:30:00.999Z</time></trkpt><trkpt lat="42.09808344154777" lon="12.824662763002092"><ele>792.9999999999999</ele><time>2026-04-12T16:30:53Z</time></trkpt><trkpt lat="42.098004734368864" lon="12.824672326493761"><ele>793.0</ele><time>2026-04-12T16:31:52.999Z</time></trkpt><trkpt lat="42.09792672702008" lon="12.824643435586175"><ele>792.9999999999999</ele><time>2026-04-12T16:31:54.999Z</time></trkpt><trkpt lat="42.097839943508156" lon="12.824577858194766"><ele>793.0</ele><time>2026-04-12T16:31:56.999Z</time></trkpt><trkpt lat="42.09781615178721" lon="12.824483842629519"><ele>793.0</ele><time>2026-04-12T16:31:58.999Z</time></trkpt><trkpt lat="42.097774790839836" lon="12.824567585295489"><ele>793.0</ele><time>2026-04-12T16:32:08.999Z</time></trkpt><trkpt lat="42.09784825157276" lon="12.824628318583429"><ele>792.9999999999999</ele><time>2026-04-12T16:32:11.999Z</time></trkpt><trkpt lat="42.09789572202047" lon="12.82468773897253"><ele>793.0</ele><time>2026-04-12T16:32:14.999Z</time></trkpt><trkpt lat="42.097998552799275" lon="12.824715225343246"><ele>792.9999999999999</ele><time>2026-04-12T16:33:56.999Z</time></trkpt><trkpt lat="42.09799475734257" lon="12.824629513486359"><ele>793.0</ele><time>2026-04-12T16:34:01.999Z</time></trkpt><trkpt lat="42.09796438072522" lon="12.824517963216293"><ele>793.0</ele><time>2026-04-12T16:34:04.999Z</time></trkpt><trkpt lat="42.09796109503434" lon="12.824431388003338"><ele>793.0</ele><time>2026-04-12T16:34:05.999Z</time></trkpt><trkpt lat="42.09796635330953" lon="12.824300764844093"><ele>792.9999999999999</ele><time>2026-04-12T16:34:06.999Z</time></trkpt><trkpt lat="42.09796727834635" lon="12.82415261239312"><ele>793.0</ele><time>2026-04-12T16:34:07.999Z</time></trkpt><trkpt lat="42.09796244289725" lon="12.824006182433475"><ele>791.2</ele><time>2026-04-12T16:34:08.999Z</time></trkpt><trkpt lat="42.09795949752291" lon="12.82387502898714"><ele>789.4</ele><time>2026-04-12T16:34:09.999Z</time></trkpt><trkpt lat="42.09796473608501" lon="12.823744627323093"><ele>787.6</ele><time>2026-04-12T16:34:10.999Z</time></trkpt><trkpt lat="42.09797628716979" lon="12.823629573137332"><ele>785.8000000000001</ele><time>2026-04-12T16:34:11.999Z</time></trkpt><trkpt lat="42.09798768071163" lon="12.823531640647637"><ele>784.0</ele><time>2026-04-12T16:34:12.999Z</time></trkpt><trkpt lat="42.09803708859625" lon="12.823380300246397"><ele>784.4000000000001</ele><time>2026-04-12T16:34:14.999Z</time></trkpt><trkpt lat="42.09806999586144" lon="12.823306055187606"><ele>784.8</ele><time>2026-04-12T16:34:15.999Z</time></trkpt><trkpt lat="42.09813931736001" lon="12.823224773260367"><ele>785.2</ele><time>2026-04-12T16:34:16.999Z</time></trkpt><trkpt lat="42.09823008662755" lon="12.82319390511262"><ele>785.5999999999999</ele><time>2026-04-12T16:34:17.999Z</time></trkpt><trkpt lat="42.098302513623054" lon="12.82310785191952"><ele>786.0</ele><time>2026-04-12T16:34:18.999Z</time></trkpt><trkpt lat="42.09837375457583" lon="12.822946247369622"><ele>786.0</ele><time>2026-04-12T16:34:20.999Z</time></trkpt><trkpt lat="42.09840565520599" lon="12.82283685195601"><ele>786.0</ele><time>2026-04-12T16:34:21.999Z</time></trkpt><trkpt lat="42.09838851149739" lon="12.822672184486871"><ele>786.0</ele><time>2026-04-12T16:34:22.999Z</time></trkpt><trkpt lat="42.098378951187605" lon="12.822520845230146"><ele>786.0</ele><time>2026-04-12T16:34:23.999Z</time></trkpt><trkpt lat="42.0983547398988" lon="12.822347388470376"><ele>784.0</ele><time>2026-04-12T16:34:24.999Z</time></trkpt><trkpt lat="42.098318359217444" lon="12.822211991226336"><ele>782.0</ele><time>2026-04-12T16:34:25.999Z</time></trkpt><trkpt lat="42.09827752296865" lon="12.822108446472248"><ele>780.0</ele><time>2026-04-12T16:34:26.999Z</time></trkpt><trkpt lat="42.098226701802" lon="12.82202218559699"><ele>778.0</ele><time>2026-04-12T16:34:28.999Z</time></trkpt><trkpt lat="42.09818984589955" lon="12.821916940802058"><ele>776.0</ele><time>2026-04-12T16:34:31.999Z</time></trkpt><trkpt lat="42.09813093690801" lon="12.821810942606104"><ele>770.4</ele><time>2026-04-12T16:34:33.999Z</time></trkpt><trkpt lat="42.09808642016933" lon="12.821741532696555"><ele>764.8</ele><time>2026-04-12T16:34:34.999Z</time></trkpt><trkpt lat="42.09803212734863" lon="12.821665505401175"><ele>759.1999999999999</ele><time>2026-04-12T16:34:35.999Z</time></trkpt><trkpt lat="42.097972829539174" lon="12.82158493831674"><ele>753.5999999999999</ele><time>2026-04-12T16:34:36.999Z</time></trkpt><trkpt lat="42.09790013371501" lon="12.821488970618402"><ele>748.0</ele><time>2026-04-12T16:34:37.999Z</time></trkpt><trkpt lat="42.097813161652574" lon="12.821374652203527"><ele>748.0</ele><time>2026-04-12T16:34:38.999Z</time></trkpt><trkpt lat="42.097722803753776" lon="12.821259327106846"><ele>748.0</ele><time>2026-04-12T16:34:39.999Z</time></trkpt><trkpt lat="42.097625534653375" lon="12.821140051558464"><ele>748.0</ele><time>2026-04-12T16:34:40.999Z</time></trkpt><trkpt lat="42.097537702025754" lon="12.821041089983154"><ele>748.0</ele><time>2026-04-12T16:34:41.999Z</time></trkpt><trkpt lat="42.09742656895628" lon="12.820932112177209"><ele>745.75</ele><time>2026-04-12T16:34:42.999Z</time></trkpt><trkpt lat="42.09729706708859" lon="12.820808498521066"><ele>743.5</ele><time>2026-04-12T16:34:43.999Z</time></trkpt><trkpt lat="42.09717584016031" lon="12.820714020215465"><ele>741.25</ele><time>2026-04-12T16:34:44.999Z</time></trkpt><trkpt lat="42.09705618332811" lon="12.82063400807718"><ele>739.0</ele><time>2026-04-12T16:34:45.999Z</time></trkpt><trkpt lat="42.096959356413464" lon="12.820546672377136"><ele>739.0</ele><time>2026-04-12T16:34:46.999Z</time></trkpt><trkpt lat="42.09685382264902" lon="12.820448657601489"><ele>739.0</ele><time>2026-04-12T16:34:47.999Z</time></trkpt><trkpt lat="42.09676187612614" lon="12.820307996218833"><ele>739.0</ele><time>2026-04-12T16:34:48.999Z</time></trkpt><trkpt lat="42.09667673877571" lon="12.820169371894767"><ele>739.0</ele><time>2026-04-12T16:34:49.999Z</time></trkpt><trkpt lat="42.09658491604903" lon="12.820048339643256"><ele>737.2</ele><time>2026-04-12T16:34:50.999Z</time></trkpt><trkpt lat="42.096507582221726" lon="12.819940774119187"><ele>735.4000000000001</ele><time>2026-04-12T16:34:51.999Z</time></trkpt><trkpt lat="42.09643976134597" lon="12.819839758964607"><ele>733.6</ele><time>2026-04-12T16:34:53Z</time></trkpt><trkpt lat="42.09638913789277" lon="12.819747940658113"><ele>731.8</ele><time>2026-04-12T16:34:54Z</time></trkpt><trkpt lat="42.09635314125404" lon="12.81966744785474"><ele>730.0</ele><time>2026-04-12T16:34:55Z</time></trkpt><trkpt lat="42.09636989361853" lon="12.819500461195835"><ele>730.0</ele><time>2026-04-12T16:34:57Z</time></trkpt><trkpt lat="42.096415131123344" lon="12.819420847967477"><ele>730.0</ele><time>2026-04-12T16:34:58Z</time></trkpt><trkpt lat="42.09646121124598" lon="12.819334723360837"><ele>730.0</ele><time>2026-04-12T16:34:59Z</time></trkpt><trkpt lat="42.0965295673119" lon="12.819244325644021"><ele>730.0</ele><time>2026-04-12T16:35:00Z</time></trkpt><trkpt lat="42.096623766975895" lon="12.819118692653502"><ele>730.0</ele><time>2026-04-12T16:35:01Z</time></trkpt><trkpt lat="42.0967301313508" lon="12.819004847518354"><ele>735.0</ele><time>2026-04-12T16:35:02Z</time></trkpt><trkpt lat="42.096819445573495" lon="12.818885556120417"><ele>740.0</ele><time>2026-04-12T16:35:03Z</time></trkpt><trkpt lat="42.0969023735374" lon="12.818740375696613"><ele>745.0</ele><time>2026-04-12T16:35:04Z</time></trkpt><trkpt lat="42.096986723662255" lon="12.818618120274534"><ele>750.0</ele><time>2026-04-12T16:35:05Z</time></trkpt><trkpt lat="42.09706560725873" lon="12.818500891460461"><ele>745.8</ele><time>2026-04-12T16:35:06Z</time></trkpt><trkpt lat="42.09714157135446" lon="12.818378738634102"><ele>741.6</ele><time>2026-04-12T16:35:07Z</time></trkpt><trkpt lat="42.097212012822126" lon="12.818261689894824"><ele>737.4000000000001</ele><time>2026-04-12T16:35:08Z</time></trkpt><trkpt lat="42.09726994108172" lon="12.818144042410104"><ele>733.2</ele><time>2026-04-12T16:35:09Z</time></trkpt><trkpt lat="42.09732171235522" lon="12.81802723940334"><ele>729.0</ele><time>2026-04-12T16:35:10Z</time></trkpt><trkpt lat="42.0973639082462" lon="12.817906534538507"><ele>729.0</ele><time>2026-04-12T16:35:11Z</time></trkpt><trkpt lat="42.097397187073476" lon="12.817762480525587"><ele>729.0</ele><time>2026-04-12T16:35:12Z</time></trkpt><trkpt lat="42.09739644023014" lon="12.817603582639942"><ele>729.0</ele><time>2026-04-12T16:35:13Z</time></trkpt><trkpt lat="42.09738267733987" lon="12.817458134469895"><ele>729.0</ele><time>2026-04-12T16:35:14Z</time></trkpt><trkpt lat="42.0973489296652" lon="12.817334095087169"><ele>729.0</ele><time>2026-04-12T16:35:15Z</time></trkpt><trkpt lat="42.09729123456397" lon="12.817200604078018"><ele>725.5</ele><time>2026-04-12T16:35:16Z</time></trkpt><trkpt lat="42.097225557717486" lon="12.817060394500938"><ele>722.0</ele><time>2026-04-12T16:35:17Z</time></trkpt><trkpt lat="42.097155611032925" lon="12.816923302576166"><ele>718.5</ele><time>2026-04-12T16:35:18Z</time></trkpt><trkpt lat="42.097082542684696" lon="12.816781697522131"><ele>715.0</ele><time>2026-04-12T16:35:19Z</time></trkpt><trkpt lat="42.09701699283747" lon="12.816642897765073"><ele>715.0</ele><time>2026-04-12T16:35:20Z</time></trkpt><trkpt lat="42.09695324458782" lon="12.816513863062752"><ele>715.0</ele><time>2026-04-12T16:35:20.999Z</time></trkpt><trkpt lat="42.09688572078751" lon="12.81638128655121"><ele>715.0</ele><time>2026-04-12T16:35:21.999Z</time></trkpt><trkpt lat="42.09681980383094" lon="12.816247644062742"><ele>715.0</ele><time>2026-04-12T16:35:22.999Z</time></trkpt><trkpt lat="42.09675593189798" lon="12.816102989858557"><ele>718.0</ele><time>2026-04-12T16:35:23.999Z</time></trkpt><trkpt lat="42.09668918134249" lon="12.815956231302819"><ele>721.0</ele><time>2026-04-12T16:35:24.999Z</time></trkpt><trkpt lat="42.09661199903587" lon="12.81581927501457"><ele>724.0</ele><time>2026-04-12T16:35:25.999Z</time></trkpt><trkpt lat="42.096552012839474" lon="12.815675917667564"><ele>727.0</ele><time>2026-04-12T16:35:26.999Z</time></trkpt><trkpt lat="42.096478062463" lon="12.815549504837543"><ele>721.8</ele><time>2026-04-12T16:35:27.999Z</time></trkpt><trkpt lat="42.096395388186814" lon="12.815429339490857"><ele>716.6</ele><time>2026-04-12T16:35:28.999Z</time></trkpt><trkpt lat="42.09630614043669" lon="12.815330172040559"><ele>711.4</ele><time>2026-04-12T16:35:29.999Z</time></trkpt><trkpt lat="42.096234267844636" lon="12.815271107215551"><ele>706.1999999999999</ele><time>2026-04-12T16:35:30.999Z</time></trkpt><trkpt lat="42.09616634309428" lon="12.815222581162017"><ele>701.0</ele><time>2026-04-12T16:35:31.999Z</time></trkpt><trkpt lat="42.09609790564196" lon="12.815179077020018"><ele>701.0</ele><time>2026-04-12T16:35:33.999Z</time></trkpt><trkpt lat="42.096049109121395" lon="12.815301179205942"><ele>701.0</ele><time>2026-04-12T16:35:38.999Z</time></trkpt><trkpt lat="42.095956464192966" lon="12.81524014768831"><ele>701.0</ele><time>2026-04-12T16:36:42.999Z</time></trkpt><trkpt lat="42.09583217484749" lon="12.815142993560848"><ele>701.0</ele><time>2026-04-12T16:36:44.999Z</time></trkpt><trkpt lat="42.09573813859953" lon="12.815079041570767"><ele>699.5</ele><time>2026-04-12T16:36:45.999Z</time></trkpt><trkpt lat="42.095663184226424" lon="12.814912429928304"><ele>698.0</ele><time>2026-04-12T16:36:46.999Z</time></trkpt><trkpt lat="42.09553227699739" lon="12.814835334469594"><ele>696.5</ele><time>2026-04-12T16:36:47.999Z</time></trkpt><trkpt lat="42.09538619023173" lon="12.814749299275084"><ele>695.0</ele><time>2026-04-12T16:36:48.999Z</time></trkpt><trkpt lat="42.09525602759715" lon="12.814669952806533"><ele>695.0</ele><time>2026-04-12T16:36:49.999Z</time></trkpt><trkpt lat="42.09513734712051" lon="12.814590662936018"><ele>695.0</ele><time>2026-04-12T16:36:50.999Z</time></trkpt><trkpt lat="42.09502021236625" lon="12.81450960393055"><ele>695.0</ele><time>2026-04-12T16:36:51.999Z</time></trkpt><trkpt lat="42.09490716911084" lon="12.81442929568796"><ele>695.0</ele><time>2026-04-12T16:36:52.999Z</time></trkpt><trkpt lat="42.094795848832774" lon="12.814350211461475"><ele>694.6</ele><time>2026-04-12T16:36:53.999Z</time></trkpt><trkpt lat="42.09469177714233" lon="12.814274623536855"><ele>694.2</ele><time>2026-04-12T16:36:54.999Z</time></trkpt><trkpt lat="42.09460200030722" lon="12.814198043622442"><ele>693.8</ele><time>2026-04-12T16:36:55.998Z</time></trkpt><trkpt lat="42.094526096630545" lon="12.814114373259905"><ele>693.4</ele><time>2026-04-12T16:36:56.998Z</time></trkpt><trkpt lat="42.09444536687845" lon="12.814021237188816"><ele>693.0</ele><time>2026-04-12T16:36:57.998Z</time></trkpt><trkpt lat="42.094366582014736" lon="12.81393695428468"><ele>693.0</ele><time>2026-04-12T16:36:59Z</time></trkpt><trkpt lat="42.094307250484576" lon="12.813869918920433"><ele>693.0</ele><time>2026-04-12T16:37:00Z</time></trkpt><trkpt lat="42.09426137165648" lon="12.813804947109634"><ele>693.0</ele><time>2026-04-12T16:37:01Z</time></trkpt><trkpt lat="42.09418873998814" lon="12.813695789671518"><ele>693.0</ele><time>2026-04-12T16:37:03Z</time></trkpt><trkpt lat="42.094129845042964" lon="12.81360727695976"><ele>693.0</ele><time>2026-04-12T16:37:05Z</time></trkpt><trkpt lat="42.09395590520447" lon="12.813672451880754"><ele>691.0</ele><time>2026-04-12T16:37:07Z</time></trkpt><trkpt lat="42.093919613598054" lon="12.813548351161312"><ele>689.0</ele><time>2026-04-12T16:37:09Z</time></trkpt><trkpt lat="42.093868044756455" lon="12.813425194602964"><ele>687.0</ele><time>2026-04-12T16:37:11Z</time></trkpt><trkpt lat="42.09380804473093" lon="12.813303872447987"><ele>685.0</ele><time>2026-04-12T16:37:13Z</time></trkpt><trkpt lat="42.09380397794808" lon="12.813212822724674"><ele>683.0</ele><time>2026-04-12T16:37:14Z</time></trkpt><trkpt lat="42.093777422142985" lon="12.813073287071452"><ele>683.0</ele><time>2026-04-12T16:37:16Z</time></trkpt><trkpt lat="42.09371173240803" lon="12.813076370354134"><ele>683.0</ele><time>2026-04-12T16:37:18Z</time></trkpt><trkpt lat="42.09368535758481" lon="12.813192618274012"><ele>683.0</ele><time>2026-04-12T16:37:20Z</time></trkpt><trkpt lat="42.093672196094886" lon="12.813301387950995"><ele>683.0</ele><time>2026-04-12T16:37:21Z</time></trkpt><trkpt lat="42.093656417039334" lon="12.813422688844058"><ele>683.0</ele><time>2026-04-12T16:37:22Z</time></trkpt><trkpt lat="42.09364577196687" lon="12.813542322582393"><ele>683.0</ele><time>2026-04-12T16:37:23Z</time></trkpt><trkpt lat="42.09361589649911" lon="12.813631477044375"><ele>681.0</ele><time>2026-04-12T16:37:24Z</time></trkpt><trkpt lat="42.093592845102805" lon="12.813715607617679"><ele>679.0</ele><time>2026-04-12T16:37:24.999Z</time></trkpt><trkpt lat="42.09358241894774" lon="12.813807248015452"><ele>677.0</ele><time>2026-04-12T16:37:25.999Z</time></trkpt><trkpt lat="42.09357869322534" lon="12.813903875066845"><ele>675.0</ele><time>2026-04-12T16:37:26.999Z</time></trkpt><trkpt lat="42.09357204621153" lon="12.814015777221686"><ele>673.0</ele><time>2026-04-12T16:37:27.999Z</time></trkpt><trkpt lat="42.093572056021486" lon="12.814110308885066"><ele>671.0</ele><time>2026-04-12T16:37:28.999Z</time></trkpt><trkpt lat="42.09359164996021" lon="12.814265708351117"><ele>668.4</ele><time>2026-04-12T16:37:30.999Z</time></trkpt><trkpt lat="42.09365840433512" lon="12.814413672473805"><ele>665.8</ele><time>2026-04-12T16:37:32.999Z</time></trkpt><trkpt lat="42.09370409688566" lon="12.814479785352662"><ele>663.1999999999999</ele><time>2026-04-12T16:37:33.999Z</time></trkpt><trkpt lat="42.09375968106997" lon="12.814556013519121"><ele>660.5999999999999</ele><time>2026-04-12T16:37:34.999Z</time></trkpt><trkpt lat="42.09382419032241" lon="12.814639493376962"><ele>658.0</ele><time>2026-04-12T16:37:35.999Z</time></trkpt><trkpt lat="42.09390531498354" lon="12.81472528727547"><ele>658.0</ele><time>2026-04-12T16:37:36.999Z</time></trkpt><trkpt lat="42.0939780333957" lon="12.814818269399089"><ele>658.0</ele><time>2026-04-12T16:37:37.999Z</time></trkpt><trkpt lat="42.09404246284586" lon="12.814883420518907"><ele>658.0</ele><time>2026-04-12T16:37:38.999Z</time></trkpt><trkpt lat="42.09408273391449" lon="12.814953149023822"><ele>658.0</ele><time>2026-04-12T16:37:39.999Z</time></trkpt><trkpt lat="42.09412036506053" lon="12.815028381692034"><ele>658.0</ele><time>2026-04-12T16:37:40.999Z</time></trkpt><trkpt lat="42.094151518452236" lon="12.815119549448967"><ele>658.0</ele><time>2026-04-12T16:37:41.999Z</time></trkpt><trkpt lat="42.094195434490246" lon="12.815197058422934"><ele>658.0</ele><time>2026-04-12T16:37:42.999Z</time></trkpt><trkpt lat="42.09428994473718" lon="12.815304407484323"><ele>658.0</ele><time>2026-04-12T16:37:44.999Z</time></trkpt><trkpt lat="42.09437271694876" lon="12.815414710362509"><ele>658.0</ele><time>2026-04-12T16:37:46.999Z</time></trkpt><trkpt lat="42.09431347816085" lon="12.815475564912106"><ele>658.0</ele><time>2026-04-12T16:37:48.999Z</time></trkpt><trkpt lat="42.09424428624212" lon="12.815429052617729"><ele>658.0</ele><time>2026-04-12T16:37:49.999Z</time></trkpt><trkpt lat="42.094166289060176" lon="12.815356858548137"><ele>656.8333333333334</ele><time>2026-04-12T16:37:50.999Z</time></trkpt><trkpt lat="42.09408265007542" lon="12.815303975445648"><ele>655.6666666666667</ele><time>2026-04-12T16:37:51.999Z</time></trkpt><trkpt lat="42.09402168003494" lon="12.815273405095754"><ele>654.5</ele><time>2026-04-12T16:37:52.999Z</time></trkpt><trkpt lat="42.09395951234331" lon="12.815239311585461"><ele>653.3333333333334</ele><time>2026-04-12T16:37:53.999Z</time></trkpt><trkpt lat="42.09387502278857" lon="12.81520693811155"><ele>652.1666666666666</ele><time>2026-04-12T16:37:54.999Z</time></trkpt><trkpt lat="42.093796452640404" lon="12.815211160158595"><ele>651.0</ele><time>2026-04-12T16:37:55.999Z</time></trkpt><trkpt lat="42.09369696551484" lon="12.815215512402032"><ele>651.0</ele><time>2026-04-12T16:37:56.999Z</time></trkpt><trkpt lat="42.09361648230361" lon="12.815197991687805"><ele>651.0</ele><time>2026-04-12T16:37:57.999Z</time></trkpt><trkpt lat="42.09353345189967" lon="12.815151229390981"><ele>651.0</ele><time>2026-04-12T16:37:58.999Z</time></trkpt><trkpt lat="42.09344887955492" lon="12.815110036263746"><ele>651.0</ele><time>2026-04-12T16:37:59.999Z</time></trkpt><trkpt lat="42.093362339652266" lon="12.81509124142192"><ele>651.0</ele><time>2026-04-12T16:38:00.999Z</time></trkpt><trkpt lat="42.093287046235645" lon="12.815077104412799"><ele>651.0</ele><time>2026-04-12T16:38:01.999Z</time></trkpt><trkpt lat="42.09321210554048" lon="12.815052140661408"><ele>649.3333333333334</ele><time>2026-04-12T16:38:02.999Z</time></trkpt><trkpt lat="42.093142096983" lon="12.815005012851564"><ele>647.6666666666666</ele><time>2026-04-12T16:38:03.999Z</time></trkpt><trkpt lat="42.09306984751296" lon="12.814935576052983"><ele>646.0</ele><time>2026-04-12T16:38:04.999Z</time></trkpt><trkpt lat="42.09298929042353" lon="12.814875171427163"><ele>644.3333333333333</ele><time>2026-04-12T16:38:05.999Z</time></trkpt><trkpt lat="42.092895476114236" lon="12.814847024530529"><ele>642.6666666666666</ele><time>2026-04-12T16:38:06.999Z</time></trkpt><trkpt lat="42.09282151742893" lon="12.81479463701145"><ele>641.0</ele><time>2026-04-12T16:38:07.999Z</time></trkpt><trkpt lat="42.09277208560303" lon="12.814717913855729"><ele>641.0</ele><time>2026-04-12T16:38:08.999Z</time></trkpt><trkpt lat="42.09270405989852" lon="12.814635931212202"><ele>641.0</ele><time>2026-04-12T16:38:09.999Z</time></trkpt><trkpt lat="42.09264243199137" lon="12.814547461054241"><ele>641.0</ele><time>2026-04-12T16:38:10.999Z</time></trkpt><trkpt lat="42.0925770587453" lon="12.81446705808535"><ele>641.0</ele><time>2026-04-12T16:38:11.999Z</time></trkpt><trkpt lat="42.09250183199334" lon="12.81440303077097"><ele>641.0</ele><time>2026-04-12T16:38:12.999Z</time></trkpt><trkpt lat="42.09242752181567" lon="12.814377476022418"><ele>641.0</ele><time>2026-04-12T16:38:13.999Z</time></trkpt><trkpt lat="42.0923256084272" lon="12.814368066688116"><ele>639.5</ele><time>2026-04-12T16:38:14.999Z</time></trkpt><trkpt lat="42.09220458712559" lon="12.814383675121416"><ele>638.0</ele><time>2026-04-12T16:38:15.999Z</time></trkpt><trkpt lat="42.092085366966366" lon="12.814382785365211"><ele>636.5</ele><time>2026-04-12T16:38:16.999Z</time></trkpt><trkpt lat="42.091972630232696" lon="12.814383366005247"><ele>635.0</ele><time>2026-04-12T16:38:17.999Z</time></trkpt><trkpt lat="42.09184746801059" lon="12.814357731515557"><ele>635.0</ele><time>2026-04-12T16:38:18.999Z</time></trkpt><trkpt lat="42.09173175508335" lon="12.814348403581485"><ele>635.0</ele><time>2026-04-12T16:38:19.999Z</time></trkpt><trkpt lat="42.09161105430935" lon="12.814355334255193"><ele>635.0</ele><time>2026-04-12T16:38:20.999Z</time></trkpt><trkpt lat="42.09150295447161" lon="12.814364988755965"><ele>635.0</ele><time>2026-04-12T16:38:21.999Z</time></trkpt><trkpt lat="42.09139753959483" lon="12.814371154434147"><ele>633.6</ele><time>2026-04-12T16:38:22.999Z</time></trkpt><trkpt lat="42.09129688648482" lon="12.814376386678305"><ele>632.2</ele><time>2026-04-12T16:38:23.999Z</time></trkpt><trkpt lat="42.091180924242444" lon="12.814408895837676"><ele>630.8</ele><time>2026-04-12T16:38:24.999Z</time></trkpt><trkpt lat="42.09108149192075" lon="12.814405808805844"><ele>629.4</ele><time>2026-04-12T16:38:25.999Z</time></trkpt><trkpt lat="42.090985332510144" lon="12.814410400864707"><ele>628.0</ele><time>2026-04-12T16:38:26.999Z</time></trkpt><trkpt lat="42.09087875234907" lon="12.814425571996013"><ele>628.0</ele><time>2026-04-12T16:38:27.999Z</time></trkpt><trkpt lat="42.09077306791742" lon="12.814416756467052"><ele>628.0</ele><time>2026-04-12T16:38:28.999Z</time></trkpt><trkpt lat="42.090673305827174" lon="12.814425890467742"><ele>628.0</ele><time>2026-04-12T16:38:29.999Z</time></trkpt><trkpt lat="42.09057757003032" lon="12.81443648197915"><ele>628.0</ele><time>2026-04-12T16:38:30.999Z</time></trkpt><trkpt lat="42.09046152410251" lon="12.814438107797958"><ele>628.0</ele><time>2026-04-12T16:38:31.999Z</time></trkpt><trkpt lat="42.09036057867217" lon="12.814402836458493"><ele>625.0</ele><time>2026-04-12T16:38:32.999Z</time></trkpt><trkpt lat="42.09024602920364" lon="12.814394450911959"><ele>622.0</ele><time>2026-04-12T16:38:33.999Z</time></trkpt><trkpt lat="42.09012422008841" lon="12.814403745245487"><ele>619.0</ele><time>2026-04-12T16:38:34.999Z</time></trkpt><trkpt lat="42.09001250257624" lon="12.814428517348622"><ele>616.0</ele><time>2026-04-12T16:38:35.999Z</time></trkpt><trkpt lat="42.08989573540293" lon="12.814457462808157"><ele>613.75</ele><time>2026-04-12T16:38:36.999Z</time></trkpt><trkpt lat="42.089773297382926" lon="12.814496760053364"><ele>611.5</ele><time>2026-04-12T16:38:37.999Z</time></trkpt><trkpt lat="42.089670666719115" lon="12.814519229623754"><ele>609.25</ele><time>2026-04-12T16:38:38.999Z</time></trkpt><trkpt lat="42.08956185414782" lon="12.814557943349305"><ele>607.0</ele><time>2026-04-12T16:38:39.999Z</time></trkpt><trkpt lat="42.08944850630043" lon="12.81459093726636"><ele>607.0</ele><time>2026-04-12T16:38:40.999Z</time></trkpt><trkpt lat="42.089342858794026" lon="12.814641791981101"><ele>607.0</ele><time>2026-04-12T16:38:41.999Z</time></trkpt><trkpt lat="42.089244475741864" lon="12.814684080677866"><ele>607.0</ele><time>2026-04-12T16:38:42.999Z</time></trkpt><trkpt lat="42.08914705314953" lon="12.814725333109873"><ele>607.0</ele><time>2026-04-12T16:38:43.999Z</time></trkpt><trkpt lat="42.08902923804456" lon="12.814791937402015"><ele>607.0</ele><time>2026-04-12T16:38:44.999Z</time></trkpt><trkpt lat="42.08893247676184" lon="12.814833680407759"><ele>607.6</ele><time>2026-04-12T16:38:45.999Z</time></trkpt><trkpt lat="42.08883103710991" lon="12.814868493057821"><ele>608.2</ele><time>2026-04-12T16:38:46.999Z</time></trkpt><trkpt lat="42.08872007962025" lon="12.814925962117853"><ele>608.8</ele><time>2026-04-12T16:38:47.999Z</time></trkpt><trkpt lat="42.088610315333014" lon="12.814974090035054"><ele>609.4</ele><time>2026-04-12T16:38:48.999Z</time></trkpt><trkpt lat="42.08850748216718" lon="12.815015151738027"><ele>610.0</ele><time>2026-04-12T16:38:49.999Z</time></trkpt><trkpt lat="42.08842730100183" lon="12.815063494126619"><ele>610.0</ele><time>2026-04-12T16:38:50.999Z</time></trkpt><trkpt lat="42.08833198029654" lon="12.815104394890122"><ele>610.0</ele><time>2026-04-12T16:38:51.999Z</time></trkpt><trkpt lat="42.088243090771634" lon="12.815153313111491"><ele>610.0</ele><time>2026-04-12T16:38:52.999Z</time></trkpt><trkpt lat="42.08815359576046" lon="12.815200055655312"><ele>610.0</ele><time>2026-04-12T16:38:53.999Z</time></trkpt><trkpt lat="42.08805888783267" lon="12.815250514800542"><ele>610.0</ele><time>2026-04-12T16:38:54.999Z</time></trkpt><trkpt lat="42.087969335595176" lon="12.81528460971676"><ele>605.5</ele><time>2026-04-12T16:38:55.999Z</time></trkpt><trkpt lat="42.08786433679602" lon="12.815330219072974"><ele>601.0</ele><time>2026-04-12T16:38:56.999Z</time></trkpt><trkpt lat="42.087756713633" lon="12.815404648169283"><ele>596.5</ele><time>2026-04-12T16:38:57.999Z</time></trkpt><trkpt lat="42.087633660002446" lon="12.815486578862439"><ele>592.0</ele><time>2026-04-12T16:38:58.999Z</time></trkpt><trkpt lat="42.087510374157894" lon="12.815570087311551"><ele>593.0</ele><time>2026-04-12T16:38:59.999Z</time></trkpt><trkpt lat="42.087402698086805" lon="12.815643132592852"><ele>594.0</ele><time>2026-04-12T16:39:00.998Z</time></trkpt><trkpt lat="42.08731737490284" lon="12.815700132579261"><ele>595.0</ele><time>2026-04-12T16:39:01.998Z</time></trkpt><trkpt lat="42.087225404683146" lon="12.815741450170153"><ele>596.0</ele><time>2026-04-12T16:39:02.998Z</time></trkpt><trkpt lat="42.0871377070671" lon="12.815772191593455"><ele>597.0</ele><time>2026-04-12T16:39:04Z</time></trkpt><trkpt lat="42.08706716520093" lon="12.815811542417517"><ele>597.0</ele><time>2026-04-12T16:39:05Z</time></trkpt><trkpt lat="42.08699467940461" lon="12.815843750079772"><ele>597.0</ele><time>2026-04-12T16:39:06Z</time></trkpt><trkpt lat="42.08686756859975" lon="12.815909267223137"><ele>597.0</ele><time>2026-04-12T16:39:08Z</time></trkpt><trkpt lat="42.08673949583756" lon="12.81602706635411"><ele>597.0</ele><time>2026-04-12T16:39:10Z</time></trkpt><trkpt lat="42.08664069796042" lon="12.816092256610107"><ele>593.2</ele><time>2026-04-12T16:39:11Z</time></trkpt><trkpt lat="42.08653900930957" lon="12.81615665929614"><ele>589.4000000000001</ele><time>2026-04-12T16:39:12Z</time></trkpt><trkpt lat="42.08645318153893" lon="12.816211713996449"><ele>585.5999999999999</ele><time>2026-04-12T16:39:13Z</time></trkpt><trkpt lat="42.08635758506937" lon="12.816275543814587"><ele>581.8</ele><time>2026-04-12T16:39:14Z</time></trkpt><trkpt lat="42.08626404296515" lon="12.816351284046068"><ele>578.0</ele><time>2026-04-12T16:39:15Z</time></trkpt><trkpt lat="42.086172280882444" lon="12.816442875355943"><ele>578.0</ele><time>2026-04-12T16:39:16Z</time></trkpt><trkpt lat="42.086081160910645" lon="12.816569235497425"><ele>578.0</ele><time>2026-04-12T16:39:17Z</time></trkpt><trkpt lat="42.086000418301055" lon="12.816679416785531"><ele>578.0</ele><time>2026-04-12T16:39:18Z</time></trkpt><trkpt lat="42.08595234255847" lon="12.816802040505266"><ele>578.0</ele><time>2026-04-12T16:39:19Z</time></trkpt><trkpt lat="42.08588777664811" lon="12.816900822382783"><ele>578.0</ele><time>2026-04-12T16:39:20Z</time></trkpt><trkpt lat="42.08581639952818" lon="12.816990594628761"><ele>575.6</ele><time>2026-04-12T16:39:21Z</time></trkpt><trkpt lat="42.08574311355281" lon="12.817073562471176"><ele>573.1999999999999</ele><time>2026-04-12T16:39:22Z</time></trkpt><trkpt lat="42.08567143788557" lon="12.81716215381249"><ele>570.8</ele><time>2026-04-12T16:39:23Z</time></trkpt><trkpt lat="42.08559958975663" lon="12.817247818466114"><ele>568.4</ele><time>2026-04-12T16:39:24Z</time></trkpt><trkpt lat="42.08554015110497" lon="12.81731719646018"><ele>566.0</ele><time>2026-04-12T16:39:25Z</time></trkpt><trkpt lat="42.08547729577748" lon="12.817390647694769"><ele>566.0</ele><time>2026-04-12T16:39:25.999Z</time></trkpt><trkpt lat="42.08541125783231" lon="12.817458291606666"><ele>566.0</ele><time>2026-04-12T16:39:26.999Z</time></trkpt><trkpt lat="42.08530570851771" lon="12.817533146491368"><ele>566.0</ele><time>2026-04-12T16:39:27.999Z</time></trkpt><trkpt lat="42.085202433289986" lon="12.817614975847967"><ele>566.0</ele><time>2026-04-12T16:39:28.999Z</time></trkpt><trkpt lat="42.085114358842546" lon="12.817727784248508"><ele>566.0</ele><time>2026-04-12T16:39:29.999Z</time></trkpt><trkpt lat="42.08504835668217" lon="12.817814331986144"><ele>563.8333333333333</ele><time>2026-04-12T16:39:30.999Z</time></trkpt><trkpt lat="42.08499655809444" lon="12.817877786024576"><ele>561.6666666666666</ele><time>2026-04-12T16:39:31.999Z</time></trkpt><trkpt lat="42.084939711638626" lon="12.817956183745887"><ele>559.5</ele><time>2026-04-12T16:39:32.999Z</time></trkpt><trkpt lat="42.084874403713435" lon="12.818023667975023"><ele>557.3333333333334</ele><time>2026-04-12T16:39:33.999Z</time></trkpt><trkpt lat="42.084807331198014" lon="12.81809006184552"><ele>555.1666666666667</ele><time>2026-04-12T16:39:34.999Z</time></trkpt><trkpt lat="42.08473071249135" lon="12.818171132852804"><ele>553.0</ele><time>2026-04-12T16:39:35.999Z</time></trkpt><trkpt lat="42.0846605588581" lon="12.818242446902678"><ele>552.1999999999999</ele><time>2026-04-12T16:39:36.999Z</time></trkpt><trkpt lat="42.08459938763916" lon="12.818271289783288"><ele>551.4</ele><time>2026-04-12T16:39:37.999Z</time></trkpt><trkpt lat="42.084528256854554" lon="12.818343785177339"><ele>550.5999999999999</ele><time>2026-04-12T16:39:38.999Z</time></trkpt><trkpt lat="42.08444728235397" lon="12.818427863447512"><ele>549.8</ele><time>2026-04-12T16:39:39.999Z</time></trkpt><trkpt lat="42.08436490530366" lon="12.818497296427271"><ele>549.0</ele><time>2026-04-12T16:39:40.999Z</time></trkpt><trkpt lat="42.08425686190791" lon="12.818593459109529"><ele>546.25</ele><time>2026-04-12T16:39:41.999Z</time></trkpt><trkpt lat="42.084149131326754" lon="12.81865853013847"><ele>543.5</ele><time>2026-04-12T16:39:42.999Z</time></trkpt><trkpt lat="42.08400926522543" lon="12.81874725696626"><ele>540.75</ele><time>2026-04-12T16:39:43.999Z</time></trkpt><trkpt lat="42.08387272438886" lon="12.818845584171294"><ele>538.0</ele><time>2026-04-12T16:39:44.999Z</time></trkpt><trkpt lat="42.08377013116141" lon="12.818936334666908"><ele>537.6</ele><time>2026-04-12T16:39:45.999Z</time></trkpt><trkpt lat="42.08368756508155" lon="12.819005372905341"><ele>537.1999999999999</ele><time>2026-04-12T16:39:46.999Z</time></trkpt><trkpt lat="42.0836098335498" lon="12.819054973853572"><ele>536.8</ele><time>2026-04-12T16:39:47.999Z</time></trkpt><trkpt lat="42.083528711035086" lon="12.819108337855743"><ele>536.4</ele><time>2026-04-12T16:39:48.999Z</time></trkpt><trkpt lat="42.08343034835319" lon="12.81916045428749"><ele>536.0</ele><time>2026-04-12T16:39:49.999Z</time></trkpt><trkpt lat="42.08330334697978" lon="12.819234143437006"><ele>536.0</ele><time>2026-04-12T16:39:50.999Z</time></trkpt><trkpt lat="42.08318343213384" lon="12.81928893314634"><ele>536.0</ele><time>2026-04-12T16:39:51.999Z</time></trkpt><trkpt lat="42.083090785994365" lon="12.819323777925291"><ele>536.0</ele><time>2026-04-12T16:39:52.999Z</time></trkpt><trkpt lat="42.082982309160556" lon="12.819364161615866"><ele>536.0</ele><time>2026-04-12T16:39:53.999Z</time></trkpt><trkpt lat="42.0828668109682" lon="12.819406306850231"><ele>536.0</ele><time>2026-04-12T16:39:54.999Z</time></trkpt><trkpt lat="42.082755357199225" lon="12.819448503212763"><ele>536.0</ele><time>2026-04-12T16:39:55.999Z</time></trkpt><trkpt lat="42.08268152740243" lon="12.819474178228726"><ele>536.0</ele><time>2026-04-12T16:39:56.999Z</time></trkpt><trkpt lat="42.08261137027465" lon="12.819502361879453"><ele>536.0</ele><time>2026-04-12T16:39:57.999Z</time></trkpt><trkpt lat="42.08252287306579" lon="12.819519661559871"><ele>536.0</ele><time>2026-04-12T16:39:58.999Z</time></trkpt><trkpt lat="42.08244456114956" lon="12.819526816519728"><ele>536.0</ele><time>2026-04-12T16:39:59.999Z</time></trkpt><trkpt lat="42.08236378318678" lon="12.819560959424381"><ele>531.4</ele><time>2026-04-12T16:40:00.999Z</time></trkpt><trkpt lat="42.082280711988844" lon="12.819588831185664"><ele>526.8</ele><time>2026-04-12T16:40:01.999Z</time></trkpt><trkpt lat="42.082211966344865" lon="12.819617841814454"><ele>522.1999999999999</ele><time>2026-04-12T16:40:02.999Z</time></trkpt><trkpt lat="42.082134284780444" lon="12.819633756449225"><ele>517.6</ele><time>2026-04-12T16:40:03.999Z</time></trkpt><trkpt lat="42.08204638577915" lon="12.81967171836627"><ele>513.0</ele><time>2026-04-12T16:40:04.999Z</time></trkpt><trkpt lat="42.08190378935406" lon="12.819675706924158"><ele>513.0</ele><time>2026-04-12T16:40:06.999Z</time></trkpt><trkpt lat="42.081842122617516" lon="12.8196399850364"><ele>513.0</ele><time>2026-04-12T16:40:07.999Z</time></trkpt><trkpt lat="42.08170477019899" lon="12.81953544868688"><ele>513.0</ele><time>2026-04-12T16:40:09.999Z</time></trkpt><trkpt lat="42.08162113751103" lon="12.819474685135392"><ele>513.0</ele><time>2026-04-12T16:40:10.999Z</time></trkpt><trkpt lat="42.08155891492711" lon="12.819403383980752"><ele>513.0</ele><time>2026-04-12T16:40:11.999Z</time></trkpt><trkpt lat="42.08150717279764" lon="12.819343102004467"><ele>511.3333333333333</ele><time>2026-04-12T16:40:12.999Z</time></trkpt><trkpt lat="42.081460961874356" lon="12.81926516772541"><ele>509.66666666666663</ele><time>2026-04-12T16:40:13.999Z</time></trkpt><trkpt lat="42.08141004804656" lon="12.819201472242666"><ele>508.0</ele><time>2026-04-12T16:40:14.999Z</time></trkpt><trkpt lat="42.08139440158589" lon="12.819074920605777"><ele>506.3333333333333</ele><time>2026-04-12T16:40:15.999Z</time></trkpt><trkpt lat="42.081338607101685" lon="12.818948266943819"><ele>504.66666666666663</ele><time>2026-04-12T16:40:16.999Z</time></trkpt><trkpt lat="42.08128201684011" lon="12.818847690434708"><ele>503.0</ele><time>2026-04-12T16:40:17.999Z</time></trkpt><trkpt lat="42.08124563232252" lon="12.818739540265808"><ele>502.99999999999994</ele><time>2026-04-12T16:40:18.999Z</time></trkpt><trkpt lat="42.08119630764239" lon="12.8186518032735"><ele>503.0</ele><time>2026-04-12T16:40:19.999Z</time></trkpt><trkpt lat="42.08115208526755" lon="12.818555471533436"><ele>503.0</ele><time>2026-04-12T16:40:20.999Z</time></trkpt><trkpt lat="42.08109307595534" lon="12.818474303963256"><ele>503.0</ele><time>2026-04-12T16:40:21.999Z</time></trkpt><trkpt lat="42.081056598749896" lon="12.818372985286365"><ele>502.99999999999994</ele><time>2026-04-12T16:40:22.999Z</time></trkpt><trkpt lat="42.08104122581432" lon="12.818247390064165"><ele>503.0</ele><time>2026-04-12T16:40:23.999Z</time></trkpt><trkpt lat="42.080983085486665" lon="12.818182442506734"><ele>503.5</ele><time>2026-04-12T16:40:24.999Z</time></trkpt><trkpt lat="42.0809679042661" lon="12.817979110686453"><ele>504.0</ele><time>2026-04-12T16:40:25.999Z</time></trkpt><trkpt lat="42.08092220415193" lon="12.817822674557235"><ele>504.5</ele><time>2026-04-12T16:40:26.999Z</time></trkpt><trkpt lat="42.080859369628776" lon="12.817649418057623"><ele>505.0</ele><time>2026-04-12T16:40:27.999Z</time></trkpt><trkpt lat="42.080802331026945" lon="12.817508002893556"><ele>504.4</ele><time>2026-04-12T16:40:28.999Z</time></trkpt><trkpt lat="42.0807546721362" lon="12.817411958956914"><ele>503.8</ele><time>2026-04-12T16:40:29.999Z</time></trkpt><trkpt lat="42.08069467318954" lon="12.817344061880778"><ele>503.20000000000005</ele><time>2026-04-12T16:40:30.999Z</time></trkpt><trkpt lat="42.080651636681885" lon="12.817237508305258"><ele>502.6</ele><time>2026-04-12T16:40:31.999Z</time></trkpt><trkpt lat="42.08060321818804" lon="12.817067129360451"><ele>502.0</ele><time>2026-04-12T16:40:32.999Z</time></trkpt><trkpt lat="42.08056342537547" lon="12.81695261633206"><ele>502.0</ele><time>2026-04-12T16:40:33.999Z</time></trkpt><trkpt lat="42.08057974454226" lon="12.816853433478263"><ele>502.00000000000006</ele><time>2026-04-12T16:40:34.999Z</time></trkpt><trkpt lat="42.08060251189353" lon="12.816731579057654"><ele>502.00000000000006</ele><time>2026-04-12T16:40:35.999Z</time></trkpt><trkpt lat="42.080606975084365" lon="12.8166056300489"><ele>502.0</ele><time>2026-04-12T16:40:36.999Z</time></trkpt><trkpt lat="42.080608110024784" lon="12.816452803131797"><ele>502.0</ele><time>2026-04-12T16:40:37.999Z</time></trkpt><trkpt lat="42.08060968622771" lon="12.81631026608891"><ele>501.6</ele><time>2026-04-12T16:40:38.999Z</time></trkpt><trkpt lat="42.0805560267208" lon="12.81615038910716"><ele>501.20000000000005</ele><time>2026-04-12T16:40:40.999Z</time></trkpt><trkpt lat="42.08050537091551" lon="12.816028334689037"><ele>500.8</ele><time>2026-04-12T16:40:41.999Z</time></trkpt><trkpt lat="42.08045372765502" lon="12.81592739903347"><ele>500.4</ele><time>2026-04-12T16:40:42.999Z</time></trkpt><trkpt lat="42.08041206063698" lon="12.815851121437461"><ele>500.0</ele><time>2026-04-12T16:40:43.999Z</time></trkpt><trkpt lat="42.08039852324093" lon="12.81573175610405"><ele>498.8</ele><time>2026-04-12T16:40:45.999Z</time></trkpt><trkpt lat="42.08037095179327" lon="12.815571913906396"><ele>497.6</ele><time>2026-04-12T16:40:47.999Z</time></trkpt><trkpt lat="42.0803276077663" lon="12.815444402232266"><ele>496.4</ele><time>2026-04-12T16:40:50.999Z</time></trkpt><trkpt lat="42.08024978610652" lon="12.815352225739286"><ele>495.2</ele><time>2026-04-12T16:40:51.999Z</time></trkpt><trkpt lat="42.08018103578466" lon="12.815247841253344"><ele>494.0</ele><time>2026-04-12T16:40:52.999Z</time></trkpt><trkpt lat="42.080101264490594" lon="12.81512260486409"><ele>493.4</ele><time>2026-04-12T16:40:53.999Z</time></trkpt><trkpt lat="42.080026252848505" lon="12.815016983538825"><ele>492.79999999999995</ele><time>2026-04-12T16:40:54.999Z</time></trkpt><trkpt lat="42.07994759987275" lon="12.81489765577706"><ele>492.20000000000005</ele><time>2026-04-12T16:40:55.999Z</time></trkpt><trkpt lat="42.07987109003079" lon="12.814771126232667"><ele>491.6</ele><time>2026-04-12T16:40:56.999Z</time></trkpt><trkpt lat="42.07983522342965" lon="12.814648208167727"><ele>491.0</ele><time>2026-04-12T16:40:57.999Z</time></trkpt><trkpt lat="42.079801479548756" lon="12.81452842897891"><ele>493.20000000000005</ele><time>2026-04-12T16:40:58.999Z</time></trkpt><trkpt lat="42.07975856733829" lon="12.8143840757956"><ele>495.40000000000003</ele><time>2026-04-12T16:40:59.998Z</time></trkpt><trkpt lat="42.07971565338179" lon="12.81422928664992"><ele>497.6</ele><time>2026-04-12T16:41:00.998Z</time></trkpt><trkpt lat="42.079689557182284" lon="12.814093760298485"><ele>499.8</ele><time>2026-04-12T16:41:01.998Z</time></trkpt><trkpt lat="42.07965477337362" lon="12.813967577322376"><ele>502.0</ele><time>2026-04-12T16:41:02.998Z</time></trkpt><trkpt lat="42.07963917161152" lon="12.81384779952263"><ele>502.00000000000006</ele><time>2026-04-12T16:41:03.998Z</time></trkpt><trkpt lat="42.07961777904863" lon="12.813721278515976"><ele>502.0</ele><time>2026-04-12T16:41:04.998Z</time></trkpt><trkpt lat="42.079603616451884" lon="12.813606203679107"><ele>502.0</ele><time>2026-04-12T16:41:05.998Z</time></trkpt><trkpt lat="42.07958424861046" lon="12.81351211183914"><ele>502.0</ele><time>2026-04-12T16:41:06.998Z</time></trkpt><trkpt lat="42.07955532645635" lon="12.813424167319761"><ele>502.00000000000006</ele><time>2026-04-12T16:41:07.998Z</time></trkpt><trkpt lat="42.07952459102127" lon="12.813336373787287"><ele>502.0</ele><time>2026-04-12T16:41:08.998Z</time></trkpt><trkpt lat="42.07948152945755" lon="12.81325066330259"><ele>502.0</ele><time>2026-04-12T16:41:10Z</time></trkpt><trkpt lat="42.079450379948405" lon="12.813152248108075"><ele>502.00000000000006</ele><time>2026-04-12T16:41:11Z</time></trkpt><trkpt lat="42.079405294685294" lon="12.813056388947212"><ele>502.00000000000006</ele><time>2026-04-12T16:41:12Z</time></trkpt><trkpt lat="42.079359848069565" lon="12.81295832196819"><ele>502.0</ele><time>2026-04-12T16:41:13Z</time></trkpt><trkpt lat="42.07935006354186" lon="12.812764252407144"><ele>502.0</ele><time>2026-04-12T16:41:15Z</time></trkpt><trkpt lat="42.079371147974626" lon="12.812638269942694"><ele>502.20000000000005</ele><time>2026-04-12T16:41:16Z</time></trkpt><trkpt lat="42.079403192633656" lon="12.812503146419814"><ele>502.40000000000003</ele><time>2026-04-12T16:41:17Z</time></trkpt><trkpt lat="42.07942098727829" lon="12.812366761169528"><ele>502.59999999999997</ele><time>2026-04-12T16:41:18Z</time></trkpt><trkpt lat="42.079434315360785" lon="12.812234887458755"><ele>502.79999999999995</ele><time>2026-04-12T16:41:19Z</time></trkpt><trkpt lat="42.07945455799577" lon="12.812103926162893"><ele>503.0</ele><time>2026-04-12T16:41:20Z</time></trkpt><trkpt lat="42.07948750190845" lon="12.811966267102544"><ele>503.0</ele><time>2026-04-12T16:41:21Z</time></trkpt><trkpt lat="42.0795069433188" lon="12.81185174809404"><ele>502.99999999999994</ele><time>2026-04-12T16:41:22Z</time></trkpt><trkpt lat="42.07950615488908" lon="12.811743932857762"><ele>502.99999999999994</ele><time>2026-04-12T16:41:23Z</time></trkpt><trkpt lat="42.079556711399384" lon="12.81162105754184"><ele>503.0</ele><time>2026-04-12T16:41:25Z</time></trkpt><trkpt lat="42.07960888852298" lon="12.811537723182196"><ele>503.0</ele><time>2026-04-12T16:41:27Z</time></trkpt><trkpt lat="42.079667267706874" lon="12.811428287202967"><ele>502.99999999999994</ele><time>2026-04-12T16:41:29Z</time></trkpt><trkpt lat="42.07971169890877" lon="12.81135948373029"><ele>503.0</ele><time>2026-04-12T16:41:31.999Z</time></trkpt><trkpt lat="42.07976236725278" lon="12.811295457077813"><ele>503.0</ele><time>2026-04-12T16:41:43.999Z</time></trkpt><trkpt lat="42.07966697820512" lon="12.811359869251444"><ele>503.0</ele><time>2026-04-12T16:41:51.999Z</time></trkpt><trkpt lat="42.07958529286699" lon="12.811399486921024"><ele>502.99999999999994</ele><time>2026-04-12T16:41:53.999Z</time></trkpt><trkpt lat="42.079547001024864" lon="12.811469705307633"><ele>503.0</ele><time>2026-04-12T16:41:57.999Z</time></trkpt><trkpt lat="42.07946503109889" lon="12.811573133104442"><ele>503.0</ele><time>2026-04-12T16:42:22.999Z</time></trkpt><trkpt lat="42.079440370892286" lon="12.811670747737342"><ele>503.00000000000006</ele><time>2026-04-12T16:42:23.999Z</time></trkpt><trkpt lat="42.0794169701761" lon="12.811765586592626"><ele>503.0</ele><time>2026-04-12T16:42:24.999Z</time></trkpt><trkpt lat="42.0794348775561" lon="12.811864215745889"><ele>503.0</ele><time>2026-04-12T16:42:26.999Z</time></trkpt><trkpt lat="42.07945465424185" lon="12.81195853837162"><ele>503.00000000000006</ele><time>2026-04-12T16:42:32.999Z</time></trkpt><trkpt lat="42.079414347198544" lon="12.812026068317264"><ele>503.0</ele><time>2026-04-12T16:42:34.999Z</time></trkpt><trkpt lat="42.07934442369298" lon="12.812034133846147"><ele>503.0</ele><time>2026-04-12T16:42:42.999Z</time></trkpt><trkpt lat="42.07927227740253" lon="12.812022043488783"><ele>502.99999999999994</ele><time>2026-04-12T16:42:46.999Z</time></trkpt><trkpt lat="42.0791984891029" lon="12.812042247146847"><ele>503.0</ele><time>2026-04-12T16:42:49.999Z</time></trkpt><trkpt lat="42.07912984370451" lon="12.812065610840575"><ele>503.0</ele><time>2026-04-12T16:42:53.999Z</time></trkpt><trkpt lat="42.079047566565734" lon="12.812052836233669"><ele>503.0</ele><time>2026-04-12T16:42:57.999Z</time></trkpt><trkpt lat="42.078977653993874" lon="12.812033357892782"><ele>502.99999999999994</ele><time>2026-04-12T16:43:00.999Z</time></trkpt><trkpt lat="42.078985106181484" lon="12.811934061011256"><ele>503.0</ele><time>2026-04-12T16:43:02.999Z</time></trkpt><trkpt lat="42.079056888786795" lon="12.811818972659738"><ele>502.99999999999994</ele><time>2026-04-12T16:43:05.999Z</time></trkpt><trkpt lat="42.07908120781474" lon="12.811724613934162"><ele>503.0</ele><time>2026-04-12T16:43:08.998Z</time></trkpt><trkpt lat="42.07912489959706" lon="12.811646393174085"><ele>503.0</ele><time>2026-04-12T16:43:14.998Z</time></trkpt><trkpt lat="42.07920217598054" lon="12.811572616638225"><ele>503.0</ele><time>2026-04-12T16:43:18Z</time></trkpt><trkpt lat="42.07925076892915" lon="12.811483703803294"><ele>502.99999999999994</ele><time>2026-04-12T16:43:21Z</time></trkpt><trkpt lat="42.07926682013683" lon="12.811396853041972"><ele>503.0</ele><time>2026-04-12T16:43:25Z</time></trkpt><trkpt lat="42.07927896154176" lon="12.811285910931838"><ele>503.0</ele><time>2026-04-12T16:43:27Z</time></trkpt><trkpt lat="42.079281478226065" lon="12.81119121549039"><ele>502.99999999999994</ele><time>2026-04-12T16:43:29Z</time></trkpt><trkpt lat="42.079302853547965" lon="12.811052486962948"><ele>502.99999999999994</ele><time>2026-04-12T16:43:31Z</time></trkpt><trkpt lat="42.07935355027062" lon="12.810884721753323"><ele>503.0</ele><time>2026-04-12T16:43:33Z</time></trkpt><trkpt lat="42.079385363440686" lon="12.810754773989377"><ele>503.0</ele><time>2026-04-12T16:43:34.999Z</time></trkpt><trkpt lat="42.07936515574179" lon="12.810662379442144"><ele>502.79999999999995</ele><time>2026-04-12T16:43:36.999Z</time></trkpt><trkpt lat="42.079359002487706" lon="12.810517829521224"><ele>502.59999999999997</ele><time>2026-04-12T16:43:39.999Z</time></trkpt><trkpt lat="42.07933815357629" lon="12.810425932875255"><ele>502.40000000000003</ele><time>2026-04-12T16:43:40.999Z</time></trkpt><trkpt lat="42.07934053669404" lon="12.810290432897093"><ele>502.20000000000005</ele><time>2026-04-12T16:43:42.999Z</time></trkpt><trkpt lat="42.07930458491784" lon="12.810165190243474"><ele>502.0</ele><time>2026-04-12T16:43:43.999Z</time></trkpt><trkpt lat="42.07929133139701" lon="12.810058888257887"><ele>500.40000000000003</ele><time>2026-04-12T16:43:44.999Z</time></trkpt><trkpt lat="42.07925955511307" lon="12.809928504268338"><ele>498.80000000000007</ele><time>2026-04-12T16:43:46.999Z</time></trkpt><trkpt lat="42.0792054772621" lon="12.809742411358215"><ele>497.2</ele><time>2026-04-12T16:43:48.999Z</time></trkpt><trkpt lat="42.079162978225746" lon="12.80966740848091"><ele>495.6</ele><time>2026-04-12T16:43:49.999Z</time></trkpt><trkpt lat="42.07910270125073" lon="12.80957519652888"><ele>494.0</ele><time>2026-04-12T16:43:50.999Z</time></trkpt><trkpt lat="42.079052098705226" lon="12.809487983386635"><ele>494.99999999999994</ele><time>2026-04-12T16:43:51.999Z</time></trkpt><trkpt lat="42.079005271482814" lon="12.80941724798071"><ele>496.0</ele><time>2026-04-12T16:43:52.999Z</time></trkpt><trkpt lat="42.078973788119995" lon="12.809339523161807"><ele>497.0</ele><time>2026-04-12T16:43:53.999Z</time></trkpt><trkpt lat="42.07892997881811" lon="12.809241097016372"><ele>498.0</ele><time>2026-04-12T16:43:54.999Z</time></trkpt><trkpt lat="42.07887844813586" lon="12.809181606193174"><ele>498.99999999999994</ele><time>2026-04-12T16:43:55.999Z</time></trkpt><trkpt lat="42.078779502506215" lon="12.809128278669103"><ele>500.0</ele><time>2026-04-12T16:43:57.999Z</time></trkpt><trkpt lat="42.0787152649361" lon="12.809086631923968"><ele>500.0</ele><time>2026-04-12T16:43:58.999Z</time></trkpt><trkpt lat="42.07860522575122" lon="12.808973196730618"><ele>500.0</ele><time>2026-04-12T16:44:00.999Z</time></trkpt><trkpt lat="42.0785384027572" lon="12.808867239271283"><ele>500.0</ele><time>2026-04-12T16:44:02.999Z</time></trkpt><trkpt lat="42.07851172542041" lon="12.808787472248444"><ele>500.0</ele><time>2026-04-12T16:44:03.999Z</time></trkpt><trkpt lat="42.078439183331234" lon="12.808691306424329"><ele>500.0</ele><time>2026-04-12T16:44:05.999Z</time></trkpt><trkpt lat="42.07841773147656" lon="12.808592439918886"><ele>497.8</ele><time>2026-04-12T16:44:06.999Z</time></trkpt><trkpt lat="42.07839332596364" lon="12.808455549960074"><ele>495.6</ele><time>2026-04-12T16:44:08.999Z</time></trkpt><trkpt lat="42.07841110553293" lon="12.808369692674148"><ele>493.4</ele><time>2026-04-12T16:44:09.999Z</time></trkpt><trkpt lat="42.078424467640424" lon="12.808188851217054"><ele>491.2</ele><time>2026-04-12T16:44:10.999Z</time></trkpt><trkpt lat="42.07842783706775" lon="12.808028551777124"><ele>489.0</ele><time>2026-04-12T16:44:11.999Z</time></trkpt><trkpt lat="42.07840424159041" lon="12.807923265500024"><ele>489.0</ele><time>2026-04-12T16:44:12.999Z</time></trkpt><trkpt lat="42.07838798032199" lon="12.807711788785294"><ele>489.0</ele><time>2026-04-12T16:44:14.999Z</time></trkpt><trkpt lat="42.078394139770715" lon="12.807560471157718"><ele>489.0</ele><time>2026-04-12T16:44:15.999Z</time></trkpt><trkpt lat="42.07843761924122" lon="12.807415571818305"><ele>489.0</ele><time>2026-04-12T16:44:16.999Z</time></trkpt><trkpt lat="42.078499209785264" lon="12.807294064309097"><ele>488.6666666666667</ele><time>2026-04-12T16:44:17.999Z</time></trkpt><trkpt lat="42.078569398003694" lon="12.807194477456603"><ele>488.33333333333337</ele><time>2026-04-12T16:44:18.999Z</time></trkpt><trkpt lat="42.07859425189502" lon="12.807101007194078"><ele>488.0</ele><time>2026-04-12T16:44:19.999Z</time></trkpt><trkpt lat="42.07863760530048" lon="12.80701615815239"><ele>487.6666666666667</ele><time>2026-04-12T16:44:20.999Z</time></trkpt><trkpt lat="42.07868807063709" lon="12.806928700177158"><ele>487.33333333333337</ele><time>2026-04-12T16:44:21.999Z</time></trkpt><trkpt lat="42.078734878806465" lon="12.806843520933649"><ele>487.0</ele><time>2026-04-12T16:44:22.999Z</time></trkpt><trkpt lat="42.07877175932625" lon="12.806743145232401"><ele>488.1666666666667</ele><time>2026-04-12T16:44:23.999Z</time></trkpt><trkpt lat="42.07878482354798" lon="12.806566302139233"><ele>489.33333333333337</ele><time>2026-04-12T16:44:25.999Z</time></trkpt><trkpt lat="42.07878830747407" lon="12.80646422682684"><ele>490.5</ele><time>2026-04-12T16:44:26.999Z</time></trkpt><trkpt lat="42.078796327281985" lon="12.806369004294536"><ele>491.66666666666663</ele><time>2026-04-12T16:44:27.999Z</time></trkpt><trkpt lat="42.0788024631106" lon="12.806283013953092"><ele>492.8333333333333</ele><time>2026-04-12T16:44:28.999Z</time></trkpt><trkpt lat="42.07881099616714" lon="12.806188174907517"><ele>494.0</ele><time>2026-04-12T16:44:29.999Z</time></trkpt><trkpt lat="42.07882171408744" lon="12.806088845160776"><ele>495.2</ele><time>2026-04-12T16:44:30.999Z</time></trkpt><trkpt lat="42.078837023261116" lon="12.805943946517669"><ele>496.4</ele><time>2026-04-12T16:44:32.999Z</time></trkpt><trkpt lat="42.07886336092115" lon="12.80582660766133"><ele>497.6</ele><time>2026-04-12T16:44:34.999Z</time></trkpt><trkpt lat="42.078911589272224" lon="12.805684227478537"><ele>498.8</ele><time>2026-04-12T16:44:36.999Z</time></trkpt><trkpt lat="42.078940799173125" lon="12.805593397476482"><ele>500.0</ele><time>2026-04-12T16:44:37.999Z</time></trkpt><trkpt lat="42.078984567102985" lon="12.805507194707628"><ele>500.0</ele><time>2026-04-12T16:44:38.999Z</time></trkpt><trkpt lat="42.079008350156585" lon="12.805367297941645"><ele>500.0</ele><time>2026-04-12T16:44:40.999Z</time></trkpt><trkpt lat="42.079030953390514" lon="12.805245900165279"><ele>500.0</ele><time>2026-04-12T16:44:42.999Z</time></trkpt><trkpt lat="42.07902936846527" lon="12.805111130068804"><ele>500.0</ele><time>2026-04-12T16:44:44.999Z</time></trkpt><trkpt lat="42.07904667467656" lon="12.805007907652525"><ele>500.0</ele><time>2026-04-12T16:44:46.999Z</time></trkpt><trkpt lat="42.079106814664435" lon="12.804871860160617"><ele>500.16666666666663</ele><time>2026-04-12T16:44:48.999Z</time></trkpt><trkpt lat="42.07914765695755" lon="12.80478971314768"><ele>500.3333333333333</ele><time>2026-04-12T16:44:49.999Z</time></trkpt><trkpt lat="42.07916911042673" lon="12.804699259068514"><ele>500.5</ele><time>2026-04-12T16:44:50.999Z</time></trkpt><trkpt lat="42.07912063808559" lon="12.804574257518794"><ele>500.66666666666663</ele><time>2026-04-12T16:44:53.999Z</time></trkpt><trkpt lat="42.07908914892432" lon="12.804463736594446"><ele>500.8333333333333</ele><time>2026-04-12T16:44:54.999Z</time></trkpt><trkpt lat="42.0790658997982" lon="12.804384325486252"><ele>501.0</ele><time>2026-04-12T16:44:55.999Z</time></trkpt><trkpt lat="42.07904355277646" lon="12.804274434134834"><ele>497.3333333333333</ele><time>2026-04-12T16:44:57.999Z</time></trkpt><trkpt lat="42.079109619538855" lon="12.804169152881022"><ele>493.66666666666663</ele><time>2026-04-12T16:44:59.999Z</time></trkpt><trkpt lat="42.07914047700219" lon="12.804080954634735"><ele>490.0</ele><time>2026-04-12T16:45:00.999Z</time></trkpt><trkpt lat="42.07917669686165" lon="12.804004404074856"><ele>486.3333333333333</ele><time>2026-04-12T16:45:01.999Z</time></trkpt><trkpt lat="42.07921833521444" lon="12.80389746601507"><ele>482.66666666666663</ele><time>2026-04-12T16:45:03.999Z</time></trkpt><trkpt lat="42.07925656618872" lon="12.803754312283301"><ele>479.0</ele><time>2026-04-12T16:45:05.999Z</time></trkpt><trkpt lat="42.07927480920692" lon="12.803663902484997"><ele>478.99999999999994</ele><time>2026-04-12T16:45:06.999Z</time></trkpt><trkpt lat="42.07930228995561" lon="12.803534549440412"><ele>479.0</ele><time>2026-04-12T16:45:08.998Z</time></trkpt><trkpt lat="42.07930566736754" lon="12.803392459658765"><ele>479.0</ele><time>2026-04-12T16:45:10.998Z</time></trkpt><trkpt lat="42.07931752614902" lon="12.803282156511518"><ele>479.0</ele><time>2026-04-12T16:45:14.998Z</time></trkpt><trkpt lat="42.07929614028238" lon="12.803202363043763"><ele>478.99999999999994</ele><time>2026-04-12T16:45:17.998Z</time></trkpt><trkpt lat="42.07931380103387" lon="12.803072474640173"><ele>479.0</ele><time>2026-04-12T16:45:18.998Z</time></trkpt><trkpt lat="42.07932766574332" lon="12.802943675256323"><ele>479.25</ele><time>2026-04-12T16:45:24Z</time></trkpt><trkpt lat="42.07937756682598" lon="12.80275962073962"><ele>479.5</ele><time>2026-04-12T16:45:26Z</time></trkpt><trkpt lat="42.07938356478305" lon="12.80259957482994"><ele>479.75</ele><time>2026-04-12T16:45:27Z</time></trkpt><trkpt lat="42.079398903135" lon="12.80244766629088"><ele>480.0</ele><time>2026-04-12T16:45:28Z</time></trkpt><trkpt lat="42.07940765849532" lon="12.802335307627521"><ele>480.0</ele><time>2026-04-12T16:45:29Z</time></trkpt><trkpt lat="42.07942222219566" lon="12.802199568517512"><ele>480.0</ele><time>2026-04-12T16:45:30Z</time></trkpt><trkpt lat="42.07942608719203" lon="12.802083456765061"><ele>480.0</ele><time>2026-04-12T16:45:31Z</time></trkpt><trkpt lat="42.07942491171602" lon="12.801956185093944"><ele>480.0</ele><time>2026-04-12T16:45:32Z</time></trkpt><trkpt lat="42.07941549566096" lon="12.80182572268561"><ele>480.0</ele><time>2026-04-12T16:45:33Z</time></trkpt><trkpt lat="42.07940870941806" lon="12.801716069645472"><ele>479.5</ele><time>2026-04-12T16:45:34Z</time></trkpt><trkpt lat="42.079385334924346" lon="12.801587849030458"><ele>479.0</ele><time>2026-04-12T16:45:35Z</time></trkpt><trkpt lat="42.07937918493435" lon="12.801470237172921"><ele>478.5</ele><time>2026-04-12T16:45:36Z</time></trkpt><trkpt lat="42.07938732693324" lon="12.801350029466146"><ele>478.0</ele><time>2026-04-12T16:45:37Z</time></trkpt><trkpt lat="42.079394281184356" lon="12.80123255249654"><ele>477.5</ele><time>2026-04-12T16:45:37.999Z</time></trkpt><trkpt lat="42.07937945720817" lon="12.801135706157254"><ele>477.0</ele><time>2026-04-12T16:45:38.999Z</time></trkpt><trkpt lat="42.07938198720384" lon="12.800930364191089"><ele>475.6</ele><time>2026-04-12T16:45:40.999Z</time></trkpt><trkpt lat="42.07940291264181" lon="12.80084023332446"><ele>474.20000000000005</ele><time>2026-04-12T16:45:41.999Z</time></trkpt><trkpt lat="42.07942715627863" lon="12.800686401391484"><ele>472.8</ele><time>2026-04-12T16:45:43.999Z</time></trkpt><trkpt lat="42.079444256270065" lon="12.800521163217075"><ele>471.4</ele><time>2026-04-12T16:45:46Z</time></trkpt><trkpt lat="42.07945230489031" lon="12.8004327194062"><ele>470.0</ele><time>2026-04-12T16:45:47Z</time></trkpt><trkpt lat="42.07945704106286" lon="12.800270156701881"><ele>469.49999999999994</ele><time>2026-04-12T16:45:49Z</time></trkpt><trkpt lat="42.079436964613784" lon="12.800165644284853"><ele>469.0</ele><time>2026-04-12T16:45:51Z</time></trkpt><trkpt lat="42.07940652848014" lon="12.80004029900582"><ele>468.5</ele><time>2026-04-12T16:45:53Z</time></trkpt><trkpt lat="42.07938117808835" lon="12.799892237003297"><ele>468.0</ele><time>2026-04-12T16:45:55Z</time></trkpt><trkpt lat="42.079360889419014" lon="12.799794282697002"><ele>467.49999999999994</ele><time>2026-04-12T16:45:56Z</time></trkpt><trkpt lat="42.079322383775235" lon="12.799706781189961"><ele>467.0</ele><time>2026-04-12T16:45:57Z</time></trkpt><trkpt lat="42.07925890418733" lon="12.799550721463197"><ele>467.0</ele><time>2026-04-12T16:45:59Z</time></trkpt><trkpt lat="42.07922309320784" lon="12.79948041630714"><ele>467.00000000000006</ele><time>2026-04-12T16:46:00Z</time></trkpt><trkpt lat="42.079130409129036" lon="12.799349472419827"><ele>467.00000000000006</ele><time>2026-04-12T16:46:02Z</time></trkpt><trkpt lat="42.07909228896823" lon="12.799264384817278"><ele>467.0</ele><time>2026-04-12T16:46:03Z</time></trkpt><trkpt lat="42.079055218096805" lon="12.79918796084056"><ele>467.0</ele><time>2026-04-12T16:46:04Z</time></trkpt><trkpt lat="42.07896804607067" lon="12.79906733091974"><ele>468.3333333333333</ele><time>2026-04-12T16:46:06Z</time></trkpt><trkpt lat="42.078895896669636" lon="12.799007592249373"><ele>469.66666666666663</ele><time>2026-04-12T16:46:07Z</time></trkpt><trkpt lat="42.07882899909189" lon="12.798950755638309"><ele>471.0</ele><time>2026-04-12T16:46:08Z</time></trkpt><trkpt lat="42.0787676936474" lon="12.798901155552262"><ele>472.33333333333337</ele><time>2026-04-12T16:46:09Z</time></trkpt><trkpt lat="42.078710302964744" lon="12.798843003552246"><ele>473.6666666666667</ele><time>2026-04-12T16:46:10Z</time></trkpt><trkpt lat="42.07865290364126" lon="12.798790422212482"><ele>475.0</ele><time>2026-04-12T16:46:11Z</time></trkpt><trkpt lat="42.07858596397562" lon="12.798706564692074"><ele>475.0</ele><time>2026-04-12T16:46:12Z</time></trkpt><trkpt lat="42.078525549646265" lon="12.798627335937141"><ele>475.0</ele><time>2026-04-12T16:46:13Z</time></trkpt><trkpt lat="42.0784744535962" lon="12.7984816911452"><ele>475.0</ele><time>2026-04-12T16:46:15Z</time></trkpt><trkpt lat="42.07846961292581" lon="12.798339857216211"><ele>475.0</ele><time>2026-04-12T16:46:17Z</time></trkpt><trkpt lat="42.078499401961174" lon="12.798260818559653"><ele>475.0</ele><time>2026-04-12T16:46:18Z</time></trkpt><trkpt lat="42.07853651988114" lon="12.798146414592187"><ele>472.6</ele><time>2026-04-12T16:46:20Z</time></trkpt><trkpt lat="42.07853443946833" lon="12.798060257784678"><ele>470.2</ele><time>2026-04-12T16:46:21Z</time></trkpt><trkpt lat="42.07852903788153" lon="12.797903365874069"><ele>467.79999999999995</ele><time>2026-04-12T16:46:23Z</time></trkpt><trkpt lat="42.07853440664811" lon="12.797811542591644"><ele>465.4</ele><time>2026-04-12T16:46:24Z</time></trkpt><trkpt lat="42.07853705940072" lon="12.797718660290732"><ele>463.0</ele><time>2026-04-12T16:46:25Z</time></trkpt><trkpt lat="42.07850113569166" lon="12.797544467639147"><ele>462.50000000000006</ele><time>2026-04-12T16:46:27Z</time></trkpt><trkpt lat="42.078489521234765" lon="12.797438508838997"><ele>462.0</ele><time>2026-04-12T16:46:28Z</time></trkpt><trkpt lat="42.078490557515934" lon="12.797326964319943"><ele>461.5</ele><time>2026-04-12T16:46:29Z</time></trkpt><trkpt lat="42.07850245597688" lon="12.797222730323346"><ele>461.0</ele><time>2026-04-12T16:46:30Z</time></trkpt><trkpt lat="42.07850522861186" lon="12.797091053699518"><ele>460.50000000000006</ele><time>2026-04-12T16:46:32Z</time></trkpt><trkpt lat="42.078503768027836" lon="12.796981269654092"><ele>460.0</ele><time>2026-04-12T16:46:34Z</time></trkpt><trkpt lat="42.07855568766474" lon="12.796874472002642"><ele>460.2</ele><time>2026-04-12T16:46:36Z</time></trkpt><trkpt lat="42.07862355293675" lon="12.796755919339084"><ele>460.4</ele><time>2026-04-12T16:46:38Z</time></trkpt><trkpt lat="42.078687000933975" lon="12.796657058454883"><ele>460.6</ele><time>2026-04-12T16:46:40Z</time></trkpt><trkpt lat="42.0787316948893" lon="12.796508141672074"><ele>460.8</ele><time>2026-04-12T16:46:42Z</time></trkpt><trkpt lat="42.078759580610246" lon="12.79639325415816"><ele>461.0</ele><time>2026-04-12T16:46:44Z</time></trkpt><trkpt lat="42.07875637452053" lon="12.796262451193677"><ele>460.99999999999994</ele><time>2026-04-12T16:46:45Z</time></trkpt><trkpt lat="42.07871918604208" lon="12.796146455329591"><ele>461.0</ele><time>2026-04-12T16:46:46Z</time></trkpt><trkpt lat="42.07871055881732" lon="12.796052722194341"><ele>461.0</ele><time>2026-04-12T16:46:47Z</time></trkpt><trkpt lat="42.07871308012429" lon="12.795942424229972"><ele>461.0</ele><time>2026-04-12T16:46:48Z</time></trkpt><trkpt lat="42.07871528692976" lon="12.795830808948063"><ele>460.99999999999994</ele><time>2026-04-12T16:46:49Z</time></trkpt><trkpt lat="42.07870147057547" lon="12.795714334269752"><ele>461.0</ele><time>2026-04-12T16:46:50Z</time></trkpt><trkpt lat="42.07869718854852" lon="12.795597072193502"><ele>460.8333333333333</ele><time>2026-04-12T16:46:51Z</time></trkpt><trkpt lat="42.078699250234685" lon="12.795472231318211"><ele>460.66666666666663</ele><time>2026-04-12T16:46:52Z</time></trkpt><trkpt lat="42.0786884988108" lon="12.795352777750132"><ele>460.5</ele><time>2026-04-12T16:46:53Z</time></trkpt><trkpt lat="42.07868307288042" lon="12.795246081562551"><ele>460.33333333333337</ele><time>2026-04-12T16:46:54Z</time></trkpt><trkpt lat="42.07867775824157" lon="12.795130569391125"><ele>460.1666666666667</ele><time>2026-04-12T16:46:55Z</time></trkpt><trkpt lat="42.07868286223662" lon="12.795005377032727"><ele>460.0</ele><time>2026-04-12T16:46:56Z</time></trkpt><trkpt lat="42.07868528594094" lon="12.794876080966686"><ele>460.0</ele><time>2026-04-12T16:46:57Z</time></trkpt><trkpt lat="42.07869367803302" lon="12.794735235408028"><ele>460.0</ele><time>2026-04-12T16:46:58Z</time></trkpt><trkpt lat="42.078701192599816" lon="12.794618902268498"><ele>460.0</ele><time>2026-04-12T16:46:59Z</time></trkpt><trkpt lat="42.078709457512076" lon="12.794489765423517"><ele>460.0</ele><time>2026-04-12T16:47:00Z</time></trkpt><trkpt lat="42.07870900633905" lon="12.794376816796959"><ele>460.0</ele><time>2026-04-12T16:47:01Z</time></trkpt><trkpt lat="42.078711819367655" lon="12.794261273894394"><ele>460.0</ele><time>2026-04-12T16:47:02Z</time></trkpt><trkpt lat="42.078696915880464" lon="12.794138628736844"><ele>460.0</ele><time>2026-04-12T16:47:03Z</time></trkpt><trkpt lat="42.07868830805641" lon="12.794004803602094"><ele>460.0</ele><time>2026-04-12T16:47:04Z</time></trkpt><trkpt lat="42.07866075250685" lon="12.79388879662217"><ele>460.0</ele><time>2026-04-12T16:47:05Z</time></trkpt><trkpt lat="42.07863270824913" lon="12.793757120222516"><ele>460.0</ele><time>2026-04-12T16:47:06Z</time></trkpt><trkpt lat="42.078605341038426" lon="12.793654241373558"><ele>460.00000000000006</ele><time>2026-04-12T16:47:07Z</time></trkpt><trkpt lat="42.078573728892266" lon="12.793567295118255"><ele>460.0</ele><time>2026-04-12T16:47:08Z</time></trkpt><trkpt lat="42.07854458755697" lon="12.793478490897792"><ele>460.0</ele><time>2026-04-12T16:47:09Z</time></trkpt><trkpt lat="42.07850752936194" lon="12.793368878949487"><ele>460.0</ele><time>2026-04-12T16:47:10Z</time></trkpt><trkpt lat="42.07847324774603" lon="12.793283463190614"><ele>460.00000000000006</ele><time>2026-04-12T16:47:11Z</time></trkpt><trkpt lat="42.078439377888934" lon="12.79318370444862"><ele>460.0</ele><time>2026-04-12T16:47:11.999Z</time></trkpt><trkpt lat="42.07838213673784" lon="12.79302963014875"><ele>459.50000000000006</ele><time>2026-04-12T16:47:13.999Z</time></trkpt><trkpt lat="42.07836051879191" lon="12.792948035093149"><ele>459.0</ele><time>2026-04-12T16:47:14.999Z</time></trkpt><trkpt lat="42.078332488109865" lon="12.7928631421605"><ele>458.5</ele><time>2026-04-12T16:47:15.999Z</time></trkpt><trkpt lat="42.078299179922915" lon="12.79275716218152"><ele>458.0</ele><time>2026-04-12T16:47:16.999Z</time></trkpt><trkpt lat="42.078277382981405" lon="12.79264490147897"><ele>457.50000000000006</ele><time>2026-04-12T16:47:17.999Z</time></trkpt><trkpt lat="42.07821690625396" lon="12.792540886453427"><ele>457.0</ele><time>2026-04-12T16:47:18.999Z</time></trkpt><trkpt lat="42.07817756146823" lon="12.792457987026099"><ele>459.40000000000003</ele><time>2026-04-12T16:47:19.999Z</time></trkpt><trkpt lat="42.07817358113834" lon="12.792274028768276"><ele>461.80000000000007</ele><time>2026-04-12T16:47:21.999Z</time></trkpt><trkpt lat="42.078150146830644" lon="12.792139101696648"><ele>464.2</ele><time>2026-04-12T16:47:22.999Z</time></trkpt><trkpt lat="42.07813582832893" lon="12.79200398581438"><ele>466.6</ele><time>2026-04-12T16:47:23.999Z</time></trkpt><trkpt lat="42.07812764878305" lon="12.79189711709282"><ele>469.0</ele><time>2026-04-12T16:47:24.999Z</time></trkpt><trkpt lat="42.078120508651864" lon="12.791784565048523"><ele>469.0</ele><time>2026-04-12T16:47:25.999Z</time></trkpt><trkpt lat="42.07809822321741" lon="12.791674857879016"><ele>469.0</ele><time>2026-04-12T16:47:26.999Z</time></trkpt><trkpt lat="42.07807076806847" lon="12.791563475483384"><ele>469.0</ele><time>2026-04-12T16:47:28Z</time></trkpt><trkpt lat="42.07802957517333" lon="12.791433811125042"><ele>469.0</ele><time>2026-04-12T16:47:29Z</time></trkpt><trkpt lat="42.07799609383551" lon="12.791296827109731"><ele>469.0</ele><time>2026-04-12T16:47:30Z</time></trkpt><trkpt lat="42.07795863117726" lon="12.79115867231657"><ele>469.0</ele><time>2026-04-12T16:47:31Z</time></trkpt><trkpt lat="42.077925394622845" lon="12.791066509627004"><ele>469.0</ele><time>2026-04-12T16:47:32Z</time></trkpt><trkpt lat="42.07788777591933" lon="12.790987711878401"><ele>469.0</ele><time>2026-04-12T16:47:33Z</time></trkpt><trkpt lat="42.0778316277992" lon="12.79089348900295"><ele>469.0</ele><time>2026-04-12T16:47:34Z</time></trkpt><trkpt lat="42.077764448109036" lon="12.79079085146262"><ele>469.0</ele><time>2026-04-12T16:47:35Z</time></trkpt><trkpt lat="42.077674126870605" lon="12.79066278212476"><ele>468.00000000000006</ele><time>2026-04-12T16:47:36Z</time></trkpt><trkpt lat="42.077617828594335" lon="12.790566180138585"><ele>467.0</ele><time>2026-04-12T16:47:37Z</time></trkpt><trkpt lat="42.07755853826767" lon="12.790479073190529"><ele>466.0</ele><time>2026-04-12T16:47:38Z</time></trkpt><trkpt lat="42.07750494538233" lon="12.790408979447177"><ele>465.0</ele><time>2026-04-12T16:47:39Z</time></trkpt><trkpt lat="42.07745606521912" lon="12.790335486785565"><ele>464.00000000000006</ele><time>2026-04-12T16:47:40Z</time></trkpt><trkpt lat="42.07742029563136" lon="12.790241483446742"><ele>463.0</ele><time>2026-04-12T16:47:41Z</time></trkpt><trkpt lat="42.077396593116816" lon="12.790116318520406"><ele>469.25</ele><time>2026-04-12T16:47:42Z</time></trkpt><trkpt lat="42.07737740419553" lon="12.789968809803508"><ele>475.5</ele><time>2026-04-12T16:47:43Z</time></trkpt><trkpt lat="42.0773599806895" lon="12.789803654655275"><ele>481.75</ele><time>2026-04-12T16:47:44Z</time></trkpt><trkpt lat="42.07735697319759" lon="12.789662905088676"><ele>488.0</ele><time>2026-04-12T16:47:45Z</time></trkpt><trkpt lat="42.077357856409364" lon="12.78951070090838"><ele>488.0</ele><time>2026-04-12T16:47:46Z</time></trkpt><trkpt lat="42.07737479435194" lon="12.789362022082718"><ele>488.0</ele><time>2026-04-12T16:47:47Z</time></trkpt><trkpt lat="42.07737730464485" lon="12.789206298378287"><ele>488.0</ele><time>2026-04-12T16:47:48Z</time></trkpt><trkpt lat="42.07737020323895" lon="12.789027131462008"><ele>488.0</ele><time>2026-04-12T16:47:49Z</time></trkpt><trkpt lat="42.07735804941722" lon="12.788853056607275"><ele>488.0</ele><time>2026-04-12T16:47:50Z</time></trkpt><trkpt lat="42.07736581578735" lon="12.788709811115634"><ele>487.99999999999994</ele><time>2026-04-12T16:47:51Z</time></trkpt><trkpt lat="42.07737797985084" lon="12.788597845738714"><ele>487.99999999999994</ele><time>2026-04-12T16:47:52Z</time></trkpt><trkpt lat="42.077410205638635" lon="12.788479154510513"><ele>488.0</ele><time>2026-04-12T16:47:53Z</time></trkpt><trkpt lat="42.077452366805915" lon="12.78835062560761"><ele>488.0</ele><time>2026-04-12T16:47:54Z</time></trkpt><trkpt lat="42.07751313804166" lon="12.788224425263016"><ele>479.75</ele><time>2026-04-12T16:47:55Z</time></trkpt><trkpt lat="42.07757632684964" lon="12.7880908957621"><ele>471.5</ele><time>2026-04-12T16:47:56Z</time></trkpt><trkpt lat="42.07765247079694" lon="12.787971510296105"><ele>463.25</ele><time>2026-04-12T16:47:57Z</time></trkpt><trkpt lat="42.07771370361933" lon="12.787860444142646"><ele>455.0</ele><time>2026-04-12T16:47:58Z</time></trkpt><trkpt lat="42.077791549201564" lon="12.787745520779328"><ele>457.8</ele><time>2026-04-12T16:47:59Z</time></trkpt><trkpt lat="42.07785750729821" lon="12.787619678403539"><ele>460.6</ele><time>2026-04-12T16:48:00Z</time></trkpt><trkpt lat="42.077941306528864" lon="12.787540953847774"><ele>463.4</ele><time>2026-04-12T16:48:01Z</time></trkpt><trkpt lat="42.078008618902466" lon="12.787463485738487"><ele>466.2</ele><time>2026-04-12T16:48:02Z</time></trkpt><trkpt lat="42.078085258273184" lon="12.787407273006288"><ele>469.0</ele><time>2026-04-12T16:48:03Z</time></trkpt><trkpt lat="42.07818186020836" lon="12.787369204026536"><ele>469.00000000000006</ele><time>2026-04-12T16:48:04Z</time></trkpt><trkpt lat="42.07824851598834" lon="12.787338778355323"><ele>469.0</ele><time>2026-04-12T16:48:05Z</time></trkpt><trkpt lat="42.07831205097935" lon="12.787288152654014"><ele>469.0</ele><time>2026-04-12T16:48:06Z</time></trkpt><trkpt lat="42.07836768741822" lon="12.787182042828332"><ele>469.0</ele><time>2026-04-12T16:48:07Z</time></trkpt><trkpt lat="42.07840860776094" lon="12.78709071642963"><ele>469.00000000000006</ele><time>2026-04-12T16:48:08Z</time></trkpt><trkpt lat="42.078443937342044" lon="12.786994240450195"><ele>469.0</ele><time>2026-04-12T16:48:09Z</time></trkpt><trkpt lat="42.07845562215088" lon="12.78689235376926"><ele>468.2</ele><time>2026-04-12T16:48:10Z</time></trkpt><trkpt lat="42.07844134633962" lon="12.786756384655028"><ele>467.4</ele><time>2026-04-12T16:48:11Z</time></trkpt><trkpt lat="42.07841222761969" lon="12.786609471187376"><ele>466.6</ele><time>2026-04-12T16:48:12Z</time></trkpt><trkpt lat="42.07839196059048" lon="12.786446782065683"><ele>465.8</ele><time>2026-04-12T16:48:13Z</time></trkpt><trkpt lat="42.07838669104782" lon="12.78630412664067"><ele>465.0</ele><time>2026-04-12T16:48:14Z</time></trkpt><trkpt lat="42.07839182526052" lon="12.78618030486897"><ele>465.0</ele><time>2026-04-12T16:48:15Z</time></trkpt><trkpt lat="42.07842156287101" lon="12.78605857456951"><ele>465.0</ele><time>2026-04-12T16:48:16Z</time></trkpt><trkpt lat="42.07843550451612" lon="12.785927561478784"><ele>465.0</ele><time>2026-04-12T16:48:17Z</time></trkpt><trkpt lat="42.07847429255526" lon="12.785765810794633"><ele>465.0</ele><time>2026-04-12T16:48:18Z</time></trkpt><trkpt lat="42.07850227970271" lon="12.78561677321192"><ele>465.0</ele><time>2026-04-12T16:48:19Z</time></trkpt><trkpt lat="42.07851545326634" lon="12.785461537175534"><ele>465.75</ele><time>2026-04-12T16:48:20Z</time></trkpt><trkpt lat="42.07852534245256" lon="12.785321541186885"><ele>466.5</ele><time>2026-04-12T16:48:21Z</time></trkpt><trkpt lat="42.078542455976354" lon="12.785176869643005"><ele>467.25</ele><time>2026-04-12T16:48:22Z</time></trkpt><trkpt lat="42.078590275325254" lon="12.785013922394397"><ele>468.0</ele><time>2026-04-12T16:48:23Z</time></trkpt><trkpt lat="42.07863765094985" lon="12.784877734333039"><ele>468.59999999999997</ele><time>2026-04-12T16:48:24Z</time></trkpt><trkpt lat="42.078677415350334" lon="12.78474260336556"><ele>469.19999999999993</ele><time>2026-04-12T16:48:25Z</time></trkpt><trkpt lat="42.078689624671014" lon="12.784609046876044"><ele>469.8</ele><time>2026-04-12T16:48:26Z</time></trkpt><trkpt lat="42.07869606450944" lon="12.784472863496662"><ele>470.4</ele><time>2026-04-12T16:48:27Z</time></trkpt><trkpt lat="42.0786883823569" lon="12.784332558394619"><ele>471.0</ele><time>2026-04-12T16:48:28Z</time></trkpt><trkpt lat="42.078688424627806" lon="12.784210422833839"><ele>472.75</ele><time>2026-04-12T16:48:29Z</time></trkpt><trkpt lat="42.078690759966065" lon="12.78406443919837"><ele>474.5</ele><time>2026-04-12T16:48:30Z</time></trkpt><trkpt lat="42.078725362391026" lon="12.783896446036259"><ele>476.25</ele><time>2026-04-12T16:48:31Z</time></trkpt><trkpt lat="42.07877202414683" lon="12.783720841160486"><ele>478.0</ele><time>2026-04-12T16:48:32Z</time></trkpt><trkpt lat="42.078820794750726" lon="12.783542590525721"><ele>480.0</ele><time>2026-04-12T16:48:33Z</time></trkpt><trkpt lat="42.078861212217774" lon="12.783376651983271"><ele>482.0</ele><time>2026-04-12T16:48:34Z</time></trkpt><trkpt lat="42.0788885020034" lon="12.783215439799205"><ele>484.0</ele><time>2026-04-12T16:48:35Z</time></trkpt><trkpt lat="42.078902871829136" lon="12.783065577709811"><ele>486.0</ele><time>2026-04-12T16:48:36Z</time></trkpt><trkpt lat="42.07892361719144" lon="12.782928343351735"><ele>486.0</ele><time>2026-04-12T16:48:37Z</time></trkpt><trkpt lat="42.078952826832584" lon="12.782786200662315"><ele>486.0</ele><time>2026-04-12T16:48:38Z</time></trkpt><trkpt lat="42.078955156415944" lon="12.782642519983378"><ele>486.0</ele><time>2026-04-12T16:48:39Z</time></trkpt><trkpt lat="42.07896101267858" lon="12.782514152724138"><ele>486.0</ele><time>2026-04-12T16:48:40Z</time></trkpt><trkpt lat="42.078958672213766" lon="12.782402533821319"><ele>486.0</ele><time>2026-04-12T16:48:41Z</time></trkpt><trkpt lat="42.07897389854984" lon="12.782303115778255"><ele>488.20000000000005</ele><time>2026-04-12T16:48:42Z</time></trkpt><trkpt lat="42.078990730303666" lon="12.782219174381174"><ele>490.40000000000003</ele><time>2026-04-12T16:48:43Z</time></trkpt><trkpt lat="42.078996581954804" lon="12.782123171544004"><ele>492.6</ele><time>2026-04-12T16:48:44Z</time></trkpt><trkpt lat="42.07903363000492" lon="12.781948371283576"><ele>494.8</ele><time>2026-04-12T16:48:46Z</time></trkpt><trkpt lat="42.079065913353" lon="12.781831136819665"><ele>497.0</ele><time>2026-04-12T16:48:47Z</time></trkpt><trkpt lat="42.079093214186635" lon="12.781701575504142"><ele>484.75</ele><time>2026-04-12T16:48:48Z</time></trkpt><trkpt lat="42.079105000755874" lon="12.781560111634137"><ele>472.5</ele><time>2026-04-12T16:48:49Z</time></trkpt><trkpt lat="42.079130206073856" lon="12.781412448872373"><ele>460.25</ele><time>2026-04-12T16:48:50Z</time></trkpt><trkpt lat="42.07914748374106" lon="12.781253623536772"><ele>448.0</ele><time>2026-04-12T16:48:51Z</time></trkpt><trkpt lat="42.07918509965196" lon="12.781100338912553"><ele>449.5</ele><time>2026-04-12T16:48:52Z</time></trkpt><trkpt lat="42.07919671964254" lon="12.780926136967683"><ele>451.0</ele><time>2026-04-12T16:48:53Z</time></trkpt><trkpt lat="42.07922304954782" lon="12.780773370345159"><ele>452.5</ele><time>2026-04-12T16:48:54Z</time></trkpt><trkpt lat="42.07923134917751" lon="12.780628046226447"><ele>454.0</ele><time>2026-04-12T16:48:55Z</time></trkpt><trkpt lat="42.07923919724401" lon="12.780471197311696"><ele>454.0</ele><time>2026-04-12T16:48:56Z</time></trkpt><trkpt lat="42.079258449807966" lon="12.780313686930644"><ele>454.0</ele><time>2026-04-12T16:48:57Z</time></trkpt><trkpt lat="42.079269872224764" lon="12.780150972182165"><ele>454.0</ele><time>2026-04-12T16:48:58Z</time></trkpt><trkpt lat="42.07928272931804" lon="12.779994239491803"><ele>454.0</ele><time>2026-04-12T16:48:59Z</time></trkpt><trkpt lat="42.079286728121325" lon="12.779846882243978"><ele>454.2</ele><time>2026-04-12T16:49:00Z</time></trkpt><trkpt lat="42.07930155429776" lon="12.779721180232201"><ele>454.4</ele><time>2026-04-12T16:49:01Z</time></trkpt><trkpt lat="42.079292797297676" lon="12.77961414523202"><ele>454.6</ele><time>2026-04-12T16:49:02Z</time></trkpt><trkpt lat="42.079273164098396" lon="12.77950983978551"><ele>454.8</ele><time>2026-04-12T16:49:03Z</time></trkpt><trkpt lat="42.07923296647956" lon="12.779401510514814"><ele>455.0</ele><time>2026-04-12T16:49:04Z</time></trkpt><trkpt lat="42.0791955531388" lon="12.77924295800951"><ele>454.0</ele><time>2026-04-12T16:49:05Z</time></trkpt><trkpt lat="42.07914724002144" lon="12.779073619755554"><ele>453.0</ele><time>2026-04-12T16:49:06Z</time></trkpt><trkpt lat="42.07910599695119" lon="12.77889273287056"><ele>452.0</ele><time>2026-04-12T16:49:07Z</time></trkpt><trkpt lat="42.07907638084769" lon="12.778731300499674"><ele>451.0</ele><time>2026-04-12T16:49:08Z</time></trkpt><trkpt lat="42.079043369012865" lon="12.778579581500663"><ele>457.6</ele><time>2026-04-12T16:49:09Z</time></trkpt><trkpt lat="42.079001855295346" lon="12.778426504011282"><ele>464.20000000000005</ele><time>2026-04-12T16:49:10Z</time></trkpt><trkpt lat="42.07896520976733" lon="12.778278834702602"><ele>470.79999999999995</ele><time>2026-04-12T16:49:11Z</time></trkpt><trkpt lat="42.07893869624526" lon="12.778121248768112"><ele>477.4</ele><time>2026-04-12T16:49:12Z</time></trkpt><trkpt lat="42.07890939716376" lon="12.778003385653154"><ele>484.0</ele><time>2026-04-12T16:49:13Z</time></trkpt><trkpt lat="42.07888466560352" lon="12.777919966516466"><ele>484.0</ele><time>2026-04-12T16:49:13.999Z</time></trkpt><trkpt lat="42.07880584549356" lon="12.77773584600106"><ele>484.0</ele><time>2026-04-12T16:49:15.999Z</time></trkpt><trkpt lat="42.078714596346195" lon="12.77760043093644"><ele>484.0</ele><time>2026-04-12T16:49:16.999Z</time></trkpt><trkpt lat="42.07861382535748" lon="12.777463996690567"><ele>484.0</ele><time>2026-04-12T16:49:17.999Z</time></trkpt><trkpt lat="42.07851199058177" lon="12.777378455016455"><ele>485.2</ele><time>2026-04-12T16:49:18.999Z</time></trkpt><trkpt lat="42.07843808068806" lon="12.777282234728524"><ele>486.4</ele><time>2026-04-12T16:49:19.999Z</time></trkpt><trkpt lat="42.078359456975974" lon="12.777195447044503"><ele>487.6</ele><time>2026-04-12T16:49:20.999Z</time></trkpt><trkpt lat="42.078277006059515" lon="12.777123124011643"><ele>488.8</ele><time>2026-04-12T16:49:21.999Z</time></trkpt><trkpt lat="42.07820155558177" lon="12.77705654923967"><ele>490.0</ele><time>2026-04-12T16:49:22.999Z</time></trkpt><trkpt lat="42.0781117587705" lon="12.77697632688453"><ele>490.0</ele><time>2026-04-12T16:49:23.999Z</time></trkpt><trkpt lat="42.07802828027925" lon="12.776858605246925"><ele>490.0</ele><time>2026-04-12T16:49:24.999Z</time></trkpt><trkpt lat="42.077935542576995" lon="12.776752485416871"><ele>490.0</ele><time>2026-04-12T16:49:25.999Z</time></trkpt><trkpt lat="42.077858323042115" lon="12.776626807858285"><ele>490.0</ele><time>2026-04-12T16:49:26.999Z</time></trkpt><trkpt lat="42.0777802329499" lon="12.776500567362266"><ele>484.8</ele><time>2026-04-12T16:49:27.999Z</time></trkpt><trkpt lat="42.07772831043137" lon="12.776396568100212"><ele>479.6</ele><time>2026-04-12T16:49:28.999Z</time></trkpt><trkpt lat="42.07768412680207" lon="12.77630073626938"><ele>474.4</ele><time>2026-04-12T16:49:29.999Z</time></trkpt><trkpt lat="42.07762737193969" lon="12.776208063606868"><ele>469.2</ele><time>2026-04-12T16:49:30.999Z</time></trkpt><trkpt lat="42.077568732701316" lon="12.776107936501587"><ele>464.0</ele><time>2026-04-12T16:49:31.999Z</time></trkpt><trkpt lat="42.07749079795359" lon="12.77601224767728"><ele>461.6</ele><time>2026-04-12T16:49:32.999Z</time></trkpt><trkpt lat="42.077419113756875" lon="12.775925593036648"><ele>459.2</ele><time>2026-04-12T16:49:34Z</time></trkpt><trkpt lat="42.07733906296433" lon="12.775840590529954"><ele>456.80000000000007</ele><time>2026-04-12T16:49:35Z</time></trkpt><trkpt lat="42.077249473395355" lon="12.775773375174289"><ele>454.40000000000003</ele><time>2026-04-12T16:49:36Z</time></trkpt><trkpt lat="42.07717230313182" lon="12.77569449048183"><ele>452.0</ele><time>2026-04-12T16:49:37Z</time></trkpt><trkpt lat="42.07709738377024" lon="12.775608312687883"><ele>451.99999999999994</ele><time>2026-04-12T16:49:38Z</time></trkpt><trkpt lat="42.077027201301064" lon="12.775517509089653"><ele>452.0</ele><time>2026-04-12T16:49:39Z</time></trkpt><trkpt lat="42.07697858383755" lon="12.775449181150632"><ele>452.0</ele><time>2026-04-12T16:49:40Z</time></trkpt><trkpt lat="42.07692901406368" lon="12.775362717586589"><ele>452.0</ele><time>2026-04-12T16:49:41Z</time></trkpt><trkpt lat="42.076868472845305" lon="12.775291676714208"><ele>451.99999999999994</ele><time>2026-04-12T16:49:42Z</time></trkpt><trkpt lat="42.0767677664965" lon="12.775232782740558"><ele>452.0</ele><time>2026-04-12T16:49:44Z</time></trkpt><trkpt lat="42.07670674830578" lon="12.775180527238586"><ele>448.8333333333333</ele><time>2026-04-12T16:49:46Z</time></trkpt><trkpt lat="42.076602445293325" lon="12.775171584284791"><ele>445.66666666666663</ele><time>2026-04-12T16:52:04Z</time></trkpt><trkpt lat="42.076557740330145" lon="12.775079906843892"><ele>442.5</ele><time>2026-04-12T16:52:27Z</time></trkpt><trkpt lat="42.07652705023397" lon="12.774997382609673"><ele>439.33333333333337</ele><time>2026-04-12T16:52:30Z</time></trkpt><trkpt lat="42.076458803922684" lon="12.775004611203522"><ele>436.1666666666667</ele><time>2026-04-12T16:52:36Z</time></trkpt><trkpt lat="42.076391841976815" lon="12.775012383431815"><ele>433.0</ele><time>2026-04-12T16:52:41Z</time></trkpt><trkpt lat="42.07635982317261" lon="12.774936347193352"><ele>433.00000000000006</ele><time>2026-04-12T16:52:44Z</time></trkpt><trkpt lat="42.07631992463022" lon="12.774860613389603"><ele>433.0</ele><time>2026-04-12T16:52:47Z</time></trkpt><trkpt lat="42.07623935698293" lon="12.774843541421191"><ele>433.0</ele><time>2026-04-12T16:52:50Z</time></trkpt><trkpt lat="42.07620133442012" lon="12.774770117541037"><ele>433.0</ele><time>2026-04-12T16:52:54Z</time></trkpt><trkpt lat="42.0761214365462" lon="12.77476173121375"><ele>433.00000000000006</ele><time>2026-04-12T16:52:57Z</time></trkpt><trkpt lat="42.07601691929298" lon="12.774765214602"><ele>433.0</ele><time>2026-04-12T16:52:59Z</time></trkpt><trkpt lat="42.075964377955955" lon="12.774696192273536"><ele>433.00000000000006</ele><time>2026-04-12T16:53:01Z</time></trkpt><trkpt lat="42.075899789785545" lon="12.7746490747204"><ele>433.0</ele><time>2026-04-12T16:53:04Z</time></trkpt><trkpt lat="42.07587681650236" lon="12.774554248840897"><ele>433.0</ele><time>2026-04-12T16:53:07Z</time></trkpt><trkpt lat="42.075848393143836" lon="12.774477245139005"><ele>433.0</ele><time>2026-04-12T16:53:09Z</time></trkpt><trkpt lat="42.07575777109809" lon="12.774436692428507"><ele>433.00000000000006</ele><time>2026-04-12T16:53:12Z</time></trkpt><trkpt lat="42.07571549546118" lon="12.774343802223886"><ele>433.0</ele><time>2026-04-12T16:53:15Z</time></trkpt><trkpt lat="42.07571781154842" lon="12.774251091420892"><ele>426.79999999999995</ele><time>2026-04-12T16:53:17Z</time></trkpt><trkpt lat="42.07565405495883" lon="12.774190971238257"><ele>420.59999999999997</ele><time>2026-04-12T16:53:19Z</time></trkpt><trkpt lat="42.075575776261815" lon="12.77415259160587"><ele>414.4</ele><time>2026-04-12T16:53:20.999Z</time></trkpt><trkpt lat="42.07550641010147" lon="12.77404900194974"><ele>408.20000000000005</ele><time>2026-04-12T16:53:22.999Z</time></trkpt><trkpt lat="42.07546870390169" lon="12.773943900839829"><ele>402.0</ele><time>2026-04-12T16:53:23.999Z</time></trkpt><trkpt lat="42.075413474711226" lon="12.773825472931193"><ele>402.0</ele><time>2026-04-12T16:53:24.999Z</time></trkpt><trkpt lat="42.075346903581455" lon="12.773720171240274"><ele>402.0</ele><time>2026-04-12T16:53:25.999Z</time></trkpt><trkpt lat="42.075404183493475" lon="12.773499542147842"><ele>402.0</ele><time>2026-04-12T16:53:26.999Z</time></trkpt><trkpt lat="42.07535006415923" lon="12.77339721044727"><ele>402.0</ele><time>2026-04-12T16:53:27.999Z</time></trkpt><trkpt lat="42.07529296188604" lon="12.77328450219632"><ele>397.0</ele><time>2026-04-12T16:53:28.999Z</time></trkpt><trkpt lat="42.07523066571305" lon="12.773159384568645"><ele>392.0</ele><time>2026-04-12T16:53:29.999Z</time></trkpt><trkpt lat="42.0751633467786" lon="12.773023405707589"><ele>387.0</ele><time>2026-04-12T16:53:30.999Z</time></trkpt><trkpt lat="42.07509024056319" lon="12.772880109743507"><ele>382.0</ele><time>2026-04-12T16:53:31.999Z</time></trkpt><trkpt lat="42.075012843138154" lon="12.772729262530085"><ele>376.5</ele><time>2026-04-12T16:53:32.999Z</time></trkpt><trkpt lat="42.07493096690712" lon="12.772567358128107"><ele>371.0</ele><time>2026-04-12T16:53:33.999Z</time></trkpt><trkpt lat="42.07485450261173" lon="12.772409602159597"><ele>365.5</ele><time>2026-04-12T16:53:34.999Z</time></trkpt><trkpt lat="42.07478128694379" lon="12.772249552090644"><ele>360.0</ele><time>2026-04-12T16:53:35.999Z</time></trkpt><trkpt lat="42.07470531071734" lon="12.772087944394931"><ele>360.0</ele><time>2026-04-12T16:53:36.999Z</time></trkpt><trkpt lat="42.074621702926095" lon="12.771925942147936"><ele>360.0</ele><time>2026-04-12T16:53:37.999Z</time></trkpt><trkpt lat="42.07454396613589" lon="12.771773606059403"><ele>360.0</ele><time>2026-04-12T16:53:38.999Z</time></trkpt><trkpt lat="42.07447062925282" lon="12.771622970774178"><ele>360.0</ele><time>2026-04-12T16:53:39.999Z</time></trkpt><trkpt lat="42.074398134014345" lon="12.771474064236557"><ele>359.0</ele><time>2026-04-12T16:53:40.999Z</time></trkpt><trkpt lat="42.07431248299877" lon="12.77130208084852"><ele>358.0</ele><time>2026-04-12T16:53:41.999Z</time></trkpt><trkpt lat="42.07423653633549" lon="12.771157566498063"><ele>357.0</ele><time>2026-04-12T16:53:42.999Z</time></trkpt><trkpt lat="42.07417570265098" lon="12.771035917737517"><ele>356.0</ele><time>2026-04-12T16:53:43.999Z</time></trkpt><trkpt lat="42.07413642424118" lon="12.77093384264582"><ele>350.75</ele><time>2026-04-12T16:53:45Z</time></trkpt><trkpt lat="42.074103335681464" lon="12.770798870880267"><ele>345.5</ele><time>2026-04-12T16:53:46Z</time></trkpt><trkpt lat="42.07408873455668" lon="12.77064994854458"><ele>340.25</ele><time>2026-04-12T16:53:47Z</time></trkpt><trkpt lat="42.074071772249795" lon="12.770484566010923"><ele>335.0</ele><time>2026-04-12T16:53:48Z</time></trkpt><trkpt lat="42.074057030622164" lon="12.770332396877263"><ele>335.0</ele><time>2026-04-12T16:53:49Z</time></trkpt><trkpt lat="42.07404583643705" lon="12.770200565748443"><ele>335.0</ele><time>2026-04-12T16:53:50Z</time></trkpt><trkpt lat="42.07403734203814" lon="12.770067741370559"><ele>335.0</ele><time>2026-04-12T16:53:51Z</time></trkpt><trkpt lat="42.07403248355281" lon="12.769937884631847"><ele>335.0</ele><time>2026-04-12T16:53:52Z</time></trkpt><trkpt lat="42.07404034031658" lon="12.7698407497618"><ele>335.0</ele><time>2026-04-12T16:53:53Z</time></trkpt><trkpt lat="42.074060446699896" lon="12.76968429005861"><ele>334.6</ele><time>2026-04-12T16:53:55Z</time></trkpt><trkpt lat="42.07406374989483" lon="12.769588818440575"><ele>334.2</ele><time>2026-04-12T16:53:56Z</time></trkpt><trkpt lat="42.07404924676073" lon="12.7694933815969"><ele>333.79999999999995</ele><time>2026-04-12T16:53:57Z</time></trkpt><trkpt lat="42.07403318960868" lon="12.769400249583624"><ele>333.4</ele><time>2026-04-12T16:53:58Z</time></trkpt><trkpt lat="42.073942237902926" lon="12.769250282894827"><ele>333.0</ele><time>2026-04-12T16:54:00Z</time></trkpt><trkpt lat="42.073750364222775" lon="12.769205942823028"><ele>333.0</ele><time>2026-04-12T16:54:01Z</time></trkpt><trkpt lat="42.07369496967096" lon="12.769137417393402"><ele>333.0</ele><time>2026-04-12T16:54:03Z</time></trkpt><trkpt lat="42.07367712880034" lon="12.76905555433467"><ele>333.0</ele><time>2026-04-12T16:54:04Z</time></trkpt><trkpt lat="42.07363112169257" lon="12.76894985843321"><ele>333.0</ele><time>2026-04-12T16:54:05Z</time></trkpt><trkpt lat="42.07358278668201" lon="12.768855535904747"><ele>333.0</ele><time>2026-04-12T16:54:06Z</time></trkpt><trkpt lat="42.0735122989207" lon="12.768757266353424"><ele>333.0</ele><time>2026-04-12T16:54:07Z</time></trkpt><trkpt lat="42.073451662195396" lon="12.768679289133177"><ele>333.0</ele><time>2026-04-12T16:54:08Z</time></trkpt><trkpt lat="42.07338517423519" lon="12.76859210629399"><ele>333.0</ele><time>2026-04-12T16:54:09Z</time></trkpt><trkpt lat="42.073318641476476" lon="12.768503544451711"><ele>333.0</ele><time>2026-04-12T16:54:10Z</time></trkpt><trkpt lat="42.073255641034365" lon="12.768419684400373"><ele>333.0</ele><time>2026-04-12T16:54:11Z</time></trkpt><trkpt lat="42.07319318018696" lon="12.768336796529578"><ele>333.0</ele><time>2026-04-12T16:54:12Z</time></trkpt><trkpt lat="42.07312816449154" lon="12.76825050763602"><ele>328.79999999999995</ele><time>2026-04-12T16:54:13Z</time></trkpt><trkpt lat="42.073061959441645" lon="12.768162640219737"><ele>324.59999999999997</ele><time>2026-04-12T16:54:14Z</time></trkpt><trkpt lat="42.07299265749453" lon="12.768072565032947"><ele>320.4</ele><time>2026-04-12T16:54:15Z</time></trkpt><trkpt lat="42.07292429275886" lon="12.767984029276425"><ele>316.2</ele><time>2026-04-12T16:54:16Z</time></trkpt><trkpt lat="42.072866089591976" lon="12.767905641999942"><ele>312.0</ele><time>2026-04-12T16:54:17Z</time></trkpt><trkpt lat="42.072802480336854" lon="12.767825657856266"><ele>312.0</ele><time>2026-04-12T16:54:18Z</time></trkpt><trkpt lat="42.07272886594447" lon="12.767749701116301"><ele>312.0</ele><time>2026-04-12T16:54:19Z</time></trkpt><trkpt lat="42.07264728985896" lon="12.767683028843622"><ele>312.0</ele><time>2026-04-12T16:54:20Z</time></trkpt><trkpt lat="42.07257668014248" lon="12.767630918765754"><ele>312.0</ele><time>2026-04-12T16:54:21Z</time></trkpt><trkpt lat="42.072480625661726" lon="12.767546177593495"><ele>312.0</ele><time>2026-04-12T16:54:23Z</time></trkpt><trkpt lat="42.07246307006724" lon="12.76741338274391"><ele>311.1666666666667</ele><time>2026-04-12T16:54:26Z</time></trkpt><trkpt lat="42.072468013704594" lon="12.767328204917774"><ele>310.3333333333333</ele><time>2026-04-12T16:54:27Z</time></trkpt><trkpt lat="42.07247964051608" lon="12.767224959680998"><ele>309.5</ele><time>2026-04-12T16:54:28Z</time></trkpt><trkpt lat="42.07249610131897" lon="12.767116519712145"><ele>308.66666666666663</ele><time>2026-04-12T16:54:29Z</time></trkpt><trkpt lat="42.07251324352529" lon="12.767003590828395"><ele>307.8333333333333</ele><time>2026-04-12T16:54:30Z</time></trkpt><trkpt lat="42.07253047735246" lon="12.766886885069262"><ele>307.0</ele><time>2026-04-12T16:54:31Z</time></trkpt><trkpt lat="42.07254005557226" lon="12.766801643116048"><ele>306.0</ele><time>2026-04-12T16:54:32Z</time></trkpt><trkpt lat="42.07254976364377" lon="12.76671524555504"><ele>305.0</ele><time>2026-04-12T16:54:33Z</time></trkpt><trkpt lat="42.07254897857126" lon="12.766619352340657"><ele>304.0</ele><time>2026-04-12T16:54:34Z</time></trkpt><trkpt lat="42.0725982109333" lon="12.766495068163609"><ele>303.0</ele><time>2026-04-12T16:54:36Z</time></trkpt><trkpt lat="42.07260860065674" lon="12.76640633452105"><ele>302.0</ele><time>2026-04-12T16:54:38Z</time></trkpt><trkpt lat="42.07261189546865" lon="12.766314778902153"><ele>301.0</ele><time>2026-04-12T16:54:39Z</time></trkpt><trkpt lat="42.0725335058009" lon="12.766243985528646"><ele>301.0</ele><time>2026-04-12T16:54:40Z</time></trkpt><trkpt lat="42.07246197174632" lon="12.766200010472408"><ele>301.0</ele><time>2026-04-12T16:54:42Z</time></trkpt><trkpt lat="42.0722929280164" lon="12.766261634521088"><ele>301.0</ele><time>2026-04-12T16:54:43Z</time></trkpt><trkpt lat="42.072216034187356" lon="12.766295410760613"><ele>301.0</ele><time>2026-04-12T16:54:44Z</time></trkpt><trkpt lat="42.07211296743055" lon="12.766340340876837"><ele>301.0</ele><time>2026-04-12T16:54:45Z</time></trkpt><trkpt lat="42.0719980959096" lon="12.766384680927745"><ele>301.0</ele><time>2026-04-12T16:54:46Z</time></trkpt><trkpt lat="42.07185858378037" lon="12.766433440684667"><ele>301.0</ele><time>2026-04-12T16:54:47Z</time></trkpt><trkpt lat="42.07173013597887" lon="12.766471798266195"><ele>301.0</ele><time>2026-04-12T16:54:48Z</time></trkpt><trkpt lat="42.071596094476774" lon="12.766505553817288"><ele>301.0</ele><time>2026-04-12T16:54:49Z</time></trkpt><trkpt lat="42.071467284686285" lon="12.76653370249671"><ele>301.0</ele><time>2026-04-12T16:54:50Z</time></trkpt><trkpt lat="42.071361229520065" lon="12.766550115689093"><ele>301.0</ele><time>2026-04-12T16:54:51Z</time></trkpt><trkpt lat="42.07125444177004" lon="12.766559842385885"><ele>301.0</ele><time>2026-04-12T16:54:52Z</time></trkpt><trkpt lat="42.07114831851719" lon="12.76656447495208"><ele>301.0</ele><time>2026-04-12T16:54:53Z</time></trkpt><trkpt lat="42.07103463010172" lon="12.76656886109367"><ele>301.0</ele><time>2026-04-12T16:54:54Z</time></trkpt><trkpt lat="42.07092313541301" lon="12.766570948297154"><ele>301.0</ele><time>2026-04-12T16:54:55Z</time></trkpt><trkpt lat="42.07082521685682" lon="12.766666266129285"><ele>301.0</ele><time>2026-04-12T16:54:56Z</time></trkpt><trkpt lat="42.07073819434702" lon="12.766629009673267"><ele>301.0</ele><time>2026-04-12T16:54:57Z</time></trkpt><trkpt lat="42.07064364067315" lon="12.7666379288778"><ele>301.0</ele><time>2026-04-12T16:54:58Z</time></trkpt><trkpt lat="42.07053039231212" lon="12.766685128490462"><ele>301.0</ele><time>2026-04-12T16:54:59Z</time></trkpt><trkpt lat="42.0704204151864" lon="12.76670754787908"><ele>299.5</ele><time>2026-04-12T16:55:00Z</time></trkpt><trkpt lat="42.07030771765257" lon="12.766546322541002"><ele>298.0</ele><time>2026-04-12T16:55:01Z</time></trkpt><trkpt lat="42.07019902520753" lon="12.766533510501727"><ele>296.5</ele><time>2026-04-12T16:55:02Z</time></trkpt><trkpt lat="42.07009726093326" lon="12.766526363459873"><ele>295.0</ele><time>2026-04-12T16:55:03Z</time></trkpt><trkpt lat="42.069990450843335" lon="12.766523836966785"><ele>295.4</ele><time>2026-04-12T16:55:04Z</time></trkpt><trkpt lat="42.06988437103234" lon="12.76653382272737"><ele>295.8</ele><time>2026-04-12T16:55:05Z</time></trkpt><trkpt lat="42.06978232478888" lon="12.766557898760396"><ele>296.2</ele><time>2026-04-12T16:55:06Z</time></trkpt><trkpt lat="42.069699737329145" lon="12.76658276577461"><ele>296.6</ele><time>2026-04-12T16:55:07Z</time></trkpt><trkpt lat="42.069623692764324" lon="12.766606129579094"><ele>297.0</ele><time>2026-04-12T16:55:08Z</time></trkpt><trkpt lat="42.069533070460075" lon="12.766638354450787"><ele>297.0</ele><time>2026-04-12T16:55:09Z</time></trkpt><trkpt lat="42.06942851961489" lon="12.766675385049025"><ele>297.0</ele><time>2026-04-12T16:55:10Z</time></trkpt><trkpt lat="42.06931737697928" lon="12.766713796439683"><ele>297.0</ele><time>2026-04-12T16:55:11Z</time></trkpt><trkpt lat="42.069227639259815" lon="12.766736709364414"><ele>297.0</ele><time>2026-04-12T16:55:12Z</time></trkpt><trkpt lat="42.06914773994889" lon="12.766756128816555"><ele>297.0</ele><time>2026-04-12T16:55:13Z</time></trkpt><trkpt lat="42.069019876598766" lon="12.766753161610056"><ele>297.0</ele><time>2026-04-12T16:55:15Z</time></trkpt><trkpt lat="42.06895376580011" lon="12.76676564044887"><ele>297.0</ele><time>2026-04-12T16:55:16Z</time></trkpt><trkpt lat="42.06892036965653" lon="12.767040291739567"><ele>297.0</ele><time>2026-04-12T16:55:17Z</time></trkpt><trkpt lat="42.06877605456767" lon="12.767192379387286"><ele>297.0</ele><time>2026-04-12T16:55:24.999Z</time></trkpt><trkpt lat="42.06869488051016" lon="12.767266642390007"><ele>297.0</ele><time>2026-04-12T16:55:25.999Z</time></trkpt><trkpt lat="42.06857505951873" lon="12.767361829117515"><ele>297.0</ele><time>2026-04-12T16:55:26.999Z</time></trkpt><trkpt lat="42.06843705622224" lon="12.76750284587732"><ele>297.0</ele><time>2026-04-12T16:55:27.999Z</time></trkpt><trkpt lat="42.06830552510928" lon="12.767661275688168"><ele>298.0</ele><time>2026-04-12T16:55:28.999Z</time></trkpt><trkpt lat="42.06820781090926" lon="12.767770618827905"><ele>299.0</ele><time>2026-04-12T16:55:29.999Z</time></trkpt><trkpt lat="42.06810292216936" lon="12.767866885716376"><ele>300.0</ele><time>2026-04-12T16:55:30.999Z</time></trkpt><trkpt lat="42.06799747944291" lon="12.767991652419012"><ele>301.0</ele><time>2026-04-12T16:55:31.999Z</time></trkpt><trkpt lat="42.067886930724164" lon="12.768156506797888"><ele>301.0</ele><time>2026-04-12T16:55:32.999Z</time></trkpt><trkpt lat="42.06777338906126" lon="12.768327235498472"><ele>301.0</ele><time>2026-04-12T16:55:33.999Z</time></trkpt><trkpt lat="42.06764993210836" lon="12.768500277886751"><ele>301.0</ele><time>2026-04-12T16:55:34.999Z</time></trkpt><trkpt lat="42.067530465516505" lon="12.768684331973715"><ele>298.66666666666663</ele><time>2026-04-12T16:55:35.999Z</time></trkpt><trkpt lat="42.067415966153675" lon="12.768866157132717"><ele>296.3333333333333</ele><time>2026-04-12T16:55:36.999Z</time></trkpt><trkpt lat="42.067301714155136" lon="12.769008506972634"><ele>294.0</ele><time>2026-04-12T16:55:37.999Z</time></trkpt><trkpt lat="42.06718120167329" lon="12.769092871866937"><ele>294.0</ele><time>2026-04-12T16:55:38.999Z</time></trkpt><trkpt lat="42.067091410835886" lon="12.76916910568481"><ele>294.0</ele><time>2026-04-12T16:55:39.999Z</time></trkpt><trkpt lat="42.06701086984406" lon="12.76923188163166"><ele>294.0</ele><time>2026-04-12T16:55:40.999Z</time></trkpt><trkpt lat="42.06692274169926" lon="12.769299311361372"><ele>294.0</ele><time>2026-04-12T16:55:41.999Z</time></trkpt><trkpt lat="42.066833824015994" lon="12.769359621385435"><ele>294.0</ele><time>2026-04-12T16:55:42.999Z</time></trkpt><trkpt lat="42.066766537028954" lon="12.769396111994968"><ele>292.59999999999997</ele><time>2026-04-12T16:55:43.999Z</time></trkpt><trkpt lat="42.066706442201614" lon="12.769426847565256"><ele>291.2</ele><time>2026-04-12T16:55:44.999Z</time></trkpt><trkpt lat="42.06663810616186" lon="12.769456718209497"><ele>289.79999999999995</ele><time>2026-04-12T16:55:45.999Z</time></trkpt><trkpt lat="42.066536754752065" lon="12.769502061462754"><ele>288.4</ele><time>2026-04-12T16:55:46.999Z</time></trkpt><trkpt lat="42.06641013064877" lon="12.769558810691102"><ele>287.0</ele><time>2026-04-12T16:55:47.999Z</time></trkpt><trkpt lat="42.066269072671815" lon="12.769622753448783"><ele>286.6666666666667</ele><time>2026-04-12T16:55:48.999Z</time></trkpt><trkpt lat="42.06611218487154" lon="12.769695579335064"><ele>286.3333333333333</ele><time>2026-04-12T16:55:49.999Z</time></trkpt><trkpt lat="42.06594391786682" lon="12.769774846978756"><ele>286.0</ele><time>2026-04-12T16:55:51Z</time></trkpt><trkpt lat="42.06576681474584" lon="12.76985884127433"><ele>284.0</ele><time>2026-04-12T16:55:52Z</time></trkpt><trkpt lat="42.06559562140274" lon="12.769940231933242"><ele>282.0</ele><time>2026-04-12T16:55:53Z</time></trkpt><trkpt lat="42.06543181976969" lon="12.770016079623364"><ele>280.0</ele><time>2026-04-12T16:55:54Z</time></trkpt><trkpt lat="42.06528076926432" lon="12.770086022901893"><ele>280.0</ele><time>2026-04-12T16:55:55Z</time></trkpt><trkpt lat="42.06514137085584" lon="12.770150570774197"><ele>280.0</ele><time>2026-04-12T16:55:56Z</time></trkpt><trkpt lat="42.06500889404716" lon="12.770211635361495"><ele>280.0</ele><time>2026-04-12T16:55:57Z</time></trkpt><trkpt lat="42.06486570260029" lon="12.770277938863192"><ele>280.0</ele><time>2026-04-12T16:55:58Z</time></trkpt><trkpt lat="42.06471190277753" lon="12.770348458623177"><ele>280.3333333333333</ele><time>2026-04-12T16:55:59Z</time></trkpt><trkpt lat="42.064566573591414" lon="12.770419635484288"><ele>280.6666666666667</ele><time>2026-04-12T16:56:00Z</time></trkpt><trkpt lat="42.06441580788899" lon="12.77049020441046"><ele>281.0</ele><time>2026-04-12T16:56:01Z</time></trkpt><trkpt lat="42.06426623282496" lon="12.770560794798827"><ele>279.6666666666667</ele><time>2026-04-12T16:56:02Z</time></trkpt><trkpt lat="42.0641038658455" lon="12.770641124748307"><ele>278.3333333333333</ele><time>2026-04-12T16:56:03Z</time></trkpt><trkpt lat="42.063940257294426" lon="12.77072024402376"><ele>277.0</ele><time>2026-04-12T16:56:04Z</time></trkpt><trkpt lat="42.06377632095296" lon="12.770801441498486"><ele>277.0</ele><time>2026-04-12T16:56:05Z</time></trkpt><trkpt lat="42.06362787522637" lon="12.770868691674105"><ele>277.0</ele><time>2026-04-12T16:56:06Z</time></trkpt><trkpt lat="42.06349534243139" lon="12.770916855561982"><ele>277.0</ele><time>2026-04-12T16:56:07Z</time></trkpt><trkpt lat="42.063381105993685" lon="12.770941303889636"><ele>277.0</ele><time>2026-04-12T16:56:08Z</time></trkpt><trkpt lat="42.06329152614623" lon="12.77094494872901"><ele>276.16666666666663</ele><time>2026-04-12T16:56:09Z</time></trkpt><trkpt lat="42.063212318470505" lon="12.770933511037228"><ele>275.3333333333333</ele><time>2026-04-12T16:56:10Z</time></trkpt><trkpt lat="42.063145112480214" lon="12.770912062415265"><ele>274.5</ele><time>2026-04-12T16:56:11Z</time></trkpt><trkpt lat="42.063132288292245" lon="12.770818365402103"><ele>273.6666666666667</ele><time>2026-04-12T16:56:12Z</time></trkpt><trkpt lat="42.063132423558905" lon="12.770672184080675"><ele>272.83333333333337</ele><time>2026-04-12T16:56:14Z</time></trkpt><trkpt lat="42.063129588088174" lon="12.770513396389754"><ele>272.0</ele><time>2026-04-12T16:56:15Z</time></trkpt><trkpt lat="42.06312548463515" lon="12.770320887033911"><ele>270.33333333333337</ele><time>2026-04-12T16:56:16Z</time></trkpt><trkpt lat="42.06304026401803" lon="12.770101926518757"><ele>268.6666666666667</ele><time>2026-04-12T16:56:17Z</time></trkpt><trkpt lat="42.063027187140804" lon="12.76983421953962"><ele>267.0</ele><time>2026-04-12T16:56:18Z</time></trkpt><trkpt lat="42.06301956121123" lon="12.769603523979187"><ele>267.0</ele><time>2026-04-12T16:56:19Z</time></trkpt><trkpt lat="42.06303071604533" lon="12.769392840504542"><ele>267.0</ele><time>2026-04-12T16:56:20Z</time></trkpt><trkpt lat="42.0630944550329" lon="12.769148362428519"><ele>267.0</ele><time>2026-04-12T16:56:21Z</time></trkpt><trkpt lat="42.063007638856654" lon="12.76887154729484"><ele>266.0</ele><time>2026-04-12T16:56:22Z</time></trkpt><trkpt lat="42.062998546325055" lon="12.768581685055436"><ele>265.0</ele><time>2026-04-12T16:56:23Z</time></trkpt><trkpt lat="42.06299413514961" lon="12.76829546653423"><ele>264.0</ele><time>2026-04-12T16:56:24Z</time></trkpt><trkpt lat="42.06299614711805" lon="12.768008538931856"><ele>263.6666666666667</ele><time>2026-04-12T16:56:25Z</time></trkpt><trkpt lat="42.06304939010163" lon="12.767732694773853"><ele>263.33333333333337</ele><time>2026-04-12T16:56:26Z</time></trkpt><trkpt lat="42.06304278856099" lon="12.767495691579047"><ele>263.0</ele><time>2026-04-12T16:56:27Z</time></trkpt><trkpt lat="42.06303440080871" lon="12.767305616009065"><ele>263.0</ele><time>2026-04-12T16:56:28Z</time></trkpt><trkpt lat="42.06300703125067" lon="12.7671206625242"><ele>263.0</ele><time>2026-04-12T16:56:29Z</time></trkpt><trkpt lat="42.062937471120065" lon="12.766972138685048"><ele>263.0</ele><time>2026-04-12T16:56:30Z</time></trkpt><trkpt lat="42.06295204351602" lon="12.766787490547605"><ele>263.0</ele><time>2026-04-12T16:56:31Z</time></trkpt><trkpt lat="42.062958043536014" lon="12.7666053996545"><ele>263.0</ele><time>2026-04-12T16:56:32Z</time></trkpt><trkpt lat="42.062934676408176" lon="12.766443987514565"><ele>263.0</ele><time>2026-04-12T16:56:33Z</time></trkpt><trkpt lat="42.062975429908754" lon="12.766277377355921"><ele>263.0</ele><time>2026-04-12T16:56:34Z</time></trkpt><trkpt lat="42.0629171168079" lon="12.766105482028813"><ele>263.0</ele><time>2026-04-12T16:56:35Z</time></trkpt><trkpt lat="42.062811996857064" lon="12.765939169101614"><ele>263.0</ele><time>2026-04-12T16:56:36Z</time></trkpt><trkpt lat="42.06267397196773" lon="12.765788526869233"><ele>263.0</ele><time>2026-04-12T16:56:37Z</time></trkpt><trkpt lat="42.06254247278431" lon="12.765640891487372"><ele>263.0</ele><time>2026-04-12T16:56:38Z</time></trkpt><trkpt lat="42.062424877739005" lon="12.765473394917386"><ele>262.75</ele><time>2026-04-12T16:56:39Z</time></trkpt><trkpt lat="42.062329424427624" lon="12.765296551485656"><ele>262.5</ele><time>2026-04-12T16:56:40Z</time></trkpt><trkpt lat="42.06226261478521" lon="12.765124601453456"><ele>262.25</ele><time>2026-04-12T16:56:41Z</time></trkpt><trkpt lat="42.06222437298024" lon="12.764964224689587"><ele>262.0</ele><time>2026-04-12T16:56:42Z</time></trkpt><trkpt lat="42.06221595482376" lon="12.764799780402871"><ele>262.0</ele><time>2026-04-12T16:56:43Z</time></trkpt><trkpt lat="42.062225805088616" lon="12.764627624246048"><ele>262.0</ele><time>2026-04-12T16:56:44Z</time></trkpt><trkpt lat="42.06224952452168" lon="12.764478008314473"><ele>262.0</ele><time>2026-04-12T16:56:45Z</time></trkpt><trkpt lat="42.06225920202926" lon="12.764353019136848"><ele>262.0</ele><time>2026-04-12T16:56:46Z</time></trkpt><trkpt lat="42.06225990105869" lon="12.764238873819817"><ele>262.0</ele><time>2026-04-12T16:56:47Z</time></trkpt><trkpt lat="42.06223630991109" lon="12.764123748933663"><ele>258.75</ele><time>2026-04-12T16:56:48Z</time></trkpt><trkpt lat="42.062163412921656" lon="12.763999239104857"><ele>255.5</ele><time>2026-04-12T16:56:49Z</time></trkpt><trkpt lat="42.06201575465967" lon="12.763939352704728"><ele>252.25</ele><time>2026-04-12T16:56:50Z</time></trkpt><trkpt lat="42.061855722260624" lon="12.763919180566432"><ele>249.0</ele><time>2026-04-12T16:56:51Z</time></trkpt><trkpt lat="42.061687868966025" lon="12.763883135187363"><ele>251.0</ele><time>2026-04-12T16:56:52Z</time></trkpt><trkpt lat="42.06149107633669" lon="12.76383933752262"><ele>253.0</ele><time>2026-04-12T16:56:53Z</time></trkpt><trkpt lat="42.061327811118424" lon="12.763796117959455"><ele>255.0</ele><time>2026-04-12T16:56:54Z</time></trkpt><trkpt lat="42.06120926642816" lon="12.763753220850832"><ele>255.0</ele><time>2026-04-12T16:56:55Z</time></trkpt><trkpt lat="42.06114788265223" lon="12.763713772157754"><ele>255.0</ele><time>2026-04-12T16:56:56Z</time></trkpt><trkpt lat="42.061087684098155" lon="12.763612723277515"><ele>255.0</ele><time>2026-04-12T16:56:58Z</time></trkpt><trkpt lat="42.06110191598755" lon="12.763425519626482"><ele>255.0</ele><time>2026-04-12T16:57:00Z</time></trkpt><trkpt lat="42.0611643636984" lon="12.763209286542375"><ele>254.0</ele><time>2026-04-12T16:57:01Z</time></trkpt><trkpt lat="42.06124395536576" lon="12.762958902007364"><ele>253.0</ele><time>2026-04-12T16:57:02Z</time></trkpt><trkpt lat="42.06129646807268" lon="12.76272088050054"><ele>252.0</ele><time>2026-04-12T16:57:03Z</time></trkpt><trkpt lat="42.061303754880434" lon="12.762507962803596"><ele>251.2</ele><time>2026-04-12T16:57:04Z</time></trkpt><trkpt lat="42.061290136299874" lon="12.762324186231691"><ele>250.39999999999998</ele><time>2026-04-12T16:57:05Z</time></trkpt><trkpt lat="42.06126651164276" lon="12.762184573555128"><ele>249.60000000000002</ele><time>2026-04-12T16:57:06Z</time></trkpt><trkpt lat="42.06125795489338" lon="12.762089237987702"><ele>248.8</ele><time>2026-04-12T16:57:07Z</time></trkpt><trkpt lat="42.061274172943385" lon="12.762003594728403"><ele>248.0</ele><time>2026-04-12T16:57:08Z</time></trkpt><trkpt lat="42.061363545322436" lon="12.761921481090381"><ele>248.0</ele><time>2026-04-12T16:57:09Z</time></trkpt><trkpt lat="42.061407783415284" lon="12.761807285790374"><ele>248.0</ele><time>2026-04-12T16:57:10Z</time></trkpt><trkpt lat="42.06151516078912" lon="12.76174716163913"><ele>248.0</ele><time>2026-04-12T16:57:11Z</time></trkpt><trkpt lat="42.06165953717008" lon="12.761639627672164"><ele>248.0</ele><time>2026-04-12T16:57:12Z</time></trkpt><trkpt lat="42.061809142159156" lon="12.76165306440146"><ele>244.5</ele><time>2026-04-12T16:57:13Z</time></trkpt><trkpt lat="42.061896255498446" lon="12.761506626851174"><ele>241.0</ele><time>2026-04-12T16:57:14Z</time></trkpt><trkpt lat="42.06199400163364" lon="12.761349639023067"><ele>237.5</ele><time>2026-04-12T16:57:15Z</time></trkpt><trkpt lat="42.062071537252926" lon="12.761165192944752"><ele>234.0</ele><time>2026-04-12T16:57:16Z</time></trkpt><trkpt lat="42.06214035476504" lon="12.760947266394629"><ele>234.0</ele><time>2026-04-12T16:57:17Z</time></trkpt><trkpt lat="42.062180720092556" lon="12.760701653813102"><ele>234.0</ele><time>2026-04-12T16:57:18Z</time></trkpt><trkpt lat="42.062181224138655" lon="12.76042901972334"><ele>234.0</ele><time>2026-04-12T16:57:19Z</time></trkpt><trkpt lat="42.06215897571521" lon="12.760166652129154"><ele>230.66666666666669</ele><time>2026-04-12T16:57:20Z</time></trkpt><trkpt lat="42.06213399143154" lon="12.759932075900844"><ele>227.33333333333334</ele><time>2026-04-12T16:57:21Z</time></trkpt><trkpt lat="42.06209608337121" lon="12.759713371934357"><ele>224.0</ele><time>2026-04-12T16:57:22Z</time></trkpt><trkpt lat="42.06199006334638" lon="12.75948101541333"><ele>224.66666666666669</ele><time>2026-04-12T16:57:23Z</time></trkpt><trkpt lat="42.061850435206466" lon="12.759293842063958"><ele>225.33333333333331</ele><time>2026-04-12T16:57:24Z</time></trkpt><trkpt lat="42.061724456241535" lon="12.759120850735894"><ele>226.0</ele><time>2026-04-12T16:57:25Z</time></trkpt><trkpt lat="42.06161164898787" lon="12.758962517007339"><ele>226.0</ele><time>2026-04-12T16:57:26Z</time></trkpt><trkpt lat="42.061512865830416" lon="12.758800794022816"><ele>226.0</ele><time>2026-04-12T16:57:26.999Z</time></trkpt><trkpt lat="42.06146226715533" lon="12.758640169805858"><ele>226.0</ele><time>2026-04-12T16:57:27.999Z</time></trkpt><trkpt lat="42.061429737995695" lon="12.758432622622385"><ele>226.0</ele><time>2026-04-12T16:57:28.999Z</time></trkpt><trkpt lat="42.06141552262614" lon="12.758169615749901"><ele>224.0</ele><time>2026-04-12T16:57:29.999Z</time></trkpt><trkpt lat="42.061394977171645" lon="12.757894213520444"><ele>222.0</ele><time>2026-04-12T16:57:30.999Z</time></trkpt><trkpt lat="42.061365312205304" lon="12.7576026274469"><ele>220.0</ele><time>2026-04-12T16:57:31.999Z</time></trkpt><trkpt lat="42.06133597065358" lon="12.757327731848134"><ele>216.33333333333331</ele><time>2026-04-12T16:57:32.999Z</time></trkpt><trkpt lat="42.0613096679943" lon="12.757048314661482"><ele>212.66666666666669</ele><time>2026-04-12T16:57:33.999Z</time></trkpt><trkpt lat="42.06130279946133" lon="12.756813504026317"><ele>209.0</ele><time>2026-04-12T16:57:34.999Z</time></trkpt><trkpt lat="42.06130765179607" lon="12.756584451237964"><ele>209.66666666666669</ele><time>2026-04-12T16:57:35.999Z</time></trkpt><trkpt lat="42.061341367319876" lon="12.756354395768959"><ele>210.33333333333331</ele><time>2026-04-12T16:57:36.999Z</time></trkpt><trkpt lat="42.061399380497306" lon="12.756125126845976"><ele>211.0</ele><time>2026-04-12T16:57:37.999Z</time></trkpt><trkpt lat="42.06147125571733" lon="12.755912038178575"><ele>211.0</ele><time>2026-04-12T16:57:38.999Z</time></trkpt><trkpt lat="42.061539217305324" lon="12.755703544017365"><ele>211.0</ele><time>2026-04-12T16:57:39.999Z</time></trkpt><trkpt lat="42.06161218091978" lon="12.75547970780327"><ele>211.0</ele><time>2026-04-12T16:57:40.999Z</time></trkpt><trkpt lat="42.061681604919286" lon="12.755256494313114"><ele>207.33333333333331</ele><time>2026-04-12T16:57:41.999Z</time></trkpt><trkpt lat="42.06174368473579" lon="12.755010970935674"><ele>203.66666666666669</ele><time>2026-04-12T16:57:42.999Z</time></trkpt><trkpt lat="42.06180172963801" lon="12.754756396711896"><ele>200.0</ele><time>2026-04-12T16:57:43.999Z</time></trkpt><trkpt lat="42.06184366269632" lon="12.75451244698099"><ele>201.0</ele><time>2026-04-12T16:57:44.999Z</time></trkpt><trkpt lat="42.06189889597001" lon="12.754276292696671"><ele>202.0</ele><time>2026-04-12T16:57:45.999Z</time></trkpt><trkpt lat="42.06193970049074" lon="12.754047923571008"><ele>203.0</ele><time>2026-04-12T16:57:46.999Z</time></trkpt><trkpt lat="42.06198678682716" lon="12.753795090617698"><ele>203.0</ele><time>2026-04-12T16:57:47.999Z</time></trkpt><trkpt lat="42.062022754880566" lon="12.753561723606799"><ele>203.0</ele><time>2026-04-12T16:57:48.999Z</time></trkpt><trkpt lat="42.06205102095715" lon="12.75332086687596"><ele>203.0</ele><time>2026-04-12T16:57:49.999Z</time></trkpt><trkpt lat="42.062060554964" lon="12.753079934091623"><ele>203.66666666666669</ele><time>2026-04-12T16:57:50.999Z</time></trkpt><trkpt lat="42.06204873963841" lon="12.752837755441286"><ele>204.33333333333331</ele><time>2026-04-12T16:57:51.999Z</time></trkpt><trkpt lat="42.06202702505271" lon="12.752603679174959"><ele>205.0</ele><time>2026-04-12T16:57:52.999Z</time></trkpt><trkpt lat="42.06200322025274" lon="12.752368246630487"><ele>205.0</ele><time>2026-04-12T16:57:53.999Z</time></trkpt><trkpt lat="42.06197887199815" lon="12.75213127947371"><ele>205.0</ele><time>2026-04-12T16:57:54.999Z</time></trkpt><trkpt lat="42.061953050222286" lon="12.751891445932019"><ele>205.0</ele><time>2026-04-12T16:57:55.999Z</time></trkpt><trkpt lat="42.06192587043176" lon="12.751681227125898"><ele>206.0</ele><time>2026-04-12T16:57:57Z</time></trkpt><trkpt lat="42.061900056377304" lon="12.751497439168867"><ele>207.0</ele><time>2026-04-12T16:57:58Z</time></trkpt><trkpt lat="42.061873592119845" lon="12.751312013387107"><ele>208.0</ele><time>2026-04-12T16:57:59Z</time></trkpt><trkpt lat="42.06184937231388" lon="12.751160663501409"><ele>209.0</ele><time>2026-04-12T16:58:00Z</time></trkpt><trkpt lat="42.061830692517944" lon="12.751060124990671"><ele>210.25</ele><time>2026-04-12T16:58:01Z</time></trkpt><trkpt lat="42.061931814818124" lon="12.750901091253482"><ele>211.5</ele><time>2026-04-12T16:58:03Z</time></trkpt><trkpt lat="42.0620302490968" lon="12.750826973041953"><ele>212.75</ele><time>2026-04-12T16:58:04Z</time></trkpt><trkpt lat="42.062109743463864" lon="12.750754857410854"><ele>214.0</ele><time>2026-04-12T16:58:05Z</time></trkpt><trkpt lat="42.06219769604949" lon="12.750657127436924"><ele>214.0</ele><time>2026-04-12T16:58:06Z</time></trkpt><trkpt lat="42.062273926984346" lon="12.750570276259907"><ele>213.99999999999997</ele><time>2026-04-12T16:58:07Z</time></trkpt><trkpt lat="42.06237959734732" lon="12.75049777352792"><ele>213.99999999999997</ele><time>2026-04-12T16:58:08Z</time></trkpt><trkpt lat="42.06247858534639" lon="12.750428042839069"><ele>214.0</ele><time>2026-04-12T16:58:09Z</time></trkpt><trkpt lat="42.062571435392826" lon="12.75041554775014"><ele>214.0</ele><time>2026-04-12T16:58:10Z</time></trkpt><trkpt lat="42.062670987666635" lon="12.7504101445807"><ele>214.0</ele><time>2026-04-12T16:58:11Z</time></trkpt><trkpt lat="42.06279907120197" lon="12.750433522673303"><ele>214.0</ele><time>2026-04-12T16:58:12Z</time></trkpt><trkpt lat="42.06291041928058" lon="12.75044681486396"><ele>214.0</ele><time>2026-04-12T16:58:13Z</time></trkpt><trkpt lat="42.06302293884215" lon="12.750451956853333"><ele>214.0</ele><time>2026-04-12T16:58:14Z</time></trkpt><trkpt lat="42.063121225682245" lon="12.750436288164858"><ele>213.99999999999997</ele><time>2026-04-12T16:58:15Z</time></trkpt><trkpt lat="42.06321374897499" lon="12.750415478762227"><ele>214.0</ele><time>2026-04-12T16:58:16Z</time></trkpt><trkpt lat="42.063285191634755" lon="12.750382109114343"><ele>214.0</ele><time>2026-04-12T16:58:17Z</time></trkpt><trkpt lat="42.063343135094854" lon="12.750344781153101"><ele>214.0</ele><time>2026-04-12T16:58:18Z</time></trkpt><trkpt lat="42.06341373435075" lon="12.750303494946932"><ele>213.99999999999997</ele><time>2026-04-12T16:58:19Z</time></trkpt><trkpt lat="42.06347638548644" lon="12.750258409017007"><ele>214.0</ele><time>2026-04-12T16:58:20Z</time></trkpt><trkpt lat="42.06354602092185" lon="12.750183576848455"><ele>217.5</ele><time>2026-04-12T16:58:21Z</time></trkpt><trkpt lat="42.063617753478006" lon="12.75007334762492"><ele>221.0</ele><time>2026-04-12T16:58:22Z</time></trkpt><trkpt lat="42.063679668697816" lon="12.749936096309066"><ele>224.5</ele><time>2026-04-12T16:58:23Z</time></trkpt><trkpt lat="42.063738442807185" lon="12.749836092658294"><ele>228.0</ele><time>2026-04-12T16:58:24Z</time></trkpt><trkpt lat="42.06378498099847" lon="12.749661356484488"><ele>228.0</ele><time>2026-04-12T16:58:25Z</time></trkpt><trkpt lat="42.06388854315751" lon="12.749502648164144"><ele>228.0</ele><time>2026-04-12T16:58:26Z</time></trkpt><trkpt lat="42.06396746670802" lon="12.749408125848655"><ele>228.0</ele><time>2026-04-12T16:58:27Z</time></trkpt><trkpt lat="42.064047864282905" lon="12.749307602849608"><ele>228.0</ele><time>2026-04-12T16:58:28Z</time></trkpt><trkpt lat="42.06410525213955" lon="12.74923658919668"><ele>226.4</ele><time>2026-04-12T16:58:29Z</time></trkpt><trkpt lat="42.064166288635334" lon="12.749104920680647"><ele>224.8</ele><time>2026-04-12T16:58:30Z</time></trkpt><trkpt lat="42.06420831680641" lon="12.748985738781888"><ele>223.2</ele><time>2026-04-12T16:58:31Z</time></trkpt><trkpt lat="42.064270120827345" lon="12.74885456088882"><ele>221.6</ele><time>2026-04-12T16:58:32Z</time></trkpt><trkpt lat="42.0642868631662" lon="12.748743183378084"><ele>220.0</ele><time>2026-04-12T16:58:33Z</time></trkpt><trkpt lat="42.06431746397453" lon="12.748636730242108"><ele>220.0</ele><time>2026-04-12T16:58:35Z</time></trkpt><trkpt lat="42.06434687862606" lon="12.748554473828722"><ele>220.0</ele><time>2026-04-12T16:58:38Z</time></trkpt><trkpt lat="42.06442456121519" lon="12.748426515780647"><ele>220.0</ele><time>2026-04-12T16:58:41Z</time></trkpt><trkpt lat="42.06449057649138" lon="12.748341827131629"><ele>220.0</ele><time>2026-04-12T16:58:42Z</time></trkpt><trkpt lat="42.06458752126725" lon="12.748279998286975"><ele>220.0</ele><time>2026-04-12T16:58:43Z</time></trkpt><trkpt lat="42.064665911985344" lon="12.748187662094866"><ele>218.6</ele><time>2026-04-12T16:58:44Z</time></trkpt><trkpt lat="42.06474295625668" lon="12.748087362088452"><ele>217.2</ele><time>2026-04-12T16:58:45Z</time></trkpt><trkpt lat="42.0648098385043" lon="12.74799179925119"><ele>215.8</ele><time>2026-04-12T16:58:46Z</time></trkpt><trkpt lat="42.064872180227205" lon="12.747893190602584"><ele>214.4</ele><time>2026-04-12T16:58:47Z</time></trkpt><trkpt lat="42.06492475248845" lon="12.74780825257305"><ele>213.0</ele><time>2026-04-12T16:58:48Z</time></trkpt><trkpt lat="42.06496478699608" lon="12.74772213182864"><ele>211.60000000000002</ele><time>2026-04-12T16:58:49Z</time></trkpt><trkpt lat="42.06501099946067" lon="12.747651692135117"><ele>210.20000000000002</ele><time>2026-04-12T16:58:50Z</time></trkpt><trkpt lat="42.06505375063448" lon="12.7475464163538"><ele>208.8</ele><time>2026-04-12T16:58:51Z</time></trkpt><trkpt lat="42.065079164944734" lon="12.747379479178564"><ele>207.4</ele><time>2026-04-12T16:58:52Z</time></trkpt><trkpt lat="42.06507999177824" lon="12.747210972413207"><ele>206.0</ele><time>2026-04-12T16:58:53Z</time></trkpt><trkpt lat="42.065091973641465" lon="12.747058656615742"><ele>206.0</ele><time>2026-04-12T16:58:54Z</time></trkpt><trkpt lat="42.06512301163815" lon="12.746922952799075"><ele>206.0</ele><time>2026-04-12T16:58:55Z</time></trkpt><trkpt lat="42.0651515858557" lon="12.74680292534909"><ele>206.0</ele><time>2026-04-12T16:58:56Z</time></trkpt><trkpt lat="42.06517346960115" lon="12.746658339896275"><ele>206.0</ele><time>2026-04-12T16:58:57Z</time></trkpt><trkpt lat="42.065173562382796" lon="12.746507113622187"><ele>206.0</ele><time>2026-04-12T16:58:58Z</time></trkpt><trkpt lat="42.065170314610775" lon="12.746364320758351"><ele>205.20000000000002</ele><time>2026-04-12T16:58:59Z</time></trkpt><trkpt lat="42.06516677109692" lon="12.74621920285817"><ele>204.4</ele><time>2026-04-12T16:59:00Z</time></trkpt><trkpt lat="42.06516278723833" lon="12.746056049173871"><ele>203.6</ele><time>2026-04-12T16:59:01Z</time></trkpt><trkpt lat="42.065159217689455" lon="12.745909863962842"><ele>202.8</ele><time>2026-04-12T16:59:02Z</time></trkpt><trkpt lat="42.06514308129774" lon="12.74577727942912"><ele>202.0</ele><time>2026-04-12T16:59:03Z</time></trkpt><trkpt lat="42.06514857603621" lon="12.745604187628551"><ele>200.8</ele><time>2026-04-12T16:59:04Z</time></trkpt><trkpt lat="42.06516356121419" lon="12.745441189881637"><ele>199.6</ele><time>2026-04-12T16:59:05Z</time></trkpt><trkpt lat="42.0651712282612" lon="12.745299149059163"><ele>198.4</ele><time>2026-04-12T16:59:06Z</time></trkpt><trkpt lat="42.06518705359795" lon="12.745171015692481"><ele>197.20000000000002</ele><time>2026-04-12T16:59:07Z</time></trkpt><trkpt lat="42.06522080921431" lon="12.745014428481557"><ele>196.0</ele><time>2026-04-12T16:59:08Z</time></trkpt><trkpt lat="42.065251119531574" lon="12.744871337455951"><ele>194.66666666666666</ele><time>2026-04-12T16:59:09Z</time></trkpt><trkpt lat="42.06530678709078" lon="12.744779120051332"><ele>193.33333333333331</ele><time>2026-04-12T16:59:10Z</time></trkpt><trkpt lat="42.0653554679993" lon="12.744704758084977"><ele>192.0</ele><time>2026-04-12T16:59:11Z</time></trkpt><trkpt lat="42.065384439227316" lon="12.74462885225639"><ele>190.66666666666666</ele><time>2026-04-12T16:59:12Z</time></trkpt><trkpt lat="42.06540619208247" lon="12.744454479592742"><ele>189.33333333333331</ele><time>2026-04-12T16:59:14Z</time></trkpt><trkpt lat="42.065386889462985" lon="12.744339798406953"><ele>188.0</ele><time>2026-04-12T16:59:15Z</time></trkpt><trkpt lat="42.06537162913864" lon="12.744227302867968"><ele>186.2</ele><time>2026-04-12T16:59:17Z</time></trkpt><trkpt lat="42.065358800354396" lon="12.744043681789337"><ele>184.4</ele><time>2026-04-12T16:59:19Z</time></trkpt><trkpt lat="42.06534918786933" lon="12.74393877097699"><ele>182.6</ele><time>2026-04-12T16:59:20Z</time></trkpt><trkpt lat="42.06533953055484" lon="12.74383337042809"><ele>180.79999999999998</ele><time>2026-04-12T16:59:21Z</time></trkpt><trkpt lat="42.06532857273843" lon="12.743707036554138"><ele>179.0</ele><time>2026-04-12T16:59:22Z</time></trkpt><trkpt lat="42.065320064726414" lon="12.743584502201662"><ele>177.16666666666666</ele><time>2026-04-12T16:59:23Z</time></trkpt><trkpt lat="42.06531475506456" lon="12.74347053892924"><ele>175.33333333333331</ele><time>2026-04-12T16:59:24Z</time></trkpt><trkpt lat="42.06531694140295" lon="12.743360587639549"><ele>173.5</ele><time>2026-04-12T16:59:25Z</time></trkpt><trkpt lat="42.06533965817567" lon="12.743261700308935"><ele>171.66666666666666</ele><time>2026-04-12T16:59:26Z</time></trkpt><trkpt lat="42.06537611566699" lon="12.743144857476048"><ele>169.83333333333334</ele><time>2026-04-12T16:59:27Z</time></trkpt><trkpt lat="42.06541791446662" lon="12.743005660934735"><ele>168.0</ele><time>2026-04-12T16:59:28Z</time></trkpt><trkpt lat="42.06549778636558" lon="12.742850674852376"><ele>168.0</ele><time>2026-04-12T16:59:28.999Z</time></trkpt><trkpt lat="42.06557004613202" lon="12.742726039708138"><ele>168.0</ele><time>2026-04-12T16:59:29.999Z</time></trkpt><trkpt lat="42.06563496360624" lon="12.742622804839009"><ele>168.0</ele><time>2026-04-12T16:59:30.999Z</time></trkpt><trkpt lat="42.06572155673769" lon="12.74251083909885"><ele>168.0</ele><time>2026-04-12T16:59:31.999Z</time></trkpt><trkpt lat="42.065814331052366" lon="12.742408596074874"><ele>166.4</ele><time>2026-04-12T16:59:32.999Z</time></trkpt><trkpt lat="42.06590808061736" lon="12.742322335396524"><ele>164.8</ele><time>2026-04-12T16:59:33.999Z</time></trkpt><trkpt lat="42.06598329306795" lon="12.74224312625686"><ele>163.2</ele><time>2026-04-12T16:59:34.999Z</time></trkpt><trkpt lat="42.0660436787728" lon="12.742160036233912"><ele>161.6</ele><time>2026-04-12T16:59:35.999Z</time></trkpt><trkpt lat="42.066096121157365" lon="12.74207632603973"><ele>160.0</ele><time>2026-04-12T16:59:36.999Z</time></trkpt><trkpt lat="42.066148160376464" lon="12.74199781514006"><ele>160.0</ele><time>2026-04-12T16:59:37.999Z</time></trkpt><trkpt lat="42.066213504224436" lon="12.741902117851259"><ele>160.0</ele><time>2026-04-12T16:59:39.999Z</time></trkpt><trkpt lat="42.066271155134444" lon="12.741949793945407"><ele>160.0</ele><time>2026-04-12T17:00:21Z</time></trkpt><trkpt lat="42.06628448815588" lon="12.742058615664947"><ele>160.0</ele><time>2026-04-12T17:00:25Z</time></trkpt><trkpt lat="42.06630590434507" lon="12.742154758078959"><ele>160.0</ele><time>2026-04-12T17:00:29.047Z</time></trkpt><trkpt lat="42.06632233479431" lon="12.742246223299373"><ele>160.0</ele><time>2026-04-12T17:00:33.033Z</time></trkpt><trkpt lat="42.06639159047425" lon="12.742520940789642"><ele>153.0</ele><time>2026-04-12T17:00:47.442Z</time></trkpt><trkpt lat="42.066158365265316" lon="12.741567368755724"><ele>151.0</ele><time>2026-04-12T17:02:54.169Z</time></trkpt><trkpt lat="42.066848875289644" lon="12.741728154926806"><ele>151.0</ele><time>2026-04-12T17:03:29.014Z</time></trkpt><trkpt lat="42.06687828807612" lon="12.741815207812362"><ele>151.0</ele><time>2026-04-12T17:03:32.01Z</time></trkpt><trkpt lat="42.06692251097689" lon="12.741892828364534"><ele>151.0</ele><time>2026-04-12T17:03:35.013Z</time></trkpt><trkpt lat="42.06694415541453" lon="12.741711891069096"><ele>151.0</ele><time>2026-04-12T17:03:36.015Z</time></trkpt><trkpt lat="42.0671190957105" lon="12.741774764516917"><ele>151.0</ele><time>2026-04-12T17:03:45.013Z</time></trkpt><trkpt lat="42.06716361069868" lon="12.741879339015195"><ele>151.0</ele><time>2026-04-12T17:03:47.013Z</time></trkpt><trkpt lat="42.0669945748807" lon="12.741573386207477"><ele>151.0</ele><time>2026-04-12T17:04:18.014Z</time></trkpt><trkpt lat="42.06698580179473" lon="12.741485113294512"><ele>151.0</ele><time>2026-04-12T17:04:19.019Z</time></trkpt><trkpt lat="42.06691714139892" lon="12.741540997014253"><ele>151.0</ele><time>2026-04-12T17:04:32Z</time></trkpt><trkpt lat="42.06686462970972" lon="12.741619129073756"><ele>151.0</ele><time>2026-04-12T17:04:34Z</time></trkpt><trkpt lat="42.06680822778663" lon="12.74168715088026"><ele>151.0</ele><time>2026-04-12T17:04:37Z</time></trkpt><trkpt lat="42.066763151475904" lon="12.741579366784345"><ele>151.0</ele><time>2026-04-12T17:06:09.999Z</time></trkpt><trkpt lat="42.06675555905768" lon="12.741494016161534"><ele>151.0</ele><time>2026-04-12T17:06:11.999Z</time></trkpt><trkpt lat="42.06681351770346" lon="12.741579262273564"><ele>151.0</ele><time>2026-04-12T17:06:15.999Z</time></trkpt><trkpt lat="42.066850238578986" lon="12.741670772046403"><ele>151.0</ele><time>2026-04-12T17:06:17.999Z</time></trkpt><trkpt lat="42.06691477042069" lon="12.74171759736649"><ele>151.0</ele><time>2026-04-12T17:07:34Z</time></trkpt><trkpt lat="42.06695586370937" lon="12.741782554461581"><ele>151.0</ele><time>2026-04-12T17:08:02.999Z</time></trkpt></trkseg></trk></gpx>